<?xml version="1.0" encoding="UTF-8" standalone="no" ?>
<gpx xmlns="http://www.topografix.com/GPX/1/1" xmlns:xsi="http://www.w3.org/2001/XMLSchema-instance" xsi:schemaLocation="http://www.topografix.com/GPX/1/1 http://www.topografix.com/GPX/1/1/gpx.xsd" version="1.1" creator="VisuGPX - https://www.visugpx.com">
  <metadata>
    <name>Pornichet 02/12/2021</name>
    <desc><![CDATA[Sortie vtt jeudi 02 décembre 2021]]></desc>
  </metadata>
  <trk>
    <name><![CDATA[Pornichet Cyclisme]]></name>
    <trkseg>
      <trkpt lat="47.26414" lon="-2.31565">
        <ele>9.9</ele>
        <time>2021-12-02T08:16:28.000Z</time>
      </trkpt>
      <trkpt lat="47.26414" lon="-2.31569">
        <ele>9.9</ele>
        <time>2021-12-02T08:16:29.000Z</time>
      </trkpt>
      <trkpt lat="47.26412" lon="-2.31576">
        <ele>9.8</ele>
        <time>2021-12-02T08:16:31.000Z</time>
      </trkpt>
      <trkpt lat="47.26411" lon="-2.3158">
        <ele>9.8</ele>
        <time>2021-12-02T08:16:32.000Z</time>
      </trkpt>
      <trkpt lat="47.26411" lon="-2.31585">
        <ele>0.20000000298023</ele>
        <time>2021-12-02T08:16:33.000Z</time>
      </trkpt>
      <trkpt lat="47.26411" lon="-2.31589">
        <ele>0.20000000298023</ele>
        <time>2021-12-02T08:16:34.000Z</time>
      </trkpt>
      <trkpt lat="47.2641" lon="-2.31608">
        <ele>0.20000000298023</ele>
        <time>2021-12-02T08:16:38.000Z</time>
      </trkpt>
      <trkpt lat="47.26411" lon="-2.31642">
        <ele>0.20000000298023</ele>
        <time>2021-12-02T08:16:44.000Z</time>
      </trkpt>
      <trkpt lat="47.26409" lon="-2.31667">
        <ele>0.20000000298023</ele>
        <time>2021-12-02T08:16:49.000Z</time>
      </trkpt>
      <trkpt lat="47.26395" lon="-2.31671">
        <ele>0.20000000298023</ele>
        <time>2021-12-02T08:16:53.000Z</time>
      </trkpt>
      <trkpt lat="47.2638" lon="-2.3168">
        <ele>-0.20000000298023</ele>
        <time>2021-12-02T08:16:57.000Z</time>
      </trkpt>
      <trkpt lat="47.26376" lon="-2.31682">
        <ele>-0.60000002384186</ele>
        <time>2021-12-02T08:16:58.000Z</time>
      </trkpt>
      <trkpt lat="47.26371" lon="-2.31685">
        <ele>-1</ele>
        <time>2021-12-02T08:16:59.000Z</time>
      </trkpt>
      <trkpt lat="47.26367" lon="-2.31687">
        <ele>-1.3999999761581</ele>
        <time>2021-12-02T08:17:00.000Z</time>
      </trkpt>
      <trkpt lat="47.26363" lon="-2.31689">
        <ele>-1.7999999523163</ele>
        <time>2021-12-02T08:17:01.000Z</time>
      </trkpt>
      <trkpt lat="47.26335" lon="-2.31703">
        <ele>-1.7999999523163</ele>
        <time>2021-12-02T08:17:07.000Z</time>
      </trkpt>
      <trkpt lat="47.26317" lon="-2.31713">
        <ele>-2.4000000953674</ele>
        <time>2021-12-02T08:17:11.000Z</time>
      </trkpt>
      <trkpt lat="47.26313" lon="-2.31715">
        <ele>-2.7999999523163</ele>
        <time>2021-12-02T08:17:12.000Z</time>
      </trkpt>
      <trkpt lat="47.26309" lon="-2.31718">
        <ele>-3.2000000476837</ele>
        <time>2021-12-02T08:17:13.000Z</time>
      </trkpt>
      <trkpt lat="47.26305" lon="-2.31722">
        <ele>-3.5999999046326</ele>
        <time>2021-12-02T08:17:14.000Z</time>
      </trkpt>
      <trkpt lat="47.26302" lon="-2.31726">
        <ele>-4</ele>
        <time>2021-12-02T08:17:15.000Z</time>
      </trkpt>
      <trkpt lat="47.26299" lon="-2.31733">
        <ele>-4</ele>
        <time>2021-12-02T08:17:17.000Z</time>
      </trkpt>
      <trkpt lat="47.26299" lon="-2.31736">
        <ele>-4</ele>
        <time>2021-12-02T08:17:18.000Z</time>
      </trkpt>
      <trkpt lat="47.26302" lon="-2.31753">
        <ele>-4</ele>
        <time>2021-12-02T08:17:22.000Z</time>
      </trkpt>
      <trkpt lat="47.26304" lon="-2.31758">
        <ele>-4</ele>
        <time>2021-12-02T08:17:23.000Z</time>
      </trkpt>
      <trkpt lat="47.26304" lon="-2.31776">
        <ele>-4</ele>
        <time>2021-12-02T08:17:27.000Z</time>
      </trkpt>
      <trkpt lat="47.26307" lon="-2.31798">
        <ele>-4</ele>
        <time>2021-12-02T08:17:32.000Z</time>
      </trkpt>
      <trkpt lat="47.26306" lon="-2.31823">
        <ele>-4</ele>
        <time>2021-12-02T08:17:38.000Z</time>
      </trkpt>
      <trkpt lat="47.26304" lon="-2.3183">
        <ele>-4</ele>
        <time>2021-12-02T08:17:43.000Z</time>
      </trkpt>
      <trkpt lat="47.26303" lon="-2.31831">
        <ele>-4.4000000953674</ele>
        <time>2021-12-02T08:17:46.000Z</time>
      </trkpt>
      <trkpt lat="47.26302" lon="-2.31837">
        <ele>-6</ele>
        <time>2021-12-02T08:18:00.000Z</time>
      </trkpt>
      <trkpt lat="47.26301" lon="-2.31842">
        <ele>-6</ele>
        <time>2021-12-02T08:18:02.000Z</time>
      </trkpt>
      <trkpt lat="47.263" lon="-2.3187">
        <ele>-6</ele>
        <time>2021-12-02T08:18:08.000Z</time>
      </trkpt>
      <trkpt lat="47.26295" lon="-2.31888">
        <ele>-6</ele>
        <time>2021-12-02T08:18:13.000Z</time>
      </trkpt>
      <trkpt lat="47.26275" lon="-2.31914">
        <ele>-6</ele>
        <time>2021-12-02T08:18:21.000Z</time>
      </trkpt>
      <trkpt lat="47.26261" lon="-2.31938">
        <ele>-6</ele>
        <time>2021-12-02T08:18:27.000Z</time>
      </trkpt>
      <trkpt lat="47.26241" lon="-2.31964">
        <ele>-6</ele>
        <time>2021-12-02T08:18:34.000Z</time>
      </trkpt>
      <trkpt lat="47.26228" lon="-2.3198">
        <ele>-6</ele>
        <time>2021-12-02T08:18:39.000Z</time>
      </trkpt>
      <trkpt lat="47.26211" lon="-2.31995">
        <ele>-6</ele>
        <time>2021-12-02T08:18:44.000Z</time>
      </trkpt>
      <trkpt lat="47.26205" lon="-2.32002">
        <ele>-6</ele>
        <time>2021-12-02T08:18:47.000Z</time>
      </trkpt>
      <trkpt lat="47.26204" lon="-2.32005">
        <ele>-6</ele>
        <time>2021-12-02T08:18:48.000Z</time>
      </trkpt>
      <trkpt lat="47.26202" lon="-2.32014">
        <ele>-6</ele>
        <time>2021-12-02T08:18:51.000Z</time>
      </trkpt>
      <trkpt lat="47.26199" lon="-2.32016">
        <ele>-6</ele>
        <time>2021-12-02T08:18:53.000Z</time>
      </trkpt>
      <trkpt lat="47.26197" lon="-2.32016">
        <ele>-6</ele>
        <time>2021-12-02T08:18:54.000Z</time>
      </trkpt>
      <trkpt lat="47.26186" lon="-2.3202">
        <ele>-6</ele>
        <time>2021-12-02T08:18:58.000Z</time>
      </trkpt>
      <trkpt lat="47.26167" lon="-2.32033">
        <ele>-6</ele>
        <time>2021-12-02T08:19:04.000Z</time>
      </trkpt>
      <trkpt lat="47.26158" lon="-2.3205">
        <ele>-6</ele>
        <time>2021-12-02T08:19:08.000Z</time>
      </trkpt>
      <trkpt lat="47.26151" lon="-2.32068">
        <ele>-6</ele>
        <time>2021-12-02T08:19:13.000Z</time>
      </trkpt>
      <trkpt lat="47.26142" lon="-2.32097">
        <ele>-6</ele>
        <time>2021-12-02T08:19:19.000Z</time>
      </trkpt>
      <trkpt lat="47.26132" lon="-2.3213">
        <ele>-6</ele>
        <time>2021-12-02T08:19:25.000Z</time>
      </trkpt>
      <trkpt lat="47.26121" lon="-2.32157">
        <ele>-6</ele>
        <time>2021-12-02T08:19:30.000Z</time>
      </trkpt>
      <trkpt lat="47.26113" lon="-2.32175">
        <ele>-6</ele>
        <time>2021-12-02T08:19:33.000Z</time>
      </trkpt>
      <trkpt lat="47.26094" lon="-2.32213">
        <ele>-6</ele>
        <time>2021-12-02T08:19:40.000Z</time>
      </trkpt>
      <trkpt lat="47.26067" lon="-2.32249">
        <ele>-6</ele>
        <time>2021-12-02T08:19:48.000Z</time>
      </trkpt>
      <trkpt lat="47.26046" lon="-2.32274">
        <ele>-6</ele>
        <time>2021-12-02T08:19:54.000Z</time>
      </trkpt>
      <trkpt lat="47.26014" lon="-2.3231">
        <ele>-6</ele>
        <time>2021-12-02T08:20:03.000Z</time>
      </trkpt>
      <trkpt lat="47.25986" lon="-2.32345">
        <ele>-6</ele>
        <time>2021-12-02T08:20:11.000Z</time>
      </trkpt>
      <trkpt lat="47.25971" lon="-2.32364">
        <ele>-6</ele>
        <time>2021-12-02T08:20:15.000Z</time>
      </trkpt>
      <trkpt lat="47.25961" lon="-2.32378">
        <ele>-6</ele>
        <time>2021-12-02T08:20:18.000Z</time>
      </trkpt>
      <trkpt lat="47.25923" lon="-2.32427">
        <ele>-6</ele>
        <time>2021-12-02T08:20:29.000Z</time>
      </trkpt>
      <trkpt lat="47.25901" lon="-2.32456">
        <ele>-6</ele>
        <time>2021-12-02T08:20:36.000Z</time>
      </trkpt>
      <trkpt lat="47.25901" lon="-2.32461">
        <ele>-6</ele>
        <time>2021-12-02T08:20:37.000Z</time>
      </trkpt>
      <trkpt lat="47.25905" lon="-2.3247">
        <ele>-6</ele>
        <time>2021-12-02T08:20:39.000Z</time>
      </trkpt>
      <trkpt lat="47.25919" lon="-2.32483">
        <ele>-6</ele>
        <time>2021-12-02T08:20:43.000Z</time>
      </trkpt>
      <trkpt lat="47.25929" lon="-2.32505">
        <ele>-6</ele>
        <time>2021-12-02T08:20:47.000Z</time>
      </trkpt>
      <trkpt lat="47.25947" lon="-2.32561">
        <ele>-6</ele>
        <time>2021-12-02T08:20:56.000Z</time>
      </trkpt>
      <trkpt lat="47.25962" lon="-2.32617">
        <ele>-6</ele>
        <time>2021-12-02T08:21:05.000Z</time>
      </trkpt>
      <trkpt lat="47.25963" lon="-2.3264">
        <ele>-6</ele>
        <time>2021-12-02T08:21:09.000Z</time>
      </trkpt>
      <trkpt lat="47.25963" lon="-2.32646">
        <ele>-6</ele>
        <time>2021-12-02T08:21:10.000Z</time>
      </trkpt>
      <trkpt lat="47.2597" lon="-2.32656">
        <ele>-6</ele>
        <time>2021-12-02T08:21:13.000Z</time>
      </trkpt>
      <trkpt lat="47.25974" lon="-2.32655">
        <ele>-6</ele>
        <time>2021-12-02T08:21:14.000Z</time>
      </trkpt>
      <trkpt lat="47.25981" lon="-2.32655">
        <ele>-6</ele>
        <time>2021-12-02T08:21:16.000Z</time>
      </trkpt>
      <trkpt lat="47.25985" lon="-2.32656">
        <ele>-6</ele>
        <time>2021-12-02T08:21:17.000Z</time>
      </trkpt>
      <trkpt lat="47.25996" lon="-2.32657">
        <ele>-6</ele>
        <time>2021-12-02T08:21:20.000Z</time>
      </trkpt>
      <trkpt lat="47.26005" lon="-2.32656">
        <ele>-6</ele>
        <time>2021-12-02T08:21:22.000Z</time>
      </trkpt>
      <trkpt lat="47.26027" lon="-2.32653">
        <ele>-6</ele>
        <time>2021-12-02T08:21:27.000Z</time>
      </trkpt>
      <trkpt lat="47.26039" lon="-2.32653">
        <ele>-6</ele>
        <time>2021-12-02T08:21:30.000Z</time>
      </trkpt>
      <trkpt lat="47.26052" lon="-2.3265">
        <ele>-6</ele>
        <time>2021-12-02T08:21:33.000Z</time>
      </trkpt>
      <trkpt lat="47.26069" lon="-2.32647">
        <ele>-6</ele>
        <time>2021-12-02T08:21:37.000Z</time>
      </trkpt>
      <trkpt lat="47.26085" lon="-2.32643">
        <ele>-5.5999999046326</ele>
        <time>2021-12-02T08:21:41.000Z</time>
      </trkpt>
      <trkpt lat="47.26089" lon="-2.32642">
        <ele>-5.1999998092651</ele>
        <time>2021-12-02T08:21:42.000Z</time>
      </trkpt>
      <trkpt lat="47.26093" lon="-2.32642">
        <ele>-4.8000001907349</ele>
        <time>2021-12-02T08:21:43.000Z</time>
      </trkpt>
      <trkpt lat="47.26097" lon="-2.32641">
        <ele>-4.4000000953674</ele>
        <time>2021-12-02T08:21:44.000Z</time>
      </trkpt>
      <trkpt lat="47.26101" lon="-2.32641">
        <ele>-4</ele>
        <time>2021-12-02T08:21:45.000Z</time>
      </trkpt>
      <trkpt lat="47.26135" lon="-2.32641">
        <ele>-4</ele>
        <time>2021-12-02T08:21:53.000Z</time>
      </trkpt>
      <trkpt lat="47.26166" lon="-2.32651">
        <ele>-4</ele>
        <time>2021-12-02T08:22:00.000Z</time>
      </trkpt>
      <trkpt lat="47.26196" lon="-2.32676">
        <ele>-4</ele>
        <time>2021-12-02T08:22:08.000Z</time>
      </trkpt>
      <trkpt lat="47.26213" lon="-2.32695">
        <ele>-4</ele>
        <time>2021-12-02T08:22:13.000Z</time>
      </trkpt>
      <trkpt lat="47.26227" lon="-2.32712">
        <ele>-4</ele>
        <time>2021-12-02T08:22:17.000Z</time>
      </trkpt>
      <trkpt lat="47.2623" lon="-2.32717">
        <ele>-4</ele>
        <time>2021-12-02T08:22:18.000Z</time>
      </trkpt>
      <trkpt lat="47.2625" lon="-2.32746">
        <ele>-4</ele>
        <time>2021-12-02T08:22:24.000Z</time>
      </trkpt>
      <trkpt lat="47.26275" lon="-2.3279">
        <ele>-4</ele>
        <time>2021-12-02T08:22:32.000Z</time>
      </trkpt>
      <trkpt lat="47.26286" lon="-2.32825">
        <ele>-4</ele>
        <time>2021-12-02T08:22:38.000Z</time>
      </trkpt>
      <trkpt lat="47.26287" lon="-2.32831">
        <ele>-4</ele>
        <time>2021-12-02T08:22:39.000Z</time>
      </trkpt>
      <trkpt lat="47.26294" lon="-2.32857">
        <ele>-4</ele>
        <time>2021-12-02T08:22:43.000Z</time>
      </trkpt>
      <trkpt lat="47.26308" lon="-2.32864">
        <ele>-4</ele>
        <time>2021-12-02T08:22:46.000Z</time>
      </trkpt>
      <trkpt lat="47.26312" lon="-2.32867">
        <ele>-4</ele>
        <time>2021-12-02T08:22:47.000Z</time>
      </trkpt>
      <trkpt lat="47.26322" lon="-2.32881">
        <ele>-4</ele>
        <time>2021-12-02T08:22:50.000Z</time>
      </trkpt>
      <trkpt lat="47.26326" lon="-2.32894">
        <ele>-4</ele>
        <time>2021-12-02T08:22:52.000Z</time>
      </trkpt>
      <trkpt lat="47.26334" lon="-2.32919">
        <ele>-4</ele>
        <time>2021-12-02T08:22:56.000Z</time>
      </trkpt>
      <trkpt lat="47.2635" lon="-2.32967">
        <ele>-4</ele>
        <time>2021-12-02T08:23:04.000Z</time>
      </trkpt>
      <trkpt lat="47.26357" lon="-2.32977">
        <ele>-4</ele>
        <time>2021-12-02T08:23:06.000Z</time>
      </trkpt>
      <trkpt lat="47.26366" lon="-2.32991">
        <ele>-4</ele>
        <time>2021-12-02T08:23:09.000Z</time>
      </trkpt>
      <trkpt lat="47.26367" lon="-2.33012">
        <ele>-4</ele>
        <time>2021-12-02T08:23:12.000Z</time>
      </trkpt>
      <trkpt lat="47.26369" lon="-2.3306">
        <ele>-4.4000000953674</ele>
        <time>2021-12-02T08:23:19.000Z</time>
      </trkpt>
      <trkpt lat="47.26369" lon="-2.33067">
        <ele>-5.1999998092651</ele>
        <time>2021-12-02T08:23:20.000Z</time>
      </trkpt>
      <trkpt lat="47.26369" lon="-2.33073">
        <ele>-5.5999999046326</ele>
        <time>2021-12-02T08:23:21.000Z</time>
      </trkpt>
      <trkpt lat="47.2637" lon="-2.3308">
        <ele>-6</ele>
        <time>2021-12-02T08:23:22.000Z</time>
      </trkpt>
      <trkpt lat="47.26371" lon="-2.33101">
        <ele>-6</ele>
        <time>2021-12-02T08:23:25.000Z</time>
      </trkpt>
      <trkpt lat="47.26373" lon="-2.33127">
        <ele>-6</ele>
        <time>2021-12-02T08:23:29.000Z</time>
      </trkpt>
      <trkpt lat="47.26374" lon="-2.33154">
        <ele>-6</ele>
        <time>2021-12-02T08:23:33.000Z</time>
      </trkpt>
      <trkpt lat="47.26375" lon="-2.33167">
        <ele>-6</ele>
        <time>2021-12-02T08:23:35.000Z</time>
      </trkpt>
      <trkpt lat="47.26379" lon="-2.33232">
        <ele>-6</ele>
        <time>2021-12-02T08:23:45.000Z</time>
      </trkpt>
      <trkpt lat="47.26381" lon="-2.33245">
        <ele>-6</ele>
        <time>2021-12-02T08:23:47.000Z</time>
      </trkpt>
      <trkpt lat="47.26388" lon="-2.33262">
        <ele>-6</ele>
        <time>2021-12-02T08:23:50.000Z</time>
      </trkpt>
      <trkpt lat="47.26401" lon="-2.33268">
        <ele>-6</ele>
        <time>2021-12-02T08:23:53.000Z</time>
      </trkpt>
      <trkpt lat="47.2641" lon="-2.33269">
        <ele>-6</ele>
        <time>2021-12-02T08:23:55.000Z</time>
      </trkpt>
      <trkpt lat="47.26434" lon="-2.33271">
        <ele>-6</ele>
        <time>2021-12-02T08:24:00.000Z</time>
      </trkpt>
      <trkpt lat="47.26468" lon="-2.33278">
        <ele>-6</ele>
        <time>2021-12-02T08:24:08.000Z</time>
      </trkpt>
      <trkpt lat="47.26499" lon="-2.3328">
        <ele>-6</ele>
        <time>2021-12-02T08:24:15.000Z</time>
      </trkpt>
      <trkpt lat="47.26503" lon="-2.33282">
        <ele>-6</ele>
        <time>2021-12-02T08:24:16.000Z</time>
      </trkpt>
      <trkpt lat="47.26509" lon="-2.33285">
        <ele>-6</ele>
        <time>2021-12-02T08:24:19.000Z</time>
      </trkpt>
      <trkpt lat="47.26522" lon="-2.33291">
        <ele>-6</ele>
        <time>2021-12-02T08:24:23.000Z</time>
      </trkpt>
      <trkpt lat="47.26526" lon="-2.3329">
        <ele>-6</ele>
        <time>2021-12-02T08:24:24.000Z</time>
      </trkpt>
      <trkpt lat="47.26532" lon="-2.3329">
        <ele>-6</ele>
        <time>2021-12-02T08:24:26.000Z</time>
      </trkpt>
      <trkpt lat="47.26535" lon="-2.33295">
        <ele>-6</ele>
        <time>2021-12-02T08:24:29.000Z</time>
      </trkpt>
      <trkpt lat="47.26542" lon="-2.33296">
        <ele>-6</ele>
        <time>2021-12-02T08:24:32.000Z</time>
      </trkpt>
      <trkpt lat="47.26549" lon="-2.33288">
        <ele>-6</ele>
        <time>2021-12-02T08:24:34.000Z</time>
      </trkpt>
      <trkpt lat="47.26562" lon="-2.33273">
        <ele>-6</ele>
        <time>2021-12-02T08:24:38.000Z</time>
      </trkpt>
      <trkpt lat="47.2659" lon="-2.33245">
        <ele>-6</ele>
        <time>2021-12-02T08:24:45.000Z</time>
      </trkpt>
      <trkpt lat="47.26602" lon="-2.33234">
        <ele>-6</ele>
        <time>2021-12-02T08:24:48.000Z</time>
      </trkpt>
      <trkpt lat="47.26614" lon="-2.33221">
        <ele>-6</ele>
        <time>2021-12-02T08:24:51.000Z</time>
      </trkpt>
      <trkpt lat="47.26641" lon="-2.33193">
        <ele>-6</ele>
        <time>2021-12-02T08:24:58.000Z</time>
      </trkpt>
      <trkpt lat="47.26645" lon="-2.33189">
        <ele>-6</ele>
        <time>2021-12-02T08:24:59.000Z</time>
      </trkpt>
      <trkpt lat="47.26668" lon="-2.33167">
        <ele>-5.5999999046326</ele>
        <time>2021-12-02T08:25:05.000Z</time>
      </trkpt>
      <trkpt lat="47.26671" lon="-2.33163">
        <ele>-5.1999998092651</ele>
        <time>2021-12-02T08:25:06.000Z</time>
      </trkpt>
      <trkpt lat="47.26675" lon="-2.33159">
        <ele>-4.8000001907349</ele>
        <time>2021-12-02T08:25:07.000Z</time>
      </trkpt>
      <trkpt lat="47.26679" lon="-2.33155">
        <ele>-4.4000000953674</ele>
        <time>2021-12-02T08:25:08.000Z</time>
      </trkpt>
      <trkpt lat="47.26683" lon="-2.33151">
        <ele>-4</ele>
        <time>2021-12-02T08:25:09.000Z</time>
      </trkpt>
      <trkpt lat="47.26698" lon="-2.33137">
        <ele>-4</ele>
        <time>2021-12-02T08:25:13.000Z</time>
      </trkpt>
      <trkpt lat="47.26724" lon="-2.33109">
        <ele>-4</ele>
        <time>2021-12-02T08:25:20.000Z</time>
      </trkpt>
      <trkpt lat="47.26744" lon="-2.33091">
        <ele>-4</ele>
        <time>2021-12-02T08:25:26.000Z</time>
      </trkpt>
      <trkpt lat="47.26755" lon="-2.33086">
        <ele>-4</ele>
        <time>2021-12-02T08:25:31.000Z</time>
      </trkpt>
      <trkpt lat="47.26761" lon="-2.33096">
        <ele>-4</ele>
        <time>2021-12-02T08:25:34.000Z</time>
      </trkpt>
      <trkpt lat="47.26765" lon="-2.33114">
        <ele>-4</ele>
        <time>2021-12-02T08:25:37.000Z</time>
      </trkpt>
      <trkpt lat="47.26766" lon="-2.3312">
        <ele>-4</ele>
        <time>2021-12-02T08:25:38.000Z</time>
      </trkpt>
      <trkpt lat="47.26766" lon="-2.33127">
        <ele>-4</ele>
        <time>2021-12-02T08:25:39.000Z</time>
      </trkpt>
      <trkpt lat="47.26763" lon="-2.33145">
        <ele>-4</ele>
        <time>2021-12-02T08:25:42.000Z</time>
      </trkpt>
      <trkpt lat="47.26761" lon="-2.33156">
        <ele>-4</ele>
        <time>2021-12-02T08:25:44.000Z</time>
      </trkpt>
      <trkpt lat="47.26756" lon="-2.33176">
        <ele>-4</ele>
        <time>2021-12-02T08:25:49.000Z</time>
      </trkpt>
      <trkpt lat="47.26754" lon="-2.3318">
        <ele>-4</ele>
        <time>2021-12-02T08:25:51.000Z</time>
      </trkpt>
      <trkpt lat="47.26754" lon="-2.33179">
        <ele>-4</ele>
        <time>2021-12-02T08:25:53.000Z</time>
      </trkpt>
      <trkpt lat="47.26756" lon="-2.33175">
        <ele>-4</ele>
        <time>2021-12-02T08:25:56.000Z</time>
      </trkpt>
      <trkpt lat="47.26756" lon="-2.33169">
        <ele>-4</ele>
        <time>2021-12-02T08:25:58.000Z</time>
      </trkpt>
      <trkpt lat="47.26761" lon="-2.33152">
        <ele>-4</ele>
        <time>2021-12-02T08:26:02.000Z</time>
      </trkpt>
      <trkpt lat="47.26768" lon="-2.33117">
        <ele>-4</ele>
        <time>2021-12-02T08:26:08.000Z</time>
      </trkpt>
      <trkpt lat="47.26763" lon="-2.33093">
        <ele>-4</ele>
        <time>2021-12-02T08:26:13.000Z</time>
      </trkpt>
      <trkpt lat="47.26761" lon="-2.33091">
        <ele>-4</ele>
        <time>2021-12-02T08:26:14.000Z</time>
      </trkpt>
      <trkpt lat="47.26755" lon="-2.33089">
        <ele>-4</ele>
        <time>2021-12-02T08:26:17.000Z</time>
      </trkpt>
      <trkpt lat="47.2675" lon="-2.33092">
        <ele>-4</ele>
        <time>2021-12-02T08:26:21.000Z</time>
      </trkpt>
      <trkpt lat="47.26737" lon="-2.331">
        <ele>-4</ele>
        <time>2021-12-02T08:26:26.000Z</time>
      </trkpt>
      <trkpt lat="47.26726" lon="-2.33111">
        <ele>-4</ele>
        <time>2021-12-02T08:26:29.000Z</time>
      </trkpt>
      <trkpt lat="47.26713" lon="-2.33124">
        <ele>-4</ele>
        <time>2021-12-02T08:26:32.000Z</time>
      </trkpt>
      <trkpt lat="47.26676" lon="-2.33161">
        <ele>-4</ele>
        <time>2021-12-02T08:26:41.000Z</time>
      </trkpt>
      <trkpt lat="47.26648" lon="-2.33188">
        <ele>-4</ele>
        <time>2021-12-02T08:26:48.000Z</time>
      </trkpt>
      <trkpt lat="47.2662" lon="-2.33216">
        <ele>-4</ele>
        <time>2021-12-02T08:26:55.000Z</time>
      </trkpt>
      <trkpt lat="47.26605" lon="-2.33231">
        <ele>-4</ele>
        <time>2021-12-02T08:26:59.000Z</time>
      </trkpt>
      <trkpt lat="47.26594" lon="-2.33243">
        <ele>-4</ele>
        <time>2021-12-02T08:27:02.000Z</time>
      </trkpt>
      <trkpt lat="47.2659" lon="-2.33247">
        <ele>-4</ele>
        <time>2021-12-02T08:27:03.000Z</time>
      </trkpt>
      <trkpt lat="47.26571" lon="-2.33267">
        <ele>-4</ele>
        <time>2021-12-02T08:27:08.000Z</time>
      </trkpt>
      <trkpt lat="47.26552" lon="-2.33285">
        <ele>-4</ele>
        <time>2021-12-02T08:27:13.000Z</time>
      </trkpt>
      <trkpt lat="47.26545" lon="-2.33292">
        <ele>-4</ele>
        <time>2021-12-02T08:27:15.000Z</time>
      </trkpt>
      <trkpt lat="47.26538" lon="-2.33301">
        <ele>-4</ele>
        <time>2021-12-02T08:27:17.000Z</time>
      </trkpt>
      <trkpt lat="47.26532" lon="-2.33319">
        <ele>-4</ele>
        <time>2021-12-02T08:27:20.000Z</time>
      </trkpt>
      <trkpt lat="47.2653" lon="-2.33332">
        <ele>-4</ele>
        <time>2021-12-02T08:27:22.000Z</time>
      </trkpt>
      <trkpt lat="47.26529" lon="-2.33346">
        <ele>-4</ele>
        <time>2021-12-02T08:27:24.000Z</time>
      </trkpt>
      <trkpt lat="47.26529" lon="-2.33352">
        <ele>-4</ele>
        <time>2021-12-02T08:27:25.000Z</time>
      </trkpt>
      <trkpt lat="47.26535" lon="-2.33381">
        <ele>-4</ele>
        <time>2021-12-02T08:27:29.000Z</time>
      </trkpt>
      <trkpt lat="47.26537" lon="-2.33388">
        <ele>-4</ele>
        <time>2021-12-02T08:27:30.000Z</time>
      </trkpt>
      <trkpt lat="47.26547" lon="-2.33441">
        <ele>-4</ele>
        <time>2021-12-02T08:27:38.000Z</time>
      </trkpt>
      <trkpt lat="47.26554" lon="-2.33488">
        <ele>-4</ele>
        <time>2021-12-02T08:27:45.000Z</time>
      </trkpt>
      <trkpt lat="47.26557" lon="-2.33501">
        <ele>-4</ele>
        <time>2021-12-02T08:27:47.000Z</time>
      </trkpt>
      <trkpt lat="47.26562" lon="-2.33519">
        <ele>-4</ele>
        <time>2021-12-02T08:27:50.000Z</time>
      </trkpt>
      <trkpt lat="47.26568" lon="-2.33557">
        <ele>-4</ele>
        <time>2021-12-02T08:27:56.000Z</time>
      </trkpt>
      <trkpt lat="47.26575" lon="-2.33601">
        <ele>-4</ele>
        <time>2021-12-02T08:28:03.000Z</time>
      </trkpt>
      <trkpt lat="47.26579" lon="-2.33624">
        <ele>-4</ele>
        <time>2021-12-02T08:28:07.000Z</time>
      </trkpt>
      <trkpt lat="47.26581" lon="-2.33642">
        <ele>-3.5999999046326</ele>
        <time>2021-12-02T08:28:10.000Z</time>
      </trkpt>
      <trkpt lat="47.26582" lon="-2.33647">
        <ele>-3.2000000476837</ele>
        <time>2021-12-02T08:28:11.000Z</time>
      </trkpt>
      <trkpt lat="47.26582" lon="-2.33653">
        <ele>-2.5999999046326</ele>
        <time>2021-12-02T08:28:12.000Z</time>
      </trkpt>
      <trkpt lat="47.26583" lon="-2.33659">
        <ele>-2.2000000476837</ele>
        <time>2021-12-02T08:28:13.000Z</time>
      </trkpt>
      <trkpt lat="47.26585" lon="-2.33664">
        <ele>-1.7999999523163</ele>
        <time>2021-12-02T08:28:14.000Z</time>
      </trkpt>
      <trkpt lat="47.2659" lon="-2.33672">
        <ele>-1.7999999523163</ele>
        <time>2021-12-02T08:28:16.000Z</time>
      </trkpt>
      <trkpt lat="47.26603" lon="-2.33697">
        <ele>-1.7999999523163</ele>
        <time>2021-12-02T08:28:22.000Z</time>
      </trkpt>
      <trkpt lat="47.26609" lon="-2.33704">
        <ele>-1.3999999761581</ele>
        <time>2021-12-02T08:28:24.000Z</time>
      </trkpt>
      <trkpt lat="47.26611" lon="-2.33709">
        <ele>-1</ele>
        <time>2021-12-02T08:28:25.000Z</time>
      </trkpt>
      <trkpt lat="47.26614" lon="-2.33714">
        <ele>-0.60000002384186</ele>
        <time>2021-12-02T08:28:26.000Z</time>
      </trkpt>
      <trkpt lat="47.26616" lon="-2.33719">
        <ele>-0.20000000298023</ele>
        <time>2021-12-02T08:28:27.000Z</time>
      </trkpt>
      <trkpt lat="47.26619" lon="-2.33723">
        <ele>0.20000000298023</ele>
        <time>2021-12-02T08:28:28.000Z</time>
      </trkpt>
      <trkpt lat="47.26636" lon="-2.33753">
        <ele>0.20000000298023</ele>
        <time>2021-12-02T08:28:34.000Z</time>
      </trkpt>
      <trkpt lat="47.26651" lon="-2.33778">
        <ele>0.20000000298023</ele>
        <time>2021-12-02T08:28:39.000Z</time>
      </trkpt>
      <trkpt lat="47.26664" lon="-2.33797">
        <ele>0.20000000298023</ele>
        <time>2021-12-02T08:28:43.000Z</time>
      </trkpt>
      <trkpt lat="47.26674" lon="-2.33811">
        <ele>0.20000000298023</ele>
        <time>2021-12-02T08:28:46.000Z</time>
      </trkpt>
      <trkpt lat="47.26683" lon="-2.33826">
        <ele>0.20000000298023</ele>
        <time>2021-12-02T08:28:49.000Z</time>
      </trkpt>
      <trkpt lat="47.26689" lon="-2.33835">
        <ele>0.20000000298023</ele>
        <time>2021-12-02T08:28:51.000Z</time>
      </trkpt>
      <trkpt lat="47.26701" lon="-2.33855">
        <ele>0.20000000298023</ele>
        <time>2021-12-02T08:28:55.000Z</time>
      </trkpt>
      <trkpt lat="47.26704" lon="-2.33859">
        <ele>0.20000000298023</ele>
        <time>2021-12-02T08:28:56.000Z</time>
      </trkpt>
      <trkpt lat="47.2672" lon="-2.33882">
        <ele>0.20000000298023</ele>
        <time>2021-12-02T08:29:01.000Z</time>
      </trkpt>
      <trkpt lat="47.26741" lon="-2.33915">
        <ele>0.20000000298023</ele>
        <time>2021-12-02T08:29:08.000Z</time>
      </trkpt>
      <trkpt lat="47.26765" lon="-2.33952">
        <ele>0.20000000298023</ele>
        <time>2021-12-02T08:29:16.000Z</time>
      </trkpt>
      <trkpt lat="47.26783" lon="-2.33979">
        <ele>0.20000000298023</ele>
        <time>2021-12-02T08:29:22.000Z</time>
      </trkpt>
      <trkpt lat="47.26789" lon="-2.33989">
        <ele>0.60000002384186</ele>
        <time>2021-12-02T08:29:24.000Z</time>
      </trkpt>
      <trkpt lat="47.26792" lon="-2.33994">
        <ele>1</ele>
        <time>2021-12-02T08:29:25.000Z</time>
      </trkpt>
      <trkpt lat="47.26795" lon="-2.33999">
        <ele>1.3999999761581</ele>
        <time>2021-12-02T08:29:26.000Z</time>
      </trkpt>
      <trkpt lat="47.26798" lon="-2.34004">
        <ele>1.7999999523163</ele>
        <time>2021-12-02T08:29:27.000Z</time>
      </trkpt>
      <trkpt lat="47.26801" lon="-2.34009">
        <ele>2.2000000476837</ele>
        <time>2021-12-02T08:29:28.000Z</time>
      </trkpt>
      <trkpt lat="47.2681" lon="-2.34023">
        <ele>2.2000000476837</ele>
        <time>2021-12-02T08:29:31.000Z</time>
      </trkpt>
      <trkpt lat="47.26831" lon="-2.34055">
        <ele>2.2000000476837</ele>
        <time>2021-12-02T08:29:38.000Z</time>
      </trkpt>
      <trkpt lat="47.2685" lon="-2.34086">
        <ele>2.2000000476837</ele>
        <time>2021-12-02T08:29:44.000Z</time>
      </trkpt>
      <trkpt lat="47.26853" lon="-2.34091">
        <ele>2.2000000476837</ele>
        <time>2021-12-02T08:29:45.000Z</time>
      </trkpt>
      <trkpt lat="47.26876" lon="-2.34133">
        <ele>2.2000000476837</ele>
        <time>2021-12-02T08:29:53.000Z</time>
      </trkpt>
      <trkpt lat="47.26896" lon="-2.34163">
        <ele>2.2000000476837</ele>
        <time>2021-12-02T08:29:59.000Z</time>
      </trkpt>
      <trkpt lat="47.26926" lon="-2.34204">
        <ele>2.2000000476837</ele>
        <time>2021-12-02T08:30:08.000Z</time>
      </trkpt>
      <trkpt lat="47.26947" lon="-2.34239">
        <ele>2.2000000476837</ele>
        <time>2021-12-02T08:30:15.000Z</time>
      </trkpt>
      <trkpt lat="47.26972" lon="-2.34278">
        <ele>2.2000000476837</ele>
        <time>2021-12-02T08:30:23.000Z</time>
      </trkpt>
      <trkpt lat="47.2699" lon="-2.34309">
        <ele>2.2000000476837</ele>
        <time>2021-12-02T08:30:30.000Z</time>
      </trkpt>
      <trkpt lat="47.26993" lon="-2.34314">
        <ele>2.2000000476837</ele>
        <time>2021-12-02T08:30:34.000Z</time>
      </trkpt>
      <trkpt lat="47.27006" lon="-2.34318">
        <ele>2.2000000476837</ele>
        <time>2021-12-02T08:30:39.000Z</time>
      </trkpt>
      <trkpt lat="47.27031" lon="-2.34321">
        <ele>2.2000000476837</ele>
        <time>2021-12-02T08:30:45.000Z</time>
      </trkpt>
      <trkpt lat="47.27035" lon="-2.34323">
        <ele>2.2000000476837</ele>
        <time>2021-12-02T08:30:46.000Z</time>
      </trkpt>
      <trkpt lat="47.27043" lon="-2.34339">
        <ele>2.2000000476837</ele>
        <time>2021-12-02T08:30:49.000Z</time>
      </trkpt>
      <trkpt lat="47.27046" lon="-2.34352">
        <ele>2.2000000476837</ele>
        <time>2021-12-02T08:30:51.000Z</time>
      </trkpt>
      <trkpt lat="47.27053" lon="-2.34379">
        <ele>2.2000000476837</ele>
        <time>2021-12-02T08:30:55.000Z</time>
      </trkpt>
      <trkpt lat="47.27067" lon="-2.34441">
        <ele>2.2000000476837</ele>
        <time>2021-12-02T08:31:04.000Z</time>
      </trkpt>
      <trkpt lat="47.27076" lon="-2.3448">
        <ele>2.2000000476837</ele>
        <time>2021-12-02T08:31:10.000Z</time>
      </trkpt>
      <trkpt lat="47.27077" lon="-2.34487">
        <ele>2.2000000476837</ele>
        <time>2021-12-02T08:31:11.000Z</time>
      </trkpt>
      <trkpt lat="47.27081" lon="-2.34508">
        <ele>2.2000000476837</ele>
        <time>2021-12-02T08:31:14.000Z</time>
      </trkpt>
      <trkpt lat="47.27086" lon="-2.34528">
        <ele>2.2000000476837</ele>
        <time>2021-12-02T08:31:17.000Z</time>
      </trkpt>
      <trkpt lat="47.27088" lon="-2.34535">
        <ele>2.5999999046326</ele>
        <time>2021-12-02T08:31:18.000Z</time>
      </trkpt>
      <trkpt lat="47.27089" lon="-2.34542">
        <ele>3</ele>
        <time>2021-12-02T08:31:19.000Z</time>
      </trkpt>
      <trkpt lat="47.2709" lon="-2.34549">
        <ele>3.4000000953674</ele>
        <time>2021-12-02T08:31:20.000Z</time>
      </trkpt>
      <trkpt lat="47.27092" lon="-2.34556">
        <ele>3.7999999523163</ele>
        <time>2021-12-02T08:31:21.000Z</time>
      </trkpt>
      <trkpt lat="47.27093" lon="-2.34563">
        <ele>4.1999998092651</ele>
        <time>2021-12-02T08:31:22.000Z</time>
      </trkpt>
      <trkpt lat="47.27097" lon="-2.34576">
        <ele>4.1999998092651</ele>
        <time>2021-12-02T08:31:24.000Z</time>
      </trkpt>
      <trkpt lat="47.27108" lon="-2.34627">
        <ele>4.1999998092651</ele>
        <time>2021-12-02T08:31:31.000Z</time>
      </trkpt>
      <trkpt lat="47.27125" lon="-2.34701">
        <ele>4.1999998092651</ele>
        <time>2021-12-02T08:31:41.000Z</time>
      </trkpt>
      <trkpt lat="47.27137" lon="-2.34755">
        <ele>4.1999998092651</ele>
        <time>2021-12-02T08:31:49.000Z</time>
      </trkpt>
      <trkpt lat="47.2715" lon="-2.34816">
        <ele>4.1999998092651</ele>
        <time>2021-12-02T08:31:58.000Z</time>
      </trkpt>
      <trkpt lat="47.27161" lon="-2.34866">
        <ele>4.1999998092651</ele>
        <time>2021-12-02T08:32:05.000Z</time>
      </trkpt>
      <trkpt lat="47.27175" lon="-2.34913">
        <ele>4.1999998092651</ele>
        <time>2021-12-02T08:32:12.000Z</time>
      </trkpt>
      <trkpt lat="47.27193" lon="-2.34966">
        <ele>4.1999998092651</ele>
        <time>2021-12-02T08:32:20.000Z</time>
      </trkpt>
      <trkpt lat="47.27209" lon="-2.3501">
        <ele>4.1999998092651</ele>
        <time>2021-12-02T08:32:27.000Z</time>
      </trkpt>
      <trkpt lat="47.27231" lon="-2.35071">
        <ele>4.1999998092651</ele>
        <time>2021-12-02T08:32:36.000Z</time>
      </trkpt>
      <trkpt lat="47.27253" lon="-2.35119">
        <ele>4.1999998092651</ele>
        <time>2021-12-02T08:32:44.000Z</time>
      </trkpt>
      <trkpt lat="47.27256" lon="-2.35124">
        <ele>4.1999998092651</ele>
        <time>2021-12-02T08:32:45.000Z</time>
      </trkpt>
      <trkpt lat="47.27262" lon="-2.35123">
        <ele>4.1999998092651</ele>
        <time>2021-12-02T08:32:47.000Z</time>
      </trkpt>
      <trkpt lat="47.27275" lon="-2.35116">
        <ele>4.1999998092651</ele>
        <time>2021-12-02T08:32:50.000Z</time>
      </trkpt>
      <trkpt lat="47.27283" lon="-2.35113">
        <ele>4.8000001907349</ele>
        <time>2021-12-02T08:32:52.000Z</time>
      </trkpt>
      <trkpt lat="47.27287" lon="-2.35111">
        <ele>5.1999998092651</ele>
        <time>2021-12-02T08:32:53.000Z</time>
      </trkpt>
      <trkpt lat="47.27291" lon="-2.35109">
        <ele>5.5999999046326</ele>
        <time>2021-12-02T08:32:54.000Z</time>
      </trkpt>
      <trkpt lat="47.27294" lon="-2.35107">
        <ele>6</ele>
        <time>2021-12-02T08:32:55.000Z</time>
      </trkpt>
      <trkpt lat="47.27297" lon="-2.35107">
        <ele>6.4000000953674</ele>
        <time>2021-12-02T08:32:56.000Z</time>
      </trkpt>
      <trkpt lat="47.273" lon="-2.35109">
        <ele>6.4000000953674</ele>
        <time>2021-12-02T08:32:57.000Z</time>
      </trkpt>
      <trkpt lat="47.27307" lon="-2.35124">
        <ele>6.4000000953674</ele>
        <time>2021-12-02T08:33:00.000Z</time>
      </trkpt>
      <trkpt lat="47.27317" lon="-2.35153">
        <ele>6.4000000953674</ele>
        <time>2021-12-02T08:33:05.000Z</time>
      </trkpt>
      <trkpt lat="47.2732" lon="-2.35166">
        <ele>6.4000000953674</ele>
        <time>2021-12-02T08:33:07.000Z</time>
      </trkpt>
      <trkpt lat="47.27328" lon="-2.35209">
        <ele>6.4000000953674</ele>
        <time>2021-12-02T08:33:13.000Z</time>
      </trkpt>
      <trkpt lat="47.2734" lon="-2.35263">
        <ele>6.4000000953674</ele>
        <time>2021-12-02T08:33:20.000Z</time>
      </trkpt>
      <trkpt lat="47.27349" lon="-2.35299">
        <ele>6.4000000953674</ele>
        <time>2021-12-02T08:33:25.000Z</time>
      </trkpt>
      <trkpt lat="47.27364" lon="-2.35367">
        <ele>6.4000000953674</ele>
        <time>2021-12-02T08:33:33.000Z</time>
      </trkpt>
      <trkpt lat="47.27372" lon="-2.35399">
        <ele>6</ele>
        <time>2021-12-02T08:33:37.000Z</time>
      </trkpt>
      <trkpt lat="47.27374" lon="-2.35408">
        <ele>5.1999998092651</ele>
        <time>2021-12-02T08:33:38.000Z</time>
      </trkpt>
      <trkpt lat="47.27376" lon="-2.35417">
        <ele>4.8000001907349</ele>
        <time>2021-12-02T08:33:39.000Z</time>
      </trkpt>
      <trkpt lat="47.27378" lon="-2.35425">
        <ele>4.4000000953674</ele>
        <time>2021-12-02T08:33:40.000Z</time>
      </trkpt>
      <trkpt lat="47.27395" lon="-2.35503">
        <ele>4.4000000953674</ele>
        <time>2021-12-02T08:33:49.000Z</time>
      </trkpt>
      <trkpt lat="47.27397" lon="-2.35511">
        <ele>3.7999999523163</ele>
        <time>2021-12-02T08:33:50.000Z</time>
      </trkpt>
      <trkpt lat="47.27399" lon="-2.35519">
        <ele>3.4000000953674</ele>
        <time>2021-12-02T08:33:51.000Z</time>
      </trkpt>
      <trkpt lat="47.274" lon="-2.35528">
        <ele>3</ele>
        <time>2021-12-02T08:33:52.000Z</time>
      </trkpt>
      <trkpt lat="47.27402" lon="-2.35536">
        <ele>2.5999999046326</ele>
        <time>2021-12-02T08:33:53.000Z</time>
      </trkpt>
      <trkpt lat="47.27403" lon="-2.35545">
        <ele>2.2000000476837</ele>
        <time>2021-12-02T08:33:54.000Z</time>
      </trkpt>
      <trkpt lat="47.27407" lon="-2.35572">
        <ele>2.2000000476837</ele>
        <time>2021-12-02T08:33:57.000Z</time>
      </trkpt>
      <trkpt lat="47.27414" lon="-2.35623">
        <ele>1.7999999523163</ele>
        <time>2021-12-02T08:34:03.000Z</time>
      </trkpt>
      <trkpt lat="47.27415" lon="-2.35631">
        <ele>1.3999999761581</ele>
        <time>2021-12-02T08:34:04.000Z</time>
      </trkpt>
      <trkpt lat="47.27416" lon="-2.35639">
        <ele>1</ele>
        <time>2021-12-02T08:34:05.000Z</time>
      </trkpt>
      <trkpt lat="47.27418" lon="-2.35648">
        <ele>0.60000002384186</ele>
        <time>2021-12-02T08:34:06.000Z</time>
      </trkpt>
      <trkpt lat="47.2742" lon="-2.35656">
        <ele>0.20000000298023</ele>
        <time>2021-12-02T08:34:07.000Z</time>
      </trkpt>
      <trkpt lat="47.27424" lon="-2.35663">
        <ele>0.20000000298023</ele>
        <time>2021-12-02T08:34:08.000Z</time>
      </trkpt>
      <trkpt lat="47.27429" lon="-2.35668">
        <ele>0.20000000298023</ele>
        <time>2021-12-02T08:34:09.000Z</time>
      </trkpt>
      <trkpt lat="47.27446" lon="-2.35679">
        <ele>0.20000000298023</ele>
        <time>2021-12-02T08:34:13.000Z</time>
      </trkpt>
      <trkpt lat="47.27452" lon="-2.3568">
        <ele>0.20000000298023</ele>
        <time>2021-12-02T08:34:14.000Z</time>
      </trkpt>
      <trkpt lat="47.27469" lon="-2.3568">
        <ele>0.20000000298023</ele>
        <time>2021-12-02T08:34:17.000Z</time>
      </trkpt>
      <trkpt lat="47.27507" lon="-2.35686">
        <ele>0.20000000298023</ele>
        <time>2021-12-02T08:34:24.000Z</time>
      </trkpt>
      <trkpt lat="47.27544" lon="-2.35694">
        <ele>0.20000000298023</ele>
        <time>2021-12-02T08:34:31.000Z</time>
      </trkpt>
      <trkpt lat="47.27584" lon="-2.35701">
        <ele>0.20000000298023</ele>
        <time>2021-12-02T08:34:39.000Z</time>
      </trkpt>
      <trkpt lat="47.27613" lon="-2.35709">
        <ele>0.60000002384186</ele>
        <time>2021-12-02T08:34:45.000Z</time>
      </trkpt>
      <trkpt lat="47.27618" lon="-2.3571">
        <ele>1</ele>
        <time>2021-12-02T08:34:46.000Z</time>
      </trkpt>
      <trkpt lat="47.27622" lon="-2.35711">
        <ele>1.3999999761581</ele>
        <time>2021-12-02T08:34:47.000Z</time>
      </trkpt>
      <trkpt lat="47.27627" lon="-2.35712">
        <ele>1.7999999523163</ele>
        <time>2021-12-02T08:34:48.000Z</time>
      </trkpt>
      <trkpt lat="47.27632" lon="-2.35714">
        <ele>2.2000000476837</ele>
        <time>2021-12-02T08:34:49.000Z</time>
      </trkpt>
      <trkpt lat="47.27657" lon="-2.3572">
        <ele>2.2000000476837</ele>
        <time>2021-12-02T08:34:55.000Z</time>
      </trkpt>
      <trkpt lat="47.27661" lon="-2.35722">
        <ele>2.2000000476837</ele>
        <time>2021-12-02T08:34:56.000Z</time>
      </trkpt>
      <trkpt lat="47.27674" lon="-2.35725">
        <ele>2.2000000476837</ele>
        <time>2021-12-02T08:34:59.000Z</time>
      </trkpt>
      <trkpt lat="47.27688" lon="-2.35726">
        <ele>2.2000000476837</ele>
        <time>2021-12-02T08:35:02.000Z</time>
      </trkpt>
      <trkpt lat="47.27692" lon="-2.35726">
        <ele>2.5999999046326</ele>
        <time>2021-12-02T08:35:03.000Z</time>
      </trkpt>
      <trkpt lat="47.27697" lon="-2.35724">
        <ele>3</ele>
        <time>2021-12-02T08:35:04.000Z</time>
      </trkpt>
      <trkpt lat="47.27701" lon="-2.35722">
        <ele>3.4000000953674</ele>
        <time>2021-12-02T08:35:05.000Z</time>
      </trkpt>
      <trkpt lat="47.27704" lon="-2.35719">
        <ele>3.7999999523163</ele>
        <time>2021-12-02T08:35:06.000Z</time>
      </trkpt>
      <trkpt lat="47.27708" lon="-2.35716">
        <ele>4.1999998092651</ele>
        <time>2021-12-02T08:35:07.000Z</time>
      </trkpt>
      <trkpt lat="47.2773" lon="-2.35689">
        <ele>4.1999998092651</ele>
        <time>2021-12-02T08:35:13.000Z</time>
      </trkpt>
      <trkpt lat="47.27735" lon="-2.3568">
        <ele>4.5999999046326</ele>
        <time>2021-12-02T08:35:15.000Z</time>
      </trkpt>
      <trkpt lat="47.27738" lon="-2.35675">
        <ele>5.4000000953674</ele>
        <time>2021-12-02T08:35:16.000Z</time>
      </trkpt>
      <trkpt lat="47.27742" lon="-2.3567">
        <ele>5.8000001907349</ele>
        <time>2021-12-02T08:35:17.000Z</time>
      </trkpt>
      <trkpt lat="47.27745" lon="-2.35665">
        <ele>6.1999998092651</ele>
        <time>2021-12-02T08:35:18.000Z</time>
      </trkpt>
      <trkpt lat="47.27764" lon="-2.35638">
        <ele>6.1999998092651</ele>
        <time>2021-12-02T08:35:24.000Z</time>
      </trkpt>
      <trkpt lat="47.27772" lon="-2.3563">
        <ele>6.1999998092651</ele>
        <time>2021-12-02T08:35:26.000Z</time>
      </trkpt>
      <trkpt lat="47.27784" lon="-2.35621">
        <ele>6.1999998092651</ele>
        <time>2021-12-02T08:35:29.000Z</time>
      </trkpt>
      <trkpt lat="47.27805" lon="-2.3561">
        <ele>6.5999999046326</ele>
        <time>2021-12-02T08:35:34.000Z</time>
      </trkpt>
      <trkpt lat="47.2781" lon="-2.35609">
        <ele>7</ele>
        <time>2021-12-02T08:35:35.000Z</time>
      </trkpt>
      <trkpt lat="47.27814" lon="-2.35608">
        <ele>7.4000000953674</ele>
        <time>2021-12-02T08:35:36.000Z</time>
      </trkpt>
      <trkpt lat="47.27819" lon="-2.35607">
        <ele>7.8000001907349</ele>
        <time>2021-12-02T08:35:37.000Z</time>
      </trkpt>
      <trkpt lat="47.27823" lon="-2.35606">
        <ele>8.1999998092651</ele>
        <time>2021-12-02T08:35:38.000Z</time>
      </trkpt>
      <trkpt lat="47.27863" lon="-2.35597">
        <ele>8.1999998092651</ele>
        <time>2021-12-02T08:35:47.000Z</time>
      </trkpt>
      <trkpt lat="47.27875" lon="-2.35594">
        <ele>8.6000003814697</ele>
        <time>2021-12-02T08:35:50.000Z</time>
      </trkpt>
      <trkpt lat="47.2788" lon="-2.35593">
        <ele>9</ele>
        <time>2021-12-02T08:35:51.000Z</time>
      </trkpt>
      <trkpt lat="47.27884" lon="-2.35592">
        <ele>9.6000003814697</ele>
        <time>2021-12-02T08:35:52.000Z</time>
      </trkpt>
      <trkpt lat="47.27888" lon="-2.3559">
        <ele>10</ele>
        <time>2021-12-02T08:35:53.000Z</time>
      </trkpt>
      <trkpt lat="47.27892" lon="-2.3559">
        <ele>10.39999961853</ele>
        <time>2021-12-02T08:35:54.000Z</time>
      </trkpt>
      <trkpt lat="47.2792" lon="-2.3559">
        <ele>10.39999961853</ele>
        <time>2021-12-02T08:36:01.000Z</time>
      </trkpt>
      <trkpt lat="47.27935" lon="-2.35589">
        <ele>11.199999809265</ele>
        <time>2021-12-02T08:36:05.000Z</time>
      </trkpt>
      <trkpt lat="47.27939" lon="-2.35588">
        <ele>11.60000038147</ele>
        <time>2021-12-02T08:36:06.000Z</time>
      </trkpt>
      <trkpt lat="47.27943" lon="-2.35587">
        <ele>12</ele>
        <time>2021-12-02T08:36:07.000Z</time>
      </trkpt>
      <trkpt lat="47.27947" lon="-2.35586">
        <ele>12.39999961853</ele>
        <time>2021-12-02T08:36:08.000Z</time>
      </trkpt>
      <trkpt lat="47.27961" lon="-2.35579">
        <ele>12.39999961853</ele>
        <time>2021-12-02T08:36:12.000Z</time>
      </trkpt>
      <trkpt lat="47.27989" lon="-2.35572">
        <ele>12.39999961853</ele>
        <time>2021-12-02T08:36:19.000Z</time>
      </trkpt>
      <trkpt lat="47.28011" lon="-2.35562">
        <ele>12.39999961853</ele>
        <time>2021-12-02T08:36:25.000Z</time>
      </trkpt>
      <trkpt lat="47.28029" lon="-2.35565">
        <ele>12.39999961853</ele>
        <time>2021-12-02T08:36:30.000Z</time>
      </trkpt>
      <trkpt lat="47.28045" lon="-2.35574">
        <ele>12.800000190735</ele>
        <time>2021-12-02T08:36:35.000Z</time>
      </trkpt>
      <trkpt lat="47.28048" lon="-2.35575">
        <ele>13.199999809265</ele>
        <time>2021-12-02T08:36:36.000Z</time>
      </trkpt>
      <trkpt lat="47.28052" lon="-2.35576">
        <ele>13.60000038147</ele>
        <time>2021-12-02T08:36:37.000Z</time>
      </trkpt>
      <trkpt lat="47.28055" lon="-2.35578">
        <ele>14.199999809265</ele>
        <time>2021-12-02T08:36:38.000Z</time>
      </trkpt>
      <trkpt lat="47.28058" lon="-2.35578">
        <ele>14.60000038147</ele>
        <time>2021-12-02T08:36:39.000Z</time>
      </trkpt>
      <trkpt lat="47.28068" lon="-2.35583">
        <ele>14.60000038147</ele>
        <time>2021-12-02T08:36:42.000Z</time>
      </trkpt>
      <trkpt lat="47.28076" lon="-2.35596">
        <ele>14.60000038147</ele>
        <time>2021-12-02T08:36:46.000Z</time>
      </trkpt>
      <trkpt lat="47.28082" lon="-2.3561">
        <ele>14.60000038147</ele>
        <time>2021-12-02T08:36:52.000Z</time>
      </trkpt>
      <trkpt lat="47.28082" lon="-2.3561">
        <ele>14.60000038147</ele>
        <time>2021-12-02T08:36:53.000Z</time>
      </trkpt>
      <trkpt lat="47.28082" lon="-2.35611">
        <ele>14.60000038147</ele>
        <time>2021-12-02T08:39:26.000Z</time>
      </trkpt>
      <trkpt lat="47.28081" lon="-2.35606">
        <ele>14.60000038147</ele>
        <time>2021-12-02T08:39:28.000Z</time>
      </trkpt>
      <trkpt lat="47.28076" lon="-2.35611">
        <ele>14.60000038147</ele>
        <time>2021-12-02T08:39:31.000Z</time>
      </trkpt>
      <trkpt lat="47.28076" lon="-2.35618">
        <ele>14.60000038147</ele>
        <time>2021-12-02T08:39:33.000Z</time>
      </trkpt>
      <trkpt lat="47.28077" lon="-2.35625">
        <ele>15</ele>
        <time>2021-12-02T08:39:35.000Z</time>
      </trkpt>
      <trkpt lat="47.28077" lon="-2.35628">
        <ele>15.39999961853</ele>
        <time>2021-12-02T08:39:36.000Z</time>
      </trkpt>
      <trkpt lat="47.28077" lon="-2.3563">
        <ele>15.800000190735</ele>
        <time>2021-12-02T08:39:37.000Z</time>
      </trkpt>
      <trkpt lat="47.28077" lon="-2.35632">
        <ele>16.200000762939</ele>
        <time>2021-12-02T08:39:38.000Z</time>
      </trkpt>
      <trkpt lat="47.28077" lon="-2.35635">
        <ele>16.60000038147</ele>
        <time>2021-12-02T08:39:39.000Z</time>
      </trkpt>
      <trkpt lat="47.28078" lon="-2.35638">
        <ele>16.60000038147</ele>
        <time>2021-12-02T08:39:40.000Z</time>
      </trkpt>
      <trkpt lat="47.28079" lon="-2.35645">
        <ele>17.200000762939</ele>
        <time>2021-12-02T08:39:42.000Z</time>
      </trkpt>
      <trkpt lat="47.28081" lon="-2.35651">
        <ele>18</ele>
        <time>2021-12-02T08:39:43.000Z</time>
      </trkpt>
      <trkpt lat="47.28082" lon="-2.35654">
        <ele>18.39999961853</ele>
        <time>2021-12-02T08:39:45.000Z</time>
      </trkpt>
      <trkpt lat="47.28083" lon="-2.35657">
        <ele>19</ele>
        <time>2021-12-02T08:39:46.000Z</time>
      </trkpt>
      <trkpt lat="47.28085" lon="-2.35663">
        <ele>19.39999961853</ele>
        <time>2021-12-02T08:39:48.000Z</time>
      </trkpt>
      <trkpt lat="47.28085" lon="-2.35667">
        <ele>19.799999237061</ele>
        <time>2021-12-02T08:39:49.000Z</time>
      </trkpt>
      <trkpt lat="47.28086" lon="-2.35672">
        <ele>20.200000762939</ele>
        <time>2021-12-02T08:39:50.000Z</time>
      </trkpt>
      <trkpt lat="47.28087" lon="-2.35676">
        <ele>20.60000038147</ele>
        <time>2021-12-02T08:39:51.000Z</time>
      </trkpt>
      <trkpt lat="47.28088" lon="-2.3568">
        <ele>21</ele>
        <time>2021-12-02T08:39:52.000Z</time>
      </trkpt>
      <trkpt lat="47.28093" lon="-2.35701">
        <ele>21.39999961853</ele>
        <time>2021-12-02T08:39:58.000Z</time>
      </trkpt>
      <trkpt lat="47.28093" lon="-2.35705">
        <ele>21.799999237061</ele>
        <time>2021-12-02T08:39:59.000Z</time>
      </trkpt>
      <trkpt lat="47.28094" lon="-2.35708">
        <ele>22.200000762939</ele>
        <time>2021-12-02T08:40:00.000Z</time>
      </trkpt>
      <trkpt lat="47.28094" lon="-2.35712">
        <ele>22.60000038147</ele>
        <time>2021-12-02T08:40:01.000Z</time>
      </trkpt>
      <trkpt lat="47.28093" lon="-2.35716">
        <ele>23</ele>
        <time>2021-12-02T08:40:02.000Z</time>
      </trkpt>
      <trkpt lat="47.2809" lon="-2.35727">
        <ele>23</ele>
        <time>2021-12-02T08:40:05.000Z</time>
      </trkpt>
      <trkpt lat="47.28087" lon="-2.35754">
        <ele>23</ele>
        <time>2021-12-02T08:40:10.000Z</time>
      </trkpt>
      <trkpt lat="47.28083" lon="-2.3578">
        <ele>22.60000038147</ele>
        <time>2021-12-02T08:40:14.000Z</time>
      </trkpt>
      <trkpt lat="47.28081" lon="-2.35786">
        <ele>22.200000762939</ele>
        <time>2021-12-02T08:40:15.000Z</time>
      </trkpt>
      <trkpt lat="47.28079" lon="-2.35791">
        <ele>21.60000038147</ele>
        <time>2021-12-02T08:40:16.000Z</time>
      </trkpt>
      <trkpt lat="47.28078" lon="-2.35796">
        <ele>21.200000762939</ele>
        <time>2021-12-02T08:40:17.000Z</time>
      </trkpt>
      <trkpt lat="47.28079" lon="-2.358">
        <ele>20.799999237061</ele>
        <time>2021-12-02T08:40:18.000Z</time>
      </trkpt>
      <trkpt lat="47.28081" lon="-2.35803">
        <ele>20.39999961853</ele>
        <time>2021-12-02T08:40:19.000Z</time>
      </trkpt>
      <trkpt lat="47.28082" lon="-2.35804">
        <ele>19.799999237061</ele>
        <time>2021-12-02T08:40:20.000Z</time>
      </trkpt>
      <trkpt lat="47.28084" lon="-2.35805">
        <ele>19.39999961853</ele>
        <time>2021-12-02T08:40:21.000Z</time>
      </trkpt>
      <trkpt lat="47.28086" lon="-2.35803">
        <ele>19</ele>
        <time>2021-12-02T08:40:22.000Z</time>
      </trkpt>
      <trkpt lat="47.28089" lon="-2.35799">
        <ele>18.60000038147</ele>
        <time>2021-12-02T08:40:23.000Z</time>
      </trkpt>
      <trkpt lat="47.28093" lon="-2.35787">
        <ele>18.60000038147</ele>
        <time>2021-12-02T08:40:26.000Z</time>
      </trkpt>
      <trkpt lat="47.28098" lon="-2.35772">
        <ele>18.60000038147</ele>
        <time>2021-12-02T08:40:29.000Z</time>
      </trkpt>
      <trkpt lat="47.28105" lon="-2.35756">
        <ele>18.60000038147</ele>
        <time>2021-12-02T08:40:34.000Z</time>
      </trkpt>
      <trkpt lat="47.28108" lon="-2.3575">
        <ele>18.60000038147</ele>
        <time>2021-12-02T08:40:39.000Z</time>
      </trkpt>
      <trkpt lat="47.28109" lon="-2.35747">
        <ele>18.60000038147</ele>
        <time>2021-12-02T08:40:40.000Z</time>
      </trkpt>
      <trkpt lat="47.28118" lon="-2.3574">
        <ele>18.60000038147</ele>
        <time>2021-12-02T08:40:45.000Z</time>
      </trkpt>
      <trkpt lat="47.28122" lon="-2.35742">
        <ele>18.60000038147</ele>
        <time>2021-12-02T08:40:46.000Z</time>
      </trkpt>
      <trkpt lat="47.28133" lon="-2.35756">
        <ele>18.60000038147</ele>
        <time>2021-12-02T08:40:50.000Z</time>
      </trkpt>
      <trkpt lat="47.28136" lon="-2.35767">
        <ele>18.60000038147</ele>
        <time>2021-12-02T08:40:52.000Z</time>
      </trkpt>
      <trkpt lat="47.28138" lon="-2.3578">
        <ele>18.60000038147</ele>
        <time>2021-12-02T08:40:55.000Z</time>
      </trkpt>
      <trkpt lat="47.28143" lon="-2.358">
        <ele>18.60000038147</ele>
        <time>2021-12-02T08:41:00.000Z</time>
      </trkpt>
      <trkpt lat="47.28145" lon="-2.35805">
        <ele>18.60000038147</ele>
        <time>2021-12-02T08:41:02.000Z</time>
      </trkpt>
      <trkpt lat="47.28152" lon="-2.35813">
        <ele>18.60000038147</ele>
        <time>2021-12-02T08:41:06.000Z</time>
      </trkpt>
      <trkpt lat="47.28164" lon="-2.35826">
        <ele>18.60000038147</ele>
        <time>2021-12-02T08:41:12.000Z</time>
      </trkpt>
      <trkpt lat="47.28166" lon="-2.35831">
        <ele>19</ele>
        <time>2021-12-02T08:41:13.000Z</time>
      </trkpt>
      <trkpt lat="47.28168" lon="-2.35833">
        <ele>19.39999961853</ele>
        <time>2021-12-02T08:41:14.000Z</time>
      </trkpt>
      <trkpt lat="47.2817" lon="-2.35836">
        <ele>19.799999237061</ele>
        <time>2021-12-02T08:41:15.000Z</time>
      </trkpt>
      <trkpt lat="47.28172" lon="-2.3584">
        <ele>20.200000762939</ele>
        <time>2021-12-02T08:41:16.000Z</time>
      </trkpt>
      <trkpt lat="47.28173" lon="-2.35843">
        <ele>20.799999237061</ele>
        <time>2021-12-02T08:41:17.000Z</time>
      </trkpt>
      <trkpt lat="47.28174" lon="-2.35866">
        <ele>20.799999237061</ele>
        <time>2021-12-02T08:41:22.000Z</time>
      </trkpt>
      <trkpt lat="47.28175" lon="-2.35871">
        <ele>20.799999237061</ele>
        <time>2021-12-02T08:41:23.000Z</time>
      </trkpt>
      <trkpt lat="47.28177" lon="-2.35884">
        <ele>20.799999237061</ele>
        <time>2021-12-02T08:41:26.000Z</time>
      </trkpt>
      <trkpt lat="47.28177" lon="-2.35911">
        <ele>20.799999237061</ele>
        <time>2021-12-02T08:41:31.000Z</time>
      </trkpt>
      <trkpt lat="47.28179" lon="-2.35923">
        <ele>20.200000762939</ele>
        <time>2021-12-02T08:41:34.000Z</time>
      </trkpt>
      <trkpt lat="47.2818" lon="-2.35926">
        <ele>19.799999237061</ele>
        <time>2021-12-02T08:41:35.000Z</time>
      </trkpt>
      <trkpt lat="47.28181" lon="-2.35926">
        <ele>19.39999961853</ele>
        <time>2021-12-02T08:41:36.000Z</time>
      </trkpt>
      <trkpt lat="47.28183" lon="-2.35925">
        <ele>19</ele>
        <time>2021-12-02T08:41:37.000Z</time>
      </trkpt>
      <trkpt lat="47.28185" lon="-2.35925">
        <ele>18.60000038147</ele>
        <time>2021-12-02T08:41:38.000Z</time>
      </trkpt>
      <trkpt lat="47.28191" lon="-2.35919">
        <ele>18.60000038147</ele>
        <time>2021-12-02T08:41:41.000Z</time>
      </trkpt>
      <trkpt lat="47.28196" lon="-2.35913">
        <ele>18.60000038147</ele>
        <time>2021-12-02T08:41:43.000Z</time>
      </trkpt>
      <trkpt lat="47.28201" lon="-2.35895">
        <ele>19</ele>
        <time>2021-12-02T08:41:48.000Z</time>
      </trkpt>
      <trkpt lat="47.28202" lon="-2.35893">
        <ele>19.39999961853</ele>
        <time>2021-12-02T08:41:49.000Z</time>
      </trkpt>
      <trkpt lat="47.28204" lon="-2.35892">
        <ele>19.799999237061</ele>
        <time>2021-12-02T08:41:50.000Z</time>
      </trkpt>
      <trkpt lat="47.28206" lon="-2.35893">
        <ele>20.60000038147</ele>
        <time>2021-12-02T08:41:51.000Z</time>
      </trkpt>
      <trkpt lat="47.28208" lon="-2.35893">
        <ele>20.60000038147</ele>
        <time>2021-12-02T08:41:52.000Z</time>
      </trkpt>
      <trkpt lat="47.28223" lon="-2.35896">
        <ele>20.60000038147</ele>
        <time>2021-12-02T08:41:57.000Z</time>
      </trkpt>
      <trkpt lat="47.28237" lon="-2.35894">
        <ele>21</ele>
        <time>2021-12-02T08:42:01.000Z</time>
      </trkpt>
      <trkpt lat="47.28239" lon="-2.35894">
        <ele>21.39999961853</ele>
        <time>2021-12-02T08:42:02.000Z</time>
      </trkpt>
      <trkpt lat="47.28241" lon="-2.35892">
        <ele>21.799999237061</ele>
        <time>2021-12-02T08:42:03.000Z</time>
      </trkpt>
      <trkpt lat="47.28243" lon="-2.3589">
        <ele>22.200000762939</ele>
        <time>2021-12-02T08:42:04.000Z</time>
      </trkpt>
      <trkpt lat="47.28247" lon="-2.35888">
        <ele>22.60000038147</ele>
        <time>2021-12-02T08:42:05.000Z</time>
      </trkpt>
      <trkpt lat="47.28254" lon="-2.35881">
        <ele>22.60000038147</ele>
        <time>2021-12-02T08:42:08.000Z</time>
      </trkpt>
      <trkpt lat="47.28265" lon="-2.35874">
        <ele>22.60000038147</ele>
        <time>2021-12-02T08:42:12.000Z</time>
      </trkpt>
      <trkpt lat="47.28288" lon="-2.35853">
        <ele>22.60000038147</ele>
        <time>2021-12-02T08:42:19.000Z</time>
      </trkpt>
      <trkpt lat="47.28303" lon="-2.35842">
        <ele>23.200000762939</ele>
        <time>2021-12-02T08:42:24.000Z</time>
      </trkpt>
      <trkpt lat="47.28306" lon="-2.35841">
        <ele>23.60000038147</ele>
        <time>2021-12-02T08:42:25.000Z</time>
      </trkpt>
      <trkpt lat="47.28307" lon="-2.35839">
        <ele>24</ele>
        <time>2021-12-02T08:42:26.000Z</time>
      </trkpt>
      <trkpt lat="47.28309" lon="-2.35837">
        <ele>24.39999961853</ele>
        <time>2021-12-02T08:42:27.000Z</time>
      </trkpt>
      <trkpt lat="47.28311" lon="-2.35834">
        <ele>25</ele>
        <time>2021-12-02T08:42:28.000Z</time>
      </trkpt>
      <trkpt lat="47.2832" lon="-2.35827">
        <ele>25</ele>
        <time>2021-12-02T08:42:31.000Z</time>
      </trkpt>
      <trkpt lat="47.28338" lon="-2.35808">
        <ele>25</ele>
        <time>2021-12-02T08:42:36.000Z</time>
      </trkpt>
      <trkpt lat="47.28361" lon="-2.35792">
        <ele>25</ele>
        <time>2021-12-02T08:42:42.000Z</time>
      </trkpt>
      <trkpt lat="47.28375" lon="-2.35794">
        <ele>25</ele>
        <time>2021-12-02T08:42:47.000Z</time>
      </trkpt>
      <trkpt lat="47.28394" lon="-2.35811">
        <ele>25</ele>
        <time>2021-12-02T08:42:53.000Z</time>
      </trkpt>
      <trkpt lat="47.28402" lon="-2.35819">
        <ele>25.39999961853</ele>
        <time>2021-12-02T08:42:56.000Z</time>
      </trkpt>
      <trkpt lat="47.28404" lon="-2.35821">
        <ele>25.799999237061</ele>
        <time>2021-12-02T08:42:57.000Z</time>
      </trkpt>
      <trkpt lat="47.28405" lon="-2.35824">
        <ele>26.200000762939</ele>
        <time>2021-12-02T08:42:58.000Z</time>
      </trkpt>
      <trkpt lat="47.28406" lon="-2.35829">
        <ele>26.60000038147</ele>
        <time>2021-12-02T08:42:59.000Z</time>
      </trkpt>
      <trkpt lat="47.28408" lon="-2.35833">
        <ele>27</ele>
        <time>2021-12-02T08:43:00.000Z</time>
      </trkpt>
      <trkpt lat="47.28417" lon="-2.35848">
        <ele>27</ele>
        <time>2021-12-02T08:43:04.000Z</time>
      </trkpt>
      <trkpt lat="47.28426" lon="-2.35866">
        <ele>27</ele>
        <time>2021-12-02T08:43:09.000Z</time>
      </trkpt>
      <trkpt lat="47.28431" lon="-2.35873">
        <ele>27</ele>
        <time>2021-12-02T08:43:11.000Z</time>
      </trkpt>
      <trkpt lat="47.28441" lon="-2.35878">
        <ele>27</ele>
        <time>2021-12-02T08:43:14.000Z</time>
      </trkpt>
      <trkpt lat="47.28443" lon="-2.35879">
        <ele>27</ele>
        <time>2021-12-02T08:43:15.000Z</time>
      </trkpt>
      <trkpt lat="47.28453" lon="-2.3589">
        <ele>27</ele>
        <time>2021-12-02T08:43:20.000Z</time>
      </trkpt>
      <trkpt lat="47.28457" lon="-2.35899">
        <ele>27</ele>
        <time>2021-12-02T08:43:25.000Z</time>
      </trkpt>
      <trkpt lat="47.28458" lon="-2.35902">
        <ele>27</ele>
        <time>2021-12-02T08:43:27.000Z</time>
      </trkpt>
      <trkpt lat="47.28455" lon="-2.35906">
        <ele>27</ele>
        <time>2021-12-02T08:43:31.000Z</time>
      </trkpt>
      <trkpt lat="47.28452" lon="-2.35914">
        <ele>27</ele>
        <time>2021-12-02T08:43:36.000Z</time>
      </trkpt>
      <trkpt lat="47.28458" lon="-2.35911">
        <ele>29</ele>
        <time>2021-12-02T08:43:58.000Z</time>
      </trkpt>
      <trkpt lat="47.2846" lon="-2.35911">
        <ele>29</ele>
        <time>2021-12-02T08:44:02.000Z</time>
      </trkpt>
      <trkpt lat="47.28458" lon="-2.35913">
        <ele>29</ele>
        <time>2021-12-02T08:44:08.000Z</time>
      </trkpt>
      <trkpt lat="47.28455" lon="-2.35921">
        <ele>29</ele>
        <time>2021-12-02T08:44:12.000Z</time>
      </trkpt>
      <trkpt lat="47.28455" lon="-2.35925">
        <ele>29</ele>
        <time>2021-12-02T08:44:14.000Z</time>
      </trkpt>
      <trkpt lat="47.28455" lon="-2.35929">
        <ele>29.39999961853</ele>
        <time>2021-12-02T08:44:16.000Z</time>
      </trkpt>
      <trkpt lat="47.28456" lon="-2.35931">
        <ele>29.799999237061</ele>
        <time>2021-12-02T08:44:17.000Z</time>
      </trkpt>
      <trkpt lat="47.28456" lon="-2.35933">
        <ele>30.39999961853</ele>
        <time>2021-12-02T08:44:18.000Z</time>
      </trkpt>
      <trkpt lat="47.28456" lon="-2.35934">
        <ele>30.799999237061</ele>
        <time>2021-12-02T08:44:19.000Z</time>
      </trkpt>
      <trkpt lat="47.28455" lon="-2.35935">
        <ele>31.200000762939</ele>
        <time>2021-12-02T08:44:20.000Z</time>
      </trkpt>
      <trkpt lat="47.28455" lon="-2.35937">
        <ele>31.200000762939</ele>
        <time>2021-12-02T08:44:21.000Z</time>
      </trkpt>
      <trkpt lat="47.28455" lon="-2.35943">
        <ele>33.200000762939</ele>
        <time>2021-12-02T08:44:33.000Z</time>
      </trkpt>
      <trkpt lat="47.28454" lon="-2.35952">
        <ele>33.599998474121</ele>
        <time>2021-12-02T08:44:37.000Z</time>
      </trkpt>
      <trkpt lat="47.28455" lon="-2.35955">
        <ele>34</ele>
        <time>2021-12-02T08:44:38.000Z</time>
      </trkpt>
      <trkpt lat="47.28454" lon="-2.35957">
        <ele>34.400001525879</ele>
        <time>2021-12-02T08:44:39.000Z</time>
      </trkpt>
      <trkpt lat="47.28454" lon="-2.35958">
        <ele>35</ele>
        <time>2021-12-02T08:44:40.000Z</time>
      </trkpt>
      <trkpt lat="47.28453" lon="-2.35959">
        <ele>35.400001525879</ele>
        <time>2021-12-02T08:44:41.000Z</time>
      </trkpt>
      <trkpt lat="47.28453" lon="-2.35979">
        <ele>37.400001525879</ele>
        <time>2021-12-02T08:45:10.000Z</time>
      </trkpt>
      <trkpt lat="47.28452" lon="-2.35987">
        <ele>37.400001525879</ele>
        <time>2021-12-02T08:45:12.000Z</time>
      </trkpt>
      <trkpt lat="47.28447" lon="-2.36005">
        <ele>37.400001525879</ele>
        <time>2021-12-02T08:45:20.000Z</time>
      </trkpt>
      <trkpt lat="47.28446" lon="-2.36007">
        <ele>37.400001525879</ele>
        <time>2021-12-02T08:45:22.000Z</time>
      </trkpt>
      <trkpt lat="47.28445" lon="-2.36012">
        <ele>37.400001525879</ele>
        <time>2021-12-02T08:45:25.000Z</time>
      </trkpt>
      <trkpt lat="47.28444" lon="-2.36018">
        <ele>37.400001525879</ele>
        <time>2021-12-02T08:45:27.000Z</time>
      </trkpt>
      <trkpt lat="47.28442" lon="-2.36048">
        <ele>37.400001525879</ele>
        <time>2021-12-02T08:45:31.000Z</time>
      </trkpt>
      <trkpt lat="47.28441" lon="-2.36057">
        <ele>37.400001525879</ele>
        <time>2021-12-02T08:45:32.000Z</time>
      </trkpt>
      <trkpt lat="47.2844" lon="-2.36082">
        <ele>37.400001525879</ele>
        <time>2021-12-02T08:45:35.000Z</time>
      </trkpt>
      <trkpt lat="47.2844" lon="-2.3609">
        <ele>37.400001525879</ele>
        <time>2021-12-02T08:45:36.000Z</time>
      </trkpt>
      <trkpt lat="47.28441" lon="-2.36105">
        <ele>37.400001525879</ele>
        <time>2021-12-02T08:45:38.000Z</time>
      </trkpt>
      <trkpt lat="47.28442" lon="-2.36118">
        <ele>37</ele>
        <time>2021-12-02T08:45:40.000Z</time>
      </trkpt>
      <trkpt lat="47.28443" lon="-2.36124">
        <ele>36.599998474121</ele>
        <time>2021-12-02T08:45:41.000Z</time>
      </trkpt>
      <trkpt lat="47.28444" lon="-2.36131">
        <ele>36.200000762939</ele>
        <time>2021-12-02T08:45:42.000Z</time>
      </trkpt>
      <trkpt lat="47.28445" lon="-2.36136">
        <ele>35.599998474121</ele>
        <time>2021-12-02T08:45:43.000Z</time>
      </trkpt>
      <trkpt lat="47.28445" lon="-2.36143">
        <ele>35.200000762939</ele>
        <time>2021-12-02T08:45:44.000Z</time>
      </trkpt>
      <trkpt lat="47.28446" lon="-2.36148">
        <ele>35.200000762939</ele>
        <time>2021-12-02T08:45:45.000Z</time>
      </trkpt>
      <trkpt lat="47.28448" lon="-2.36152">
        <ele>34.799999237061</ele>
        <time>2021-12-02T08:45:46.000Z</time>
      </trkpt>
      <trkpt lat="47.2845" lon="-2.36156">
        <ele>34.400001525879</ele>
        <time>2021-12-02T08:45:47.000Z</time>
      </trkpt>
      <trkpt lat="47.28451" lon="-2.36161">
        <ele>34</ele>
        <time>2021-12-02T08:45:48.000Z</time>
      </trkpt>
      <trkpt lat="47.28451" lon="-2.36166">
        <ele>33.400001525879</ele>
        <time>2021-12-02T08:45:49.000Z</time>
      </trkpt>
      <trkpt lat="47.2845" lon="-2.3617">
        <ele>33</ele>
        <time>2021-12-02T08:45:50.000Z</time>
      </trkpt>
      <trkpt lat="47.28449" lon="-2.36181">
        <ele>32.599998474121</ele>
        <time>2021-12-02T08:45:52.000Z</time>
      </trkpt>
      <trkpt lat="47.2845" lon="-2.36186">
        <ele>32.200000762939</ele>
        <time>2021-12-02T08:45:53.000Z</time>
      </trkpt>
      <trkpt lat="47.28452" lon="-2.3619">
        <ele>31.799999237061</ele>
        <time>2021-12-02T08:45:54.000Z</time>
      </trkpt>
      <trkpt lat="47.28453" lon="-2.36194">
        <ele>31.39999961853</ele>
        <time>2021-12-02T08:45:55.000Z</time>
      </trkpt>
      <trkpt lat="47.28454" lon="-2.36198">
        <ele>31</ele>
        <time>2021-12-02T08:45:56.000Z</time>
      </trkpt>
      <trkpt lat="47.28456" lon="-2.36204">
        <ele>30.60000038147</ele>
        <time>2021-12-02T08:45:57.000Z</time>
      </trkpt>
      <trkpt lat="47.28457" lon="-2.36208">
        <ele>30.200000762939</ele>
        <time>2021-12-02T08:45:58.000Z</time>
      </trkpt>
      <trkpt lat="47.28458" lon="-2.36213">
        <ele>29.60000038147</ele>
        <time>2021-12-02T08:45:59.000Z</time>
      </trkpt>
      <trkpt lat="47.28459" lon="-2.36219">
        <ele>28.799999237061</ele>
        <time>2021-12-02T08:46:00.000Z</time>
      </trkpt>
      <trkpt lat="47.28459" lon="-2.36226">
        <ele>28.799999237061</ele>
        <time>2021-12-02T08:46:01.000Z</time>
      </trkpt>
      <trkpt lat="47.2846" lon="-2.36238">
        <ele>28.799999237061</ele>
        <time>2021-12-02T08:46:03.000Z</time>
      </trkpt>
      <trkpt lat="47.28466" lon="-2.36267">
        <ele>28.799999237061</ele>
        <time>2021-12-02T08:46:08.000Z</time>
      </trkpt>
      <trkpt lat="47.28466" lon="-2.36285">
        <ele>28.39999961853</ele>
        <time>2021-12-02T08:46:12.000Z</time>
      </trkpt>
      <trkpt lat="47.28464" lon="-2.36289">
        <ele>28</ele>
        <time>2021-12-02T08:46:13.000Z</time>
      </trkpt>
      <trkpt lat="47.28461" lon="-2.36291">
        <ele>27.60000038147</ele>
        <time>2021-12-02T08:46:14.000Z</time>
      </trkpt>
      <trkpt lat="47.28457" lon="-2.36293">
        <ele>27.200000762939</ele>
        <time>2021-12-02T08:46:15.000Z</time>
      </trkpt>
      <trkpt lat="47.28454" lon="-2.36293">
        <ele>26.799999237061</ele>
        <time>2021-12-02T08:46:16.000Z</time>
      </trkpt>
      <trkpt lat="47.2845" lon="-2.36293">
        <ele>26.799999237061</ele>
        <time>2021-12-02T08:46:17.000Z</time>
      </trkpt>
      <trkpt lat="47.2844" lon="-2.3629">
        <ele>26.799999237061</ele>
        <time>2021-12-02T08:46:19.000Z</time>
      </trkpt>
      <trkpt lat="47.28428" lon="-2.36286">
        <ele>26.799999237061</ele>
        <time>2021-12-02T08:46:21.000Z</time>
      </trkpt>
      <trkpt lat="47.28409" lon="-2.36279">
        <ele>26</ele>
        <time>2021-12-02T08:46:24.000Z</time>
      </trkpt>
      <trkpt lat="47.28404" lon="-2.36277">
        <ele>25.60000038147</ele>
        <time>2021-12-02T08:46:25.000Z</time>
      </trkpt>
      <trkpt lat="47.28398" lon="-2.36275">
        <ele>25</ele>
        <time>2021-12-02T08:46:26.000Z</time>
      </trkpt>
      <trkpt lat="47.28392" lon="-2.36274">
        <ele>24.60000038147</ele>
        <time>2021-12-02T08:46:27.000Z</time>
      </trkpt>
      <trkpt lat="47.28386" lon="-2.36273">
        <ele>24.200000762939</ele>
        <time>2021-12-02T08:46:28.000Z</time>
      </trkpt>
      <trkpt lat="47.28379" lon="-2.36272">
        <ele>23.799999237061</ele>
        <time>2021-12-02T08:46:29.000Z</time>
      </trkpt>
      <trkpt lat="47.28372" lon="-2.36269">
        <ele>23.39999961853</ele>
        <time>2021-12-02T08:46:30.000Z</time>
      </trkpt>
      <trkpt lat="47.28364" lon="-2.36267">
        <ele>23</ele>
        <time>2021-12-02T08:46:31.000Z</time>
      </trkpt>
      <trkpt lat="47.28357" lon="-2.36265">
        <ele>22.60000038147</ele>
        <time>2021-12-02T08:46:32.000Z</time>
      </trkpt>
      <trkpt lat="47.2835" lon="-2.36262">
        <ele>22.60000038147</ele>
        <time>2021-12-02T08:46:33.000Z</time>
      </trkpt>
      <trkpt lat="47.28337" lon="-2.36258">
        <ele>22</ele>
        <time>2021-12-02T08:46:35.000Z</time>
      </trkpt>
      <trkpt lat="47.2833" lon="-2.36255">
        <ele>21.60000038147</ele>
        <time>2021-12-02T08:46:36.000Z</time>
      </trkpt>
      <trkpt lat="47.28324" lon="-2.36254">
        <ele>21.200000762939</ele>
        <time>2021-12-02T08:46:37.000Z</time>
      </trkpt>
      <trkpt lat="47.28319" lon="-2.36252">
        <ele>20.60000038147</ele>
        <time>2021-12-02T08:46:38.000Z</time>
      </trkpt>
      <trkpt lat="47.28313" lon="-2.36251">
        <ele>20.200000762939</ele>
        <time>2021-12-02T08:46:39.000Z</time>
      </trkpt>
      <trkpt lat="47.28309" lon="-2.36251">
        <ele>20.200000762939</ele>
        <time>2021-12-02T08:46:40.000Z</time>
      </trkpt>
      <trkpt lat="47.28304" lon="-2.36254">
        <ele>20.200000762939</ele>
        <time>2021-12-02T08:46:42.000Z</time>
      </trkpt>
      <trkpt lat="47.28303" lon="-2.36256">
        <ele>19.799999237061</ele>
        <time>2021-12-02T08:46:43.000Z</time>
      </trkpt>
      <trkpt lat="47.28303" lon="-2.36258">
        <ele>19.39999961853</ele>
        <time>2021-12-02T08:46:44.000Z</time>
      </trkpt>
      <trkpt lat="47.28304" lon="-2.36261">
        <ele>19</ele>
        <time>2021-12-02T08:46:45.000Z</time>
      </trkpt>
      <trkpt lat="47.28306" lon="-2.36264">
        <ele>18.60000038147</ele>
        <time>2021-12-02T08:46:46.000Z</time>
      </trkpt>
      <trkpt lat="47.28307" lon="-2.36267">
        <ele>18.200000762939</ele>
        <time>2021-12-02T08:46:47.000Z</time>
      </trkpt>
      <trkpt lat="47.28311" lon="-2.36272">
        <ele>18.200000762939</ele>
        <time>2021-12-02T08:46:49.000Z</time>
      </trkpt>
      <trkpt lat="47.28318" lon="-2.36279">
        <ele>18.200000762939</ele>
        <time>2021-12-02T08:46:52.000Z</time>
      </trkpt>
      <trkpt lat="47.28329" lon="-2.36286">
        <ele>18.60000038147</ele>
        <time>2021-12-02T08:46:56.000Z</time>
      </trkpt>
      <trkpt lat="47.28331" lon="-2.36288">
        <ele>19</ele>
        <time>2021-12-02T08:46:57.000Z</time>
      </trkpt>
      <trkpt lat="47.28334" lon="-2.36291">
        <ele>19.39999961853</ele>
        <time>2021-12-02T08:46:58.000Z</time>
      </trkpt>
      <trkpt lat="47.28336" lon="-2.36294">
        <ele>19.799999237061</ele>
        <time>2021-12-02T08:46:59.000Z</time>
      </trkpt>
      <trkpt lat="47.28338" lon="-2.36296">
        <ele>20.39999961853</ele>
        <time>2021-12-02T08:47:00.000Z</time>
      </trkpt>
      <trkpt lat="47.28348" lon="-2.36307">
        <ele>20.39999961853</ele>
        <time>2021-12-02T08:47:05.000Z</time>
      </trkpt>
      <trkpt lat="47.28353" lon="-2.36307">
        <ele>20.799999237061</ele>
        <time>2021-12-02T08:47:07.000Z</time>
      </trkpt>
      <trkpt lat="47.28355" lon="-2.36307">
        <ele>21.200000762939</ele>
        <time>2021-12-02T08:47:08.000Z</time>
      </trkpt>
      <trkpt lat="47.28356" lon="-2.36308">
        <ele>21.60000038147</ele>
        <time>2021-12-02T08:47:09.000Z</time>
      </trkpt>
      <trkpt lat="47.28358" lon="-2.36309">
        <ele>22</ele>
        <time>2021-12-02T08:47:10.000Z</time>
      </trkpt>
      <trkpt lat="47.2836" lon="-2.36309">
        <ele>22.39999961853</ele>
        <time>2021-12-02T08:47:11.000Z</time>
      </trkpt>
      <trkpt lat="47.28364" lon="-2.36309">
        <ele>22.39999961853</ele>
        <time>2021-12-02T08:47:13.000Z</time>
      </trkpt>
      <trkpt lat="47.28372" lon="-2.36315">
        <ele>22.39999961853</ele>
        <time>2021-12-02T08:47:17.000Z</time>
      </trkpt>
      <trkpt lat="47.28385" lon="-2.36327">
        <ele>22.39999961853</ele>
        <time>2021-12-02T08:47:23.000Z</time>
      </trkpt>
      <trkpt lat="47.28395" lon="-2.36339">
        <ele>22.799999237061</ele>
        <time>2021-12-02T08:47:27.000Z</time>
      </trkpt>
      <trkpt lat="47.28398" lon="-2.36342">
        <ele>23.200000762939</ele>
        <time>2021-12-02T08:47:28.000Z</time>
      </trkpt>
      <trkpt lat="47.284" lon="-2.36345">
        <ele>23.60000038147</ele>
        <time>2021-12-02T08:47:29.000Z</time>
      </trkpt>
      <trkpt lat="47.28402" lon="-2.36348">
        <ele>24</ele>
        <time>2021-12-02T08:47:30.000Z</time>
      </trkpt>
      <trkpt lat="47.28405" lon="-2.36351">
        <ele>24.39999961853</ele>
        <time>2021-12-02T08:47:31.000Z</time>
      </trkpt>
      <trkpt lat="47.28407" lon="-2.36353">
        <ele>24.39999961853</ele>
        <time>2021-12-02T08:47:32.000Z</time>
      </trkpt>
      <trkpt lat="47.28412" lon="-2.36357">
        <ele>24.39999961853</ele>
        <time>2021-12-02T08:47:34.000Z</time>
      </trkpt>
      <trkpt lat="47.28417" lon="-2.3636">
        <ele>24.39999961853</ele>
        <time>2021-12-02T08:47:36.000Z</time>
      </trkpt>
      <trkpt lat="47.28429" lon="-2.36368">
        <ele>24.39999961853</ele>
        <time>2021-12-02T08:47:41.000Z</time>
      </trkpt>
      <trkpt lat="47.28439" lon="-2.36378">
        <ele>24.39999961853</ele>
        <time>2021-12-02T08:47:46.000Z</time>
      </trkpt>
      <trkpt lat="47.28448" lon="-2.36387">
        <ele>24.799999237061</ele>
        <time>2021-12-02T08:47:52.000Z</time>
      </trkpt>
      <trkpt lat="47.28451" lon="-2.36386">
        <ele>25.39999961853</ele>
        <time>2021-12-02T08:47:53.000Z</time>
      </trkpt>
      <trkpt lat="47.28452" lon="-2.36385">
        <ele>25.799999237061</ele>
        <time>2021-12-02T08:47:54.000Z</time>
      </trkpt>
      <trkpt lat="47.28453" lon="-2.36382">
        <ele>26.200000762939</ele>
        <time>2021-12-02T08:47:55.000Z</time>
      </trkpt>
      <trkpt lat="47.28455" lon="-2.36379">
        <ele>26.60000038147</ele>
        <time>2021-12-02T08:47:56.000Z</time>
      </trkpt>
      <trkpt lat="47.28462" lon="-2.3636">
        <ele>26.60000038147</ele>
        <time>2021-12-02T08:48:01.000Z</time>
      </trkpt>
      <trkpt lat="47.28465" lon="-2.36324">
        <ele>26.60000038147</ele>
        <time>2021-12-02T08:48:08.000Z</time>
      </trkpt>
      <trkpt lat="47.28465" lon="-2.36278">
        <ele>26.60000038147</ele>
        <time>2021-12-02T08:48:16.000Z</time>
      </trkpt>
      <trkpt lat="47.28461" lon="-2.36247">
        <ele>26.60000038147</ele>
        <time>2021-12-02T08:48:22.000Z</time>
      </trkpt>
      <trkpt lat="47.28459" lon="-2.36212">
        <ele>26.60000038147</ele>
        <time>2021-12-02T08:48:29.000Z</time>
      </trkpt>
      <trkpt lat="47.2846" lon="-2.36197">
        <ele>26.60000038147</ele>
        <time>2021-12-02T08:48:32.000Z</time>
      </trkpt>
      <trkpt lat="47.28462" lon="-2.36194">
        <ele>27.200000762939</ele>
        <time>2021-12-02T08:48:33.000Z</time>
      </trkpt>
      <trkpt lat="47.28464" lon="-2.36192">
        <ele>27.60000038147</ele>
        <time>2021-12-02T08:48:34.000Z</time>
      </trkpt>
      <trkpt lat="47.28466" lon="-2.3619">
        <ele>28</ele>
        <time>2021-12-02T08:48:35.000Z</time>
      </trkpt>
      <trkpt lat="47.28469" lon="-2.36188">
        <ele>28.39999961853</ele>
        <time>2021-12-02T08:48:36.000Z</time>
      </trkpt>
      <trkpt lat="47.2847" lon="-2.36186">
        <ele>28.799999237061</ele>
        <time>2021-12-02T08:48:37.000Z</time>
      </trkpt>
      <trkpt lat="47.28476" lon="-2.36179">
        <ele>28.799999237061</ele>
        <time>2021-12-02T08:48:41.000Z</time>
      </trkpt>
      <trkpt lat="47.28481" lon="-2.36178">
        <ele>28.799999237061</ele>
        <time>2021-12-02T08:48:47.000Z</time>
      </trkpt>
      <trkpt lat="47.28487" lon="-2.36185">
        <ele>28.799999237061</ele>
        <time>2021-12-02T08:48:53.000Z</time>
      </trkpt>
      <trkpt lat="47.28493" lon="-2.36194">
        <ele>28.799999237061</ele>
        <time>2021-12-02T08:49:01.000Z</time>
      </trkpt>
      <trkpt lat="47.28499" lon="-2.36202">
        <ele>28.799999237061</ele>
        <time>2021-12-02T08:49:08.000Z</time>
      </trkpt>
      <trkpt lat="47.28504" lon="-2.36211">
        <ele>28.799999237061</ele>
        <time>2021-12-02T08:49:14.000Z</time>
      </trkpt>
      <trkpt lat="47.28507" lon="-2.36215">
        <ele>28.799999237061</ele>
        <time>2021-12-02T08:49:16.000Z</time>
      </trkpt>
      <trkpt lat="47.28507" lon="-2.36217">
        <ele>29.200000762939</ele>
        <time>2021-12-02T08:49:17.000Z</time>
      </trkpt>
      <trkpt lat="47.28508" lon="-2.3622">
        <ele>29.60000038147</ele>
        <time>2021-12-02T08:49:18.000Z</time>
      </trkpt>
      <trkpt lat="47.28511" lon="-2.36224">
        <ele>30</ele>
        <time>2021-12-02T08:49:19.000Z</time>
      </trkpt>
      <trkpt lat="47.28512" lon="-2.36227">
        <ele>30.39999961853</ele>
        <time>2021-12-02T08:49:20.000Z</time>
      </trkpt>
      <trkpt lat="47.28514" lon="-2.3623">
        <ele>30.799999237061</ele>
        <time>2021-12-02T08:49:21.000Z</time>
      </trkpt>
      <trkpt lat="47.28521" lon="-2.36243">
        <ele>30.799999237061</ele>
        <time>2021-12-02T08:49:25.000Z</time>
      </trkpt>
      <trkpt lat="47.28523" lon="-2.36263">
        <ele>30.799999237061</ele>
        <time>2021-12-02T08:49:30.000Z</time>
      </trkpt>
      <trkpt lat="47.28517" lon="-2.363">
        <ele>30.799999237061</ele>
        <time>2021-12-02T08:49:37.000Z</time>
      </trkpt>
      <trkpt lat="47.28515" lon="-2.36305">
        <ele>30.799999237061</ele>
        <time>2021-12-02T08:49:38.000Z</time>
      </trkpt>
      <trkpt lat="47.28507" lon="-2.36313">
        <ele>30.799999237061</ele>
        <time>2021-12-02T08:49:41.000Z</time>
      </trkpt>
      <trkpt lat="47.28503" lon="-2.36315">
        <ele>30.39999961853</ele>
        <time>2021-12-02T08:49:42.000Z</time>
      </trkpt>
      <trkpt lat="47.285" lon="-2.36316">
        <ele>30</ele>
        <time>2021-12-02T08:49:43.000Z</time>
      </trkpt>
      <trkpt lat="47.28496" lon="-2.36318">
        <ele>29.60000038147</ele>
        <time>2021-12-02T08:49:44.000Z</time>
      </trkpt>
      <trkpt lat="47.28493" lon="-2.36318">
        <ele>29.200000762939</ele>
        <time>2021-12-02T08:49:45.000Z</time>
      </trkpt>
      <trkpt lat="47.28487" lon="-2.36316">
        <ele>28.799999237061</ele>
        <time>2021-12-02T08:49:46.000Z</time>
      </trkpt>
      <trkpt lat="47.28482" lon="-2.36315">
        <ele>28.799999237061</ele>
        <time>2021-12-02T08:49:47.000Z</time>
      </trkpt>
      <trkpt lat="47.28474" lon="-2.36316">
        <ele>28.39999961853</ele>
        <time>2021-12-02T08:49:49.000Z</time>
      </trkpt>
      <trkpt lat="47.28471" lon="-2.36319">
        <ele>28</ele>
        <time>2021-12-02T08:49:50.000Z</time>
      </trkpt>
      <trkpt lat="47.28469" lon="-2.36322">
        <ele>27.60000038147</ele>
        <time>2021-12-02T08:49:51.000Z</time>
      </trkpt>
      <trkpt lat="47.28469" lon="-2.36327">
        <ele>27.200000762939</ele>
        <time>2021-12-02T08:49:52.000Z</time>
      </trkpt>
      <trkpt lat="47.28469" lon="-2.36332">
        <ele>26.60000038147</ele>
        <time>2021-12-02T08:49:53.000Z</time>
      </trkpt>
      <trkpt lat="47.28471" lon="-2.3634">
        <ele>26.60000038147</ele>
        <time>2021-12-02T08:49:55.000Z</time>
      </trkpt>
      <trkpt lat="47.28475" lon="-2.36359">
        <ele>26.60000038147</ele>
        <time>2021-12-02T08:49:59.000Z</time>
      </trkpt>
      <trkpt lat="47.28475" lon="-2.36364">
        <ele>26.60000038147</ele>
        <time>2021-12-02T08:50:00.000Z</time>
      </trkpt>
      <trkpt lat="47.28476" lon="-2.36387">
        <ele>26.60000038147</ele>
        <time>2021-12-02T08:50:05.000Z</time>
      </trkpt>
      <trkpt lat="47.28477" lon="-2.36403">
        <ele>26.60000038147</ele>
        <time>2021-12-02T08:50:09.000Z</time>
      </trkpt>
      <trkpt lat="47.28479" lon="-2.36407">
        <ele>26.60000038147</ele>
        <time>2021-12-02T08:50:10.000Z</time>
      </trkpt>
      <trkpt lat="47.28489" lon="-2.36431">
        <ele>26.60000038147</ele>
        <time>2021-12-02T08:50:16.000Z</time>
      </trkpt>
      <trkpt lat="47.28508" lon="-2.36459">
        <ele>26.60000038147</ele>
        <time>2021-12-02T08:50:22.000Z</time>
      </trkpt>
      <trkpt lat="47.28515" lon="-2.3648">
        <ele>26.60000038147</ele>
        <time>2021-12-02T08:50:26.000Z</time>
      </trkpt>
      <trkpt lat="47.28518" lon="-2.36497">
        <ele>26.60000038147</ele>
        <time>2021-12-02T08:50:30.000Z</time>
      </trkpt>
      <trkpt lat="47.28516" lon="-2.36501">
        <ele>26.60000038147</ele>
        <time>2021-12-02T08:50:32.000Z</time>
      </trkpt>
      <trkpt lat="47.28513" lon="-2.36505">
        <ele>26.60000038147</ele>
        <time>2021-12-02T08:50:33.000Z</time>
      </trkpt>
      <trkpt lat="47.28509" lon="-2.3651">
        <ele>26.60000038147</ele>
        <time>2021-12-02T08:50:34.000Z</time>
      </trkpt>
      <trkpt lat="47.28505" lon="-2.36515">
        <ele>26.200000762939</ele>
        <time>2021-12-02T08:50:35.000Z</time>
      </trkpt>
      <trkpt lat="47.28502" lon="-2.3652">
        <ele>25.799999237061</ele>
        <time>2021-12-02T08:50:36.000Z</time>
      </trkpt>
      <trkpt lat="47.28497" lon="-2.36525">
        <ele>25.39999961853</ele>
        <time>2021-12-02T08:50:37.000Z</time>
      </trkpt>
      <trkpt lat="47.28493" lon="-2.3653">
        <ele>25</ele>
        <time>2021-12-02T08:50:38.000Z</time>
      </trkpt>
      <trkpt lat="47.28489" lon="-2.36534">
        <ele>24.60000038147</ele>
        <time>2021-12-02T08:50:39.000Z</time>
      </trkpt>
      <trkpt lat="47.28471" lon="-2.36565">
        <ele>24.60000038147</ele>
        <time>2021-12-02T08:50:45.000Z</time>
      </trkpt>
      <trkpt lat="47.28472" lon="-2.36573">
        <ele>24.200000762939</ele>
        <time>2021-12-02T08:50:46.000Z</time>
      </trkpt>
      <trkpt lat="47.28474" lon="-2.3658">
        <ele>23.799999237061</ele>
        <time>2021-12-02T08:50:47.000Z</time>
      </trkpt>
      <trkpt lat="47.28476" lon="-2.36587">
        <ele>23.200000762939</ele>
        <time>2021-12-02T08:50:48.000Z</time>
      </trkpt>
      <trkpt lat="47.28478" lon="-2.36593">
        <ele>22.799999237061</ele>
        <time>2021-12-02T08:50:49.000Z</time>
      </trkpt>
      <trkpt lat="47.2848" lon="-2.36599">
        <ele>22.39999961853</ele>
        <time>2021-12-02T08:50:50.000Z</time>
      </trkpt>
      <trkpt lat="47.28488" lon="-2.3663">
        <ele>22.39999961853</ele>
        <time>2021-12-02T08:50:55.000Z</time>
      </trkpt>
      <trkpt lat="47.28496" lon="-2.36656">
        <ele>22.39999961853</ele>
        <time>2021-12-02T08:51:00.000Z</time>
      </trkpt>
      <trkpt lat="47.28503" lon="-2.36669">
        <ele>22.39999961853</ele>
        <time>2021-12-02T08:51:04.000Z</time>
      </trkpt>
      <trkpt lat="47.28516" lon="-2.36694">
        <ele>22.39999961853</ele>
        <time>2021-12-02T08:51:09.000Z</time>
      </trkpt>
      <trkpt lat="47.28531" lon="-2.36727">
        <ele>22</ele>
        <time>2021-12-02T08:51:14.000Z</time>
      </trkpt>
      <trkpt lat="47.28535" lon="-2.36735">
        <ele>21.60000038147</ele>
        <time>2021-12-02T08:51:15.000Z</time>
      </trkpt>
      <trkpt lat="47.2854" lon="-2.36745">
        <ele>21.200000762939</ele>
        <time>2021-12-02T08:51:16.000Z</time>
      </trkpt>
      <trkpt lat="47.28545" lon="-2.36754">
        <ele>20.60000038147</ele>
        <time>2021-12-02T08:51:17.000Z</time>
      </trkpt>
      <trkpt lat="47.2855" lon="-2.36763">
        <ele>20.200000762939</ele>
        <time>2021-12-02T08:51:18.000Z</time>
      </trkpt>
      <trkpt lat="47.2856" lon="-2.36782">
        <ele>19.799999237061</ele>
        <time>2021-12-02T08:51:20.000Z</time>
      </trkpt>
      <trkpt lat="47.28565" lon="-2.36791">
        <ele>18.799999237061</ele>
        <time>2021-12-02T08:51:21.000Z</time>
      </trkpt>
      <trkpt lat="47.2857" lon="-2.36799">
        <ele>18.39999961853</ele>
        <time>2021-12-02T08:51:22.000Z</time>
      </trkpt>
      <trkpt lat="47.28574" lon="-2.36807">
        <ele>18</ele>
        <time>2021-12-02T08:51:23.000Z</time>
      </trkpt>
      <trkpt lat="47.28579" lon="-2.36815">
        <ele>18</ele>
        <time>2021-12-02T08:51:24.000Z</time>
      </trkpt>
      <trkpt lat="47.28595" lon="-2.36839">
        <ele>17.60000038147</ele>
        <time>2021-12-02T08:51:28.000Z</time>
      </trkpt>
      <trkpt lat="47.286" lon="-2.36842">
        <ele>17.200000762939</ele>
        <time>2021-12-02T08:51:29.000Z</time>
      </trkpt>
      <trkpt lat="47.28605" lon="-2.36842">
        <ele>16.799999237061</ele>
        <time>2021-12-02T08:51:30.000Z</time>
      </trkpt>
      <trkpt lat="47.2861" lon="-2.36841">
        <ele>16.200000762939</ele>
        <time>2021-12-02T08:51:31.000Z</time>
      </trkpt>
      <trkpt lat="47.28614" lon="-2.36838">
        <ele>15.800000190735</ele>
        <time>2021-12-02T08:51:32.000Z</time>
      </trkpt>
      <trkpt lat="47.28626" lon="-2.36827">
        <ele>15.800000190735</ele>
        <time>2021-12-02T08:51:35.000Z</time>
      </trkpt>
      <trkpt lat="47.28634" lon="-2.36817">
        <ele>15.800000190735</ele>
        <time>2021-12-02T08:51:37.000Z</time>
      </trkpt>
      <trkpt lat="47.28656" lon="-2.3679">
        <ele>16.200000762939</ele>
        <time>2021-12-02T08:51:44.000Z</time>
      </trkpt>
      <trkpt lat="47.28659" lon="-2.36789">
        <ele>16.60000038147</ele>
        <time>2021-12-02T08:51:45.000Z</time>
      </trkpt>
      <trkpt lat="47.28661" lon="-2.3679">
        <ele>17.60000038147</ele>
        <time>2021-12-02T08:51:46.000Z</time>
      </trkpt>
      <trkpt lat="47.28663" lon="-2.3679">
        <ele>18</ele>
        <time>2021-12-02T08:51:47.000Z</time>
      </trkpt>
      <trkpt lat="47.28667" lon="-2.36791">
        <ele>18</ele>
        <time>2021-12-02T08:51:49.000Z</time>
      </trkpt>
      <trkpt lat="47.28673" lon="-2.36791">
        <ele>18</ele>
        <time>2021-12-02T08:51:52.000Z</time>
      </trkpt>
      <trkpt lat="47.28678" lon="-2.36793">
        <ele>18.39999961853</ele>
        <time>2021-12-02T08:51:55.000Z</time>
      </trkpt>
      <trkpt lat="47.28679" lon="-2.36793">
        <ele>18.799999237061</ele>
        <time>2021-12-02T08:51:56.000Z</time>
      </trkpt>
      <trkpt lat="47.28681" lon="-2.36795">
        <ele>19.200000762939</ele>
        <time>2021-12-02T08:51:57.000Z</time>
      </trkpt>
      <trkpt lat="47.28683" lon="-2.36798">
        <ele>19.60000038147</ele>
        <time>2021-12-02T08:51:58.000Z</time>
      </trkpt>
      <trkpt lat="47.28685" lon="-2.36801">
        <ele>20</ele>
        <time>2021-12-02T08:51:59.000Z</time>
      </trkpt>
      <trkpt lat="47.2869" lon="-2.36817">
        <ele>20</ele>
        <time>2021-12-02T08:52:02.000Z</time>
      </trkpt>
      <trkpt lat="47.28696" lon="-2.36835">
        <ele>20</ele>
        <time>2021-12-02T08:52:05.000Z</time>
      </trkpt>
      <trkpt lat="47.28699" lon="-2.36842">
        <ele>19.60000038147</ele>
        <time>2021-12-02T08:52:06.000Z</time>
      </trkpt>
      <trkpt lat="47.28701" lon="-2.36849">
        <ele>19.200000762939</ele>
        <time>2021-12-02T08:52:07.000Z</time>
      </trkpt>
      <trkpt lat="47.28703" lon="-2.36857">
        <ele>18.799999237061</ele>
        <time>2021-12-02T08:52:08.000Z</time>
      </trkpt>
      <trkpt lat="47.28706" lon="-2.36865">
        <ele>18</ele>
        <time>2021-12-02T08:52:09.000Z</time>
      </trkpt>
      <trkpt lat="47.28712" lon="-2.36881">
        <ele>17.39999961853</ele>
        <time>2021-12-02T08:52:11.000Z</time>
      </trkpt>
      <trkpt lat="47.28714" lon="-2.36889">
        <ele>17</ele>
        <time>2021-12-02T08:52:12.000Z</time>
      </trkpt>
      <trkpt lat="47.28716" lon="-2.36897">
        <ele>16.39999961853</ele>
        <time>2021-12-02T08:52:13.000Z</time>
      </trkpt>
      <trkpt lat="47.28719" lon="-2.36905">
        <ele>15.800000190735</ele>
        <time>2021-12-02T08:52:14.000Z</time>
      </trkpt>
      <trkpt lat="47.28725" lon="-2.36916">
        <ele>15.199999809265</ele>
        <time>2021-12-02T08:52:15.000Z</time>
      </trkpt>
      <trkpt lat="47.28728" lon="-2.36923">
        <ele>14.39999961853</ele>
        <time>2021-12-02T08:52:16.000Z</time>
      </trkpt>
      <trkpt lat="47.28732" lon="-2.36927">
        <ele>13.800000190735</ele>
        <time>2021-12-02T08:52:17.000Z</time>
      </trkpt>
      <trkpt lat="47.28735" lon="-2.36931">
        <ele>13</ele>
        <time>2021-12-02T08:52:18.000Z</time>
      </trkpt>
      <trkpt lat="47.28742" lon="-2.36938">
        <ele>13</ele>
        <time>2021-12-02T08:52:20.000Z</time>
      </trkpt>
      <trkpt lat="47.28745" lon="-2.36942">
        <ele>13.60000038147</ele>
        <time>2021-12-02T08:52:21.000Z</time>
      </trkpt>
      <trkpt lat="47.28746" lon="-2.36946">
        <ele>14</ele>
        <time>2021-12-02T08:52:22.000Z</time>
      </trkpt>
      <trkpt lat="47.28746" lon="-2.36948">
        <ele>14.39999961853</ele>
        <time>2021-12-02T08:52:23.000Z</time>
      </trkpt>
      <trkpt lat="47.28747" lon="-2.36951">
        <ele>14.800000190735</ele>
        <time>2021-12-02T08:52:24.000Z</time>
      </trkpt>
      <trkpt lat="47.28748" lon="-2.36954">
        <ele>15.199999809265</ele>
        <time>2021-12-02T08:52:25.000Z</time>
      </trkpt>
      <trkpt lat="47.28749" lon="-2.36957">
        <ele>15.800000190735</ele>
        <time>2021-12-02T08:52:26.000Z</time>
      </trkpt>
      <trkpt lat="47.28749" lon="-2.36959">
        <ele>16.200000762939</ele>
        <time>2021-12-02T08:52:27.000Z</time>
      </trkpt>
      <trkpt lat="47.2875" lon="-2.36961">
        <ele>16.799999237061</ele>
        <time>2021-12-02T08:52:28.000Z</time>
      </trkpt>
      <trkpt lat="47.28751" lon="-2.36964">
        <ele>17.200000762939</ele>
        <time>2021-12-02T08:52:29.000Z</time>
      </trkpt>
      <trkpt lat="47.28752" lon="-2.36967">
        <ele>17.799999237061</ele>
        <time>2021-12-02T08:52:30.000Z</time>
      </trkpt>
      <trkpt lat="47.28754" lon="-2.36969">
        <ele>17.799999237061</ele>
        <time>2021-12-02T08:52:31.000Z</time>
      </trkpt>
      <trkpt lat="47.28759" lon="-2.36981">
        <ele>17.799999237061</ele>
        <time>2021-12-02T08:52:35.000Z</time>
      </trkpt>
      <trkpt lat="47.28763" lon="-2.36986">
        <ele>17.799999237061</ele>
        <time>2021-12-02T08:52:37.000Z</time>
      </trkpt>
      <trkpt lat="47.28768" lon="-2.36991">
        <ele>17.799999237061</ele>
        <time>2021-12-02T08:52:39.000Z</time>
      </trkpt>
      <trkpt lat="47.28774" lon="-2.37006">
        <ele>17.799999237061</ele>
        <time>2021-12-02T08:52:42.000Z</time>
      </trkpt>
      <trkpt lat="47.28782" lon="-2.3703">
        <ele>17.799999237061</ele>
        <time>2021-12-02T08:52:46.000Z</time>
      </trkpt>
      <trkpt lat="47.28783" lon="-2.37036">
        <ele>17.799999237061</ele>
        <time>2021-12-02T08:52:47.000Z</time>
      </trkpt>
      <trkpt lat="47.28787" lon="-2.37053">
        <ele>17.799999237061</ele>
        <time>2021-12-02T08:52:49.000Z</time>
      </trkpt>
      <trkpt lat="47.2879" lon="-2.37071">
        <ele>17.200000762939</ele>
        <time>2021-12-02T08:52:51.000Z</time>
      </trkpt>
      <trkpt lat="47.28791" lon="-2.37082">
        <ele>16.799999237061</ele>
        <time>2021-12-02T08:52:52.000Z</time>
      </trkpt>
      <trkpt lat="47.28793" lon="-2.37091">
        <ele>16.39999961853</ele>
        <time>2021-12-02T08:52:53.000Z</time>
      </trkpt>
      <trkpt lat="47.28795" lon="-2.37099">
        <ele>15.800000190735</ele>
        <time>2021-12-02T08:52:54.000Z</time>
      </trkpt>
      <trkpt lat="47.28797" lon="-2.37103">
        <ele>15.39999961853</ele>
        <time>2021-12-02T08:52:55.000Z</time>
      </trkpt>
      <trkpt lat="47.288" lon="-2.37106">
        <ele>15</ele>
        <time>2021-12-02T08:52:56.000Z</time>
      </trkpt>
      <trkpt lat="47.28803" lon="-2.37109">
        <ele>14.60000038147</ele>
        <time>2021-12-02T08:52:57.000Z</time>
      </trkpt>
      <trkpt lat="47.28807" lon="-2.37111">
        <ele>14</ele>
        <time>2021-12-02T08:52:58.000Z</time>
      </trkpt>
      <trkpt lat="47.2881" lon="-2.37112">
        <ele>13.199999809265</ele>
        <time>2021-12-02T08:52:59.000Z</time>
      </trkpt>
      <trkpt lat="47.28813" lon="-2.37112">
        <ele>12.60000038147</ele>
        <time>2021-12-02T08:53:00.000Z</time>
      </trkpt>
      <trkpt lat="47.28816" lon="-2.37111">
        <ele>12.199999809265</ele>
        <time>2021-12-02T08:53:01.000Z</time>
      </trkpt>
      <trkpt lat="47.28819" lon="-2.37107">
        <ele>11.60000038147</ele>
        <time>2021-12-02T08:53:02.000Z</time>
      </trkpt>
      <trkpt lat="47.28821" lon="-2.37101">
        <ele>11</ele>
        <time>2021-12-02T08:53:03.000Z</time>
      </trkpt>
      <trkpt lat="47.28823" lon="-2.37094">
        <ele>10.39999961853</ele>
        <time>2021-12-02T08:53:04.000Z</time>
      </trkpt>
      <trkpt lat="47.28824" lon="-2.37088">
        <ele>9.8000001907349</ele>
        <time>2021-12-02T08:53:05.000Z</time>
      </trkpt>
      <trkpt lat="47.28825" lon="-2.3708">
        <ele>9</ele>
        <time>2021-12-02T08:53:06.000Z</time>
      </trkpt>
      <trkpt lat="47.28825" lon="-2.37073">
        <ele>9</ele>
        <time>2021-12-02T08:53:07.000Z</time>
      </trkpt>
      <trkpt lat="47.28825" lon="-2.37066">
        <ele>9</ele>
        <time>2021-12-02T08:53:08.000Z</time>
      </trkpt>
      <trkpt lat="47.28823" lon="-2.37061">
        <ele>8.6000003814697</ele>
        <time>2021-12-02T08:53:09.000Z</time>
      </trkpt>
      <trkpt lat="47.28821" lon="-2.37056">
        <ele>8.1999998092651</ele>
        <time>2021-12-02T08:53:10.000Z</time>
      </trkpt>
      <trkpt lat="47.28819" lon="-2.37051">
        <ele>7.8000001907349</ele>
        <time>2021-12-02T08:53:11.000Z</time>
      </trkpt>
      <trkpt lat="47.28817" lon="-2.37046">
        <ele>7.4000000953674</ele>
        <time>2021-12-02T08:53:12.000Z</time>
      </trkpt>
      <trkpt lat="47.28816" lon="-2.37041">
        <ele>7</ele>
        <time>2021-12-02T08:53:13.000Z</time>
      </trkpt>
      <trkpt lat="47.28813" lon="-2.37029">
        <ele>7</ele>
        <time>2021-12-02T08:53:15.000Z</time>
      </trkpt>
      <trkpt lat="47.28811" lon="-2.37022">
        <ele>7</ele>
        <time>2021-12-02T08:53:16.000Z</time>
      </trkpt>
      <trkpt lat="47.28803" lon="-2.36988">
        <ele>7</ele>
        <time>2021-12-02T08:53:22.000Z</time>
      </trkpt>
      <trkpt lat="47.28794" lon="-2.36951">
        <ele>7</ele>
        <time>2021-12-02T08:53:28.000Z</time>
      </trkpt>
      <trkpt lat="47.28788" lon="-2.36913">
        <ele>7</ele>
        <time>2021-12-02T08:53:34.000Z</time>
      </trkpt>
      <trkpt lat="47.28786" lon="-2.36893">
        <ele>7</ele>
        <time>2021-12-02T08:53:37.000Z</time>
      </trkpt>
      <trkpt lat="47.28788" lon="-2.36873">
        <ele>7</ele>
        <time>2021-12-02T08:53:40.000Z</time>
      </trkpt>
      <trkpt lat="47.28789" lon="-2.36867">
        <ele>7</ele>
        <time>2021-12-02T08:53:41.000Z</time>
      </trkpt>
      <trkpt lat="47.28796" lon="-2.36842">
        <ele>7</ele>
        <time>2021-12-02T08:53:45.000Z</time>
      </trkpt>
      <trkpt lat="47.28798" lon="-2.36836">
        <ele>7</ele>
        <time>2021-12-02T08:53:46.000Z</time>
      </trkpt>
      <trkpt lat="47.28806" lon="-2.36819">
        <ele>7</ele>
        <time>2021-12-02T08:53:50.000Z</time>
      </trkpt>
      <trkpt lat="47.28812" lon="-2.36816">
        <ele>7</ele>
        <time>2021-12-02T08:53:53.000Z</time>
      </trkpt>
      <trkpt lat="47.28814" lon="-2.36818">
        <ele>7.4000000953674</ele>
        <time>2021-12-02T08:53:54.000Z</time>
      </trkpt>
      <trkpt lat="47.28814" lon="-2.3682">
        <ele>7.8000001907349</ele>
        <time>2021-12-02T08:53:55.000Z</time>
      </trkpt>
      <trkpt lat="47.28815" lon="-2.36823">
        <ele>8.1999998092651</ele>
        <time>2021-12-02T08:53:56.000Z</time>
      </trkpt>
      <trkpt lat="47.28815" lon="-2.36826">
        <ele>8.6000003814697</ele>
        <time>2021-12-02T08:53:57.000Z</time>
      </trkpt>
      <trkpt lat="47.28817" lon="-2.36831">
        <ele>9</ele>
        <time>2021-12-02T08:53:58.000Z</time>
      </trkpt>
      <trkpt lat="47.28822" lon="-2.36836">
        <ele>9.3999996185303</ele>
        <time>2021-12-02T08:54:00.000Z</time>
      </trkpt>
      <trkpt lat="47.28823" lon="-2.36839">
        <ele>10</ele>
        <time>2021-12-02T08:54:01.000Z</time>
      </trkpt>
      <trkpt lat="47.28823" lon="-2.36842">
        <ele>10.39999961853</ele>
        <time>2021-12-02T08:54:02.000Z</time>
      </trkpt>
      <trkpt lat="47.28824" lon="-2.36844">
        <ele>10.800000190735</ele>
        <time>2021-12-02T08:54:03.000Z</time>
      </trkpt>
      <trkpt lat="47.28825" lon="-2.36847">
        <ele>11.199999809265</ele>
        <time>2021-12-02T08:54:04.000Z</time>
      </trkpt>
      <trkpt lat="47.28827" lon="-2.36854">
        <ele>11.800000190735</ele>
        <time>2021-12-02T08:54:07.000Z</time>
      </trkpt>
      <trkpt lat="47.28829" lon="-2.36857">
        <ele>12.199999809265</ele>
        <time>2021-12-02T08:54:08.000Z</time>
      </trkpt>
      <trkpt lat="47.28831" lon="-2.36861">
        <ele>12.60000038147</ele>
        <time>2021-12-02T08:54:09.000Z</time>
      </trkpt>
      <trkpt lat="47.28832" lon="-2.36863">
        <ele>13</ele>
        <time>2021-12-02T08:54:10.000Z</time>
      </trkpt>
      <trkpt lat="47.28833" lon="-2.36866">
        <ele>13.39999961853</ele>
        <time>2021-12-02T08:54:11.000Z</time>
      </trkpt>
      <trkpt lat="47.28835" lon="-2.36871">
        <ele>13.800000190735</ele>
        <time>2021-12-02T08:54:14.000Z</time>
      </trkpt>
      <trkpt lat="47.28836" lon="-2.36872">
        <ele>14.199999809265</ele>
        <time>2021-12-02T08:54:15.000Z</time>
      </trkpt>
      <trkpt lat="47.28838" lon="-2.36872">
        <ele>14.800000190735</ele>
        <time>2021-12-02T08:54:16.000Z</time>
      </trkpt>
      <trkpt lat="47.2884" lon="-2.36873">
        <ele>15.199999809265</ele>
        <time>2021-12-02T08:54:17.000Z</time>
      </trkpt>
      <trkpt lat="47.28842" lon="-2.36874">
        <ele>15.60000038147</ele>
        <time>2021-12-02T08:54:18.000Z</time>
      </trkpt>
      <trkpt lat="47.28844" lon="-2.36874">
        <ele>16</ele>
        <time>2021-12-02T08:54:19.000Z</time>
      </trkpt>
      <trkpt lat="47.28844" lon="-2.36875">
        <ele>16.39999961853</ele>
        <time>2021-12-02T08:54:20.000Z</time>
      </trkpt>
      <trkpt lat="47.28847" lon="-2.36877">
        <ele>17.60000038147</ele>
        <time>2021-12-02T08:54:27.000Z</time>
      </trkpt>
      <trkpt lat="47.28851" lon="-2.36887">
        <ele>17.60000038147</ele>
        <time>2021-12-02T08:54:30.000Z</time>
      </trkpt>
      <trkpt lat="47.28865" lon="-2.36899">
        <ele>17.60000038147</ele>
        <time>2021-12-02T08:54:34.000Z</time>
      </trkpt>
      <trkpt lat="47.28888" lon="-2.36923">
        <ele>17.60000038147</ele>
        <time>2021-12-02T08:54:41.000Z</time>
      </trkpt>
      <trkpt lat="47.28901" lon="-2.36939">
        <ele>17.60000038147</ele>
        <time>2021-12-02T08:54:45.000Z</time>
      </trkpt>
      <trkpt lat="47.28904" lon="-2.36943">
        <ele>18</ele>
        <time>2021-12-02T08:54:46.000Z</time>
      </trkpt>
      <trkpt lat="47.28907" lon="-2.36947">
        <ele>18.39999961853</ele>
        <time>2021-12-02T08:54:47.000Z</time>
      </trkpt>
      <trkpt lat="47.2891" lon="-2.36951">
        <ele>18.799999237061</ele>
        <time>2021-12-02T08:54:48.000Z</time>
      </trkpt>
      <trkpt lat="47.28913" lon="-2.36955">
        <ele>19.200000762939</ele>
        <time>2021-12-02T08:54:49.000Z</time>
      </trkpt>
      <trkpt lat="47.28916" lon="-2.36959">
        <ele>19.60000038147</ele>
        <time>2021-12-02T08:54:50.000Z</time>
      </trkpt>
      <trkpt lat="47.28924" lon="-2.36972">
        <ele>19.60000038147</ele>
        <time>2021-12-02T08:54:53.000Z</time>
      </trkpt>
      <trkpt lat="47.2893" lon="-2.36981">
        <ele>19.60000038147</ele>
        <time>2021-12-02T08:54:55.000Z</time>
      </trkpt>
      <trkpt lat="47.28943" lon="-2.37005">
        <ele>19.60000038147</ele>
        <time>2021-12-02T08:55:00.000Z</time>
      </trkpt>
      <trkpt lat="47.28957" lon="-2.3703">
        <ele>19.60000038147</ele>
        <time>2021-12-02T08:55:05.000Z</time>
      </trkpt>
      <trkpt lat="47.28959" lon="-2.37035">
        <ele>19.60000038147</ele>
        <time>2021-12-02T08:55:06.000Z</time>
      </trkpt>
      <trkpt lat="47.28964" lon="-2.37046">
        <ele>19.60000038147</ele>
        <time>2021-12-02T08:55:08.000Z</time>
      </trkpt>
      <trkpt lat="47.28971" lon="-2.37065">
        <ele>19.60000038147</ele>
        <time>2021-12-02T08:55:11.000Z</time>
      </trkpt>
      <trkpt lat="47.28974" lon="-2.37071">
        <ele>19.60000038147</ele>
        <time>2021-12-02T08:55:12.000Z</time>
      </trkpt>
      <trkpt lat="47.28993" lon="-2.37124">
        <ele>19.60000038147</ele>
        <time>2021-12-02T08:55:19.000Z</time>
      </trkpt>
      <trkpt lat="47.29" lon="-2.37138">
        <ele>19.200000762939</ele>
        <time>2021-12-02T08:55:21.000Z</time>
      </trkpt>
      <trkpt lat="47.29003" lon="-2.37144">
        <ele>18.799999237061</ele>
        <time>2021-12-02T08:55:22.000Z</time>
      </trkpt>
      <trkpt lat="47.29005" lon="-2.3715">
        <ele>18.39999961853</ele>
        <time>2021-12-02T08:55:23.000Z</time>
      </trkpt>
      <trkpt lat="47.29006" lon="-2.37154">
        <ele>18</ele>
        <time>2021-12-02T08:55:24.000Z</time>
      </trkpt>
      <trkpt lat="47.29007" lon="-2.3716">
        <ele>17.60000038147</ele>
        <time>2021-12-02T08:55:25.000Z</time>
      </trkpt>
      <trkpt lat="47.29007" lon="-2.37168">
        <ele>17.200000762939</ele>
        <time>2021-12-02T08:55:26.000Z</time>
      </trkpt>
      <trkpt lat="47.29009" lon="-2.37175">
        <ele>16.39999961853</ele>
        <time>2021-12-02T08:55:27.000Z</time>
      </trkpt>
      <trkpt lat="47.29012" lon="-2.37182">
        <ele>16</ele>
        <time>2021-12-02T08:55:28.000Z</time>
      </trkpt>
      <trkpt lat="47.29016" lon="-2.37187">
        <ele>15.60000038147</ele>
        <time>2021-12-02T08:55:29.000Z</time>
      </trkpt>
      <trkpt lat="47.2902" lon="-2.37191">
        <ele>15.60000038147</ele>
        <time>2021-12-02T08:55:30.000Z</time>
      </trkpt>
      <trkpt lat="47.29029" lon="-2.37199">
        <ele>15.60000038147</ele>
        <time>2021-12-02T08:55:32.000Z</time>
      </trkpt>
      <trkpt lat="47.29037" lon="-2.37206">
        <ele>15.60000038147</ele>
        <time>2021-12-02T08:55:34.000Z</time>
      </trkpt>
      <trkpt lat="47.2904" lon="-2.37209">
        <ele>15.60000038147</ele>
        <time>2021-12-02T08:55:35.000Z</time>
      </trkpt>
      <trkpt lat="47.29058" lon="-2.37229">
        <ele>16</ele>
        <time>2021-12-02T08:55:40.000Z</time>
      </trkpt>
      <trkpt lat="47.29062" lon="-2.37233">
        <ele>16.39999961853</ele>
        <time>2021-12-02T08:55:41.000Z</time>
      </trkpt>
      <trkpt lat="47.29065" lon="-2.37236">
        <ele>16.799999237061</ele>
        <time>2021-12-02T08:55:42.000Z</time>
      </trkpt>
      <trkpt lat="47.29069" lon="-2.3724">
        <ele>17.200000762939</ele>
        <time>2021-12-02T08:55:43.000Z</time>
      </trkpt>
      <trkpt lat="47.29073" lon="-2.37244">
        <ele>17.60000038147</ele>
        <time>2021-12-02T08:55:44.000Z</time>
      </trkpt>
      <trkpt lat="47.29085" lon="-2.37257">
        <ele>17.60000038147</ele>
        <time>2021-12-02T08:55:47.000Z</time>
      </trkpt>
      <trkpt lat="47.29101" lon="-2.37272">
        <ele>18</ele>
        <time>2021-12-02T08:55:51.000Z</time>
      </trkpt>
      <trkpt lat="47.29104" lon="-2.37276">
        <ele>18.39999961853</ele>
        <time>2021-12-02T08:55:52.000Z</time>
      </trkpt>
      <trkpt lat="47.29108" lon="-2.37279">
        <ele>18.799999237061</ele>
        <time>2021-12-02T08:55:53.000Z</time>
      </trkpt>
      <trkpt lat="47.29112" lon="-2.37282">
        <ele>19.200000762939</ele>
        <time>2021-12-02T08:55:54.000Z</time>
      </trkpt>
      <trkpt lat="47.29116" lon="-2.37286">
        <ele>19.60000038147</ele>
        <time>2021-12-02T08:55:55.000Z</time>
      </trkpt>
      <trkpt lat="47.29136" lon="-2.37307">
        <ele>19.60000038147</ele>
        <time>2021-12-02T08:56:01.000Z</time>
      </trkpt>
      <trkpt lat="47.29139" lon="-2.37312">
        <ele>19.60000038147</ele>
        <time>2021-12-02T08:56:02.000Z</time>
      </trkpt>
      <trkpt lat="47.29156" lon="-2.37342">
        <ele>19.60000038147</ele>
        <time>2021-12-02T08:56:08.000Z</time>
      </trkpt>
      <trkpt lat="47.29177" lon="-2.37384">
        <ele>19.60000038147</ele>
        <time>2021-12-02T08:56:15.000Z</time>
      </trkpt>
      <trkpt lat="47.29208" lon="-2.37435">
        <ele>19.60000038147</ele>
        <time>2021-12-02T08:56:23.000Z</time>
      </trkpt>
      <trkpt lat="47.29217" lon="-2.37449">
        <ele>19.200000762939</ele>
        <time>2021-12-02T08:56:25.000Z</time>
      </trkpt>
      <trkpt lat="47.29222" lon="-2.37456">
        <ele>18.799999237061</ele>
        <time>2021-12-02T08:56:26.000Z</time>
      </trkpt>
      <trkpt lat="47.29226" lon="-2.37463">
        <ele>18.39999961853</ele>
        <time>2021-12-02T08:56:27.000Z</time>
      </trkpt>
      <trkpt lat="47.29231" lon="-2.3747">
        <ele>18</ele>
        <time>2021-12-02T08:56:28.000Z</time>
      </trkpt>
      <trkpt lat="47.29236" lon="-2.37477">
        <ele>17.60000038147</ele>
        <time>2021-12-02T08:56:29.000Z</time>
      </trkpt>
      <trkpt lat="47.2924" lon="-2.37484">
        <ele>17.60000038147</ele>
        <time>2021-12-02T08:56:30.000Z</time>
      </trkpt>
      <trkpt lat="47.2926" lon="-2.37512">
        <ele>17.200000762939</ele>
        <time>2021-12-02T08:56:34.000Z</time>
      </trkpt>
      <trkpt lat="47.29265" lon="-2.37517">
        <ele>16.60000038147</ele>
        <time>2021-12-02T08:56:35.000Z</time>
      </trkpt>
      <trkpt lat="47.2927" lon="-2.37523">
        <ele>16.200000762939</ele>
        <time>2021-12-02T08:56:36.000Z</time>
      </trkpt>
      <trkpt lat="47.29274" lon="-2.3753">
        <ele>15.800000190735</ele>
        <time>2021-12-02T08:56:37.000Z</time>
      </trkpt>
      <trkpt lat="47.29278" lon="-2.37539">
        <ele>15.39999961853</ele>
        <time>2021-12-02T08:56:38.000Z</time>
      </trkpt>
      <trkpt lat="47.29285" lon="-2.37555">
        <ele>15.39999961853</ele>
        <time>2021-12-02T08:56:40.000Z</time>
      </trkpt>
      <trkpt lat="47.29293" lon="-2.37569">
        <ele>15.39999961853</ele>
        <time>2021-12-02T08:56:42.000Z</time>
      </trkpt>
      <trkpt lat="47.29304" lon="-2.37588">
        <ele>15.39999961853</ele>
        <time>2021-12-02T08:56:45.000Z</time>
      </trkpt>
      <trkpt lat="47.29314" lon="-2.37605">
        <ele>15.39999961853</ele>
        <time>2021-12-02T08:56:48.000Z</time>
      </trkpt>
      <trkpt lat="47.2932" lon="-2.37617">
        <ele>15.39999961853</ele>
        <time>2021-12-02T08:56:50.000Z</time>
      </trkpt>
      <trkpt lat="47.29335" lon="-2.37662">
        <ele>15.39999961853</ele>
        <time>2021-12-02T08:56:56.000Z</time>
      </trkpt>
      <trkpt lat="47.29334" lon="-2.37697">
        <ele>15.39999961853</ele>
        <time>2021-12-02T08:57:00.000Z</time>
      </trkpt>
      <trkpt lat="47.29334" lon="-2.37707">
        <ele>15</ele>
        <time>2021-12-02T08:57:01.000Z</time>
      </trkpt>
      <trkpt lat="47.29334" lon="-2.37717">
        <ele>14.60000038147</ele>
        <time>2021-12-02T08:57:02.000Z</time>
      </trkpt>
      <trkpt lat="47.29334" lon="-2.37728">
        <ele>14.199999809265</ele>
        <time>2021-12-02T08:57:03.000Z</time>
      </trkpt>
      <trkpt lat="47.29334" lon="-2.3774">
        <ele>13.800000190735</ele>
        <time>2021-12-02T08:57:04.000Z</time>
      </trkpt>
      <trkpt lat="47.29334" lon="-2.37751">
        <ele>12.800000190735</ele>
        <time>2021-12-02T08:57:05.000Z</time>
      </trkpt>
      <trkpt lat="47.29335" lon="-2.37764">
        <ele>12.199999809265</ele>
        <time>2021-12-02T08:57:06.000Z</time>
      </trkpt>
      <trkpt lat="47.29336" lon="-2.37777">
        <ele>11.800000190735</ele>
        <time>2021-12-02T08:57:07.000Z</time>
      </trkpt>
      <trkpt lat="47.29337" lon="-2.3779">
        <ele>11.39999961853</ele>
        <time>2021-12-02T08:57:08.000Z</time>
      </trkpt>
      <trkpt lat="47.29338" lon="-2.37803">
        <ele>10.800000190735</ele>
        <time>2021-12-02T08:57:09.000Z</time>
      </trkpt>
      <trkpt lat="47.29338" lon="-2.37816">
        <ele>10.39999961853</ele>
        <time>2021-12-02T08:57:10.000Z</time>
      </trkpt>
      <trkpt lat="47.2934" lon="-2.3783">
        <ele>10</ele>
        <time>2021-12-02T08:57:11.000Z</time>
      </trkpt>
      <trkpt lat="47.29342" lon="-2.37843">
        <ele>9.6000003814697</ele>
        <time>2021-12-02T08:57:12.000Z</time>
      </trkpt>
      <trkpt lat="47.29345" lon="-2.37856">
        <ele>9.1999998092651</ele>
        <time>2021-12-02T08:57:13.000Z</time>
      </trkpt>
      <trkpt lat="47.29348" lon="-2.37867">
        <ele>8.8000001907349</ele>
        <time>2021-12-02T08:57:14.000Z</time>
      </trkpt>
      <trkpt lat="47.2936" lon="-2.37902">
        <ele>8.1999998092651</ele>
        <time>2021-12-02T08:57:17.000Z</time>
      </trkpt>
      <trkpt lat="47.29364" lon="-2.37913">
        <ele>7.8000001907349</ele>
        <time>2021-12-02T08:57:18.000Z</time>
      </trkpt>
      <trkpt lat="47.29368" lon="-2.37924">
        <ele>7.4000000953674</ele>
        <time>2021-12-02T08:57:19.000Z</time>
      </trkpt>
      <trkpt lat="47.29372" lon="-2.37935">
        <ele>6.8000001907349</ele>
        <time>2021-12-02T08:57:20.000Z</time>
      </trkpt>
      <trkpt lat="47.29375" lon="-2.37945">
        <ele>6.4000000953674</ele>
        <time>2021-12-02T08:57:21.000Z</time>
      </trkpt>
      <trkpt lat="47.29391" lon="-2.37987">
        <ele>6.4000000953674</ele>
        <time>2021-12-02T08:57:25.000Z</time>
      </trkpt>
      <trkpt lat="47.29395" lon="-2.37997">
        <ele>6</ele>
        <time>2021-12-02T08:57:26.000Z</time>
      </trkpt>
      <trkpt lat="47.29398" lon="-2.38007">
        <ele>5.4000000953674</ele>
        <time>2021-12-02T08:57:27.000Z</time>
      </trkpt>
      <trkpt lat="47.29401" lon="-2.38018">
        <ele>5</ele>
        <time>2021-12-02T08:57:28.000Z</time>
      </trkpt>
      <trkpt lat="47.29405" lon="-2.38028">
        <ele>4.5999999046326</ele>
        <time>2021-12-02T08:57:29.000Z</time>
      </trkpt>
      <trkpt lat="47.29409" lon="-2.38039">
        <ele>4.1999998092651</ele>
        <time>2021-12-02T08:57:30.000Z</time>
      </trkpt>
      <trkpt lat="47.2942" lon="-2.38071">
        <ele>3.5999999046326</ele>
        <time>2021-12-02T08:57:33.000Z</time>
      </trkpt>
      <trkpt lat="47.29424" lon="-2.38081">
        <ele>3.2000000476837</ele>
        <time>2021-12-02T08:57:34.000Z</time>
      </trkpt>
      <trkpt lat="47.29427" lon="-2.38091">
        <ele>2.7999999523163</ele>
        <time>2021-12-02T08:57:35.000Z</time>
      </trkpt>
      <trkpt lat="47.29431" lon="-2.381">
        <ele>2.4000000953674</ele>
        <time>2021-12-02T08:57:36.000Z</time>
      </trkpt>
      <trkpt lat="47.29434" lon="-2.3811">
        <ele>2</ele>
        <time>2021-12-02T08:57:37.000Z</time>
      </trkpt>
      <trkpt lat="47.2944" lon="-2.38129">
        <ele>2</ele>
        <time>2021-12-02T08:57:39.000Z</time>
      </trkpt>
      <trkpt lat="47.29449" lon="-2.38165">
        <ele>2</ele>
        <time>2021-12-02T08:57:43.000Z</time>
      </trkpt>
      <trkpt lat="47.2945" lon="-2.38173">
        <ele>2</ele>
        <time>2021-12-02T08:57:44.000Z</time>
      </trkpt>
      <trkpt lat="47.29458" lon="-2.38253">
        <ele>2</ele>
        <time>2021-12-02T08:57:53.000Z</time>
      </trkpt>
      <trkpt lat="47.29458" lon="-2.38317">
        <ele>2</ele>
        <time>2021-12-02T08:58:00.000Z</time>
      </trkpt>
      <trkpt lat="47.29458" lon="-2.38399">
        <ele>2</ele>
        <time>2021-12-02T08:58:08.000Z</time>
      </trkpt>
      <trkpt lat="47.29458" lon="-2.38409">
        <ele>2</ele>
        <time>2021-12-02T08:58:09.000Z</time>
      </trkpt>
      <trkpt lat="47.29461" lon="-2.38465">
        <ele>2</ele>
        <time>2021-12-02T08:58:15.000Z</time>
      </trkpt>
      <trkpt lat="47.29463" lon="-2.38524">
        <ele>2</ele>
        <time>2021-12-02T08:58:22.000Z</time>
      </trkpt>
      <trkpt lat="47.29466" lon="-2.38576">
        <ele>2</ele>
        <time>2021-12-02T08:58:28.000Z</time>
      </trkpt>
      <trkpt lat="47.29467" lon="-2.38652">
        <ele>2</ele>
        <time>2021-12-02T08:58:37.000Z</time>
      </trkpt>
      <trkpt lat="47.29472" lon="-2.38694">
        <ele>2</ele>
        <time>2021-12-02T08:58:42.000Z</time>
      </trkpt>
      <trkpt lat="47.29475" lon="-2.38752">
        <ele>2</ele>
        <time>2021-12-02T08:58:49.000Z</time>
      </trkpt>
      <trkpt lat="47.29475" lon="-2.38776">
        <ele>2.4000000953674</ele>
        <time>2021-12-02T08:58:52.000Z</time>
      </trkpt>
      <trkpt lat="47.29475" lon="-2.38784">
        <ele>2.7999999523163</ele>
        <time>2021-12-02T08:58:53.000Z</time>
      </trkpt>
      <trkpt lat="47.29475" lon="-2.38791">
        <ele>3.4000000953674</ele>
        <time>2021-12-02T08:58:54.000Z</time>
      </trkpt>
      <trkpt lat="47.29475" lon="-2.388">
        <ele>3.7999999523163</ele>
        <time>2021-12-02T08:58:55.000Z</time>
      </trkpt>
      <trkpt lat="47.29475" lon="-2.38807">
        <ele>4.1999998092651</ele>
        <time>2021-12-02T08:58:56.000Z</time>
      </trkpt>
      <trkpt lat="47.29479" lon="-2.38845">
        <ele>4.1999998092651</ele>
        <time>2021-12-02T08:59:01.000Z</time>
      </trkpt>
      <trkpt lat="47.29481" lon="-2.38852">
        <ele>4.1999998092651</ele>
        <time>2021-12-02T08:59:02.000Z</time>
      </trkpt>
      <trkpt lat="47.29486" lon="-2.38874">
        <ele>4.1999998092651</ele>
        <time>2021-12-02T08:59:05.000Z</time>
      </trkpt>
      <trkpt lat="47.29493" lon="-2.38895">
        <ele>4.1999998092651</ele>
        <time>2021-12-02T08:59:08.000Z</time>
      </trkpt>
      <trkpt lat="47.29509" lon="-2.38937">
        <ele>4.1999998092651</ele>
        <time>2021-12-02T08:59:14.000Z</time>
      </trkpt>
      <trkpt lat="47.29512" lon="-2.38942">
        <ele>4.1999998092651</ele>
        <time>2021-12-02T08:59:15.000Z</time>
      </trkpt>
      <trkpt lat="47.29524" lon="-2.38957">
        <ele>4.1999998092651</ele>
        <time>2021-12-02T08:59:18.000Z</time>
      </trkpt>
      <trkpt lat="47.29538" lon="-2.3897">
        <ele>4.1999998092651</ele>
        <time>2021-12-02T08:59:21.000Z</time>
      </trkpt>
      <trkpt lat="47.29569" lon="-2.38989">
        <ele>4.1999998092651</ele>
        <time>2021-12-02T08:59:27.000Z</time>
      </trkpt>
      <trkpt lat="47.29606" lon="-2.39004">
        <ele>4.1999998092651</ele>
        <time>2021-12-02T08:59:34.000Z</time>
      </trkpt>
      <trkpt lat="47.2962" lon="-2.39012">
        <ele>4.1999998092651</ele>
        <time>2021-12-02T08:59:37.000Z</time>
      </trkpt>
      <trkpt lat="47.29626" lon="-2.39023">
        <ele>4.1999998092651</ele>
        <time>2021-12-02T08:59:39.000Z</time>
      </trkpt>
      <trkpt lat="47.2963" lon="-2.39053">
        <ele>4.1999998092651</ele>
        <time>2021-12-02T08:59:43.000Z</time>
      </trkpt>
      <trkpt lat="47.29631" lon="-2.39061">
        <ele>4.1999998092651</ele>
        <time>2021-12-02T08:59:44.000Z</time>
      </trkpt>
      <trkpt lat="47.2963" lon="-2.3907">
        <ele>4.1999998092651</ele>
        <time>2021-12-02T08:59:45.000Z</time>
      </trkpt>
      <trkpt lat="47.29631" lon="-2.39115">
        <ele>4.1999998092651</ele>
        <time>2021-12-02T08:59:50.000Z</time>
      </trkpt>
      <trkpt lat="47.29633" lon="-2.39132">
        <ele>4.1999998092651</ele>
        <time>2021-12-02T08:59:52.000Z</time>
      </trkpt>
      <trkpt lat="47.29638" lon="-2.39157">
        <ele>4.1999998092651</ele>
        <time>2021-12-02T08:59:55.000Z</time>
      </trkpt>
      <trkpt lat="47.29641" lon="-2.39165">
        <ele>4.1999998092651</ele>
        <time>2021-12-02T08:59:56.000Z</time>
      </trkpt>
      <trkpt lat="47.29658" lon="-2.39185">
        <ele>4.1999998092651</ele>
        <time>2021-12-02T09:00:00.000Z</time>
      </trkpt>
      <trkpt lat="47.29662" lon="-2.39188">
        <ele>4.1999998092651</ele>
        <time>2021-12-02T09:00:01.000Z</time>
      </trkpt>
      <trkpt lat="47.29665" lon="-2.39193">
        <ele>4.1999998092651</ele>
        <time>2021-12-02T09:00:02.000Z</time>
      </trkpt>
      <trkpt lat="47.29666" lon="-2.392">
        <ele>4.1999998092651</ele>
        <time>2021-12-02T09:00:03.000Z</time>
      </trkpt>
      <trkpt lat="47.29659" lon="-2.39221">
        <ele>4.1999998092651</ele>
        <time>2021-12-02T09:00:06.000Z</time>
      </trkpt>
      <trkpt lat="47.29652" lon="-2.39253">
        <ele>4.1999998092651</ele>
        <time>2021-12-02T09:00:10.000Z</time>
      </trkpt>
      <trkpt lat="47.29646" lon="-2.39318">
        <ele>4.1999998092651</ele>
        <time>2021-12-02T09:00:18.000Z</time>
      </trkpt>
      <trkpt lat="47.29645" lon="-2.39334">
        <ele>3.7999999523163</ele>
        <time>2021-12-02T09:00:20.000Z</time>
      </trkpt>
      <trkpt lat="47.29645" lon="-2.39341">
        <ele>3.4000000953674</ele>
        <time>2021-12-02T09:00:21.000Z</time>
      </trkpt>
      <trkpt lat="47.29644" lon="-2.39349">
        <ele>3</ele>
        <time>2021-12-02T09:00:22.000Z</time>
      </trkpt>
      <trkpt lat="47.29643" lon="-2.39357">
        <ele>2.2000000476837</ele>
        <time>2021-12-02T09:00:23.000Z</time>
      </trkpt>
      <trkpt lat="47.29641" lon="-2.39387">
        <ele>2.2000000476837</ele>
        <time>2021-12-02T09:00:27.000Z</time>
      </trkpt>
      <trkpt lat="47.29634" lon="-2.39407">
        <ele>2.2000000476837</ele>
        <time>2021-12-02T09:00:30.000Z</time>
      </trkpt>
      <trkpt lat="47.29633" lon="-2.39414">
        <ele>2.2000000476837</ele>
        <time>2021-12-02T09:00:31.000Z</time>
      </trkpt>
      <trkpt lat="47.29629" lon="-2.39436">
        <ele>2.2000000476837</ele>
        <time>2021-12-02T09:00:34.000Z</time>
      </trkpt>
      <trkpt lat="47.29626" lon="-2.39443">
        <ele>2.2000000476837</ele>
        <time>2021-12-02T09:00:35.000Z</time>
      </trkpt>
      <trkpt lat="47.29611" lon="-2.39469">
        <ele>2.2000000476837</ele>
        <time>2021-12-02T09:00:40.000Z</time>
      </trkpt>
      <trkpt lat="47.29596" lon="-2.39493">
        <ele>2.2000000476837</ele>
        <time>2021-12-02T09:00:47.000Z</time>
      </trkpt>
      <trkpt lat="47.29583" lon="-2.39501">
        <ele>2.2000000476837</ele>
        <time>2021-12-02T09:00:53.000Z</time>
      </trkpt>
      <trkpt lat="47.29575" lon="-2.39498">
        <ele>2.2000000476837</ele>
        <time>2021-12-02T09:00:59.000Z</time>
      </trkpt>
      <trkpt lat="47.29573" lon="-2.39498">
        <ele>2.2000000476837</ele>
        <time>2021-12-02T09:01:00.000Z</time>
      </trkpt>
      <trkpt lat="47.29566" lon="-2.39494">
        <ele>2.2000000476837</ele>
        <time>2021-12-02T09:01:04.000Z</time>
      </trkpt>
      <trkpt lat="47.2956" lon="-2.39492">
        <ele>2.2000000476837</ele>
        <time>2021-12-02T09:01:08.000Z</time>
      </trkpt>
      <trkpt lat="47.29559" lon="-2.39494">
        <ele>2.2000000476837</ele>
        <time>2021-12-02T09:01:09.000Z</time>
      </trkpt>
      <trkpt lat="47.29554" lon="-2.39506">
        <ele>2.2000000476837</ele>
        <time>2021-12-02T09:01:13.000Z</time>
      </trkpt>
      <trkpt lat="47.29556" lon="-2.39523">
        <ele>2.2000000476837</ele>
        <time>2021-12-02T09:01:18.000Z</time>
      </trkpt>
      <trkpt lat="47.29557" lon="-2.39528">
        <ele>2.5999999046326</ele>
        <time>2021-12-02T09:01:20.000Z</time>
      </trkpt>
      <trkpt lat="47.29558" lon="-2.39531">
        <ele>3</ele>
        <time>2021-12-02T09:01:21.000Z</time>
      </trkpt>
      <trkpt lat="47.29559" lon="-2.39535">
        <ele>3.5999999046326</ele>
        <time>2021-12-02T09:01:22.000Z</time>
      </trkpt>
      <trkpt lat="47.29559" lon="-2.39538">
        <ele>4</ele>
        <time>2021-12-02T09:01:23.000Z</time>
      </trkpt>
      <trkpt lat="47.29561" lon="-2.39541">
        <ele>4.4000000953674</ele>
        <time>2021-12-02T09:01:24.000Z</time>
      </trkpt>
      <trkpt lat="47.29566" lon="-2.39542">
        <ele>4.4000000953674</ele>
        <time>2021-12-02T09:01:26.000Z</time>
      </trkpt>
      <trkpt lat="47.29574" lon="-2.39543">
        <ele>4.4000000953674</ele>
        <time>2021-12-02T09:01:29.000Z</time>
      </trkpt>
      <trkpt lat="47.29577" lon="-2.39543">
        <ele>4.8000001907349</ele>
        <time>2021-12-02T09:01:30.000Z</time>
      </trkpt>
      <trkpt lat="47.2958" lon="-2.39543">
        <ele>5.1999998092651</ele>
        <time>2021-12-02T09:01:31.000Z</time>
      </trkpt>
      <trkpt lat="47.29582" lon="-2.39544">
        <ele>5.5999999046326</ele>
        <time>2021-12-02T09:01:32.000Z</time>
      </trkpt>
      <trkpt lat="47.29585" lon="-2.39544">
        <ele>6</ele>
        <time>2021-12-02T09:01:33.000Z</time>
      </trkpt>
      <trkpt lat="47.29588" lon="-2.39545">
        <ele>6.4000000953674</ele>
        <time>2021-12-02T09:01:34.000Z</time>
      </trkpt>
      <trkpt lat="47.29602" lon="-2.39548">
        <ele>6.4000000953674</ele>
        <time>2021-12-02T09:01:40.000Z</time>
      </trkpt>
      <trkpt lat="47.29617" lon="-2.39551">
        <ele>6.4000000953674</ele>
        <time>2021-12-02T09:01:45.000Z</time>
      </trkpt>
      <trkpt lat="47.29625" lon="-2.39553">
        <ele>6.4000000953674</ele>
        <time>2021-12-02T09:01:49.000Z</time>
      </trkpt>
      <trkpt lat="47.29625" lon="-2.39556">
        <ele>6.4000000953674</ele>
        <time>2021-12-02T09:01:50.000Z</time>
      </trkpt>
      <trkpt lat="47.29617" lon="-2.39564">
        <ele>6.4000000953674</ele>
        <time>2021-12-02T09:01:53.000Z</time>
      </trkpt>
      <trkpt lat="47.29611" lon="-2.39567">
        <ele>6.4000000953674</ele>
        <time>2021-12-02T09:01:55.000Z</time>
      </trkpt>
      <trkpt lat="47.29611" lon="-2.3957">
        <ele>6</ele>
        <time>2021-12-02T09:01:56.000Z</time>
      </trkpt>
      <trkpt lat="47.2961" lon="-2.39574">
        <ele>5.5999999046326</ele>
        <time>2021-12-02T09:01:57.000Z</time>
      </trkpt>
      <trkpt lat="47.29612" lon="-2.39577">
        <ele>5.1999998092651</ele>
        <time>2021-12-02T09:01:58.000Z</time>
      </trkpt>
      <trkpt lat="47.29617" lon="-2.39578">
        <ele>4.8000001907349</ele>
        <time>2021-12-02T09:01:59.000Z</time>
      </trkpt>
      <trkpt lat="47.29622" lon="-2.39577">
        <ele>4.1999998092651</ele>
        <time>2021-12-02T09:02:00.000Z</time>
      </trkpt>
      <trkpt lat="47.29625" lon="-2.39579">
        <ele>4.1999998092651</ele>
        <time>2021-12-02T09:02:01.000Z</time>
      </trkpt>
      <trkpt lat="47.29628" lon="-2.3958">
        <ele>3.4000000953674</ele>
        <time>2021-12-02T09:02:02.000Z</time>
      </trkpt>
      <trkpt lat="47.29629" lon="-2.39584">
        <ele>3</ele>
        <time>2021-12-02T09:02:03.000Z</time>
      </trkpt>
      <trkpt lat="47.2963" lon="-2.39588">
        <ele>2.4000000953674</ele>
        <time>2021-12-02T09:02:04.000Z</time>
      </trkpt>
      <trkpt lat="47.2963" lon="-2.39594">
        <ele>2</ele>
        <time>2021-12-02T09:02:05.000Z</time>
      </trkpt>
      <trkpt lat="47.29629" lon="-2.39607">
        <ele>2</ele>
        <time>2021-12-02T09:02:07.000Z</time>
      </trkpt>
      <trkpt lat="47.29629" lon="-2.39613">
        <ele>2</ele>
        <time>2021-12-02T09:02:08.000Z</time>
      </trkpt>
      <trkpt lat="47.29625" lon="-2.39652">
        <ele>2</ele>
        <time>2021-12-02T09:02:13.000Z</time>
      </trkpt>
      <trkpt lat="47.2961" lon="-2.39683">
        <ele>2</ele>
        <time>2021-12-02T09:02:18.000Z</time>
      </trkpt>
      <trkpt lat="47.29603" lon="-2.39695">
        <ele>2</ele>
        <time>2021-12-02T09:02:20.000Z</time>
      </trkpt>
      <trkpt lat="47.29592" lon="-2.39716">
        <ele>2</ele>
        <time>2021-12-02T09:02:24.000Z</time>
      </trkpt>
      <trkpt lat="47.2958" lon="-2.39738">
        <ele>2</ele>
        <time>2021-12-02T09:02:29.000Z</time>
      </trkpt>
      <trkpt lat="47.29562" lon="-2.39773">
        <ele>2</ele>
        <time>2021-12-02T09:02:36.000Z</time>
      </trkpt>
      <trkpt lat="47.29546" lon="-2.3981">
        <ele>2</ele>
        <time>2021-12-02T09:02:43.000Z</time>
      </trkpt>
      <trkpt lat="47.29528" lon="-2.39844">
        <ele>2</ele>
        <time>2021-12-02T09:02:49.000Z</time>
      </trkpt>
      <trkpt lat="47.29515" lon="-2.39872">
        <ele>2</ele>
        <time>2021-12-02T09:02:54.000Z</time>
      </trkpt>
      <trkpt lat="47.29513" lon="-2.39876">
        <ele>2</ele>
        <time>2021-12-02T09:02:55.000Z</time>
      </trkpt>
      <trkpt lat="47.29497" lon="-2.399">
        <ele>2</ele>
        <time>2021-12-02T09:03:02.000Z</time>
      </trkpt>
      <trkpt lat="47.29494" lon="-2.39901">
        <ele>2</ele>
        <time>2021-12-02T09:03:04.000Z</time>
      </trkpt>
      <trkpt lat="47.29491" lon="-2.39904">
        <ele>2</ele>
        <time>2021-12-02T09:03:06.000Z</time>
      </trkpt>
      <trkpt lat="47.29486" lon="-2.39921">
        <ele>2</ele>
        <time>2021-12-02T09:03:10.000Z</time>
      </trkpt>
      <trkpt lat="47.29485" lon="-2.39926">
        <ele>2</ele>
        <time>2021-12-02T09:03:11.000Z</time>
      </trkpt>
      <trkpt lat="47.29481" lon="-2.39938">
        <ele>2</ele>
        <time>2021-12-02T09:03:13.000Z</time>
      </trkpt>
      <trkpt lat="47.29475" lon="-2.39949">
        <ele>2</ele>
        <time>2021-12-02T09:03:15.000Z</time>
      </trkpt>
      <trkpt lat="47.29463" lon="-2.39987">
        <ele>2</ele>
        <time>2021-12-02T09:03:21.000Z</time>
      </trkpt>
      <trkpt lat="47.29461" lon="-2.40015">
        <ele>2</ele>
        <time>2021-12-02T09:03:25.000Z</time>
      </trkpt>
      <trkpt lat="47.29461" lon="-2.40023">
        <ele>2</ele>
        <time>2021-12-02T09:03:26.000Z</time>
      </trkpt>
      <trkpt lat="47.29462" lon="-2.40039">
        <ele>2</ele>
        <time>2021-12-02T09:03:28.000Z</time>
      </trkpt>
      <trkpt lat="47.29463" lon="-2.4007">
        <ele>2</ele>
        <time>2021-12-02T09:03:32.000Z</time>
      </trkpt>
      <trkpt lat="47.29463" lon="-2.40078">
        <ele>2</ele>
        <time>2021-12-02T09:03:33.000Z</time>
      </trkpt>
      <trkpt lat="47.2946" lon="-2.40101">
        <ele>2</ele>
        <time>2021-12-02T09:03:36.000Z</time>
      </trkpt>
      <trkpt lat="47.29457" lon="-2.40115">
        <ele>2</ele>
        <time>2021-12-02T09:03:38.000Z</time>
      </trkpt>
      <trkpt lat="47.29457" lon="-2.40122">
        <ele>2</ele>
        <time>2021-12-02T09:03:39.000Z</time>
      </trkpt>
      <trkpt lat="47.29455" lon="-2.40153">
        <ele>2</ele>
        <time>2021-12-02T09:03:43.000Z</time>
      </trkpt>
      <trkpt lat="47.29454" lon="-2.4016">
        <ele>2</ele>
        <time>2021-12-02T09:03:44.000Z</time>
      </trkpt>
      <trkpt lat="47.29447" lon="-2.40204">
        <ele>2</ele>
        <time>2021-12-02T09:03:50.000Z</time>
      </trkpt>
      <trkpt lat="47.29441" lon="-2.40221">
        <ele>2</ele>
        <time>2021-12-02T09:03:53.000Z</time>
      </trkpt>
      <trkpt lat="47.29436" lon="-2.40221">
        <ele>2</ele>
        <time>2021-12-02T09:03:54.000Z</time>
      </trkpt>
      <trkpt lat="47.29422" lon="-2.40219">
        <ele>2</ele>
        <time>2021-12-02T09:03:57.000Z</time>
      </trkpt>
      <trkpt lat="47.29414" lon="-2.40224">
        <ele>2</ele>
        <time>2021-12-02T09:03:59.000Z</time>
      </trkpt>
      <trkpt lat="47.29405" lon="-2.40229">
        <ele>2</ele>
        <time>2021-12-02T09:04:01.000Z</time>
      </trkpt>
      <trkpt lat="47.29397" lon="-2.40234">
        <ele>2</ele>
        <time>2021-12-02T09:04:03.000Z</time>
      </trkpt>
      <trkpt lat="47.29371" lon="-2.40252">
        <ele>2</ele>
        <time>2021-12-02T09:04:09.000Z</time>
      </trkpt>
      <trkpt lat="47.29367" lon="-2.40256">
        <ele>2</ele>
        <time>2021-12-02T09:04:10.000Z</time>
      </trkpt>
      <trkpt lat="47.2935" lon="-2.40273">
        <ele>2</ele>
        <time>2021-12-02T09:04:14.000Z</time>
      </trkpt>
      <trkpt lat="47.29329" lon="-2.40292">
        <ele>2</ele>
        <time>2021-12-02T09:04:19.000Z</time>
      </trkpt>
      <trkpt lat="47.29325" lon="-2.40297">
        <ele>2</ele>
        <time>2021-12-02T09:04:20.000Z</time>
      </trkpt>
      <trkpt lat="47.29313" lon="-2.40313">
        <ele>2</ele>
        <time>2021-12-02T09:04:23.000Z</time>
      </trkpt>
      <trkpt lat="47.29301" lon="-2.40326">
        <ele>2</ele>
        <time>2021-12-02T09:04:26.000Z</time>
      </trkpt>
      <trkpt lat="47.29286" lon="-2.40344">
        <ele>2</ele>
        <time>2021-12-02T09:04:30.000Z</time>
      </trkpt>
      <trkpt lat="47.29285" lon="-2.4035">
        <ele>2</ele>
        <time>2021-12-02T09:04:31.000Z</time>
      </trkpt>
      <trkpt lat="47.29291" lon="-2.40371">
        <ele>2</ele>
        <time>2021-12-02T09:04:34.000Z</time>
      </trkpt>
      <trkpt lat="47.29297" lon="-2.40383">
        <ele>1.6000000238419</ele>
        <time>2021-12-02T09:04:36.000Z</time>
      </trkpt>
      <trkpt lat="47.293" lon="-2.40389">
        <ele>1.2000000476837</ele>
        <time>2021-12-02T09:04:37.000Z</time>
      </trkpt>
      <trkpt lat="47.29302" lon="-2.40394">
        <ele>0.80000001192093</ele>
        <time>2021-12-02T09:04:38.000Z</time>
      </trkpt>
      <trkpt lat="47.29305" lon="-2.40399">
        <ele>0.40000000596046</ele>
        <time>2021-12-02T09:04:39.000Z</time>
      </trkpt>
      <trkpt lat="47.29307" lon="-2.40403">
        <ele>2.5</ele>
        <time>2021-12-02T09:04:40.000Z</time>
      </trkpt>
      <trkpt lat="47.29307" lon="-2.40415">
        <ele>2.9</ele>
        <time>2021-12-02T09:04:42.000Z</time>
      </trkpt>
      <trkpt lat="47.29306" lon="-2.40421">
        <ele>3</ele>
        <time>2021-12-02T09:04:43.000Z</time>
      </trkpt>
      <trkpt lat="47.29296" lon="-2.40446">
        <ele>2.7</ele>
        <time>2021-12-02T09:04:47.000Z</time>
      </trkpt>
      <trkpt lat="47.29291" lon="-2.4046">
        <ele>2.8</ele>
        <time>2021-12-02T09:04:49.000Z</time>
      </trkpt>
      <trkpt lat="47.29278" lon="-2.40472">
        <ele>3</ele>
        <time>2021-12-02T09:04:52.000Z</time>
      </trkpt>
      <trkpt lat="47.29263" lon="-2.40477">
        <ele>2.4</ele>
        <time>2021-12-02T09:04:55.000Z</time>
      </trkpt>
      <trkpt lat="47.29253" lon="-2.40482">
        <ele>2.1</ele>
        <time>2021-12-02T09:04:57.000Z</time>
      </trkpt>
      <trkpt lat="47.29216" lon="-2.40503">
        <ele>2.7</ele>
        <time>2021-12-02T09:05:05.000Z</time>
      </trkpt>
      <trkpt lat="47.29189" lon="-2.40518">
        <ele>2.3</ele>
        <time>2021-12-02T09:05:12.000Z</time>
      </trkpt>
      <trkpt lat="47.29172" lon="-2.4052">
        <ele>3.4</ele>
        <time>2021-12-02T09:05:18.000Z</time>
      </trkpt>
      <trkpt lat="47.29166" lon="-2.40509">
        <ele>3.3</ele>
        <time>2021-12-02T09:05:21.000Z</time>
      </trkpt>
      <trkpt lat="47.29156" lon="-2.40488">
        <ele>3.1</ele>
        <time>2021-12-02T09:05:27.000Z</time>
      </trkpt>
      <trkpt lat="47.29144" lon="-2.40487">
        <ele>2.7</ele>
        <time>2021-12-02T09:05:30.000Z</time>
      </trkpt>
      <trkpt lat="47.2914" lon="-2.40488">
        <ele>2.6</ele>
        <time>2021-12-02T09:05:31.000Z</time>
      </trkpt>
      <trkpt lat="47.29131" lon="-2.40491">
        <ele>2.7</ele>
        <time>2021-12-02T09:05:33.000Z</time>
      </trkpt>
      <trkpt lat="47.29123" lon="-2.40497">
        <ele>2.9</ele>
        <time>2021-12-02T09:05:35.000Z</time>
      </trkpt>
      <trkpt lat="47.2911" lon="-2.40505">
        <ele>2.8</ele>
        <time>2021-12-02T09:05:38.000Z</time>
      </trkpt>
      <trkpt lat="47.29101" lon="-2.4052">
        <ele>2.2</ele>
        <time>2021-12-02T09:05:41.000Z</time>
      </trkpt>
      <trkpt lat="47.29102" lon="-2.40547">
        <ele>2.9</ele>
        <time>2021-12-02T09:05:45.000Z</time>
      </trkpt>
      <trkpt lat="47.29113" lon="-2.40559">
        <ele>2.8</ele>
        <time>2021-12-02T09:05:48.000Z</time>
      </trkpt>
      <trkpt lat="47.29135" lon="-2.4059">
        <ele>2.2</ele>
        <time>2021-12-02T09:05:54.000Z</time>
      </trkpt>
      <trkpt lat="47.29139" lon="-2.40602">
        <ele>2.7</ele>
        <time>2021-12-02T09:05:56.000Z</time>
      </trkpt>
      <trkpt lat="47.29142" lon="-2.40623">
        <ele>3</ele>
        <time>2021-12-02T09:05:59.000Z</time>
      </trkpt>
      <trkpt lat="47.29142" lon="-2.40631">
        <ele>3</ele>
        <time>2021-12-02T09:06:00.000Z</time>
      </trkpt>
      <trkpt lat="47.29148" lon="-2.40645">
        <ele>2.8</ele>
        <time>2021-12-02T09:06:03.000Z</time>
      </trkpt>
      <trkpt lat="47.29152" lon="-2.40645">
        <ele>2.8</ele>
        <time>2021-12-02T09:06:04.000Z</time>
      </trkpt>
      <trkpt lat="47.29164" lon="-2.40636">
        <ele>3</ele>
        <time>2021-12-02T09:06:07.000Z</time>
      </trkpt>
      <trkpt lat="47.29176" lon="-2.40627">
        <ele>2.8</ele>
        <time>2021-12-02T09:06:10.000Z</time>
      </trkpt>
      <trkpt lat="47.29187" lon="-2.40618">
        <ele>2.8</ele>
        <time>2021-12-02T09:06:13.000Z</time>
      </trkpt>
      <trkpt lat="47.29198" lon="-2.4061">
        <ele>2.9</ele>
        <time>2021-12-02T09:06:16.000Z</time>
      </trkpt>
      <trkpt lat="47.29209" lon="-2.40613">
        <ele>2.5</ele>
        <time>2021-12-02T09:06:18.000Z</time>
      </trkpt>
      <trkpt lat="47.29219" lon="-2.4063">
        <ele>2</ele>
        <time>2021-12-02T09:06:21.000Z</time>
      </trkpt>
      <trkpt lat="47.29222" lon="-2.40635">
        <ele>2</ele>
        <time>2021-12-02T09:06:22.000Z</time>
      </trkpt>
      <trkpt lat="47.2923" lon="-2.4065">
        <ele>2</ele>
        <time>2021-12-02T09:06:25.000Z</time>
      </trkpt>
      <trkpt lat="47.29232" lon="-2.40663">
        <ele>2</ele>
        <time>2021-12-02T09:06:27.000Z</time>
      </trkpt>
      <trkpt lat="47.29234" lon="-2.40676">
        <ele>2.1</ele>
        <time>2021-12-02T09:06:29.000Z</time>
      </trkpt>
      <trkpt lat="47.29229" lon="-2.40694">
        <ele>2.5</ele>
        <time>2021-12-02T09:06:32.000Z</time>
      </trkpt>
      <trkpt lat="47.29225" lon="-2.40705">
        <ele>2.9</ele>
        <time>2021-12-02T09:06:34.000Z</time>
      </trkpt>
      <trkpt lat="47.29213" lon="-2.40724">
        <ele>2.6</ele>
        <time>2021-12-02T09:06:38.000Z</time>
      </trkpt>
      <trkpt lat="47.29191" lon="-2.40757">
        <ele>2.1</ele>
        <time>2021-12-02T09:06:45.000Z</time>
      </trkpt>
      <trkpt lat="47.29189" lon="-2.40764">
        <ele>2.1</ele>
        <time>2021-12-02T09:06:46.000Z</time>
      </trkpt>
      <trkpt lat="47.29178" lon="-2.40794">
        <ele>2.3</ele>
        <time>2021-12-02T09:06:51.000Z</time>
      </trkpt>
      <trkpt lat="47.29171" lon="-2.40819">
        <ele>2.8</ele>
        <time>2021-12-02T09:06:55.000Z</time>
      </trkpt>
      <trkpt lat="47.29172" lon="-2.40839">
        <ele>2.6</ele>
        <time>2021-12-02T09:06:58.000Z</time>
      </trkpt>
      <trkpt lat="47.29172" lon="-2.40846">
        <ele>2.4</ele>
        <time>2021-12-02T09:06:59.000Z</time>
      </trkpt>
      <trkpt lat="47.29173" lon="-2.40867">
        <ele>2.2</ele>
        <time>2021-12-02T09:07:02.000Z</time>
      </trkpt>
      <trkpt lat="47.2917" lon="-2.40879">
        <ele>2.6</ele>
        <time>2021-12-02T09:07:04.000Z</time>
      </trkpt>
      <trkpt lat="47.29166" lon="-2.40891">
        <ele>3</ele>
        <time>2021-12-02T09:07:06.000Z</time>
      </trkpt>
      <trkpt lat="47.29163" lon="-2.40902">
        <ele>2.9</ele>
        <time>2021-12-02T09:07:08.000Z</time>
      </trkpt>
      <trkpt lat="47.29163" lon="-2.40908">
        <ele>3</ele>
        <time>2021-12-02T09:07:09.000Z</time>
      </trkpt>
      <trkpt lat="47.29168" lon="-2.40938">
        <ele>2.3</ele>
        <time>2021-12-02T09:07:14.000Z</time>
      </trkpt>
      <trkpt lat="47.2918" lon="-2.40944">
        <ele>2.9</ele>
        <time>2021-12-02T09:07:17.000Z</time>
      </trkpt>
      <trkpt lat="47.29184" lon="-2.40945">
        <ele>3.2</ele>
        <time>2021-12-02T09:07:18.000Z</time>
      </trkpt>
      <trkpt lat="47.29202" lon="-2.40949">
        <ele>3.4</ele>
        <time>2021-12-02T09:07:22.000Z</time>
      </trkpt>
      <trkpt lat="47.29205" lon="-2.40951">
        <ele>3.2</ele>
        <time>2021-12-02T09:07:23.000Z</time>
      </trkpt>
      <trkpt lat="47.29218" lon="-2.40971">
        <ele>3</ele>
        <time>2021-12-02T09:07:27.000Z</time>
      </trkpt>
      <trkpt lat="47.29222" lon="-2.40984">
        <ele>3</ele>
        <time>2021-12-02T09:07:29.000Z</time>
      </trkpt>
      <trkpt lat="47.29229" lon="-2.41001">
        <ele>2.7</ele>
        <time>2021-12-02T09:07:32.000Z</time>
      </trkpt>
      <trkpt lat="47.2925" lon="-2.41033">
        <ele>2</ele>
        <time>2021-12-02T09:07:39.000Z</time>
      </trkpt>
      <trkpt lat="47.29256" lon="-2.41041">
        <ele>2</ele>
        <time>2021-12-02T09:07:41.000Z</time>
      </trkpt>
      <trkpt lat="47.29256" lon="-2.41061">
        <ele>2.1</ele>
        <time>2021-12-02T09:07:44.000Z</time>
      </trkpt>
      <trkpt lat="47.29246" lon="-2.41076">
        <ele>2.7</ele>
        <time>2021-12-02T09:07:47.000Z</time>
      </trkpt>
      <trkpt lat="47.29245" lon="-2.41082">
        <ele>3</ele>
        <time>2021-12-02T09:07:48.000Z</time>
      </trkpt>
      <trkpt lat="47.29249" lon="-2.41093">
        <ele>3</ele>
        <time>2021-12-02T09:07:50.000Z</time>
      </trkpt>
      <trkpt lat="47.29259" lon="-2.41107">
        <ele>2.7</ele>
        <time>2021-12-02T09:07:53.000Z</time>
      </trkpt>
      <trkpt lat="47.29265" lon="-2.41116">
        <ele>2.4</ele>
        <time>2021-12-02T09:07:55.000Z</time>
      </trkpt>
      <trkpt lat="47.29288" lon="-2.41146">
        <ele>2.2</ele>
        <time>2021-12-02T09:08:02.000Z</time>
      </trkpt>
      <trkpt lat="47.29302" lon="-2.41184">
        <ele>2.1</ele>
        <time>2021-12-02T09:08:09.000Z</time>
      </trkpt>
      <trkpt lat="47.29304" lon="-2.4119">
        <ele>2</ele>
        <time>2021-12-02T09:08:10.000Z</time>
      </trkpt>
      <trkpt lat="47.29317" lon="-2.41204">
        <ele>2</ele>
        <time>2021-12-02T09:08:13.000Z</time>
      </trkpt>
      <trkpt lat="47.29321" lon="-2.41208">
        <ele>2</ele>
        <time>2021-12-02T09:08:14.000Z</time>
      </trkpt>
      <trkpt lat="47.29342" lon="-2.41233">
        <ele>2.3</ele>
        <time>2021-12-02T09:08:20.000Z</time>
      </trkpt>
      <trkpt lat="47.29352" lon="-2.41245">
        <ele>2.7</ele>
        <time>2021-12-02T09:08:23.000Z</time>
      </trkpt>
      <trkpt lat="47.29357" lon="-2.41261">
        <ele>3.2</ele>
        <time>2021-12-02T09:08:26.000Z</time>
      </trkpt>
      <trkpt lat="47.29358" lon="-2.41276">
        <ele>3.7</ele>
        <time>2021-12-02T09:08:28.000Z</time>
      </trkpt>
      <trkpt lat="47.29359" lon="-2.41296">
        <ele>3.3</ele>
        <time>2021-12-02T09:08:31.000Z</time>
      </trkpt>
      <trkpt lat="47.29359" lon="-2.41303">
        <ele>3</ele>
        <time>2021-12-02T09:08:32.000Z</time>
      </trkpt>
      <trkpt lat="47.29358" lon="-2.4131">
        <ele>3</ele>
        <time>2021-12-02T09:08:33.000Z</time>
      </trkpt>
      <trkpt lat="47.2935" lon="-2.41329">
        <ele>3.1</ele>
        <time>2021-12-02T09:08:36.000Z</time>
      </trkpt>
      <trkpt lat="47.29347" lon="-2.41342">
        <ele>3</ele>
        <time>2021-12-02T09:08:38.000Z</time>
      </trkpt>
      <trkpt lat="47.29351" lon="-2.41355">
        <ele>3.2</ele>
        <time>2021-12-02T09:08:40.000Z</time>
      </trkpt>
      <trkpt lat="47.29364" lon="-2.41372">
        <ele>4</ele>
        <time>2021-12-02T09:08:44.000Z</time>
      </trkpt>
      <trkpt lat="47.29374" lon="-2.41385">
        <ele>4</ele>
        <time>2021-12-02T09:08:47.000Z</time>
      </trkpt>
      <trkpt lat="47.29383" lon="-2.41401">
        <ele>3.7</ele>
        <time>2021-12-02T09:08:50.000Z</time>
      </trkpt>
      <trkpt lat="47.29398" lon="-2.41437">
        <ele>3.6</ele>
        <time>2021-12-02T09:08:56.000Z</time>
      </trkpt>
      <trkpt lat="47.29404" lon="-2.41448">
        <ele>4</ele>
        <time>2021-12-02T09:08:58.000Z</time>
      </trkpt>
      <trkpt lat="47.2941" lon="-2.41458">
        <ele>3.9</ele>
        <time>2021-12-02T09:09:00.000Z</time>
      </trkpt>
      <trkpt lat="47.29416" lon="-2.41467">
        <ele>3.4</ele>
        <time>2021-12-02T09:09:02.000Z</time>
      </trkpt>
      <trkpt lat="47.2943" lon="-2.41483">
        <ele>3.5</ele>
        <time>2021-12-02T09:09:06.000Z</time>
      </trkpt>
      <trkpt lat="47.29438" lon="-2.41488">
        <ele>3.5</ele>
        <time>2021-12-02T09:09:08.000Z</time>
      </trkpt>
      <trkpt lat="47.29455" lon="-2.41487">
        <ele>3.3</ele>
        <time>2021-12-02T09:09:12.000Z</time>
      </trkpt>
      <trkpt lat="47.29459" lon="-2.41485">
        <ele>3.2</ele>
        <time>2021-12-02T09:09:13.000Z</time>
      </trkpt>
      <trkpt lat="47.29477" lon="-2.41485">
        <ele>3</ele>
        <time>2021-12-02T09:09:17.000Z</time>
      </trkpt>
      <trkpt lat="47.29486" lon="-2.41486">
        <ele>3</ele>
        <time>2021-12-02T09:09:19.000Z</time>
      </trkpt>
      <trkpt lat="47.29498" lon="-2.41481">
        <ele>3</ele>
        <time>2021-12-02T09:09:22.000Z</time>
      </trkpt>
      <trkpt lat="47.29515" lon="-2.41479">
        <ele>3</ele>
        <time>2021-12-02T09:09:26.000Z</time>
      </trkpt>
      <trkpt lat="47.29529" lon="-2.41495">
        <ele>3</ele>
        <time>2021-12-02T09:09:30.000Z</time>
      </trkpt>
      <trkpt lat="47.29536" lon="-2.4151">
        <ele>3.2</ele>
        <time>2021-12-02T09:09:33.000Z</time>
      </trkpt>
      <trkpt lat="47.29541" lon="-2.41527">
        <ele>3</ele>
        <time>2021-12-02T09:09:36.000Z</time>
      </trkpt>
      <trkpt lat="47.29543" lon="-2.4154">
        <ele>3</ele>
        <time>2021-12-02T09:09:38.000Z</time>
      </trkpt>
      <trkpt lat="47.2954" lon="-2.41552">
        <ele>3</ele>
        <time>2021-12-02T09:09:40.000Z</time>
      </trkpt>
      <trkpt lat="47.29534" lon="-2.41569">
        <ele>3.4</ele>
        <time>2021-12-02T09:09:43.000Z</time>
      </trkpt>
      <trkpt lat="47.2953" lon="-2.41581">
        <ele>3.8</ele>
        <time>2021-12-02T09:09:45.000Z</time>
      </trkpt>
      <trkpt lat="47.29528" lon="-2.41592">
        <ele>4</ele>
        <time>2021-12-02T09:09:47.000Z</time>
      </trkpt>
      <trkpt lat="47.29527" lon="-2.41611">
        <ele>4</ele>
        <time>2021-12-02T09:09:50.000Z</time>
      </trkpt>
      <trkpt lat="47.2953" lon="-2.4163">
        <ele>4</ele>
        <time>2021-12-02T09:09:53.000Z</time>
      </trkpt>
      <trkpt lat="47.29534" lon="-2.41653">
        <ele>3.5</ele>
        <time>2021-12-02T09:09:57.000Z</time>
      </trkpt>
      <trkpt lat="47.29544" lon="-2.41682">
        <ele>3.1</ele>
        <time>2021-12-02T09:10:02.000Z</time>
      </trkpt>
      <trkpt lat="47.29547" lon="-2.41687">
        <ele>3.3</ele>
        <time>2021-12-02T09:10:03.000Z</time>
      </trkpt>
      <trkpt lat="47.29552" lon="-2.41697">
        <ele>3.7</ele>
        <time>2021-12-02T09:10:05.000Z</time>
      </trkpt>
      <trkpt lat="47.29561" lon="-2.41708">
        <ele>3.4</ele>
        <time>2021-12-02T09:10:08.000Z</time>
      </trkpt>
      <trkpt lat="47.29565" lon="-2.41711">
        <ele>3.3</ele>
        <time>2021-12-02T09:10:09.000Z</time>
      </trkpt>
      <trkpt lat="47.29569" lon="-2.41713">
        <ele>3.2</ele>
        <time>2021-12-02T09:10:10.000Z</time>
      </trkpt>
      <trkpt lat="47.29583" lon="-2.41718">
        <ele>3</ele>
        <time>2021-12-02T09:10:13.000Z</time>
      </trkpt>
      <trkpt lat="47.29587" lon="-2.41721">
        <ele>3</ele>
        <time>2021-12-02T09:10:14.000Z</time>
      </trkpt>
      <trkpt lat="47.29611" lon="-2.41742">
        <ele>2.3</ele>
        <time>2021-12-02T09:10:20.000Z</time>
      </trkpt>
      <trkpt lat="47.29626" lon="-2.41761">
        <ele>2.8</ele>
        <time>2021-12-02T09:10:24.000Z</time>
      </trkpt>
      <trkpt lat="47.29632" lon="-2.41773">
        <ele>3.4</ele>
        <time>2021-12-02T09:10:26.000Z</time>
      </trkpt>
      <trkpt lat="47.29634" lon="-2.41779">
        <ele>3.7</ele>
        <time>2021-12-02T09:10:27.000Z</time>
      </trkpt>
      <trkpt lat="47.29638" lon="-2.41798">
        <ele>3.9</ele>
        <time>2021-12-02T09:10:30.000Z</time>
      </trkpt>
      <trkpt lat="47.2964" lon="-2.41812">
        <ele>3.5</ele>
        <time>2021-12-02T09:10:32.000Z</time>
      </trkpt>
      <trkpt lat="47.29654" lon="-2.41829">
        <ele>3.2</ele>
        <time>2021-12-02T09:10:36.000Z</time>
      </trkpt>
      <trkpt lat="47.29672" lon="-2.41825">
        <ele>3.7</ele>
        <time>2021-12-02T09:10:40.000Z</time>
      </trkpt>
      <trkpt lat="47.29676" lon="-2.41823">
        <ele>3.8</ele>
        <time>2021-12-02T09:10:41.000Z</time>
      </trkpt>
      <trkpt lat="47.29695" lon="-2.41819">
        <ele>4</ele>
        <time>2021-12-02T09:10:45.000Z</time>
      </trkpt>
      <trkpt lat="47.29699" lon="-2.41816">
        <ele>4</ele>
        <time>2021-12-02T09:10:46.000Z</time>
      </trkpt>
      <trkpt lat="47.29709" lon="-2.41803">
        <ele>4</ele>
        <time>2021-12-02T09:10:49.000Z</time>
      </trkpt>
      <trkpt lat="47.29711" lon="-2.41798">
        <ele>4</ele>
        <time>2021-12-02T09:10:50.000Z</time>
      </trkpt>
      <trkpt lat="47.29722" lon="-2.41778">
        <ele>4</ele>
        <time>2021-12-02T09:10:54.000Z</time>
      </trkpt>
      <trkpt lat="47.29728" lon="-2.4177">
        <ele>4</ele>
        <time>2021-12-02T09:10:56.000Z</time>
      </trkpt>
      <trkpt lat="47.29748" lon="-2.41752">
        <ele>4</ele>
        <time>2021-12-02T09:11:01.000Z</time>
      </trkpt>
      <trkpt lat="47.29752" lon="-2.4175">
        <ele>4</ele>
        <time>2021-12-02T09:11:02.000Z</time>
      </trkpt>
      <trkpt lat="47.2976" lon="-2.41749">
        <ele>4</ele>
        <time>2021-12-02T09:11:04.000Z</time>
      </trkpt>
      <trkpt lat="47.29764" lon="-2.41751">
        <ele>4</ele>
        <time>2021-12-02T09:11:05.000Z</time>
      </trkpt>
      <trkpt lat="47.2977" lon="-2.41767">
        <ele>4</ele>
        <time>2021-12-02T09:11:08.000Z</time>
      </trkpt>
      <trkpt lat="47.29772" lon="-2.41792">
        <ele>4</ele>
        <time>2021-12-02T09:11:12.000Z</time>
      </trkpt>
      <trkpt lat="47.29772" lon="-2.41803">
        <ele>4</ele>
        <time>2021-12-02T09:11:14.000Z</time>
      </trkpt>
      <trkpt lat="47.29774" lon="-2.41829">
        <ele>3.3</ele>
        <time>2021-12-02T09:11:20.000Z</time>
      </trkpt>
      <trkpt lat="47.29782" lon="-2.41828">
        <ele>3.2</ele>
        <time>2021-12-02T09:11:23.000Z</time>
      </trkpt>
      <trkpt lat="47.29792" lon="-2.41819">
        <ele>3.5</ele>
        <time>2021-12-02T09:11:26.000Z</time>
      </trkpt>
      <trkpt lat="47.29806" lon="-2.41806">
        <ele>4</ele>
        <time>2021-12-02T09:11:30.000Z</time>
      </trkpt>
      <trkpt lat="47.29827" lon="-2.41784">
        <ele>3.2</ele>
        <time>2021-12-02T09:11:36.000Z</time>
      </trkpt>
      <trkpt lat="47.29831" lon="-2.41779">
        <ele>3.1</ele>
        <time>2021-12-02T09:11:37.000Z</time>
      </trkpt>
      <trkpt lat="47.29844" lon="-2.41761">
        <ele>3.4</ele>
        <time>2021-12-02T09:11:41.000Z</time>
      </trkpt>
      <trkpt lat="47.29848" lon="-2.41759">
        <ele>3.5</ele>
        <time>2021-12-02T09:11:42.000Z</time>
      </trkpt>
      <trkpt lat="47.29865" lon="-2.41759">
        <ele>3.4</ele>
        <time>2021-12-02T09:11:46.000Z</time>
      </trkpt>
      <trkpt lat="47.29884" lon="-2.41767">
        <ele>3.5</ele>
        <time>2021-12-02T09:11:50.000Z</time>
      </trkpt>
      <trkpt lat="47.29903" lon="-2.41757">
        <ele>3.1</ele>
        <time>2021-12-02T09:11:54.000Z</time>
      </trkpt>
      <trkpt lat="47.29924" lon="-2.41737">
        <ele>3.3</ele>
        <time>2021-12-02T09:12:00.000Z</time>
      </trkpt>
      <trkpt lat="47.29938" lon="-2.41727">
        <ele>3.2</ele>
        <time>2021-12-02T09:12:05.000Z</time>
      </trkpt>
      <trkpt lat="47.2994" lon="-2.41712">
        <ele>3.2</ele>
        <time>2021-12-02T09:12:09.000Z</time>
      </trkpt>
      <trkpt lat="47.29937" lon="-2.4169">
        <ele>3.4</ele>
        <time>2021-12-02T09:12:14.000Z</time>
      </trkpt>
      <trkpt lat="47.29929" lon="-2.41656">
        <ele>4</ele>
        <time>2021-12-02T09:12:21.000Z</time>
      </trkpt>
      <trkpt lat="47.29927" lon="-2.41638">
        <ele>4</ele>
        <time>2021-12-02T09:12:24.000Z</time>
      </trkpt>
      <trkpt lat="47.29928" lon="-2.41625">
        <ele>4.3</ele>
        <time>2021-12-02T09:12:26.000Z</time>
      </trkpt>
      <trkpt lat="47.29929" lon="-2.41612">
        <ele>4.5</ele>
        <time>2021-12-02T09:12:28.000Z</time>
      </trkpt>
      <trkpt lat="47.29927" lon="-2.41593">
        <ele>4.9</ele>
        <time>2021-12-02T09:12:31.000Z</time>
      </trkpt>
      <trkpt lat="47.29923" lon="-2.41561">
        <ele>5</ele>
        <time>2021-12-02T09:12:36.000Z</time>
      </trkpt>
      <trkpt lat="47.29924" lon="-2.41548">
        <ele>5.2</ele>
        <time>2021-12-02T09:12:38.000Z</time>
      </trkpt>
      <trkpt lat="47.29931" lon="-2.41527">
        <ele>5.5</ele>
        <time>2021-12-02T09:12:42.000Z</time>
      </trkpt>
      <trkpt lat="47.29935" lon="-2.41524">
        <ele>0.80000001192093</ele>
        <time>2021-12-02T09:12:43.000Z</time>
      </trkpt>
      <trkpt lat="47.2994" lon="-2.41522">
        <ele>1.2000000476837</ele>
        <time>2021-12-02T09:12:44.000Z</time>
      </trkpt>
      <trkpt lat="47.29944" lon="-2.41522">
        <ele>1.6000000238419</ele>
        <time>2021-12-02T09:12:45.000Z</time>
      </trkpt>
      <trkpt lat="47.29949" lon="-2.41522">
        <ele>2</ele>
        <time>2021-12-02T09:12:46.000Z</time>
      </trkpt>
      <trkpt lat="47.29974" lon="-2.41522">
        <ele>2</ele>
        <time>2021-12-02T09:12:51.000Z</time>
      </trkpt>
      <trkpt lat="47.30014" lon="-2.41513">
        <ele>2</ele>
        <time>2021-12-02T09:12:59.000Z</time>
      </trkpt>
      <trkpt lat="47.30041" lon="-2.41499">
        <ele>2</ele>
        <time>2021-12-02T09:13:05.000Z</time>
      </trkpt>
      <trkpt lat="47.30091" lon="-2.41469">
        <ele>2</ele>
        <time>2021-12-02T09:13:16.000Z</time>
      </trkpt>
      <trkpt lat="47.30128" lon="-2.41447">
        <ele>2</ele>
        <time>2021-12-02T09:13:24.000Z</time>
      </trkpt>
      <trkpt lat="47.30136" lon="-2.41439">
        <ele>2</ele>
        <time>2021-12-02T09:13:26.000Z</time>
      </trkpt>
      <trkpt lat="47.30142" lon="-2.41428">
        <ele>2</ele>
        <time>2021-12-02T09:13:28.000Z</time>
      </trkpt>
      <trkpt lat="47.30161" lon="-2.41381">
        <ele>2</ele>
        <time>2021-12-02T09:13:35.000Z</time>
      </trkpt>
      <trkpt lat="47.30185" lon="-2.41326">
        <ele>2</ele>
        <time>2021-12-02T09:13:43.000Z</time>
      </trkpt>
      <trkpt lat="47.30197" lon="-2.413">
        <ele>2</ele>
        <time>2021-12-02T09:13:47.000Z</time>
      </trkpt>
      <trkpt lat="47.30209" lon="-2.41282">
        <ele>2</ele>
        <time>2021-12-02T09:13:50.000Z</time>
      </trkpt>
      <trkpt lat="47.30242" lon="-2.41239">
        <ele>2</ele>
        <time>2021-12-02T09:13:58.000Z</time>
      </trkpt>
      <trkpt lat="47.30263" lon="-2.412">
        <ele>2</ele>
        <time>2021-12-02T09:14:04.000Z</time>
      </trkpt>
      <trkpt lat="47.30286" lon="-2.41152">
        <ele>2</ele>
        <time>2021-12-02T09:14:11.000Z</time>
      </trkpt>
      <trkpt lat="47.30302" lon="-2.41129">
        <ele>2</ele>
        <time>2021-12-02T09:14:15.000Z</time>
      </trkpt>
      <trkpt lat="47.30307" lon="-2.41127">
        <ele>2</ele>
        <time>2021-12-02T09:14:16.000Z</time>
      </trkpt>
      <trkpt lat="47.30322" lon="-2.4113">
        <ele>2</ele>
        <time>2021-12-02T09:14:19.000Z</time>
      </trkpt>
      <trkpt lat="47.30327" lon="-2.41132">
        <ele>2</ele>
        <time>2021-12-02T09:14:20.000Z</time>
      </trkpt>
      <trkpt lat="47.30369" lon="-2.4115">
        <ele>2</ele>
        <time>2021-12-02T09:14:27.000Z</time>
      </trkpt>
      <trkpt lat="47.30375" lon="-2.41152">
        <ele>2</ele>
        <time>2021-12-02T09:14:28.000Z</time>
      </trkpt>
      <trkpt lat="47.30393" lon="-2.41153">
        <ele>2</ele>
        <time>2021-12-02T09:14:31.000Z</time>
      </trkpt>
      <trkpt lat="47.30399" lon="-2.41153">
        <ele>2</ele>
        <time>2021-12-02T09:14:32.000Z</time>
      </trkpt>
      <trkpt lat="47.30434" lon="-2.41152">
        <ele>2</ele>
        <time>2021-12-02T09:14:38.000Z</time>
      </trkpt>
      <trkpt lat="47.30449" lon="-2.41165">
        <ele>2</ele>
        <time>2021-12-02T09:14:41.000Z</time>
      </trkpt>
      <trkpt lat="47.30455" lon="-2.41188">
        <ele>2</ele>
        <time>2021-12-02T09:14:44.000Z</time>
      </trkpt>
      <trkpt lat="47.30456" lon="-2.41197">
        <ele>2</ele>
        <time>2021-12-02T09:14:45.000Z</time>
      </trkpt>
      <trkpt lat="47.30463" lon="-2.41252">
        <ele>2</ele>
        <time>2021-12-02T09:14:51.000Z</time>
      </trkpt>
      <trkpt lat="47.30475" lon="-2.4131">
        <ele>2</ele>
        <time>2021-12-02T09:14:58.000Z</time>
      </trkpt>
      <trkpt lat="47.30478" lon="-2.41319">
        <ele>2</ele>
        <time>2021-12-02T09:14:59.000Z</time>
      </trkpt>
      <trkpt lat="47.30485" lon="-2.41354">
        <ele>2</ele>
        <time>2021-12-02T09:15:03.000Z</time>
      </trkpt>
      <trkpt lat="47.30496" lon="-2.41404">
        <ele>2</ele>
        <time>2021-12-02T09:15:09.000Z</time>
      </trkpt>
      <trkpt lat="47.30504" lon="-2.41444">
        <ele>2</ele>
        <time>2021-12-02T09:15:14.000Z</time>
      </trkpt>
      <trkpt lat="47.30503" lon="-2.41461">
        <ele>2</ele>
        <time>2021-12-02T09:15:16.000Z</time>
      </trkpt>
      <trkpt lat="47.30497" lon="-2.41475">
        <ele>2</ele>
        <time>2021-12-02T09:15:18.000Z</time>
      </trkpt>
      <trkpt lat="47.30494" lon="-2.41481">
        <ele>2</ele>
        <time>2021-12-02T09:15:19.000Z</time>
      </trkpt>
      <trkpt lat="47.30485" lon="-2.41503">
        <ele>2</ele>
        <time>2021-12-02T09:15:22.000Z</time>
      </trkpt>
      <trkpt lat="47.30484" lon="-2.41519">
        <ele>2</ele>
        <time>2021-12-02T09:15:24.000Z</time>
      </trkpt>
      <trkpt lat="47.3049" lon="-2.41545">
        <ele>2</ele>
        <time>2021-12-02T09:15:27.000Z</time>
      </trkpt>
      <trkpt lat="47.30493" lon="-2.41553">
        <ele>2</ele>
        <time>2021-12-02T09:15:28.000Z</time>
      </trkpt>
      <trkpt lat="47.30499" lon="-2.41569">
        <ele>2</ele>
        <time>2021-12-02T09:15:30.000Z</time>
      </trkpt>
      <trkpt lat="47.30502" lon="-2.41587">
        <ele>2</ele>
        <time>2021-12-02T09:15:32.000Z</time>
      </trkpt>
      <trkpt lat="47.30506" lon="-2.41631">
        <ele>2</ele>
        <time>2021-12-02T09:15:37.000Z</time>
      </trkpt>
      <trkpt lat="47.3051" lon="-2.41648">
        <ele>2</ele>
        <time>2021-12-02T09:15:39.000Z</time>
      </trkpt>
      <trkpt lat="47.30516" lon="-2.41663">
        <ele>2</ele>
        <time>2021-12-02T09:15:41.000Z</time>
      </trkpt>
      <trkpt lat="47.30527" lon="-2.41683">
        <ele>2</ele>
        <time>2021-12-02T09:15:44.000Z</time>
      </trkpt>
      <trkpt lat="47.30558" lon="-2.41725">
        <ele>2</ele>
        <time>2021-12-02T09:15:51.000Z</time>
      </trkpt>
      <trkpt lat="47.3058" lon="-2.41768">
        <ele>2</ele>
        <time>2021-12-02T09:15:57.000Z</time>
      </trkpt>
      <trkpt lat="47.30601" lon="-2.41825">
        <ele>2</ele>
        <time>2021-12-02T09:16:04.000Z</time>
      </trkpt>
      <trkpt lat="47.30623" lon="-2.4187">
        <ele>2</ele>
        <time>2021-12-02T09:16:10.000Z</time>
      </trkpt>
      <trkpt lat="47.30642" lon="-2.41927">
        <ele>2</ele>
        <time>2021-12-02T09:16:17.000Z</time>
      </trkpt>
      <trkpt lat="47.30651" lon="-2.41963">
        <ele>2</ele>
        <time>2021-12-02T09:16:21.000Z</time>
      </trkpt>
      <trkpt lat="47.30655" lon="-2.4197">
        <ele>2</ele>
        <time>2021-12-02T09:16:22.000Z</time>
      </trkpt>
      <trkpt lat="47.30678" lon="-2.42002">
        <ele>2</ele>
        <time>2021-12-02T09:16:27.000Z</time>
      </trkpt>
      <trkpt lat="47.30707" lon="-2.42037">
        <ele>2</ele>
        <time>2021-12-02T09:16:33.000Z</time>
      </trkpt>
      <trkpt lat="47.30737" lon="-2.42064">
        <ele>2</ele>
        <time>2021-12-02T09:16:39.000Z</time>
      </trkpt>
      <trkpt lat="47.30757" lon="-2.42098">
        <ele>2</ele>
        <time>2021-12-02T09:16:44.000Z</time>
      </trkpt>
      <trkpt lat="47.30778" lon="-2.42141">
        <ele>2</ele>
        <time>2021-12-02T09:16:50.000Z</time>
      </trkpt>
      <trkpt lat="47.308" lon="-2.42181">
        <ele>2</ele>
        <time>2021-12-02T09:16:56.000Z</time>
      </trkpt>
      <trkpt lat="47.30824" lon="-2.42204">
        <ele>2</ele>
        <time>2021-12-02T09:17:01.000Z</time>
      </trkpt>
      <trkpt lat="47.30836" lon="-2.42206">
        <ele>2</ele>
        <time>2021-12-02T09:17:03.000Z</time>
      </trkpt>
      <trkpt lat="47.30853" lon="-2.42206">
        <ele>2</ele>
        <time>2021-12-02T09:17:06.000Z</time>
      </trkpt>
      <trkpt lat="47.30866" lon="-2.42195">
        <ele>2</ele>
        <time>2021-12-02T09:17:09.000Z</time>
      </trkpt>
      <trkpt lat="47.30873" lon="-2.4218">
        <ele>2</ele>
        <time>2021-12-02T09:17:11.000Z</time>
      </trkpt>
      <trkpt lat="47.30884" lon="-2.4216">
        <ele>2</ele>
        <time>2021-12-02T09:17:14.000Z</time>
      </trkpt>
      <trkpt lat="47.30914" lon="-2.4212">
        <ele>2</ele>
        <time>2021-12-02T09:17:21.000Z</time>
      </trkpt>
      <trkpt lat="47.30944" lon="-2.42088">
        <ele>2</ele>
        <time>2021-12-02T09:17:28.000Z</time>
      </trkpt>
      <trkpt lat="47.30975" lon="-2.42056">
        <ele>2</ele>
        <time>2021-12-02T09:17:35.000Z</time>
      </trkpt>
      <trkpt lat="47.30996" lon="-2.42036">
        <ele>2.4000000953674</ele>
        <time>2021-12-02T09:17:40.000Z</time>
      </trkpt>
      <trkpt lat="47.31" lon="-2.42032">
        <ele>2.7999999523163</ele>
        <time>2021-12-02T09:17:41.000Z</time>
      </trkpt>
      <trkpt lat="47.31004" lon="-2.42027">
        <ele>3.2000000476837</ele>
        <time>2021-12-02T09:17:42.000Z</time>
      </trkpt>
      <trkpt lat="47.31008" lon="-2.42022">
        <ele>3.5999999046326</ele>
        <time>2021-12-02T09:17:43.000Z</time>
      </trkpt>
      <trkpt lat="47.31011" lon="-2.42018">
        <ele>4</ele>
        <time>2021-12-02T09:17:44.000Z</time>
      </trkpt>
      <trkpt lat="47.31025" lon="-2.42002">
        <ele>4</ele>
        <time>2021-12-02T09:17:48.000Z</time>
      </trkpt>
      <trkpt lat="47.31047" lon="-2.41978">
        <ele>4</ele>
        <time>2021-12-02T09:17:55.000Z</time>
      </trkpt>
      <trkpt lat="47.31066" lon="-2.41956">
        <ele>4</ele>
        <time>2021-12-02T09:18:01.000Z</time>
      </trkpt>
      <trkpt lat="47.31076" lon="-2.4195">
        <ele>4</ele>
        <time>2021-12-02T09:18:04.000Z</time>
      </trkpt>
      <trkpt lat="47.31079" lon="-2.41951">
        <ele>4</ele>
        <time>2021-12-02T09:18:05.000Z</time>
      </trkpt>
      <trkpt lat="47.31087" lon="-2.41965">
        <ele>4</ele>
        <time>2021-12-02T09:18:09.000Z</time>
      </trkpt>
      <trkpt lat="47.31094" lon="-2.41984">
        <ele>4.4000000953674</ele>
        <time>2021-12-02T09:18:12.000Z</time>
      </trkpt>
      <trkpt lat="47.31095" lon="-2.4199">
        <ele>4.8000001907349</ele>
        <time>2021-12-02T09:18:13.000Z</time>
      </trkpt>
      <trkpt lat="47.31097" lon="-2.41997">
        <ele>5.4000000953674</ele>
        <time>2021-12-02T09:18:14.000Z</time>
      </trkpt>
      <trkpt lat="47.31099" lon="-2.42003">
        <ele>5.8000001907349</ele>
        <time>2021-12-02T09:18:15.000Z</time>
      </trkpt>
      <trkpt lat="47.31101" lon="-2.4201">
        <ele>6.1999998092651</ele>
        <time>2021-12-02T09:18:16.000Z</time>
      </trkpt>
      <trkpt lat="47.31117" lon="-2.42057">
        <ele>6.1999998092651</ele>
        <time>2021-12-02T09:18:23.000Z</time>
      </trkpt>
      <trkpt lat="47.31137" lon="-2.42105">
        <ele>6.1999998092651</ele>
        <time>2021-12-02T09:18:30.000Z</time>
      </trkpt>
      <trkpt lat="47.3114" lon="-2.4211">
        <ele>6.1999998092651</ele>
        <time>2021-12-02T09:18:31.000Z</time>
      </trkpt>
      <trkpt lat="47.31143" lon="-2.42116">
        <ele>6.1999998092651</ele>
        <time>2021-12-02T09:18:33.000Z</time>
      </trkpt>
      <trkpt lat="47.31143" lon="-2.42117">
        <ele>6.1999998092651</ele>
        <time>2021-12-02T09:18:35.000Z</time>
      </trkpt>
      <trkpt lat="47.31145" lon="-2.42121">
        <ele>6.1999998092651</ele>
        <time>2021-12-02T09:18:57.000Z</time>
      </trkpt>
      <trkpt lat="47.31146" lon="-2.42124">
        <ele>6.1999998092651</ele>
        <time>2021-12-02T09:18:58.000Z</time>
      </trkpt>
      <trkpt lat="47.31153" lon="-2.42138">
        <ele>6.1999998092651</ele>
        <time>2021-12-02T09:19:02.000Z</time>
      </trkpt>
      <trkpt lat="47.31168" lon="-2.42166">
        <ele>6.1999998092651</ele>
        <time>2021-12-02T09:19:07.000Z</time>
      </trkpt>
      <trkpt lat="47.3118" lon="-2.42194">
        <ele>6.1999998092651</ele>
        <time>2021-12-02T09:19:11.000Z</time>
      </trkpt>
      <trkpt lat="47.31194" lon="-2.42223">
        <ele>6.1999998092651</ele>
        <time>2021-12-02T09:19:15.000Z</time>
      </trkpt>
      <trkpt lat="47.3122" lon="-2.4228">
        <ele>6.1999998092651</ele>
        <time>2021-12-02T09:19:23.000Z</time>
      </trkpt>
      <trkpt lat="47.31228" lon="-2.42293">
        <ele>6.1999998092651</ele>
        <time>2021-12-02T09:19:25.000Z</time>
      </trkpt>
      <trkpt lat="47.31242" lon="-2.4231">
        <ele>6.1999998092651</ele>
        <time>2021-12-02T09:19:28.000Z</time>
      </trkpt>
      <trkpt lat="47.31275" lon="-2.42344">
        <ele>6.1999998092651</ele>
        <time>2021-12-02T09:19:35.000Z</time>
      </trkpt>
      <trkpt lat="47.31304" lon="-2.42387">
        <ele>6.1999998092651</ele>
        <time>2021-12-02T09:19:42.000Z</time>
      </trkpt>
      <trkpt lat="47.31333" lon="-2.42439">
        <ele>6.1999998092651</ele>
        <time>2021-12-02T09:19:50.000Z</time>
      </trkpt>
      <trkpt lat="47.31354" lon="-2.42488">
        <ele>6.1999998092651</ele>
        <time>2021-12-02T09:19:57.000Z</time>
      </trkpt>
      <trkpt lat="47.3136" lon="-2.42531">
        <ele>6.1999998092651</ele>
        <time>2021-12-02T09:20:02.000Z</time>
      </trkpt>
      <trkpt lat="47.31367" lon="-2.42582">
        <ele>6.1999998092651</ele>
        <time>2021-12-02T09:20:08.000Z</time>
      </trkpt>
      <trkpt lat="47.31382" lon="-2.42628">
        <ele>6.1999998092651</ele>
        <time>2021-12-02T09:20:14.000Z</time>
      </trkpt>
      <trkpt lat="47.31406" lon="-2.42673">
        <ele>6.1999998092651</ele>
        <time>2021-12-02T09:20:21.000Z</time>
      </trkpt>
      <trkpt lat="47.31436" lon="-2.42723">
        <ele>6.1999998092651</ele>
        <time>2021-12-02T09:20:29.000Z</time>
      </trkpt>
      <trkpt lat="47.31449" lon="-2.42748">
        <ele>6.5999999046326</ele>
        <time>2021-12-02T09:20:33.000Z</time>
      </trkpt>
      <trkpt lat="47.31452" lon="-2.42755">
        <ele>7</ele>
        <time>2021-12-02T09:20:34.000Z</time>
      </trkpt>
      <trkpt lat="47.31454" lon="-2.42763">
        <ele>7.4000000953674</ele>
        <time>2021-12-02T09:20:35.000Z</time>
      </trkpt>
      <trkpt lat="47.31457" lon="-2.4277">
        <ele>7.8000001907349</ele>
        <time>2021-12-02T09:20:36.000Z</time>
      </trkpt>
      <trkpt lat="47.31459" lon="-2.42778">
        <ele>8.1999998092651</ele>
        <time>2021-12-02T09:20:37.000Z</time>
      </trkpt>
      <trkpt lat="47.31468" lon="-2.42815">
        <ele>8.1999998092651</ele>
        <time>2021-12-02T09:20:42.000Z</time>
      </trkpt>
      <trkpt lat="47.31475" lon="-2.42835">
        <ele>8.1999998092651</ele>
        <time>2021-12-02T09:20:45.000Z</time>
      </trkpt>
      <trkpt lat="47.31484" lon="-2.42852">
        <ele>8.1999998092651</ele>
        <time>2021-12-02T09:20:48.000Z</time>
      </trkpt>
      <trkpt lat="47.31486" lon="-2.42857">
        <ele>8.1999998092651</ele>
        <time>2021-12-02T09:20:49.000Z</time>
      </trkpt>
      <trkpt lat="47.31495" lon="-2.42885">
        <ele>8.1999998092651</ele>
        <time>2021-12-02T09:20:53.000Z</time>
      </trkpt>
      <trkpt lat="47.31498" lon="-2.42891">
        <ele>8.1999998092651</ele>
        <time>2021-12-02T09:20:54.000Z</time>
      </trkpt>
      <trkpt lat="47.31506" lon="-2.429">
        <ele>8.1999998092651</ele>
        <time>2021-12-02T09:20:56.000Z</time>
      </trkpt>
      <trkpt lat="47.31521" lon="-2.42901">
        <ele>8.1999998092651</ele>
        <time>2021-12-02T09:20:59.000Z</time>
      </trkpt>
      <trkpt lat="47.31535" lon="-2.42899">
        <ele>8.6000003814697</ele>
        <time>2021-12-02T09:21:02.000Z</time>
      </trkpt>
      <trkpt lat="47.3154" lon="-2.42899">
        <ele>9</ele>
        <time>2021-12-02T09:21:03.000Z</time>
      </trkpt>
      <trkpt lat="47.31544" lon="-2.42898">
        <ele>9.3999996185303</ele>
        <time>2021-12-02T09:21:04.000Z</time>
      </trkpt>
      <trkpt lat="47.31549" lon="-2.42898">
        <ele>10</ele>
        <time>2021-12-02T09:21:05.000Z</time>
      </trkpt>
      <trkpt lat="47.31553" lon="-2.42899">
        <ele>10.39999961853</ele>
        <time>2021-12-02T09:21:06.000Z</time>
      </trkpt>
      <trkpt lat="47.31558" lon="-2.429">
        <ele>10.39999961853</ele>
        <time>2021-12-02T09:21:07.000Z</time>
      </trkpt>
      <trkpt lat="47.31575" lon="-2.42904">
        <ele>10.39999961853</ele>
        <time>2021-12-02T09:21:11.000Z</time>
      </trkpt>
      <trkpt lat="47.3158" lon="-2.42906">
        <ele>10.800000190735</ele>
        <time>2021-12-02T09:21:12.000Z</time>
      </trkpt>
      <trkpt lat="47.31584" lon="-2.42908">
        <ele>11.199999809265</ele>
        <time>2021-12-02T09:21:13.000Z</time>
      </trkpt>
      <trkpt lat="47.31589" lon="-2.4291">
        <ele>11.60000038147</ele>
        <time>2021-12-02T09:21:14.000Z</time>
      </trkpt>
      <trkpt lat="47.31593" lon="-2.42912">
        <ele>12</ele>
        <time>2021-12-02T09:21:15.000Z</time>
      </trkpt>
      <trkpt lat="47.31598" lon="-2.42913">
        <ele>12.39999961853</ele>
        <time>2021-12-02T09:21:16.000Z</time>
      </trkpt>
      <trkpt lat="47.31615" lon="-2.4292">
        <ele>12.39999961853</ele>
        <time>2021-12-02T09:21:20.000Z</time>
      </trkpt>
      <trkpt lat="47.31637" lon="-2.42928">
        <ele>12.800000190735</ele>
        <time>2021-12-02T09:21:25.000Z</time>
      </trkpt>
      <trkpt lat="47.31642" lon="-2.4293">
        <ele>13.199999809265</ele>
        <time>2021-12-02T09:21:26.000Z</time>
      </trkpt>
      <trkpt lat="47.31646" lon="-2.42932">
        <ele>13.60000038147</ele>
        <time>2021-12-02T09:21:27.000Z</time>
      </trkpt>
      <trkpt lat="47.3165" lon="-2.42934">
        <ele>14</ele>
        <time>2021-12-02T09:21:28.000Z</time>
      </trkpt>
      <trkpt lat="47.31654" lon="-2.42935">
        <ele>14.39999961853</ele>
        <time>2021-12-02T09:21:29.000Z</time>
      </trkpt>
      <trkpt lat="47.31688" lon="-2.42948">
        <ele>14.39999961853</ele>
        <time>2021-12-02T09:21:37.000Z</time>
      </trkpt>
      <trkpt lat="47.31692" lon="-2.4295">
        <ele>15</ele>
        <time>2021-12-02T09:21:38.000Z</time>
      </trkpt>
      <trkpt lat="47.31696" lon="-2.42952">
        <ele>15.39999961853</ele>
        <time>2021-12-02T09:21:39.000Z</time>
      </trkpt>
      <trkpt lat="47.317" lon="-2.42953">
        <ele>15.800000190735</ele>
        <time>2021-12-02T09:21:40.000Z</time>
      </trkpt>
      <trkpt lat="47.31704" lon="-2.42955">
        <ele>16.200000762939</ele>
        <time>2021-12-02T09:21:41.000Z</time>
      </trkpt>
      <trkpt lat="47.31708" lon="-2.42956">
        <ele>16.799999237061</ele>
        <time>2021-12-02T09:21:42.000Z</time>
      </trkpt>
      <trkpt lat="47.3172" lon="-2.4296">
        <ele>16.799999237061</ele>
        <time>2021-12-02T09:21:45.000Z</time>
      </trkpt>
      <trkpt lat="47.3174" lon="-2.42967">
        <ele>17.200000762939</ele>
        <time>2021-12-02T09:21:50.000Z</time>
      </trkpt>
      <trkpt lat="47.31745" lon="-2.42969">
        <ele>17.60000038147</ele>
        <time>2021-12-02T09:21:51.000Z</time>
      </trkpt>
      <trkpt lat="47.31748" lon="-2.42971">
        <ele>18</ele>
        <time>2021-12-02T09:21:52.000Z</time>
      </trkpt>
      <trkpt lat="47.31752" lon="-2.42972">
        <ele>18.39999961853</ele>
        <time>2021-12-02T09:21:53.000Z</time>
      </trkpt>
      <trkpt lat="47.31756" lon="-2.42974">
        <ele>18.799999237061</ele>
        <time>2021-12-02T09:21:54.000Z</time>
      </trkpt>
      <trkpt lat="47.31775" lon="-2.42981">
        <ele>18.799999237061</ele>
        <time>2021-12-02T09:21:59.000Z</time>
      </trkpt>
      <trkpt lat="47.31783" lon="-2.42984">
        <ele>19.200000762939</ele>
        <time>2021-12-02T09:22:01.000Z</time>
      </trkpt>
      <trkpt lat="47.31786" lon="-2.42986">
        <ele>19.60000038147</ele>
        <time>2021-12-02T09:22:02.000Z</time>
      </trkpt>
      <trkpt lat="47.3179" lon="-2.42987">
        <ele>20</ele>
        <time>2021-12-02T09:22:03.000Z</time>
      </trkpt>
      <trkpt lat="47.31794" lon="-2.42989">
        <ele>20.39999961853</ele>
        <time>2021-12-02T09:22:04.000Z</time>
      </trkpt>
      <trkpt lat="47.31798" lon="-2.4299">
        <ele>20.799999237061</ele>
        <time>2021-12-02T09:22:05.000Z</time>
      </trkpt>
      <trkpt lat="47.31806" lon="-2.42993">
        <ele>20.799999237061</ele>
        <time>2021-12-02T09:22:07.000Z</time>
      </trkpt>
      <trkpt lat="47.31829" lon="-2.43">
        <ele>20.799999237061</ele>
        <time>2021-12-02T09:22:13.000Z</time>
      </trkpt>
      <trkpt lat="47.31833" lon="-2.43">
        <ele>20.799999237061</ele>
        <time>2021-12-02T09:22:14.000Z</time>
      </trkpt>
      <trkpt lat="47.31841" lon="-2.43001">
        <ele>21.200000762939</ele>
        <time>2021-12-02T09:22:16.000Z</time>
      </trkpt>
      <trkpt lat="47.31845" lon="-2.43001">
        <ele>21.60000038147</ele>
        <time>2021-12-02T09:22:17.000Z</time>
      </trkpt>
      <trkpt lat="47.31849" lon="-2.43001">
        <ele>22</ele>
        <time>2021-12-02T09:22:18.000Z</time>
      </trkpt>
      <trkpt lat="47.31853" lon="-2.43">
        <ele>22.39999961853</ele>
        <time>2021-12-02T09:22:19.000Z</time>
      </trkpt>
      <trkpt lat="47.31858" lon="-2.42999">
        <ele>22.799999237061</ele>
        <time>2021-12-02T09:22:20.000Z</time>
      </trkpt>
      <trkpt lat="47.31862" lon="-2.42997">
        <ele>22.799999237061</ele>
        <time>2021-12-02T09:22:21.000Z</time>
      </trkpt>
      <trkpt lat="47.31888" lon="-2.42981">
        <ele>22.799999237061</ele>
        <time>2021-12-02T09:22:28.000Z</time>
      </trkpt>
      <trkpt lat="47.31907" lon="-2.42958">
        <ele>22.799999237061</ele>
        <time>2021-12-02T09:22:35.000Z</time>
      </trkpt>
      <trkpt lat="47.3191" lon="-2.42954">
        <ele>23.60000038147</ele>
        <time>2021-12-02T09:22:36.000Z</time>
      </trkpt>
      <trkpt lat="47.31913" lon="-2.42951">
        <ele>24</ele>
        <time>2021-12-02T09:22:37.000Z</time>
      </trkpt>
      <trkpt lat="47.31916" lon="-2.42947">
        <ele>24.39999961853</ele>
        <time>2021-12-02T09:22:38.000Z</time>
      </trkpt>
      <trkpt lat="47.31919" lon="-2.42944">
        <ele>24.799999237061</ele>
        <time>2021-12-02T09:22:39.000Z</time>
      </trkpt>
      <trkpt lat="47.31933" lon="-2.42926">
        <ele>24.799999237061</ele>
        <time>2021-12-02T09:22:44.000Z</time>
      </trkpt>
      <trkpt lat="47.31953" lon="-2.42901">
        <ele>24.799999237061</ele>
        <time>2021-12-02T09:22:51.000Z</time>
      </trkpt>
      <trkpt lat="47.31955" lon="-2.42898">
        <ele>25.39999961853</ele>
        <time>2021-12-02T09:22:52.000Z</time>
      </trkpt>
      <trkpt lat="47.31958" lon="-2.42894">
        <ele>25.799999237061</ele>
        <time>2021-12-02T09:22:53.000Z</time>
      </trkpt>
      <trkpt lat="47.31961" lon="-2.42891">
        <ele>26.200000762939</ele>
        <time>2021-12-02T09:22:54.000Z</time>
      </trkpt>
      <trkpt lat="47.31963" lon="-2.42887">
        <ele>26.60000038147</ele>
        <time>2021-12-02T09:22:55.000Z</time>
      </trkpt>
      <trkpt lat="47.31966" lon="-2.42884">
        <ele>27</ele>
        <time>2021-12-02T09:22:56.000Z</time>
      </trkpt>
      <trkpt lat="47.31973" lon="-2.42876">
        <ele>27</ele>
        <time>2021-12-02T09:22:59.000Z</time>
      </trkpt>
      <trkpt lat="47.3199" lon="-2.42856">
        <ele>27</ele>
        <time>2021-12-02T09:23:06.000Z</time>
      </trkpt>
      <trkpt lat="47.31993" lon="-2.42853">
        <ele>27.39999961853</ele>
        <time>2021-12-02T09:23:07.000Z</time>
      </trkpt>
      <trkpt lat="47.31995" lon="-2.42851">
        <ele>27.799999237061</ele>
        <time>2021-12-02T09:23:08.000Z</time>
      </trkpt>
      <trkpt lat="47.31996" lon="-2.42848">
        <ele>28.39999961853</ele>
        <time>2021-12-02T09:23:09.000Z</time>
      </trkpt>
      <trkpt lat="47.31999" lon="-2.42847">
        <ele>28.799999237061</ele>
        <time>2021-12-02T09:23:10.000Z</time>
      </trkpt>
      <trkpt lat="47.32001" lon="-2.42845">
        <ele>29.200000762939</ele>
        <time>2021-12-02T09:23:11.000Z</time>
      </trkpt>
      <trkpt lat="47.32003" lon="-2.42843">
        <ele>29.200000762939</ele>
        <time>2021-12-02T09:23:12.000Z</time>
      </trkpt>
      <trkpt lat="47.32011" lon="-2.4283">
        <ele>29.200000762939</ele>
        <time>2021-12-02T09:23:17.000Z</time>
      </trkpt>
      <trkpt lat="47.32015" lon="-2.42825">
        <ele>29.200000762939</ele>
        <time>2021-12-02T09:23:20.000Z</time>
      </trkpt>
      <trkpt lat="47.32014" lon="-2.42821">
        <ele>29.200000762939</ele>
        <time>2021-12-02T09:23:22.000Z</time>
      </trkpt>
      <trkpt lat="47.32009" lon="-2.42827">
        <ele>29.200000762939</ele>
        <time>2021-12-02T09:23:26.000Z</time>
      </trkpt>
      <trkpt lat="47.32009" lon="-2.42837">
        <ele>29.200000762939</ele>
        <time>2021-12-02T09:23:31.000Z</time>
      </trkpt>
      <trkpt lat="47.32009" lon="-2.42859">
        <ele>29.200000762939</ele>
        <time>2021-12-02T09:23:35.000Z</time>
      </trkpt>
      <trkpt lat="47.32003" lon="-2.42913">
        <ele>29.200000762939</ele>
        <time>2021-12-02T09:23:44.000Z</time>
      </trkpt>
      <trkpt lat="47.32003" lon="-2.4292">
        <ele>29.60000038147</ele>
        <time>2021-12-02T09:23:45.000Z</time>
      </trkpt>
      <trkpt lat="47.32003" lon="-2.42926">
        <ele>30</ele>
        <time>2021-12-02T09:23:46.000Z</time>
      </trkpt>
      <trkpt lat="47.32002" lon="-2.42933">
        <ele>30.60000038147</ele>
        <time>2021-12-02T09:23:47.000Z</time>
      </trkpt>
      <trkpt lat="47.32002" lon="-2.42939">
        <ele>31</ele>
        <time>2021-12-02T09:23:48.000Z</time>
      </trkpt>
      <trkpt lat="47.32001" lon="-2.42945">
        <ele>31.39999961853</ele>
        <time>2021-12-02T09:23:49.000Z</time>
      </trkpt>
      <trkpt lat="47.32001" lon="-2.42951">
        <ele>31.39999961853</ele>
        <time>2021-12-02T09:23:50.000Z</time>
      </trkpt>
      <trkpt lat="47.32" lon="-2.42999">
        <ele>31.39999961853</ele>
        <time>2021-12-02T09:23:57.000Z</time>
      </trkpt>
      <trkpt lat="47.32005" lon="-2.43041">
        <ele>31.39999961853</ele>
        <time>2021-12-02T09:24:02.000Z</time>
      </trkpt>
      <trkpt lat="47.32008" lon="-2.43059">
        <ele>31.39999961853</ele>
        <time>2021-12-02T09:24:04.000Z</time>
      </trkpt>
      <trkpt lat="47.32014" lon="-2.43088">
        <ele>31.39999961853</ele>
        <time>2021-12-02T09:24:07.000Z</time>
      </trkpt>
      <trkpt lat="47.32016" lon="-2.43097">
        <ele>31</ele>
        <time>2021-12-02T09:24:08.000Z</time>
      </trkpt>
      <trkpt lat="47.32018" lon="-2.43106">
        <ele>30.60000038147</ele>
        <time>2021-12-02T09:24:09.000Z</time>
      </trkpt>
      <trkpt lat="47.3202" lon="-2.43116">
        <ele>30.200000762939</ele>
        <time>2021-12-02T09:24:10.000Z</time>
      </trkpt>
      <trkpt lat="47.32023" lon="-2.43125">
        <ele>29.799999237061</ele>
        <time>2021-12-02T09:24:11.000Z</time>
      </trkpt>
      <trkpt lat="47.32025" lon="-2.43134">
        <ele>29.39999961853</ele>
        <time>2021-12-02T09:24:12.000Z</time>
      </trkpt>
      <trkpt lat="47.3203" lon="-2.43162">
        <ele>29.39999961853</ele>
        <time>2021-12-02T09:24:15.000Z</time>
      </trkpt>
      <trkpt lat="47.32034" lon="-2.43181">
        <ele>28.799999237061</ele>
        <time>2021-12-02T09:24:17.000Z</time>
      </trkpt>
      <trkpt lat="47.32036" lon="-2.43189">
        <ele>28.39999961853</ele>
        <time>2021-12-02T09:24:18.000Z</time>
      </trkpt>
      <trkpt lat="47.32037" lon="-2.43197">
        <ele>28</ele>
        <time>2021-12-02T09:24:19.000Z</time>
      </trkpt>
      <trkpt lat="47.32039" lon="-2.43205">
        <ele>27.60000038147</ele>
        <time>2021-12-02T09:24:20.000Z</time>
      </trkpt>
      <trkpt lat="47.3204" lon="-2.43211">
        <ele>27.200000762939</ele>
        <time>2021-12-02T09:24:21.000Z</time>
      </trkpt>
      <trkpt lat="47.32041" lon="-2.43218">
        <ele>27.200000762939</ele>
        <time>2021-12-02T09:24:22.000Z</time>
      </trkpt>
      <trkpt lat="47.32041" lon="-2.43234">
        <ele>27.200000762939</ele>
        <time>2021-12-02T09:24:25.000Z</time>
      </trkpt>
      <trkpt lat="47.32038" lon="-2.43238">
        <ele>27.200000762939</ele>
        <time>2021-12-02T09:24:26.000Z</time>
      </trkpt>
      <trkpt lat="47.32021" lon="-2.4325">
        <ele>27.200000762939</ele>
        <time>2021-12-02T09:24:30.000Z</time>
      </trkpt>
      <trkpt lat="47.32006" lon="-2.4326">
        <ele>26.799999237061</ele>
        <time>2021-12-02T09:24:33.000Z</time>
      </trkpt>
      <trkpt lat="47.32001" lon="-2.43264">
        <ele>26.39999961853</ele>
        <time>2021-12-02T09:24:34.000Z</time>
      </trkpt>
      <trkpt lat="47.31995" lon="-2.43267">
        <ele>26</ele>
        <time>2021-12-02T09:24:35.000Z</time>
      </trkpt>
      <trkpt lat="47.3199" lon="-2.4327">
        <ele>25.60000038147</ele>
        <time>2021-12-02T09:24:36.000Z</time>
      </trkpt>
      <trkpt lat="47.31985" lon="-2.43274">
        <ele>25.200000762939</ele>
        <time>2021-12-02T09:24:37.000Z</time>
      </trkpt>
      <trkpt lat="47.31977" lon="-2.43293">
        <ele>24.799999237061</ele>
        <time>2021-12-02T09:24:40.000Z</time>
      </trkpt>
      <trkpt lat="47.31976" lon="-2.433">
        <ele>24.39999961853</ele>
        <time>2021-12-02T09:24:41.000Z</time>
      </trkpt>
      <trkpt lat="47.31976" lon="-2.43308">
        <ele>24</ele>
        <time>2021-12-02T09:24:42.000Z</time>
      </trkpt>
      <trkpt lat="47.31975" lon="-2.43317">
        <ele>23.60000038147</ele>
        <time>2021-12-02T09:24:43.000Z</time>
      </trkpt>
      <trkpt lat="47.31974" lon="-2.43325">
        <ele>23</ele>
        <time>2021-12-02T09:24:44.000Z</time>
      </trkpt>
      <trkpt lat="47.31973" lon="-2.43334">
        <ele>23</ele>
        <time>2021-12-02T09:24:45.000Z</time>
      </trkpt>
      <trkpt lat="47.3197" lon="-2.43351">
        <ele>23</ele>
        <time>2021-12-02T09:24:47.000Z</time>
      </trkpt>
      <trkpt lat="47.3196" lon="-2.43386">
        <ele>22.60000038147</ele>
        <time>2021-12-02T09:24:51.000Z</time>
      </trkpt>
      <trkpt lat="47.31957" lon="-2.43396">
        <ele>22.200000762939</ele>
        <time>2021-12-02T09:24:52.000Z</time>
      </trkpt>
      <trkpt lat="47.31954" lon="-2.43406">
        <ele>21.799999237061</ele>
        <time>2021-12-02T09:24:53.000Z</time>
      </trkpt>
      <trkpt lat="47.31951" lon="-2.43415">
        <ele>21.39999961853</ele>
        <time>2021-12-02T09:24:54.000Z</time>
      </trkpt>
      <trkpt lat="47.31948" lon="-2.43425">
        <ele>21</ele>
        <time>2021-12-02T09:24:55.000Z</time>
      </trkpt>
      <trkpt lat="47.31941" lon="-2.43445">
        <ele>20.39999961853</ele>
        <time>2021-12-02T09:24:57.000Z</time>
      </trkpt>
      <trkpt lat="47.31938" lon="-2.43455">
        <ele>20</ele>
        <time>2021-12-02T09:24:58.000Z</time>
      </trkpt>
      <trkpt lat="47.31935" lon="-2.43465">
        <ele>19.60000038147</ele>
        <time>2021-12-02T09:24:59.000Z</time>
      </trkpt>
      <trkpt lat="47.31932" lon="-2.43476">
        <ele>19.200000762939</ele>
        <time>2021-12-02T09:25:00.000Z</time>
      </trkpt>
      <trkpt lat="47.31929" lon="-2.43487">
        <ele>18.799999237061</ele>
        <time>2021-12-02T09:25:01.000Z</time>
      </trkpt>
      <trkpt lat="47.31927" lon="-2.43498">
        <ele>18.799999237061</ele>
        <time>2021-12-02T09:25:02.000Z</time>
      </trkpt>
      <trkpt lat="47.31926" lon="-2.43509">
        <ele>18.799999237061</ele>
        <time>2021-12-02T09:25:03.000Z</time>
      </trkpt>
      <trkpt lat="47.31927" lon="-2.4352">
        <ele>18.39999961853</ele>
        <time>2021-12-02T09:25:04.000Z</time>
      </trkpt>
      <trkpt lat="47.31927" lon="-2.43531">
        <ele>17.39999961853</ele>
        <time>2021-12-02T09:25:05.000Z</time>
      </trkpt>
      <trkpt lat="47.31928" lon="-2.43541">
        <ele>17</ele>
        <time>2021-12-02T09:25:06.000Z</time>
      </trkpt>
      <trkpt lat="47.31928" lon="-2.43551">
        <ele>16.60000038147</ele>
        <time>2021-12-02T09:25:07.000Z</time>
      </trkpt>
      <trkpt lat="47.31927" lon="-2.43581">
        <ele>16.60000038147</ele>
        <time>2021-12-02T09:25:10.000Z</time>
      </trkpt>
      <trkpt lat="47.3192" lon="-2.43598">
        <ele>16.60000038147</ele>
        <time>2021-12-02T09:25:12.000Z</time>
      </trkpt>
      <trkpt lat="47.31915" lon="-2.43604">
        <ele>16</ele>
        <time>2021-12-02T09:25:13.000Z</time>
      </trkpt>
      <trkpt lat="47.31908" lon="-2.43609">
        <ele>15.60000038147</ele>
        <time>2021-12-02T09:25:14.000Z</time>
      </trkpt>
      <trkpt lat="47.31902" lon="-2.43614">
        <ele>15.199999809265</ele>
        <time>2021-12-02T09:25:15.000Z</time>
      </trkpt>
      <trkpt lat="47.31896" lon="-2.4362">
        <ele>14.60000038147</ele>
        <time>2021-12-02T09:25:16.000Z</time>
      </trkpt>
      <trkpt lat="47.31892" lon="-2.43628">
        <ele>14.199999809265</ele>
        <time>2021-12-02T09:25:17.000Z</time>
      </trkpt>
      <trkpt lat="47.3189" lon="-2.43638">
        <ele>13.800000190735</ele>
        <time>2021-12-02T09:25:18.000Z</time>
      </trkpt>
      <trkpt lat="47.3189" lon="-2.43646">
        <ele>13.39999961853</ele>
        <time>2021-12-02T09:25:19.000Z</time>
      </trkpt>
      <trkpt lat="47.31892" lon="-2.43653">
        <ele>12.800000190735</ele>
        <time>2021-12-02T09:25:20.000Z</time>
      </trkpt>
      <trkpt lat="47.31896" lon="-2.43659">
        <ele>12.39999961853</ele>
        <time>2021-12-02T09:25:21.000Z</time>
      </trkpt>
      <trkpt lat="47.31899" lon="-2.43665">
        <ele>12</ele>
        <time>2021-12-02T09:25:22.000Z</time>
      </trkpt>
      <trkpt lat="47.31909" lon="-2.43686">
        <ele>12</ele>
        <time>2021-12-02T09:25:25.000Z</time>
      </trkpt>
      <trkpt lat="47.31912" lon="-2.43694">
        <ele>12</ele>
        <time>2021-12-02T09:25:26.000Z</time>
      </trkpt>
      <trkpt lat="47.31929" lon="-2.43738">
        <ele>12</ele>
        <time>2021-12-02T09:25:32.000Z</time>
      </trkpt>
      <trkpt lat="47.31946" lon="-2.43786">
        <ele>12</ele>
        <time>2021-12-02T09:25:39.000Z</time>
      </trkpt>
      <trkpt lat="47.31952" lon="-2.43797">
        <ele>12</ele>
        <time>2021-12-02T09:25:41.000Z</time>
      </trkpt>
      <trkpt lat="47.31958" lon="-2.43808">
        <ele>12</ele>
        <time>2021-12-02T09:25:43.000Z</time>
      </trkpt>
      <trkpt lat="47.3197" lon="-2.43828">
        <ele>12</ele>
        <time>2021-12-02T09:25:47.000Z</time>
      </trkpt>
      <trkpt lat="47.31984" lon="-2.4384">
        <ele>12</ele>
        <time>2021-12-02T09:25:51.000Z</time>
      </trkpt>
      <trkpt lat="47.31988" lon="-2.43839">
        <ele>12</ele>
        <time>2021-12-02T09:25:52.000Z</time>
      </trkpt>
      <trkpt lat="47.31995" lon="-2.43832">
        <ele>12.39999961853</ele>
        <time>2021-12-02T09:25:54.000Z</time>
      </trkpt>
      <trkpt lat="47.31998" lon="-2.43829">
        <ele>12.800000190735</ele>
        <time>2021-12-02T09:25:55.000Z</time>
      </trkpt>
      <trkpt lat="47.32002" lon="-2.43825">
        <ele>13.199999809265</ele>
        <time>2021-12-02T09:25:56.000Z</time>
      </trkpt>
      <trkpt lat="47.32005" lon="-2.43821">
        <ele>13.60000038147</ele>
        <time>2021-12-02T09:25:57.000Z</time>
      </trkpt>
      <trkpt lat="47.32008" lon="-2.43818">
        <ele>14</ele>
        <time>2021-12-02T09:25:58.000Z</time>
      </trkpt>
      <trkpt lat="47.32018" lon="-2.43808">
        <ele>14.39999961853</ele>
        <time>2021-12-02T09:26:01.000Z</time>
      </trkpt>
      <trkpt lat="47.32021" lon="-2.43805">
        <ele>14.800000190735</ele>
        <time>2021-12-02T09:26:02.000Z</time>
      </trkpt>
      <trkpt lat="47.32024" lon="-2.43802">
        <ele>15.199999809265</ele>
        <time>2021-12-02T09:26:03.000Z</time>
      </trkpt>
      <trkpt lat="47.32028" lon="-2.438">
        <ele>15.60000038147</ele>
        <time>2021-12-02T09:26:04.000Z</time>
      </trkpt>
      <trkpt lat="47.32031" lon="-2.43799">
        <ele>16</ele>
        <time>2021-12-02T09:26:05.000Z</time>
      </trkpt>
      <trkpt lat="47.32035" lon="-2.438">
        <ele>16.39999961853</ele>
        <time>2021-12-02T09:26:06.000Z</time>
      </trkpt>
      <trkpt lat="47.32037" lon="-2.43803">
        <ele>17</ele>
        <time>2021-12-02T09:26:07.000Z</time>
      </trkpt>
      <trkpt lat="47.3204" lon="-2.43808">
        <ele>17.39999961853</ele>
        <time>2021-12-02T09:26:08.000Z</time>
      </trkpt>
      <trkpt lat="47.32042" lon="-2.43813">
        <ele>17.799999237061</ele>
        <time>2021-12-02T09:26:09.000Z</time>
      </trkpt>
      <trkpt lat="47.32045" lon="-2.43818">
        <ele>18.200000762939</ele>
        <time>2021-12-02T09:26:10.000Z</time>
      </trkpt>
      <trkpt lat="47.3205" lon="-2.43826">
        <ele>18.200000762939</ele>
        <time>2021-12-02T09:26:12.000Z</time>
      </trkpt>
      <trkpt lat="47.32059" lon="-2.43839">
        <ele>18.60000038147</ele>
        <time>2021-12-02T09:26:15.000Z</time>
      </trkpt>
      <trkpt lat="47.32061" lon="-2.43844">
        <ele>19</ele>
        <time>2021-12-02T09:26:16.000Z</time>
      </trkpt>
      <trkpt lat="47.32063" lon="-2.4385">
        <ele>19.39999961853</ele>
        <time>2021-12-02T09:26:17.000Z</time>
      </trkpt>
      <trkpt lat="47.32066" lon="-2.43855">
        <ele>20.200000762939</ele>
        <time>2021-12-02T09:26:18.000Z</time>
      </trkpt>
      <trkpt lat="47.32085" lon="-2.43887">
        <ele>20.200000762939</ele>
        <time>2021-12-02T09:26:25.000Z</time>
      </trkpt>
      <trkpt lat="47.32088" lon="-2.4389">
        <ele>20.200000762939</ele>
        <time>2021-12-02T09:26:26.000Z</time>
      </trkpt>
      <trkpt lat="47.32102" lon="-2.439">
        <ele>20.200000762939</ele>
        <time>2021-12-02T09:26:30.000Z</time>
      </trkpt>
      <trkpt lat="47.32105" lon="-2.43901">
        <ele>20.200000762939</ele>
        <time>2021-12-02T09:26:31.000Z</time>
      </trkpt>
      <trkpt lat="47.32112" lon="-2.43904">
        <ele>20.60000038147</ele>
        <time>2021-12-02T09:26:33.000Z</time>
      </trkpt>
      <trkpt lat="47.32115" lon="-2.43906">
        <ele>21</ele>
        <time>2021-12-02T09:26:34.000Z</time>
      </trkpt>
      <trkpt lat="47.32118" lon="-2.43908">
        <ele>21.39999961853</ele>
        <time>2021-12-02T09:26:35.000Z</time>
      </trkpt>
      <trkpt lat="47.32121" lon="-2.4391">
        <ele>21.799999237061</ele>
        <time>2021-12-02T09:26:36.000Z</time>
      </trkpt>
      <trkpt lat="47.32125" lon="-2.43912">
        <ele>22.200000762939</ele>
        <time>2021-12-02T09:26:37.000Z</time>
      </trkpt>
      <trkpt lat="47.32141" lon="-2.43931">
        <ele>23.200000762939</ele>
        <time>2021-12-02T09:26:43.000Z</time>
      </trkpt>
      <trkpt lat="47.32144" lon="-2.43935">
        <ele>23.60000038147</ele>
        <time>2021-12-02T09:26:44.000Z</time>
      </trkpt>
      <trkpt lat="47.32146" lon="-2.43938">
        <ele>24</ele>
        <time>2021-12-02T09:26:45.000Z</time>
      </trkpt>
      <trkpt lat="47.32148" lon="-2.43943">
        <ele>24.39999961853</ele>
        <time>2021-12-02T09:26:46.000Z</time>
      </trkpt>
      <trkpt lat="47.32154" lon="-2.43954">
        <ele>24.39999961853</ele>
        <time>2021-12-02T09:26:49.000Z</time>
      </trkpt>
      <trkpt lat="47.32161" lon="-2.43964">
        <ele>24.799999237061</ele>
        <time>2021-12-02T09:26:52.000Z</time>
      </trkpt>
      <trkpt lat="47.32164" lon="-2.43967">
        <ele>25.39999961853</ele>
        <time>2021-12-02T09:26:53.000Z</time>
      </trkpt>
      <trkpt lat="47.32166" lon="-2.4397">
        <ele>25.799999237061</ele>
        <time>2021-12-02T09:26:54.000Z</time>
      </trkpt>
      <trkpt lat="47.32169" lon="-2.43973">
        <ele>26.200000762939</ele>
        <time>2021-12-02T09:26:55.000Z</time>
      </trkpt>
      <trkpt lat="47.32171" lon="-2.43977">
        <ele>26.60000038147</ele>
        <time>2021-12-02T09:26:56.000Z</time>
      </trkpt>
      <trkpt lat="47.32193" lon="-2.44008">
        <ele>27</ele>
        <time>2021-12-02T09:27:05.000Z</time>
      </trkpt>
      <trkpt lat="47.32195" lon="-2.44012">
        <ele>27.60000038147</ele>
        <time>2021-12-02T09:27:06.000Z</time>
      </trkpt>
      <trkpt lat="47.32198" lon="-2.44016">
        <ele>28</ele>
        <time>2021-12-02T09:27:07.000Z</time>
      </trkpt>
      <trkpt lat="47.322" lon="-2.44019">
        <ele>28.799999237061</ele>
        <time>2021-12-02T09:27:08.000Z</time>
      </trkpt>
      <trkpt lat="47.3221" lon="-2.44032">
        <ele>28.799999237061</ele>
        <time>2021-12-02T09:27:12.000Z</time>
      </trkpt>
      <trkpt lat="47.32222" lon="-2.44052">
        <ele>28.799999237061</ele>
        <time>2021-12-02T09:27:18.000Z</time>
      </trkpt>
      <trkpt lat="47.32212" lon="-2.44064">
        <ele>28.799999237061</ele>
        <time>2021-12-02T09:27:21.000Z</time>
      </trkpt>
      <trkpt lat="47.32202" lon="-2.44071">
        <ele>28.799999237061</ele>
        <time>2021-12-02T09:27:23.000Z</time>
      </trkpt>
      <trkpt lat="47.32186" lon="-2.44086">
        <ele>28.799999237061</ele>
        <time>2021-12-02T09:27:26.000Z</time>
      </trkpt>
      <trkpt lat="47.32169" lon="-2.44103">
        <ele>28.39999961853</ele>
        <time>2021-12-02T09:27:29.000Z</time>
      </trkpt>
      <trkpt lat="47.32163" lon="-2.4411">
        <ele>28</ele>
        <time>2021-12-02T09:27:30.000Z</time>
      </trkpt>
      <trkpt lat="47.32157" lon="-2.44117">
        <ele>27.60000038147</ele>
        <time>2021-12-02T09:27:31.000Z</time>
      </trkpt>
      <trkpt lat="47.32151" lon="-2.44124">
        <ele>26.60000038147</ele>
        <time>2021-12-02T09:27:32.000Z</time>
      </trkpt>
      <trkpt lat="47.32144" lon="-2.44132">
        <ele>26.200000762939</ele>
        <time>2021-12-02T09:27:33.000Z</time>
      </trkpt>
      <trkpt lat="47.32138" lon="-2.4414">
        <ele>25.799999237061</ele>
        <time>2021-12-02T09:27:34.000Z</time>
      </trkpt>
      <trkpt lat="47.32132" lon="-2.44148">
        <ele>25.39999961853</ele>
        <time>2021-12-02T09:27:35.000Z</time>
      </trkpt>
      <trkpt lat="47.32125" lon="-2.44157">
        <ele>24.799999237061</ele>
        <time>2021-12-02T09:27:36.000Z</time>
      </trkpt>
      <trkpt lat="47.32117" lon="-2.44166">
        <ele>24.200000762939</ele>
        <time>2021-12-02T09:27:37.000Z</time>
      </trkpt>
      <trkpt lat="47.3211" lon="-2.44175">
        <ele>23.60000038147</ele>
        <time>2021-12-02T09:27:38.000Z</time>
      </trkpt>
      <trkpt lat="47.32103" lon="-2.44185">
        <ele>23</ele>
        <time>2021-12-02T09:27:39.000Z</time>
      </trkpt>
      <trkpt lat="47.32095" lon="-2.44194">
        <ele>22.39999961853</ele>
        <time>2021-12-02T09:27:40.000Z</time>
      </trkpt>
      <trkpt lat="47.32088" lon="-2.44204">
        <ele>21.799999237061</ele>
        <time>2021-12-02T09:27:41.000Z</time>
      </trkpt>
      <trkpt lat="47.32081" lon="-2.44214">
        <ele>21.200000762939</ele>
        <time>2021-12-02T09:27:42.000Z</time>
      </trkpt>
      <trkpt lat="47.32073" lon="-2.44223">
        <ele>20.60000038147</ele>
        <time>2021-12-02T09:27:43.000Z</time>
      </trkpt>
      <trkpt lat="47.32066" lon="-2.44233">
        <ele>19.799999237061</ele>
        <time>2021-12-02T09:27:44.000Z</time>
      </trkpt>
      <trkpt lat="47.32058" lon="-2.44242">
        <ele>19.200000762939</ele>
        <time>2021-12-02T09:27:45.000Z</time>
      </trkpt>
      <trkpt lat="47.32051" lon="-2.44252">
        <ele>18.60000038147</ele>
        <time>2021-12-02T09:27:46.000Z</time>
      </trkpt>
      <trkpt lat="47.32044" lon="-2.44263">
        <ele>18</ele>
        <time>2021-12-02T09:27:47.000Z</time>
      </trkpt>
      <trkpt lat="47.32037" lon="-2.44273">
        <ele>17.200000762939</ele>
        <time>2021-12-02T09:27:48.000Z</time>
      </trkpt>
      <trkpt lat="47.32031" lon="-2.44284">
        <ele>16.60000038147</ele>
        <time>2021-12-02T09:27:49.000Z</time>
      </trkpt>
      <trkpt lat="47.32024" lon="-2.44295">
        <ele>15.800000190735</ele>
        <time>2021-12-02T09:27:50.000Z</time>
      </trkpt>
      <trkpt lat="47.32018" lon="-2.44306">
        <ele>15</ele>
        <time>2021-12-02T09:27:51.000Z</time>
      </trkpt>
      <trkpt lat="47.32011" lon="-2.44318">
        <ele>14.39999961853</ele>
        <time>2021-12-02T09:27:52.000Z</time>
      </trkpt>
      <trkpt lat="47.32004" lon="-2.44329">
        <ele>13.800000190735</ele>
        <time>2021-12-02T09:27:53.000Z</time>
      </trkpt>
      <trkpt lat="47.31997" lon="-2.44339">
        <ele>13.199999809265</ele>
        <time>2021-12-02T09:27:54.000Z</time>
      </trkpt>
      <trkpt lat="47.3199" lon="-2.44349">
        <ele>12.60000038147</ele>
        <time>2021-12-02T09:27:55.000Z</time>
      </trkpt>
      <trkpt lat="47.31983" lon="-2.44359">
        <ele>12</ele>
        <time>2021-12-02T09:27:56.000Z</time>
      </trkpt>
      <trkpt lat="47.31976" lon="-2.44369">
        <ele>10.60000038147</ele>
        <time>2021-12-02T09:27:57.000Z</time>
      </trkpt>
      <trkpt lat="47.3197" lon="-2.44379">
        <ele>10</ele>
        <time>2021-12-02T09:27:58.000Z</time>
      </trkpt>
      <trkpt lat="47.31966" lon="-2.44391">
        <ele>9.3999996185303</ele>
        <time>2021-12-02T09:27:59.000Z</time>
      </trkpt>
      <trkpt lat="47.31962" lon="-2.44402">
        <ele>9</ele>
        <time>2021-12-02T09:28:00.000Z</time>
      </trkpt>
      <trkpt lat="47.31958" lon="-2.44414">
        <ele>8.3999996185303</ele>
        <time>2021-12-02T09:28:01.000Z</time>
      </trkpt>
      <trkpt lat="47.31954" lon="-2.44425">
        <ele>7.8000001907349</ele>
        <time>2021-12-02T09:28:02.000Z</time>
      </trkpt>
      <trkpt lat="47.3195" lon="-2.44436">
        <ele>7.1999998092651</ele>
        <time>2021-12-02T09:28:03.000Z</time>
      </trkpt>
      <trkpt lat="47.31933" lon="-2.44482">
        <ele>7.1999998092651</ele>
        <time>2021-12-02T09:28:08.000Z</time>
      </trkpt>
      <trkpt lat="47.31914" lon="-2.44529">
        <ele>7.1999998092651</ele>
        <time>2021-12-02T09:28:14.000Z</time>
      </trkpt>
      <trkpt lat="47.31906" lon="-2.44551">
        <ele>7.1999998092651</ele>
        <time>2021-12-02T09:28:17.000Z</time>
      </trkpt>
      <trkpt lat="47.31906" lon="-2.44567">
        <ele>7.1999998092651</ele>
        <time>2021-12-02T09:28:19.000Z</time>
      </trkpt>
      <trkpt lat="47.31918" lon="-2.44583">
        <ele>7.1999998092651</ele>
        <time>2021-12-02T09:28:22.000Z</time>
      </trkpt>
      <trkpt lat="47.31948" lon="-2.44617">
        <ele>7.1999998092651</ele>
        <time>2021-12-02T09:28:29.000Z</time>
      </trkpt>
      <trkpt lat="47.31976" lon="-2.4465">
        <ele>7.1999998092651</ele>
        <time>2021-12-02T09:28:36.000Z</time>
      </trkpt>
      <trkpt lat="47.32009" lon="-2.44689">
        <ele>7.1999998092651</ele>
        <time>2021-12-02T09:28:45.000Z</time>
      </trkpt>
      <trkpt lat="47.32027" lon="-2.44717">
        <ele>7.1999998092651</ele>
        <time>2021-12-02T09:28:52.000Z</time>
      </trkpt>
      <trkpt lat="47.32044" lon="-2.4474">
        <ele>7.1999998092651</ele>
        <time>2021-12-02T09:28:58.000Z</time>
      </trkpt>
      <trkpt lat="47.32064" lon="-2.44775">
        <ele>7.1999998092651</ele>
        <time>2021-12-02T09:29:05.000Z</time>
      </trkpt>
      <trkpt lat="47.32082" lon="-2.44816">
        <ele>7.1999998092651</ele>
        <time>2021-12-02T09:29:12.000Z</time>
      </trkpt>
      <trkpt lat="47.32102" lon="-2.44864">
        <ele>7.1999998092651</ele>
        <time>2021-12-02T09:29:20.000Z</time>
      </trkpt>
      <trkpt lat="47.32112" lon="-2.4489">
        <ele>7.8000001907349</ele>
        <time>2021-12-02T09:29:24.000Z</time>
      </trkpt>
      <trkpt lat="47.32115" lon="-2.44897">
        <ele>8.1999998092651</ele>
        <time>2021-12-02T09:29:25.000Z</time>
      </trkpt>
      <trkpt lat="47.32118" lon="-2.44902">
        <ele>8.6000003814697</ele>
        <time>2021-12-02T09:29:26.000Z</time>
      </trkpt>
      <trkpt lat="47.3212" lon="-2.44908">
        <ele>9</ele>
        <time>2021-12-02T09:29:27.000Z</time>
      </trkpt>
      <trkpt lat="47.32123" lon="-2.44914">
        <ele>9.3999996185303</ele>
        <time>2021-12-02T09:29:28.000Z</time>
      </trkpt>
      <trkpt lat="47.32138" lon="-2.44939">
        <ele>9.3999996185303</ele>
        <time>2021-12-02T09:29:33.000Z</time>
      </trkpt>
      <trkpt lat="47.32142" lon="-2.44943">
        <ele>9.3999996185303</ele>
        <time>2021-12-02T09:29:34.000Z</time>
      </trkpt>
      <trkpt lat="47.32156" lon="-2.44954">
        <ele>9.3999996185303</ele>
        <time>2021-12-02T09:29:38.000Z</time>
      </trkpt>
      <trkpt lat="47.3216" lon="-2.44956">
        <ele>9.3999996185303</ele>
        <time>2021-12-02T09:29:39.000Z</time>
      </trkpt>
      <trkpt lat="47.32164" lon="-2.44959">
        <ele>9.8000001907349</ele>
        <time>2021-12-02T09:29:40.000Z</time>
      </trkpt>
      <trkpt lat="47.32168" lon="-2.44962">
        <ele>10.199999809265</ele>
        <time>2021-12-02T09:29:41.000Z</time>
      </trkpt>
      <trkpt lat="47.32171" lon="-2.44965">
        <ele>10.60000038147</ele>
        <time>2021-12-02T09:29:42.000Z</time>
      </trkpt>
      <trkpt lat="47.32175" lon="-2.44968">
        <ele>11</ele>
        <time>2021-12-02T09:29:43.000Z</time>
      </trkpt>
      <trkpt lat="47.32178" lon="-2.44971">
        <ele>11.39999961853</ele>
        <time>2021-12-02T09:29:44.000Z</time>
      </trkpt>
      <trkpt lat="47.32184" lon="-2.44978">
        <ele>11.39999961853</ele>
        <time>2021-12-02T09:29:46.000Z</time>
      </trkpt>
      <trkpt lat="47.322" lon="-2.45003">
        <ele>11.800000190735</ele>
        <time>2021-12-02T09:29:52.000Z</time>
      </trkpt>
      <trkpt lat="47.32202" lon="-2.45007">
        <ele>12.199999809265</ele>
        <time>2021-12-02T09:29:53.000Z</time>
      </trkpt>
      <trkpt lat="47.32204" lon="-2.45011">
        <ele>12.60000038147</ele>
        <time>2021-12-02T09:29:54.000Z</time>
      </trkpt>
      <trkpt lat="47.32206" lon="-2.45015">
        <ele>13</ele>
        <time>2021-12-02T09:29:55.000Z</time>
      </trkpt>
      <trkpt lat="47.32208" lon="-2.45019">
        <ele>13.60000038147</ele>
        <time>2021-12-02T09:29:56.000Z</time>
      </trkpt>
      <trkpt lat="47.32214" lon="-2.45032">
        <ele>13.60000038147</ele>
        <time>2021-12-02T09:29:59.000Z</time>
      </trkpt>
      <trkpt lat="47.32231" lon="-2.45068">
        <ele>13.60000038147</ele>
        <time>2021-12-02T09:30:06.000Z</time>
      </trkpt>
      <trkpt lat="47.32249" lon="-2.45111">
        <ele>13.60000038147</ele>
        <time>2021-12-02T09:30:14.000Z</time>
      </trkpt>
      <trkpt lat="47.32258" lon="-2.45138">
        <ele>13.60000038147</ele>
        <time>2021-12-02T09:30:18.000Z</time>
      </trkpt>
      <trkpt lat="47.32262" lon="-2.45153">
        <ele>13.60000038147</ele>
        <time>2021-12-02T09:30:20.000Z</time>
      </trkpt>
      <trkpt lat="47.32269" lon="-2.45188">
        <ele>13</ele>
        <time>2021-12-02T09:30:24.000Z</time>
      </trkpt>
      <trkpt lat="47.32273" lon="-2.45198">
        <ele>12.60000038147</ele>
        <time>2021-12-02T09:30:25.000Z</time>
      </trkpt>
      <trkpt lat="47.32277" lon="-2.45207">
        <ele>11.60000038147</ele>
        <time>2021-12-02T09:30:26.000Z</time>
      </trkpt>
      <trkpt lat="47.32281" lon="-2.45216">
        <ele>11.199999809265</ele>
        <time>2021-12-02T09:30:27.000Z</time>
      </trkpt>
      <trkpt lat="47.32286" lon="-2.45224">
        <ele>10.60000038147</ele>
        <time>2021-12-02T09:30:28.000Z</time>
      </trkpt>
      <trkpt lat="47.3229" lon="-2.45231">
        <ele>10</ele>
        <time>2021-12-02T09:30:29.000Z</time>
      </trkpt>
      <trkpt lat="47.32294" lon="-2.45238">
        <ele>9.6000003814697</ele>
        <time>2021-12-02T09:30:30.000Z</time>
      </trkpt>
      <trkpt lat="47.32296" lon="-2.45245">
        <ele>9</ele>
        <time>2021-12-02T09:30:31.000Z</time>
      </trkpt>
      <trkpt lat="47.323" lon="-2.45256">
        <ele>9</ele>
        <time>2021-12-02T09:30:33.000Z</time>
      </trkpt>
      <trkpt lat="47.32309" lon="-2.45282">
        <ele>9</ele>
        <time>2021-12-02T09:30:39.000Z</time>
      </trkpt>
      <trkpt lat="47.32312" lon="-2.45298">
        <ele>9.3999996185303</ele>
        <time>2021-12-02T09:30:42.000Z</time>
      </trkpt>
      <trkpt lat="47.32313" lon="-2.45304">
        <ele>9.8000001907349</ele>
        <time>2021-12-02T09:30:43.000Z</time>
      </trkpt>
      <trkpt lat="47.32314" lon="-2.45309">
        <ele>10.39999961853</ele>
        <time>2021-12-02T09:30:44.000Z</time>
      </trkpt>
      <trkpt lat="47.32315" lon="-2.45315">
        <ele>10.800000190735</ele>
        <time>2021-12-02T09:30:45.000Z</time>
      </trkpt>
      <trkpt lat="47.32315" lon="-2.4532">
        <ele>11.199999809265</ele>
        <time>2021-12-02T09:30:46.000Z</time>
      </trkpt>
      <trkpt lat="47.32315" lon="-2.45327">
        <ele>11.199999809265</ele>
        <time>2021-12-02T09:30:47.000Z</time>
      </trkpt>
      <trkpt lat="47.32316" lon="-2.45355">
        <ele>11.199999809265</ele>
        <time>2021-12-02T09:30:51.000Z</time>
      </trkpt>
      <trkpt lat="47.3232" lon="-2.45391">
        <ele>10.800000190735</ele>
        <time>2021-12-02T09:30:56.000Z</time>
      </trkpt>
      <trkpt lat="47.32319" lon="-2.45396">
        <ele>10.199999809265</ele>
        <time>2021-12-02T09:30:57.000Z</time>
      </trkpt>
      <trkpt lat="47.32318" lon="-2.45401">
        <ele>9.8000001907349</ele>
        <time>2021-12-02T09:30:58.000Z</time>
      </trkpt>
      <trkpt lat="47.32315" lon="-2.45407">
        <ele>9.3999996185303</ele>
        <time>2021-12-02T09:30:59.000Z</time>
      </trkpt>
      <trkpt lat="47.32314" lon="-2.45414">
        <ele>8.8000001907349</ele>
        <time>2021-12-02T09:31:00.000Z</time>
      </trkpt>
      <trkpt lat="47.32322" lon="-2.45436">
        <ele>8.8000001907349</ele>
        <time>2021-12-02T09:31:03.000Z</time>
      </trkpt>
      <trkpt lat="47.32326" lon="-2.45443">
        <ele>8.8000001907349</ele>
        <time>2021-12-02T09:31:04.000Z</time>
      </trkpt>
      <trkpt lat="47.32345" lon="-2.45477">
        <ele>8.8000001907349</ele>
        <time>2021-12-02T09:31:09.000Z</time>
      </trkpt>
      <trkpt lat="47.32376" lon="-2.45525">
        <ele>8.8000001907349</ele>
        <time>2021-12-02T09:31:17.000Z</time>
      </trkpt>
      <trkpt lat="47.32378" lon="-2.4553">
        <ele>8.8000001907349</ele>
        <time>2021-12-02T09:31:18.000Z</time>
      </trkpt>
      <trkpt lat="47.3239" lon="-2.45553">
        <ele>8.8000001907349</ele>
        <time>2021-12-02T09:31:22.000Z</time>
      </trkpt>
      <trkpt lat="47.32396" lon="-2.45562">
        <ele>8.8000001907349</ele>
        <time>2021-12-02T09:31:24.000Z</time>
      </trkpt>
      <trkpt lat="47.32407" lon="-2.45576">
        <ele>8.8000001907349</ele>
        <time>2021-12-02T09:31:27.000Z</time>
      </trkpt>
      <trkpt lat="47.3241" lon="-2.45582">
        <ele>8.8000001907349</ele>
        <time>2021-12-02T09:31:28.000Z</time>
      </trkpt>
      <trkpt lat="47.32413" lon="-2.45587">
        <ele>8.8000001907349</ele>
        <time>2021-12-02T09:31:29.000Z</time>
      </trkpt>
      <trkpt lat="47.32418" lon="-2.45607">
        <ele>8.8000001907349</ele>
        <time>2021-12-02T09:31:32.000Z</time>
      </trkpt>
      <trkpt lat="47.32427" lon="-2.45627">
        <ele>8.8000001907349</ele>
        <time>2021-12-02T09:31:35.000Z</time>
      </trkpt>
      <trkpt lat="47.32434" lon="-2.45639">
        <ele>8.8000001907349</ele>
        <time>2021-12-02T09:31:37.000Z</time>
      </trkpt>
      <trkpt lat="47.3246" lon="-2.45679">
        <ele>8.8000001907349</ele>
        <time>2021-12-02T09:31:43.000Z</time>
      </trkpt>
      <trkpt lat="47.3249" lon="-2.45729">
        <ele>8.8000001907349</ele>
        <time>2021-12-02T09:31:50.000Z</time>
      </trkpt>
      <trkpt lat="47.32518" lon="-2.4578">
        <ele>8.8000001907349</ele>
        <time>2021-12-02T09:31:57.000Z</time>
      </trkpt>
      <trkpt lat="47.32543" lon="-2.45821">
        <ele>8.8000001907349</ele>
        <time>2021-12-02T09:32:04.000Z</time>
      </trkpt>
      <trkpt lat="47.32558" lon="-2.4584">
        <ele>8.8000001907349</ele>
        <time>2021-12-02T09:32:08.000Z</time>
      </trkpt>
      <trkpt lat="47.32564" lon="-2.45853">
        <ele>8.8000001907349</ele>
        <time>2021-12-02T09:32:10.000Z</time>
      </trkpt>
      <trkpt lat="47.3257" lon="-2.45865">
        <ele>8.8000001907349</ele>
        <time>2021-12-02T09:32:12.000Z</time>
      </trkpt>
      <trkpt lat="47.3258" lon="-2.45879">
        <ele>8.8000001907349</ele>
        <time>2021-12-02T09:32:15.000Z</time>
      </trkpt>
      <trkpt lat="47.32606" lon="-2.45913">
        <ele>8.8000001907349</ele>
        <time>2021-12-02T09:32:22.000Z</time>
      </trkpt>
      <trkpt lat="47.3262" lon="-2.45935">
        <ele>8.8000001907349</ele>
        <time>2021-12-02T09:32:26.000Z</time>
      </trkpt>
      <trkpt lat="47.32629" lon="-2.45951">
        <ele>8.8000001907349</ele>
        <time>2021-12-02T09:32:29.000Z</time>
      </trkpt>
      <trkpt lat="47.3264" lon="-2.45966">
        <ele>8.8000001907349</ele>
        <time>2021-12-02T09:32:32.000Z</time>
      </trkpt>
      <trkpt lat="47.3265" lon="-2.45973">
        <ele>8.8000001907349</ele>
        <time>2021-12-02T09:32:34.000Z</time>
      </trkpt>
      <trkpt lat="47.32663" lon="-2.45984">
        <ele>8.8000001907349</ele>
        <time>2021-12-02T09:32:37.000Z</time>
      </trkpt>
      <trkpt lat="47.32671" lon="-2.45991">
        <ele>8.8000001907349</ele>
        <time>2021-12-02T09:32:39.000Z</time>
      </trkpt>
      <trkpt lat="47.32682" lon="-2.46002">
        <ele>8.8000001907349</ele>
        <time>2021-12-02T09:32:42.000Z</time>
      </trkpt>
      <trkpt lat="47.32687" lon="-2.46012">
        <ele>8.8000001907349</ele>
        <time>2021-12-02T09:32:44.000Z</time>
      </trkpt>
      <trkpt lat="47.32698" lon="-2.46029">
        <ele>8.8000001907349</ele>
        <time>2021-12-02T09:32:48.000Z</time>
      </trkpt>
      <trkpt lat="47.32701" lon="-2.46033">
        <ele>8.8000001907349</ele>
        <time>2021-12-02T09:32:49.000Z</time>
      </trkpt>
      <trkpt lat="47.32715" lon="-2.46048">
        <ele>8.8000001907349</ele>
        <time>2021-12-02T09:32:54.000Z</time>
      </trkpt>
      <trkpt lat="47.32722" lon="-2.46058">
        <ele>8.8000001907349</ele>
        <time>2021-12-02T09:32:58.000Z</time>
      </trkpt>
      <trkpt lat="47.32724" lon="-2.4606">
        <ele>8.8000001907349</ele>
        <time>2021-12-02T09:32:59.000Z</time>
      </trkpt>
      <trkpt lat="47.32729" lon="-2.46066">
        <ele>8.8000001907349</ele>
        <time>2021-12-02T09:33:02.000Z</time>
      </trkpt>
      <trkpt lat="47.32736" lon="-2.46072">
        <ele>8.8000001907349</ele>
        <time>2021-12-02T09:33:05.000Z</time>
      </trkpt>
      <trkpt lat="47.32741" lon="-2.46078">
        <ele>8.8000001907349</ele>
        <time>2021-12-02T09:33:07.000Z</time>
      </trkpt>
      <trkpt lat="47.32752" lon="-2.46096">
        <ele>9.1999998092651</ele>
        <time>2021-12-02T09:33:11.000Z</time>
      </trkpt>
      <trkpt lat="47.32755" lon="-2.461">
        <ele>9.8000001907349</ele>
        <time>2021-12-02T09:33:12.000Z</time>
      </trkpt>
      <trkpt lat="47.32756" lon="-2.46104">
        <ele>10.199999809265</ele>
        <time>2021-12-02T09:33:13.000Z</time>
      </trkpt>
      <trkpt lat="47.32758" lon="-2.46109">
        <ele>10.60000038147</ele>
        <time>2021-12-02T09:33:14.000Z</time>
      </trkpt>
      <trkpt lat="47.3276" lon="-2.46114">
        <ele>11</ele>
        <time>2021-12-02T09:33:15.000Z</time>
      </trkpt>
      <trkpt lat="47.32761" lon="-2.46119">
        <ele>11</ele>
        <time>2021-12-02T09:33:16.000Z</time>
      </trkpt>
      <trkpt lat="47.32761" lon="-2.46128">
        <ele>11</ele>
        <time>2021-12-02T09:33:18.000Z</time>
      </trkpt>
      <trkpt lat="47.32762" lon="-2.46135">
        <ele>11</ele>
        <time>2021-12-02T09:33:20.000Z</time>
      </trkpt>
      <trkpt lat="47.32764" lon="-2.46142">
        <ele>11.39999961853</ele>
        <time>2021-12-02T09:33:23.000Z</time>
      </trkpt>
      <trkpt lat="47.32765" lon="-2.46143">
        <ele>11.800000190735</ele>
        <time>2021-12-02T09:33:24.000Z</time>
      </trkpt>
      <trkpt lat="47.32765" lon="-2.46145">
        <ele>12.199999809265</ele>
        <time>2021-12-02T09:33:25.000Z</time>
      </trkpt>
      <trkpt lat="47.32766" lon="-2.46146">
        <ele>12.60000038147</ele>
        <time>2021-12-02T09:33:26.000Z</time>
      </trkpt>
      <trkpt lat="47.32767" lon="-2.46147">
        <ele>13</ele>
        <time>2021-12-02T09:33:27.000Z</time>
      </trkpt>
      <trkpt lat="47.32768" lon="-2.46148">
        <ele>13</ele>
        <time>2021-12-02T09:33:28.000Z</time>
      </trkpt>
      <trkpt lat="47.32775" lon="-2.46156">
        <ele>13</ele>
        <time>2021-12-02T09:33:34.000Z</time>
      </trkpt>
      <trkpt lat="47.32784" lon="-2.46168">
        <ele>13</ele>
        <time>2021-12-02T09:33:40.000Z</time>
      </trkpt>
      <trkpt lat="47.32795" lon="-2.46178">
        <ele>13</ele>
        <time>2021-12-02T09:33:46.000Z</time>
      </trkpt>
      <trkpt lat="47.32806" lon="-2.46188">
        <ele>13</ele>
        <time>2021-12-02T09:33:52.000Z</time>
      </trkpt>
      <trkpt lat="47.3282" lon="-2.46191">
        <ele>13</ele>
        <time>2021-12-02T09:33:58.000Z</time>
      </trkpt>
      <trkpt lat="47.32822" lon="-2.46191">
        <ele>13.39999961853</ele>
        <time>2021-12-02T09:33:59.000Z</time>
      </trkpt>
      <trkpt lat="47.32824" lon="-2.46191">
        <ele>14</ele>
        <time>2021-12-02T09:34:00.000Z</time>
      </trkpt>
      <trkpt lat="47.32826" lon="-2.46189">
        <ele>14.39999961853</ele>
        <time>2021-12-02T09:34:01.000Z</time>
      </trkpt>
      <trkpt lat="47.32828" lon="-2.46188">
        <ele>14.800000190735</ele>
        <time>2021-12-02T09:34:02.000Z</time>
      </trkpt>
      <trkpt lat="47.32829" lon="-2.46187">
        <ele>15.199999809265</ele>
        <time>2021-12-02T09:34:03.000Z</time>
      </trkpt>
      <trkpt lat="47.32833" lon="-2.46184">
        <ele>15.199999809265</ele>
        <time>2021-12-02T09:34:05.000Z</time>
      </trkpt>
      <trkpt lat="47.32844" lon="-2.46179">
        <ele>15.60000038147</ele>
        <time>2021-12-02T09:34:11.000Z</time>
      </trkpt>
      <trkpt lat="47.32846" lon="-2.46177">
        <ele>16</ele>
        <time>2021-12-02T09:34:12.000Z</time>
      </trkpt>
      <trkpt lat="47.32849" lon="-2.46175">
        <ele>16.39999961853</ele>
        <time>2021-12-02T09:34:13.000Z</time>
      </trkpt>
      <trkpt lat="47.32851" lon="-2.46173">
        <ele>16.799999237061</ele>
        <time>2021-12-02T09:34:14.000Z</time>
      </trkpt>
      <trkpt lat="47.32853" lon="-2.46172">
        <ele>17.200000762939</ele>
        <time>2021-12-02T09:34:15.000Z</time>
      </trkpt>
      <trkpt lat="47.32865" lon="-2.46165">
        <ele>17.60000038147</ele>
        <time>2021-12-02T09:34:21.000Z</time>
      </trkpt>
      <trkpt lat="47.32867" lon="-2.46164">
        <ele>18</ele>
        <time>2021-12-02T09:34:22.000Z</time>
      </trkpt>
      <trkpt lat="47.32869" lon="-2.46162">
        <ele>18.39999961853</ele>
        <time>2021-12-02T09:34:23.000Z</time>
      </trkpt>
      <trkpt lat="47.32871" lon="-2.46161">
        <ele>18.799999237061</ele>
        <time>2021-12-02T09:34:24.000Z</time>
      </trkpt>
      <trkpt lat="47.32873" lon="-2.4616">
        <ele>19.200000762939</ele>
        <time>2021-12-02T09:34:25.000Z</time>
      </trkpt>
      <trkpt lat="47.32882" lon="-2.46154">
        <ele>19.200000762939</ele>
        <time>2021-12-02T09:34:30.000Z</time>
      </trkpt>
      <trkpt lat="47.32891" lon="-2.46149">
        <ele>19.60000038147</ele>
        <time>2021-12-02T09:34:35.000Z</time>
      </trkpt>
      <trkpt lat="47.32893" lon="-2.46148">
        <ele>20</ele>
        <time>2021-12-02T09:34:36.000Z</time>
      </trkpt>
      <trkpt lat="47.32894" lon="-2.46148">
        <ele>20.39999961853</ele>
        <time>2021-12-02T09:34:37.000Z</time>
      </trkpt>
      <trkpt lat="47.32895" lon="-2.46147">
        <ele>20.799999237061</ele>
        <time>2021-12-02T09:34:38.000Z</time>
      </trkpt>
      <trkpt lat="47.32896" lon="-2.46147">
        <ele>21.200000762939</ele>
        <time>2021-12-02T09:34:39.000Z</time>
      </trkpt>
      <trkpt lat="47.32896" lon="-2.46147">
        <ele>21.200000762939</ele>
        <time>2021-12-02T09:34:40.000Z</time>
      </trkpt>
      <trkpt lat="47.32901" lon="-2.46148">
        <ele>21.200000762939</ele>
        <time>2021-12-02T09:35:22.000Z</time>
      </trkpt>
      <trkpt lat="47.32903" lon="-2.46148">
        <ele>21.200000762939</ele>
        <time>2021-12-02T09:35:23.000Z</time>
      </trkpt>
      <trkpt lat="47.32907" lon="-2.46152">
        <ele>21.200000762939</ele>
        <time>2021-12-02T09:35:25.000Z</time>
      </trkpt>
      <trkpt lat="47.32909" lon="-2.46159">
        <ele>21.200000762939</ele>
        <time>2021-12-02T09:35:27.000Z</time>
      </trkpt>
      <trkpt lat="47.3291" lon="-2.4617">
        <ele>21.200000762939</ele>
        <time>2021-12-02T09:35:30.000Z</time>
      </trkpt>
      <trkpt lat="47.32912" lon="-2.46179">
        <ele>21.200000762939</ele>
        <time>2021-12-02T09:35:32.000Z</time>
      </trkpt>
      <trkpt lat="47.32923" lon="-2.46216">
        <ele>21.200000762939</ele>
        <time>2021-12-02T09:35:40.000Z</time>
      </trkpt>
      <trkpt lat="47.32933" lon="-2.46254">
        <ele>21.200000762939</ele>
        <time>2021-12-02T09:35:47.000Z</time>
      </trkpt>
      <trkpt lat="47.32945" lon="-2.46297">
        <ele>21.200000762939</ele>
        <time>2021-12-02T09:35:55.000Z</time>
      </trkpt>
      <trkpt lat="47.32955" lon="-2.46328">
        <ele>21.200000762939</ele>
        <time>2021-12-02T09:36:00.000Z</time>
      </trkpt>
      <trkpt lat="47.32962" lon="-2.46355">
        <ele>20.799999237061</ele>
        <time>2021-12-02T09:36:03.000Z</time>
      </trkpt>
      <trkpt lat="47.32964" lon="-2.46365">
        <ele>20.39999961853</ele>
        <time>2021-12-02T09:36:04.000Z</time>
      </trkpt>
      <trkpt lat="47.32966" lon="-2.46376">
        <ele>19.799999237061</ele>
        <time>2021-12-02T09:36:05.000Z</time>
      </trkpt>
      <trkpt lat="47.32967" lon="-2.46387">
        <ele>19.39999961853</ele>
        <time>2021-12-02T09:36:06.000Z</time>
      </trkpt>
      <trkpt lat="47.32967" lon="-2.46399">
        <ele>18.799999237061</ele>
        <time>2021-12-02T09:36:07.000Z</time>
      </trkpt>
      <trkpt lat="47.32967" lon="-2.46412">
        <ele>18.39999961853</ele>
        <time>2021-12-02T09:36:08.000Z</time>
      </trkpt>
      <trkpt lat="47.32966" lon="-2.46426">
        <ele>17.799999237061</ele>
        <time>2021-12-02T09:36:09.000Z</time>
      </trkpt>
      <trkpt lat="47.32966" lon="-2.4644">
        <ele>17.39999961853</ele>
        <time>2021-12-02T09:36:10.000Z</time>
      </trkpt>
      <trkpt lat="47.32965" lon="-2.46455">
        <ele>16.60000038147</ele>
        <time>2021-12-02T09:36:11.000Z</time>
      </trkpt>
      <trkpt lat="47.32964" lon="-2.4647">
        <ele>15.199999809265</ele>
        <time>2021-12-02T09:36:12.000Z</time>
      </trkpt>
      <trkpt lat="47.32964" lon="-2.46486">
        <ele>14.39999961853</ele>
        <time>2021-12-02T09:36:13.000Z</time>
      </trkpt>
      <trkpt lat="47.32963" lon="-2.46501">
        <ele>13.800000190735</ele>
        <time>2021-12-02T09:36:14.000Z</time>
      </trkpt>
      <trkpt lat="47.32962" lon="-2.46516">
        <ele>13</ele>
        <time>2021-12-02T09:36:15.000Z</time>
      </trkpt>
      <trkpt lat="47.32961" lon="-2.4653">
        <ele>12.199999809265</ele>
        <time>2021-12-02T09:36:16.000Z</time>
      </trkpt>
      <trkpt lat="47.3296" lon="-2.46543">
        <ele>11.39999961853</ele>
        <time>2021-12-02T09:36:17.000Z</time>
      </trkpt>
      <trkpt lat="47.3296" lon="-2.46553">
        <ele>10.60000038147</ele>
        <time>2021-12-02T09:36:18.000Z</time>
      </trkpt>
      <trkpt lat="47.32962" lon="-2.46562">
        <ele>9.8000001907349</ele>
        <time>2021-12-02T09:36:19.000Z</time>
      </trkpt>
      <trkpt lat="47.32966" lon="-2.46567">
        <ele>9.1999998092651</ele>
        <time>2021-12-02T09:36:20.000Z</time>
      </trkpt>
      <trkpt lat="47.3297" lon="-2.46567">
        <ele>8.3999996185303</ele>
        <time>2021-12-02T09:36:21.000Z</time>
      </trkpt>
      <trkpt lat="47.32974" lon="-2.46565">
        <ele>7.8000001907349</ele>
        <time>2021-12-02T09:36:22.000Z</time>
      </trkpt>
      <trkpt lat="47.32977" lon="-2.46564">
        <ele>7</ele>
        <time>2021-12-02T09:36:23.000Z</time>
      </trkpt>
      <trkpt lat="47.3298" lon="-2.46562">
        <ele>7</ele>
        <time>2021-12-02T09:36:24.000Z</time>
      </trkpt>
      <trkpt lat="47.32983" lon="-2.4656">
        <ele>7</ele>
        <time>2021-12-02T09:36:25.000Z</time>
      </trkpt>
      <trkpt lat="47.32992" lon="-2.46555">
        <ele>7.4000000953674</ele>
        <time>2021-12-02T09:36:28.000Z</time>
      </trkpt>
      <trkpt lat="47.32995" lon="-2.46553">
        <ele>8</ele>
        <time>2021-12-02T09:36:29.000Z</time>
      </trkpt>
      <trkpt lat="47.32998" lon="-2.4655">
        <ele>8.3999996185303</ele>
        <time>2021-12-02T09:36:30.000Z</time>
      </trkpt>
      <trkpt lat="47.33" lon="-2.46548">
        <ele>8.8000001907349</ele>
        <time>2021-12-02T09:36:31.000Z</time>
      </trkpt>
      <trkpt lat="47.33004" lon="-2.46547">
        <ele>9.3999996185303</ele>
        <time>2021-12-02T09:36:32.000Z</time>
      </trkpt>
      <trkpt lat="47.33014" lon="-2.46541">
        <ele>9.8000001907349</ele>
        <time>2021-12-02T09:36:35.000Z</time>
      </trkpt>
      <trkpt lat="47.33017" lon="-2.46539">
        <ele>10.60000038147</ele>
        <time>2021-12-02T09:36:36.000Z</time>
      </trkpt>
      <trkpt lat="47.33021" lon="-2.46537">
        <ele>11</ele>
        <time>2021-12-02T09:36:37.000Z</time>
      </trkpt>
      <trkpt lat="47.33025" lon="-2.46536">
        <ele>11.39999961853</ele>
        <time>2021-12-02T09:36:38.000Z</time>
      </trkpt>
      <trkpt lat="47.33042" lon="-2.46536">
        <ele>11.39999961853</ele>
        <time>2021-12-02T09:36:43.000Z</time>
      </trkpt>
      <trkpt lat="47.33053" lon="-2.46533">
        <ele>11.800000190735</ele>
        <time>2021-12-02T09:36:46.000Z</time>
      </trkpt>
      <trkpt lat="47.33055" lon="-2.46531">
        <ele>12.199999809265</ele>
        <time>2021-12-02T09:36:47.000Z</time>
      </trkpt>
      <trkpt lat="47.33058" lon="-2.46529">
        <ele>12.60000038147</ele>
        <time>2021-12-02T09:36:48.000Z</time>
      </trkpt>
      <trkpt lat="47.33061" lon="-2.46528">
        <ele>13</ele>
        <time>2021-12-02T09:36:49.000Z</time>
      </trkpt>
      <trkpt lat="47.33064" lon="-2.46526">
        <ele>13.39999961853</ele>
        <time>2021-12-02T09:36:50.000Z</time>
      </trkpt>
      <trkpt lat="47.33072" lon="-2.46526">
        <ele>13.39999961853</ele>
        <time>2021-12-02T09:36:53.000Z</time>
      </trkpt>
      <trkpt lat="47.33075" lon="-2.4653">
        <ele>13.39999961853</ele>
        <time>2021-12-02T09:36:55.000Z</time>
      </trkpt>
      <trkpt lat="47.33079" lon="-2.46544">
        <ele>13.39999961853</ele>
        <time>2021-12-02T09:36:59.000Z</time>
      </trkpt>
      <trkpt lat="47.3308" lon="-2.46547">
        <ele>13.39999961853</ele>
        <time>2021-12-02T09:37:00.000Z</time>
      </trkpt>
      <trkpt lat="47.33081" lon="-2.4655">
        <ele>14.199999809265</ele>
        <time>2021-12-02T09:37:01.000Z</time>
      </trkpt>
      <trkpt lat="47.33081" lon="-2.46553">
        <ele>14.60000038147</ele>
        <time>2021-12-02T09:37:02.000Z</time>
      </trkpt>
      <trkpt lat="47.33082" lon="-2.46556">
        <ele>15</ele>
        <time>2021-12-02T09:37:03.000Z</time>
      </trkpt>
      <trkpt lat="47.33084" lon="-2.46559">
        <ele>15.39999961853</ele>
        <time>2021-12-02T09:37:04.000Z</time>
      </trkpt>
      <trkpt lat="47.33086" lon="-2.46572">
        <ele>15.39999961853</ele>
        <time>2021-12-02T09:37:07.000Z</time>
      </trkpt>
      <trkpt lat="47.33094" lon="-2.46601">
        <ele>15.39999961853</ele>
        <time>2021-12-02T09:37:14.000Z</time>
      </trkpt>
      <trkpt lat="47.33108" lon="-2.46636">
        <ele>15.39999961853</ele>
        <time>2021-12-02T09:37:22.000Z</time>
      </trkpt>
      <trkpt lat="47.33125" lon="-2.46664">
        <ele>15.39999961853</ele>
        <time>2021-12-02T09:37:30.000Z</time>
      </trkpt>
      <trkpt lat="47.33145" lon="-2.46697">
        <ele>15.39999961853</ele>
        <time>2021-12-02T09:37:39.000Z</time>
      </trkpt>
      <trkpt lat="47.3315" lon="-2.46706">
        <ele>15.800000190735</ele>
        <time>2021-12-02T09:37:41.000Z</time>
      </trkpt>
      <trkpt lat="47.33152" lon="-2.4671">
        <ele>16.200000762939</ele>
        <time>2021-12-02T09:37:42.000Z</time>
      </trkpt>
      <trkpt lat="47.33155" lon="-2.46713">
        <ele>16.60000038147</ele>
        <time>2021-12-02T09:37:43.000Z</time>
      </trkpt>
      <trkpt lat="47.33157" lon="-2.46717">
        <ele>17</ele>
        <time>2021-12-02T09:37:44.000Z</time>
      </trkpt>
      <trkpt lat="47.3316" lon="-2.46721">
        <ele>17.39999961853</ele>
        <time>2021-12-02T09:37:45.000Z</time>
      </trkpt>
      <trkpt lat="47.33162" lon="-2.46725">
        <ele>17.39999961853</ele>
        <time>2021-12-02T09:37:46.000Z</time>
      </trkpt>
      <trkpt lat="47.3318" lon="-2.46749">
        <ele>17.39999961853</ele>
        <time>2021-12-02T09:37:53.000Z</time>
      </trkpt>
      <trkpt lat="47.33201" lon="-2.46774">
        <ele>17.39999961853</ele>
        <time>2021-12-02T09:38:00.000Z</time>
      </trkpt>
      <trkpt lat="47.33215" lon="-2.46787">
        <ele>17.39999961853</ele>
        <time>2021-12-02T09:38:04.000Z</time>
      </trkpt>
      <trkpt lat="47.33222" lon="-2.46791">
        <ele>17.39999961853</ele>
        <time>2021-12-02T09:38:06.000Z</time>
      </trkpt>
      <trkpt lat="47.33229" lon="-2.46793">
        <ele>17.799999237061</ele>
        <time>2021-12-02T09:38:08.000Z</time>
      </trkpt>
      <trkpt lat="47.33232" lon="-2.46794">
        <ele>18.39999961853</ele>
        <time>2021-12-02T09:38:09.000Z</time>
      </trkpt>
      <trkpt lat="47.33235" lon="-2.46794">
        <ele>18.799999237061</ele>
        <time>2021-12-02T09:38:10.000Z</time>
      </trkpt>
      <trkpt lat="47.33239" lon="-2.46792">
        <ele>19.200000762939</ele>
        <time>2021-12-02T09:38:11.000Z</time>
      </trkpt>
      <trkpt lat="47.33244" lon="-2.46789">
        <ele>19.60000038147</ele>
        <time>2021-12-02T09:38:12.000Z</time>
      </trkpt>
      <trkpt lat="47.33266" lon="-2.46782">
        <ele>19.60000038147</ele>
        <time>2021-12-02T09:38:18.000Z</time>
      </trkpt>
      <trkpt lat="47.3327" lon="-2.46783">
        <ele>20</ele>
        <time>2021-12-02T09:38:19.000Z</time>
      </trkpt>
      <trkpt lat="47.33273" lon="-2.46786">
        <ele>20.39999961853</ele>
        <time>2021-12-02T09:38:20.000Z</time>
      </trkpt>
      <trkpt lat="47.33276" lon="-2.46789">
        <ele>20.799999237061</ele>
        <time>2021-12-02T09:38:21.000Z</time>
      </trkpt>
      <trkpt lat="47.33278" lon="-2.46794">
        <ele>21.39999961853</ele>
        <time>2021-12-02T09:38:22.000Z</time>
      </trkpt>
      <trkpt lat="47.33281" lon="-2.46798">
        <ele>21.799999237061</ele>
        <time>2021-12-02T09:38:23.000Z</time>
      </trkpt>
      <trkpt lat="47.33292" lon="-2.46828">
        <ele>21.799999237061</ele>
        <time>2021-12-02T09:38:29.000Z</time>
      </trkpt>
      <trkpt lat="47.33304" lon="-2.4686">
        <ele>21.799999237061</ele>
        <time>2021-12-02T09:38:35.000Z</time>
      </trkpt>
      <trkpt lat="47.3331" lon="-2.46877">
        <ele>21.799999237061</ele>
        <time>2021-12-02T09:38:38.000Z</time>
      </trkpt>
      <trkpt lat="47.33314" lon="-2.46898">
        <ele>21.39999961853</ele>
        <time>2021-12-02T09:38:41.000Z</time>
      </trkpt>
      <trkpt lat="47.33316" lon="-2.46905">
        <ele>20.799999237061</ele>
        <time>2021-12-02T09:38:42.000Z</time>
      </trkpt>
      <trkpt lat="47.33318" lon="-2.46913">
        <ele>20.39999961853</ele>
        <time>2021-12-02T09:38:43.000Z</time>
      </trkpt>
      <trkpt lat="47.3332" lon="-2.4692">
        <ele>20</ele>
        <time>2021-12-02T09:38:44.000Z</time>
      </trkpt>
      <trkpt lat="47.33322" lon="-2.46928">
        <ele>19.60000038147</ele>
        <time>2021-12-02T09:38:45.000Z</time>
      </trkpt>
      <trkpt lat="47.33328" lon="-2.46951">
        <ele>19.60000038147</ele>
        <time>2021-12-02T09:38:48.000Z</time>
      </trkpt>
      <trkpt lat="47.33333" lon="-2.46976">
        <ele>19.200000762939</ele>
        <time>2021-12-02T09:38:51.000Z</time>
      </trkpt>
      <trkpt lat="47.33335" lon="-2.46985">
        <ele>18.799999237061</ele>
        <time>2021-12-02T09:38:52.000Z</time>
      </trkpt>
      <trkpt lat="47.33337" lon="-2.46995">
        <ele>18.39999961853</ele>
        <time>2021-12-02T09:38:53.000Z</time>
      </trkpt>
      <trkpt lat="47.3334" lon="-2.47005">
        <ele>18</ele>
        <time>2021-12-02T09:38:54.000Z</time>
      </trkpt>
      <trkpt lat="47.33342" lon="-2.47015">
        <ele>17.60000038147</ele>
        <time>2021-12-02T09:38:55.000Z</time>
      </trkpt>
      <trkpt lat="47.33346" lon="-2.47036">
        <ele>17</ele>
        <time>2021-12-02T09:38:57.000Z</time>
      </trkpt>
      <trkpt lat="47.33347" lon="-2.47046">
        <ele>16.60000038147</ele>
        <time>2021-12-02T09:38:58.000Z</time>
      </trkpt>
      <trkpt lat="47.33348" lon="-2.47056">
        <ele>16.200000762939</ele>
        <time>2021-12-02T09:38:59.000Z</time>
      </trkpt>
      <trkpt lat="47.3335" lon="-2.47066">
        <ele>15.800000190735</ele>
        <time>2021-12-02T09:39:00.000Z</time>
      </trkpt>
      <trkpt lat="47.33351" lon="-2.47075">
        <ele>15.39999961853</ele>
        <time>2021-12-02T09:39:01.000Z</time>
      </trkpt>
      <trkpt lat="47.33358" lon="-2.47115">
        <ele>15.39999961853</ele>
        <time>2021-12-02T09:39:06.000Z</time>
      </trkpt>
      <trkpt lat="47.3336" lon="-2.47123">
        <ele>15.39999961853</ele>
        <time>2021-12-02T09:39:07.000Z</time>
      </trkpt>
      <trkpt lat="47.33367" lon="-2.47157">
        <ele>15.800000190735</ele>
        <time>2021-12-02T09:39:12.000Z</time>
      </trkpt>
      <trkpt lat="47.33367" lon="-2.47164">
        <ele>16.39999961853</ele>
        <time>2021-12-02T09:39:13.000Z</time>
      </trkpt>
      <trkpt lat="47.33369" lon="-2.4717">
        <ele>16.799999237061</ele>
        <time>2021-12-02T09:39:14.000Z</time>
      </trkpt>
      <trkpt lat="47.3337" lon="-2.47177">
        <ele>17.200000762939</ele>
        <time>2021-12-02T09:39:15.000Z</time>
      </trkpt>
      <trkpt lat="47.33371" lon="-2.47184">
        <ele>17.799999237061</ele>
        <time>2021-12-02T09:39:16.000Z</time>
      </trkpt>
      <trkpt lat="47.33374" lon="-2.4721">
        <ele>17.799999237061</ele>
        <time>2021-12-02T09:39:20.000Z</time>
      </trkpt>
      <trkpt lat="47.33381" lon="-2.47259">
        <ele>17.799999237061</ele>
        <time>2021-12-02T09:39:27.000Z</time>
      </trkpt>
      <trkpt lat="47.33386" lon="-2.47316">
        <ele>17.799999237061</ele>
        <time>2021-12-02T09:39:35.000Z</time>
      </trkpt>
      <trkpt lat="47.3339" lon="-2.47341">
        <ele>17.799999237061</ele>
        <time>2021-12-02T09:39:39.000Z</time>
      </trkpt>
      <trkpt lat="47.33392" lon="-2.47354">
        <ele>17.799999237061</ele>
        <time>2021-12-02T09:39:41.000Z</time>
      </trkpt>
      <trkpt lat="47.33403" lon="-2.47393">
        <ele>17.799999237061</ele>
        <time>2021-12-02T09:39:47.000Z</time>
      </trkpt>
      <trkpt lat="47.33416" lon="-2.47445">
        <ele>17.799999237061</ele>
        <time>2021-12-02T09:39:55.000Z</time>
      </trkpt>
      <trkpt lat="47.33418" lon="-2.47458">
        <ele>18.200000762939</ele>
        <time>2021-12-02T09:39:57.000Z</time>
      </trkpt>
      <trkpt lat="47.3342" lon="-2.47465">
        <ele>18.60000038147</ele>
        <time>2021-12-02T09:39:58.000Z</time>
      </trkpt>
      <trkpt lat="47.33421" lon="-2.4747">
        <ele>19</ele>
        <time>2021-12-02T09:39:59.000Z</time>
      </trkpt>
      <trkpt lat="47.33423" lon="-2.47477">
        <ele>19.39999961853</ele>
        <time>2021-12-02T09:40:00.000Z</time>
      </trkpt>
      <trkpt lat="47.33426" lon="-2.47483">
        <ele>19.799999237061</ele>
        <time>2021-12-02T09:40:01.000Z</time>
      </trkpt>
      <trkpt lat="47.33445" lon="-2.4753">
        <ele>19.799999237061</ele>
        <time>2021-12-02T09:40:09.000Z</time>
      </trkpt>
      <trkpt lat="47.33469" lon="-2.47577">
        <ele>19.799999237061</ele>
        <time>2021-12-02T09:40:17.000Z</time>
      </trkpt>
      <trkpt lat="47.33486" lon="-2.47602">
        <ele>19.799999237061</ele>
        <time>2021-12-02T09:40:22.000Z</time>
      </trkpt>
      <trkpt lat="47.3349" lon="-2.47606">
        <ele>19.799999237061</ele>
        <time>2021-12-02T09:40:23.000Z</time>
      </trkpt>
      <trkpt lat="47.33506" lon="-2.47624">
        <ele>19.799999237061</ele>
        <time>2021-12-02T09:40:27.000Z</time>
      </trkpt>
      <trkpt lat="47.33509" lon="-2.4763">
        <ele>19.799999237061</ele>
        <time>2021-12-02T09:40:28.000Z</time>
      </trkpt>
      <trkpt lat="47.33529" lon="-2.47672">
        <ele>19.799999237061</ele>
        <time>2021-12-02T09:40:35.000Z</time>
      </trkpt>
      <trkpt lat="47.33547" lon="-2.47683">
        <ele>19.799999237061</ele>
        <time>2021-12-02T09:40:39.000Z</time>
      </trkpt>
      <trkpt lat="47.33567" lon="-2.47699">
        <ele>19.799999237061</ele>
        <time>2021-12-02T09:40:45.000Z</time>
      </trkpt>
      <trkpt lat="47.33579" lon="-2.47703">
        <ele>19.799999237061</ele>
        <time>2021-12-02T09:40:48.000Z</time>
      </trkpt>
      <trkpt lat="47.33586" lon="-2.477">
        <ele>19.799999237061</ele>
        <time>2021-12-02T09:40:50.000Z</time>
      </trkpt>
      <trkpt lat="47.33605" lon="-2.47683">
        <ele>19.799999237061</ele>
        <time>2021-12-02T09:40:56.000Z</time>
      </trkpt>
      <trkpt lat="47.33627" lon="-2.47661">
        <ele>19.799999237061</ele>
        <time>2021-12-02T09:41:03.000Z</time>
      </trkpt>
      <trkpt lat="47.33644" lon="-2.4765">
        <ele>19.799999237061</ele>
        <time>2021-12-02T09:41:08.000Z</time>
      </trkpt>
      <trkpt lat="47.33674" lon="-2.47628">
        <ele>19.799999237061</ele>
        <time>2021-12-02T09:41:16.000Z</time>
      </trkpt>
      <trkpt lat="47.33696" lon="-2.47616">
        <ele>19.799999237061</ele>
        <time>2021-12-02T09:41:22.000Z</time>
      </trkpt>
      <trkpt lat="47.33701" lon="-2.47616">
        <ele>19.799999237061</ele>
        <time>2021-12-02T09:41:23.000Z</time>
      </trkpt>
      <trkpt lat="47.33719" lon="-2.47616">
        <ele>19.799999237061</ele>
        <time>2021-12-02T09:41:27.000Z</time>
      </trkpt>
      <trkpt lat="47.33742" lon="-2.47625">
        <ele>19.799999237061</ele>
        <time>2021-12-02T09:41:33.000Z</time>
      </trkpt>
      <trkpt lat="47.33757" lon="-2.47641">
        <ele>19.799999237061</ele>
        <time>2021-12-02T09:41:37.000Z</time>
      </trkpt>
      <trkpt lat="47.33762" lon="-2.47653">
        <ele>19.799999237061</ele>
        <time>2021-12-02T09:41:39.000Z</time>
      </trkpt>
      <trkpt lat="47.33766" lon="-2.47667">
        <ele>19.799999237061</ele>
        <time>2021-12-02T09:41:41.000Z</time>
      </trkpt>
      <trkpt lat="47.33769" lon="-2.47673">
        <ele>19.799999237061</ele>
        <time>2021-12-02T09:41:42.000Z</time>
      </trkpt>
      <trkpt lat="47.33773" lon="-2.47678">
        <ele>19.799999237061</ele>
        <time>2021-12-02T09:41:43.000Z</time>
      </trkpt>
      <trkpt lat="47.33801" lon="-2.47712">
        <ele>19.799999237061</ele>
        <time>2021-12-02T09:41:49.000Z</time>
      </trkpt>
      <trkpt lat="47.33828" lon="-2.47746">
        <ele>19.200000762939</ele>
        <time>2021-12-02T09:41:55.000Z</time>
      </trkpt>
      <trkpt lat="47.33833" lon="-2.47751">
        <ele>18.799999237061</ele>
        <time>2021-12-02T09:41:56.000Z</time>
      </trkpt>
      <trkpt lat="47.33838" lon="-2.47757">
        <ele>18</ele>
        <time>2021-12-02T09:41:57.000Z</time>
      </trkpt>
      <trkpt lat="47.33843" lon="-2.47762">
        <ele>17.60000038147</ele>
        <time>2021-12-02T09:41:58.000Z</time>
      </trkpt>
      <trkpt lat="47.33851" lon="-2.47775">
        <ele>17.60000038147</ele>
        <time>2021-12-02T09:42:00.000Z</time>
      </trkpt>
      <trkpt lat="47.33853" lon="-2.47788">
        <ele>17.60000038147</ele>
        <time>2021-12-02T09:42:02.000Z</time>
      </trkpt>
      <trkpt lat="47.3385" lon="-2.47796">
        <ele>17.60000038147</ele>
        <time>2021-12-02T09:42:03.000Z</time>
      </trkpt>
      <trkpt lat="47.33846" lon="-2.47804">
        <ele>17.60000038147</ele>
        <time>2021-12-02T09:42:04.000Z</time>
      </trkpt>
      <trkpt lat="47.33824" lon="-2.47843">
        <ele>17.60000038147</ele>
        <time>2021-12-02T09:42:10.000Z</time>
      </trkpt>
      <trkpt lat="47.33798" lon="-2.47888">
        <ele>17.200000762939</ele>
        <time>2021-12-02T09:42:17.000Z</time>
      </trkpt>
      <trkpt lat="47.33795" lon="-2.47895">
        <ele>16.799999237061</ele>
        <time>2021-12-02T09:42:18.000Z</time>
      </trkpt>
      <trkpt lat="47.33791" lon="-2.47901">
        <ele>16.39999961853</ele>
        <time>2021-12-02T09:42:19.000Z</time>
      </trkpt>
      <trkpt lat="47.33787" lon="-2.47907">
        <ele>16</ele>
        <time>2021-12-02T09:42:20.000Z</time>
      </trkpt>
      <trkpt lat="47.33784" lon="-2.47914">
        <ele>15.60000038147</ele>
        <time>2021-12-02T09:42:21.000Z</time>
      </trkpt>
      <trkpt lat="47.33771" lon="-2.47944">
        <ele>15.60000038147</ele>
        <time>2021-12-02T09:42:25.000Z</time>
      </trkpt>
      <trkpt lat="47.33757" lon="-2.47987">
        <ele>15.199999809265</ele>
        <time>2021-12-02T09:42:30.000Z</time>
      </trkpt>
      <trkpt lat="47.33755" lon="-2.47996">
        <ele>14.800000190735</ele>
        <time>2021-12-02T09:42:31.000Z</time>
      </trkpt>
      <trkpt lat="47.33754" lon="-2.48005">
        <ele>14.39999961853</ele>
        <time>2021-12-02T09:42:32.000Z</time>
      </trkpt>
      <trkpt lat="47.33752" lon="-2.48013">
        <ele>14</ele>
        <time>2021-12-02T09:42:33.000Z</time>
      </trkpt>
      <trkpt lat="47.3375" lon="-2.48022">
        <ele>13.60000038147</ele>
        <time>2021-12-02T09:42:34.000Z</time>
      </trkpt>
      <trkpt lat="47.33742" lon="-2.48063">
        <ele>13.60000038147</ele>
        <time>2021-12-02T09:42:39.000Z</time>
      </trkpt>
      <trkpt lat="47.33734" lon="-2.48117">
        <ele>13.199999809265</ele>
        <time>2021-12-02T09:42:45.000Z</time>
      </trkpt>
      <trkpt lat="47.33732" lon="-2.48126">
        <ele>12.60000038147</ele>
        <time>2021-12-02T09:42:46.000Z</time>
      </trkpt>
      <trkpt lat="47.33731" lon="-2.48136">
        <ele>11.60000038147</ele>
        <time>2021-12-02T09:42:47.000Z</time>
      </trkpt>
      <trkpt lat="47.3373" lon="-2.48145">
        <ele>11.199999809265</ele>
        <time>2021-12-02T09:42:48.000Z</time>
      </trkpt>
      <trkpt lat="47.33728" lon="-2.48171">
        <ele>11.199999809265</ele>
        <time>2021-12-02T09:42:51.000Z</time>
      </trkpt>
      <trkpt lat="47.33725" lon="-2.48221">
        <ele>10.800000190735</ele>
        <time>2021-12-02T09:42:57.000Z</time>
      </trkpt>
      <trkpt lat="47.33724" lon="-2.48229">
        <ele>10.39999961853</ele>
        <time>2021-12-02T09:42:58.000Z</time>
      </trkpt>
      <trkpt lat="47.33724" lon="-2.48237">
        <ele>10</ele>
        <time>2021-12-02T09:42:59.000Z</time>
      </trkpt>
      <trkpt lat="47.33724" lon="-2.48244">
        <ele>9.6000003814697</ele>
        <time>2021-12-02T09:43:00.000Z</time>
      </trkpt>
      <trkpt lat="47.33723" lon="-2.48252">
        <ele>9.1999998092651</ele>
        <time>2021-12-02T09:43:01.000Z</time>
      </trkpt>
      <trkpt lat="47.33723" lon="-2.48261">
        <ele>9.1999998092651</ele>
        <time>2021-12-02T09:43:02.000Z</time>
      </trkpt>
      <trkpt lat="47.33722" lon="-2.48314">
        <ele>9.1999998092651</ele>
        <time>2021-12-02T09:43:09.000Z</time>
      </trkpt>
      <trkpt lat="47.33723" lon="-2.48321">
        <ele>9.1999998092651</ele>
        <time>2021-12-02T09:43:10.000Z</time>
      </trkpt>
      <trkpt lat="47.33722" lon="-2.48325">
        <ele>8.8000001907349</ele>
        <time>2021-12-02T09:43:11.000Z</time>
      </trkpt>
      <trkpt lat="47.33722" lon="-2.48328">
        <ele>7.8000001907349</ele>
        <time>2021-12-02T09:43:12.000Z</time>
      </trkpt>
      <trkpt lat="47.3372" lon="-2.48332">
        <ele>7.4000000953674</ele>
        <time>2021-12-02T09:43:13.000Z</time>
      </trkpt>
      <trkpt lat="47.33717" lon="-2.48333">
        <ele>7</ele>
        <time>2021-12-02T09:43:14.000Z</time>
      </trkpt>
      <trkpt lat="47.33709" lon="-2.48336">
        <ele>7</ele>
        <time>2021-12-02T09:43:16.000Z</time>
      </trkpt>
      <trkpt lat="47.33683" lon="-2.48341">
        <ele>7</ele>
        <time>2021-12-02T09:43:21.000Z</time>
      </trkpt>
      <trkpt lat="47.33676" lon="-2.48343">
        <ele>6.5999999046326</ele>
        <time>2021-12-02T09:43:22.000Z</time>
      </trkpt>
      <trkpt lat="47.3367" lon="-2.48345">
        <ele>6.1999998092651</ele>
        <time>2021-12-02T09:43:23.000Z</time>
      </trkpt>
      <trkpt lat="47.33664" lon="-2.48347">
        <ele>5.8000001907349</ele>
        <time>2021-12-02T09:43:24.000Z</time>
      </trkpt>
      <trkpt lat="47.33657" lon="-2.48351">
        <ele>5.4000000953674</ele>
        <time>2021-12-02T09:43:25.000Z</time>
      </trkpt>
      <trkpt lat="47.33651" lon="-2.48356">
        <ele>5</ele>
        <time>2021-12-02T09:43:26.000Z</time>
      </trkpt>
      <trkpt lat="47.33641" lon="-2.48368">
        <ele>4.4000000953674</ele>
        <time>2021-12-02T09:43:28.000Z</time>
      </trkpt>
      <trkpt lat="47.33636" lon="-2.48375">
        <ele>4</ele>
        <time>2021-12-02T09:43:29.000Z</time>
      </trkpt>
      <trkpt lat="47.33632" lon="-2.48383">
        <ele>3.5999999046326</ele>
        <time>2021-12-02T09:43:30.000Z</time>
      </trkpt>
      <trkpt lat="47.33629" lon="-2.48391">
        <ele>3</ele>
        <time>2021-12-02T09:43:31.000Z</time>
      </trkpt>
      <trkpt lat="47.33627" lon="-2.48399">
        <ele>2.5999999046326</ele>
        <time>2021-12-02T09:43:32.000Z</time>
      </trkpt>
      <trkpt lat="47.33624" lon="-2.48408">
        <ele>2.5999999046326</ele>
        <time>2021-12-02T09:43:33.000Z</time>
      </trkpt>
      <trkpt lat="47.33622" lon="-2.48416">
        <ele>2.5999999046326</ele>
        <time>2021-12-02T09:43:34.000Z</time>
      </trkpt>
      <trkpt lat="47.33605" lon="-2.48481">
        <ele>2.5999999046326</ele>
        <time>2021-12-02T09:43:42.000Z</time>
      </trkpt>
      <trkpt lat="47.33583" lon="-2.48528">
        <ele>2.5999999046326</ele>
        <time>2021-12-02T09:43:49.000Z</time>
      </trkpt>
      <trkpt lat="47.33555" lon="-2.48581">
        <ele>2.5999999046326</ele>
        <time>2021-12-02T09:43:57.000Z</time>
      </trkpt>
      <trkpt lat="47.33525" lon="-2.48636">
        <ele>2.5999999046326</ele>
        <time>2021-12-02T09:44:05.000Z</time>
      </trkpt>
      <trkpt lat="47.3349" lon="-2.48684">
        <ele>2.5999999046326</ele>
        <time>2021-12-02T09:44:13.000Z</time>
      </trkpt>
      <trkpt lat="47.33453" lon="-2.48728">
        <ele>2.5999999046326</ele>
        <time>2021-12-02T09:44:21.000Z</time>
      </trkpt>
      <trkpt lat="47.33422" lon="-2.48768">
        <ele>2.5999999046326</ele>
        <time>2021-12-02T09:44:28.000Z</time>
      </trkpt>
      <trkpt lat="47.33384" lon="-2.48814">
        <ele>2.5999999046326</ele>
        <time>2021-12-02T09:44:36.000Z</time>
      </trkpt>
      <trkpt lat="47.33379" lon="-2.48819">
        <ele>2.5999999046326</ele>
        <time>2021-12-02T09:44:37.000Z</time>
      </trkpt>
      <trkpt lat="47.33362" lon="-2.48829">
        <ele>2.5999999046326</ele>
        <time>2021-12-02T09:44:40.000Z</time>
      </trkpt>
      <trkpt lat="47.33338" lon="-2.48831">
        <ele>2.5999999046326</ele>
        <time>2021-12-02T09:44:44.000Z</time>
      </trkpt>
      <trkpt lat="47.33332" lon="-2.4883">
        <ele>2.5999999046326</ele>
        <time>2021-12-02T09:44:45.000Z</time>
      </trkpt>
      <trkpt lat="47.33307" lon="-2.4883">
        <ele>2.5999999046326</ele>
        <time>2021-12-02T09:44:49.000Z</time>
      </trkpt>
      <trkpt lat="47.33296" lon="-2.48834">
        <ele>2.5999999046326</ele>
        <time>2021-12-02T09:44:51.000Z</time>
      </trkpt>
      <trkpt lat="47.3328" lon="-2.48847">
        <ele>2.5999999046326</ele>
        <time>2021-12-02T09:44:54.000Z</time>
      </trkpt>
      <trkpt lat="47.33275" lon="-2.48852">
        <ele>2.5999999046326</ele>
        <time>2021-12-02T09:44:55.000Z</time>
      </trkpt>
      <trkpt lat="47.33255" lon="-2.48877">
        <ele>2.5999999046326</ele>
        <time>2021-12-02T09:45:00.000Z</time>
      </trkpt>
      <trkpt lat="47.33253" lon="-2.48883">
        <ele>2.5999999046326</ele>
        <time>2021-12-02T09:45:01.000Z</time>
      </trkpt>
      <trkpt lat="47.33254" lon="-2.48905">
        <ele>2.5999999046326</ele>
        <time>2021-12-02T09:45:04.000Z</time>
      </trkpt>
      <trkpt lat="47.33257" lon="-2.48921">
        <ele>2.5999999046326</ele>
        <time>2021-12-02T09:45:06.000Z</time>
      </trkpt>
      <trkpt lat="47.33267" lon="-2.48962">
        <ele>2.5999999046326</ele>
        <time>2021-12-02T09:45:11.000Z</time>
      </trkpt>
      <trkpt lat="47.33282" lon="-2.4902">
        <ele>2.5999999046326</ele>
        <time>2021-12-02T09:45:18.000Z</time>
      </trkpt>
      <trkpt lat="47.33305" lon="-2.49075">
        <ele>2.5999999046326</ele>
        <time>2021-12-02T09:45:25.000Z</time>
      </trkpt>
      <trkpt lat="47.33309" lon="-2.49081">
        <ele>2.5999999046326</ele>
        <time>2021-12-02T09:45:26.000Z</time>
      </trkpt>
      <trkpt lat="47.33336" lon="-2.49118">
        <ele>2.5999999046326</ele>
        <time>2021-12-02T09:45:32.000Z</time>
      </trkpt>
      <trkpt lat="47.33363" lon="-2.49166">
        <ele>2.5999999046326</ele>
        <time>2021-12-02T09:45:39.000Z</time>
      </trkpt>
      <trkpt lat="47.33381" lon="-2.49219">
        <ele>2.5999999046326</ele>
        <time>2021-12-02T09:45:46.000Z</time>
      </trkpt>
      <trkpt lat="47.33387" lon="-2.49262">
        <ele>2.5999999046326</ele>
        <time>2021-12-02T09:45:51.000Z</time>
      </trkpt>
      <trkpt lat="47.3339" lon="-2.49278">
        <ele>2.5999999046326</ele>
        <time>2021-12-02T09:45:53.000Z</time>
      </trkpt>
      <trkpt lat="47.33399" lon="-2.49302">
        <ele>2.5999999046326</ele>
        <time>2021-12-02T09:45:56.000Z</time>
      </trkpt>
      <trkpt lat="47.33409" lon="-2.49323">
        <ele>2.5999999046326</ele>
        <time>2021-12-02T09:45:59.000Z</time>
      </trkpt>
      <trkpt lat="47.33417" lon="-2.49347">
        <ele>2.5999999046326</ele>
        <time>2021-12-02T09:46:02.000Z</time>
      </trkpt>
      <trkpt lat="47.33426" lon="-2.49406">
        <ele>2.5999999046326</ele>
        <time>2021-12-02T09:46:09.000Z</time>
      </trkpt>
      <trkpt lat="47.33433" lon="-2.49466">
        <ele>2.5999999046326</ele>
        <time>2021-12-02T09:46:16.000Z</time>
      </trkpt>
      <trkpt lat="47.33439" lon="-2.49516">
        <ele>2.5999999046326</ele>
        <time>2021-12-02T09:46:22.000Z</time>
      </trkpt>
      <trkpt lat="47.33447" lon="-2.49584">
        <ele>2.5999999046326</ele>
        <time>2021-12-02T09:46:30.000Z</time>
      </trkpt>
      <trkpt lat="47.33454" lon="-2.49633">
        <ele>2.5999999046326</ele>
        <time>2021-12-02T09:46:36.000Z</time>
      </trkpt>
      <trkpt lat="47.33469" lon="-2.49682">
        <ele>2.5999999046326</ele>
        <time>2021-12-02T09:46:42.000Z</time>
      </trkpt>
      <trkpt lat="47.33493" lon="-2.49741">
        <ele>2.5999999046326</ele>
        <time>2021-12-02T09:46:50.000Z</time>
      </trkpt>
      <trkpt lat="47.33524" lon="-2.49816">
        <ele>2.5999999046326</ele>
        <time>2021-12-02T09:47:00.000Z</time>
      </trkpt>
      <trkpt lat="47.33546" lon="-2.49876">
        <ele>2.5999999046326</ele>
        <time>2021-12-02T09:47:08.000Z</time>
      </trkpt>
      <trkpt lat="47.33569" lon="-2.49943">
        <ele>2.5999999046326</ele>
        <time>2021-12-02T09:47:17.000Z</time>
      </trkpt>
      <trkpt lat="47.3359" lon="-2.50004">
        <ele>2.5999999046326</ele>
        <time>2021-12-02T09:47:25.000Z</time>
      </trkpt>
      <trkpt lat="47.3361" lon="-2.50058">
        <ele>2.5999999046326</ele>
        <time>2021-12-02T09:47:33.000Z</time>
      </trkpt>
      <trkpt lat="47.33621" lon="-2.50087">
        <ele>2.5999999046326</ele>
        <time>2021-12-02T09:47:38.000Z</time>
      </trkpt>
      <trkpt lat="47.33625" lon="-2.50095">
        <ele>2.5999999046326</ele>
        <time>2021-12-02T09:47:40.000Z</time>
      </trkpt>
      <trkpt lat="47.33625" lon="-2.50099">
        <ele>2.5999999046326</ele>
        <time>2021-12-02T09:47:41.000Z</time>
      </trkpt>
      <trkpt lat="47.33623" lon="-2.50102">
        <ele>2.5999999046326</ele>
        <time>2021-12-02T09:47:43.000Z</time>
      </trkpt>
      <trkpt lat="47.33621" lon="-2.50104">
        <ele>2.2000000476837</ele>
        <time>2021-12-02T09:47:44.000Z</time>
      </trkpt>
      <trkpt lat="47.3362" lon="-2.50105">
        <ele>1.7999999523163</ele>
        <time>2021-12-02T09:47:45.000Z</time>
      </trkpt>
      <trkpt lat="47.33619" lon="-2.50105">
        <ele>1.2000000476837</ele>
        <time>2021-12-02T09:47:46.000Z</time>
      </trkpt>
      <trkpt lat="47.33617" lon="-2.50105">
        <ele>0.80000001192093</ele>
        <time>2021-12-02T09:47:47.000Z</time>
      </trkpt>
      <trkpt lat="47.33616" lon="-2.50103">
        <ele>0.40000000596046</ele>
        <time>2021-12-02T09:47:48.000Z</time>
      </trkpt>
      <trkpt lat="47.33606" lon="-2.50092">
        <ele>0.40000000596046</ele>
        <time>2021-12-02T09:47:52.000Z</time>
      </trkpt>
      <trkpt lat="47.33603" lon="-2.50089">
        <ele>0.40000000596046</ele>
        <time>2021-12-02T09:47:53.000Z</time>
      </trkpt>
      <trkpt lat="47.33584" lon="-2.50075">
        <ele>0.40000000596046</ele>
        <time>2021-12-02T09:47:58.000Z</time>
      </trkpt>
      <trkpt lat="47.33577" lon="-2.50069">
        <ele>0.40000000596046</ele>
        <time>2021-12-02T09:48:00.000Z</time>
      </trkpt>
      <trkpt lat="47.33566" lon="-2.50056">
        <ele>0.40000000596046</ele>
        <time>2021-12-02T09:48:03.000Z</time>
      </trkpt>
      <trkpt lat="47.33555" lon="-2.50045">
        <ele>0.40000000596046</ele>
        <time>2021-12-02T09:48:06.000Z</time>
      </trkpt>
      <trkpt lat="47.33543" lon="-2.50035">
        <ele>0.40000000596046</ele>
        <time>2021-12-02T09:48:09.000Z</time>
      </trkpt>
      <trkpt lat="47.3354" lon="-2.5003">
        <ele>0.40000000596046</ele>
        <time>2021-12-02T09:48:10.000Z</time>
      </trkpt>
      <trkpt lat="47.33526" lon="-2.50008">
        <ele>0.40000000596046</ele>
        <time>2021-12-02T09:48:16.000Z</time>
      </trkpt>
      <trkpt lat="47.33527" lon="-2.50007">
        <ele>0.40000000596046</ele>
        <time>2021-12-02T09:48:18.000Z</time>
      </trkpt>
      <trkpt lat="47.33523" lon="-2.50004">
        <ele>0.40000000596046</ele>
        <time>2021-12-02T09:48:39.000Z</time>
      </trkpt>
      <trkpt lat="47.33521" lon="-2.50003">
        <ele>0.40000000596046</ele>
        <time>2021-12-02T09:48:40.000Z</time>
      </trkpt>
      <trkpt lat="47.33512" lon="-2.49998">
        <ele>0.40000000596046</ele>
        <time>2021-12-02T09:48:43.000Z</time>
      </trkpt>
      <trkpt lat="47.33508" lon="-2.49996">
        <ele>0.40000000596046</ele>
        <time>2021-12-02T09:48:44.000Z</time>
      </trkpt>
      <trkpt lat="47.33491" lon="-2.49992">
        <ele>0.40000000596046</ele>
        <time>2021-12-02T09:48:48.000Z</time>
      </trkpt>
      <trkpt lat="47.33486" lon="-2.49993">
        <ele>0.40000000596046</ele>
        <time>2021-12-02T09:48:49.000Z</time>
      </trkpt>
      <trkpt lat="47.33454" lon="-2.49999">
        <ele>0.40000000596046</ele>
        <time>2021-12-02T09:48:56.000Z</time>
      </trkpt>
      <trkpt lat="47.33429" lon="-2.49988">
        <ele>0.40000000596046</ele>
        <time>2021-12-02T09:49:01.000Z</time>
      </trkpt>
      <trkpt lat="47.33424" lon="-2.49984">
        <ele>0.40000000596046</ele>
        <time>2021-12-02T09:49:02.000Z</time>
      </trkpt>
      <trkpt lat="47.33419" lon="-2.4998">
        <ele>0.40000000596046</ele>
        <time>2021-12-02T09:49:03.000Z</time>
      </trkpt>
      <trkpt lat="47.33399" lon="-2.49967">
        <ele>0.40000000596046</ele>
        <time>2021-12-02T09:49:07.000Z</time>
      </trkpt>
      <trkpt lat="47.33375" lon="-2.49952">
        <ele>0.40000000596046</ele>
        <time>2021-12-02T09:49:12.000Z</time>
      </trkpt>
      <trkpt lat="47.33366" lon="-2.49944">
        <ele>0.40000000596046</ele>
        <time>2021-12-02T09:49:14.000Z</time>
      </trkpt>
      <trkpt lat="47.33345" lon="-2.49924">
        <ele>0.40000000596046</ele>
        <time>2021-12-02T09:49:19.000Z</time>
      </trkpt>
      <trkpt lat="47.33336" lon="-2.49915">
        <ele>0.40000000596046</ele>
        <time>2021-12-02T09:49:21.000Z</time>
      </trkpt>
      <trkpt lat="47.33307" lon="-2.49884">
        <ele>0.40000000596046</ele>
        <time>2021-12-02T09:49:28.000Z</time>
      </trkpt>
      <trkpt lat="47.33303" lon="-2.49879">
        <ele>0.40000000596046</ele>
        <time>2021-12-02T09:49:29.000Z</time>
      </trkpt>
      <trkpt lat="47.33274" lon="-2.49848">
        <ele>0.40000000596046</ele>
        <time>2021-12-02T09:49:36.000Z</time>
      </trkpt>
      <trkpt lat="47.33245" lon="-2.49817">
        <ele>0.40000000596046</ele>
        <time>2021-12-02T09:49:43.000Z</time>
      </trkpt>
      <trkpt lat="47.3322" lon="-2.4979">
        <ele>0.40000000596046</ele>
        <time>2021-12-02T09:49:49.000Z</time>
      </trkpt>
      <trkpt lat="47.33211" lon="-2.49782">
        <ele>0.40000000596046</ele>
        <time>2021-12-02T09:49:51.000Z</time>
      </trkpt>
      <trkpt lat="47.33198" lon="-2.4977">
        <ele>0.40000000596046</ele>
        <time>2021-12-02T09:49:54.000Z</time>
      </trkpt>
      <trkpt lat="47.33166" lon="-2.49735">
        <ele>0.40000000596046</ele>
        <time>2021-12-02T09:50:02.000Z</time>
      </trkpt>
      <trkpt lat="47.33147" lon="-2.4972">
        <ele>0.40000000596046</ele>
        <time>2021-12-02T09:50:06.000Z</time>
      </trkpt>
      <trkpt lat="47.33142" lon="-2.49717">
        <ele>0.40000000596046</ele>
        <time>2021-12-02T09:50:07.000Z</time>
      </trkpt>
      <trkpt lat="47.33115" lon="-2.49699">
        <ele>0.40000000596046</ele>
        <time>2021-12-02T09:50:13.000Z</time>
      </trkpt>
      <trkpt lat="47.33085" lon="-2.49684">
        <ele>0.40000000596046</ele>
        <time>2021-12-02T09:50:19.000Z</time>
      </trkpt>
      <trkpt lat="47.33051" lon="-2.49668">
        <ele>0.40000000596046</ele>
        <time>2021-12-02T09:50:26.000Z</time>
      </trkpt>
      <trkpt lat="47.33027" lon="-2.49657">
        <ele>0.40000000596046</ele>
        <time>2021-12-02T09:50:31.000Z</time>
      </trkpt>
      <trkpt lat="47.33018" lon="-2.49651">
        <ele>0.40000000596046</ele>
        <time>2021-12-02T09:50:33.000Z</time>
      </trkpt>
      <trkpt lat="47.3301" lon="-2.49648">
        <ele>0.40000000596046</ele>
        <time>2021-12-02T09:50:35.000Z</time>
      </trkpt>
      <trkpt lat="47.32998" lon="-2.49647">
        <ele>0.40000000596046</ele>
        <time>2021-12-02T09:50:38.000Z</time>
      </trkpt>
      <trkpt lat="47.32994" lon="-2.49658">
        <ele>0.40000000596046</ele>
        <time>2021-12-02T09:50:41.000Z</time>
      </trkpt>
      <trkpt lat="47.32988" lon="-2.4967">
        <ele>0.40000000596046</ele>
        <time>2021-12-02T09:50:44.000Z</time>
      </trkpt>
      <trkpt lat="47.32973" lon="-2.49699">
        <ele>0.40000000596046</ele>
        <time>2021-12-02T09:50:50.000Z</time>
      </trkpt>
      <trkpt lat="47.3296" lon="-2.4972">
        <ele>0.40000000596046</ele>
        <time>2021-12-02T09:50:55.000Z</time>
      </trkpt>
      <trkpt lat="47.32951" lon="-2.49715">
        <ele>0.40000000596046</ele>
        <time>2021-12-02T09:50:58.000Z</time>
      </trkpt>
      <trkpt lat="47.32946" lon="-2.4972">
        <ele>0.40000000596046</ele>
        <time>2021-12-02T09:51:01.000Z</time>
      </trkpt>
      <trkpt lat="47.32943" lon="-2.49737">
        <ele>0.40000000596046</ele>
        <time>2021-12-02T09:51:06.000Z</time>
      </trkpt>
      <trkpt lat="47.32935" lon="-2.4974">
        <ele>0.40000000596046</ele>
        <time>2021-12-02T09:51:09.000Z</time>
      </trkpt>
      <trkpt lat="47.32931" lon="-2.4974">
        <ele>0.40000000596046</ele>
        <time>2021-12-02T09:51:10.000Z</time>
      </trkpt>
      <trkpt lat="47.32908" lon="-2.49743">
        <ele>0.40000000596046</ele>
        <time>2021-12-02T09:51:16.000Z</time>
      </trkpt>
      <trkpt lat="47.32882" lon="-2.49754">
        <ele>0.40000000596046</ele>
        <time>2021-12-02T09:51:23.000Z</time>
      </trkpt>
      <trkpt lat="47.32867" lon="-2.49759">
        <ele>0.40000000596046</ele>
        <time>2021-12-02T09:51:27.000Z</time>
      </trkpt>
      <trkpt lat="47.32856" lon="-2.49764">
        <ele>0.40000000596046</ele>
        <time>2021-12-02T09:51:30.000Z</time>
      </trkpt>
      <trkpt lat="47.32834" lon="-2.49763">
        <ele>0.40000000596046</ele>
        <time>2021-12-02T09:51:35.000Z</time>
      </trkpt>
      <trkpt lat="47.32804" lon="-2.49756">
        <ele>0.40000000596046</ele>
        <time>2021-12-02T09:51:42.000Z</time>
      </trkpt>
      <trkpt lat="47.32792" lon="-2.49756">
        <ele>0.80000001192093</ele>
        <time>2021-12-02T09:51:45.000Z</time>
      </trkpt>
      <trkpt lat="47.32787" lon="-2.49756">
        <ele>1.2000000476837</ele>
        <time>2021-12-02T09:51:46.000Z</time>
      </trkpt>
      <trkpt lat="47.32783" lon="-2.49755">
        <ele>1.6000000238419</ele>
        <time>2021-12-02T09:51:47.000Z</time>
      </trkpt>
      <trkpt lat="47.32778" lon="-2.49754">
        <ele>2.2000000476837</ele>
        <time>2021-12-02T09:51:48.000Z</time>
      </trkpt>
      <trkpt lat="47.32774" lon="-2.49752">
        <ele>2.5999999046326</ele>
        <time>2021-12-02T09:51:49.000Z</time>
      </trkpt>
      <trkpt lat="47.3275" lon="-2.49744">
        <ele>2.5999999046326</ele>
        <time>2021-12-02T09:51:55.000Z</time>
      </trkpt>
      <trkpt lat="47.32726" lon="-2.49738">
        <ele>2.5999999046326</ele>
        <time>2021-12-02T09:52:01.000Z</time>
      </trkpt>
      <trkpt lat="47.32705" lon="-2.49727">
        <ele>2.5999999046326</ele>
        <time>2021-12-02T09:52:06.000Z</time>
      </trkpt>
      <trkpt lat="47.32701" lon="-2.49724">
        <ele>2.5999999046326</ele>
        <time>2021-12-02T09:52:07.000Z</time>
      </trkpt>
      <trkpt lat="47.32686" lon="-2.49715">
        <ele>2.5999999046326</ele>
        <time>2021-12-02T09:52:11.000Z</time>
      </trkpt>
      <trkpt lat="47.32662" lon="-2.49698">
        <ele>2.5999999046326</ele>
        <time>2021-12-02T09:52:17.000Z</time>
      </trkpt>
      <trkpt lat="47.32649" lon="-2.4969">
        <ele>2.5999999046326</ele>
        <time>2021-12-02T09:52:20.000Z</time>
      </trkpt>
      <trkpt lat="47.32641" lon="-2.49686">
        <ele>2.5999999046326</ele>
        <time>2021-12-02T09:52:22.000Z</time>
      </trkpt>
      <trkpt lat="47.32622" lon="-2.49678">
        <ele>2.5999999046326</ele>
        <time>2021-12-02T09:52:26.000Z</time>
      </trkpt>
      <trkpt lat="47.32613" lon="-2.49674">
        <ele>2.5999999046326</ele>
        <time>2021-12-02T09:52:28.000Z</time>
      </trkpt>
      <trkpt lat="47.32586" lon="-2.49667">
        <ele>2.5999999046326</ele>
        <time>2021-12-02T09:52:34.000Z</time>
      </trkpt>
      <trkpt lat="47.32562" lon="-2.49658">
        <ele>2.5999999046326</ele>
        <time>2021-12-02T09:52:39.000Z</time>
      </trkpt>
      <trkpt lat="47.32548" lon="-2.49652">
        <ele>3</ele>
        <time>2021-12-02T09:52:42.000Z</time>
      </trkpt>
      <trkpt lat="47.32545" lon="-2.4965">
        <ele>3.4000000953674</ele>
        <time>2021-12-02T09:52:43.000Z</time>
      </trkpt>
      <trkpt lat="47.32541" lon="-2.49647">
        <ele>3.7999999523163</ele>
        <time>2021-12-02T09:52:44.000Z</time>
      </trkpt>
      <trkpt lat="47.32538" lon="-2.49644">
        <ele>4.1999998092651</ele>
        <time>2021-12-02T09:52:45.000Z</time>
      </trkpt>
      <trkpt lat="47.32535" lon="-2.4964">
        <ele>4.5999999046326</ele>
        <time>2021-12-02T09:52:46.000Z</time>
      </trkpt>
      <trkpt lat="47.32524" lon="-2.49625">
        <ele>4.5999999046326</ele>
        <time>2021-12-02T09:52:49.000Z</time>
      </trkpt>
      <trkpt lat="47.3252" lon="-2.4962">
        <ele>4.5999999046326</ele>
        <time>2021-12-02T09:52:50.000Z</time>
      </trkpt>
      <trkpt lat="47.32497" lon="-2.49592">
        <ele>4.5999999046326</ele>
        <time>2021-12-02T09:52:56.000Z</time>
      </trkpt>
      <trkpt lat="47.32483" lon="-2.49575">
        <ele>4.5999999046326</ele>
        <time>2021-12-02T09:53:01.000Z</time>
      </trkpt>
      <trkpt lat="47.32467" lon="-2.49561">
        <ele>4.5999999046326</ele>
        <time>2021-12-02T09:53:06.000Z</time>
      </trkpt>
      <trkpt lat="47.32449" lon="-2.49549">
        <ele>4.5999999046326</ele>
        <time>2021-12-02T09:53:11.000Z</time>
      </trkpt>
      <trkpt lat="47.32433" lon="-2.4954">
        <ele>4.5999999046326</ele>
        <time>2021-12-02T09:53:15.000Z</time>
      </trkpt>
      <trkpt lat="47.32429" lon="-2.49539">
        <ele>4.5999999046326</ele>
        <time>2021-12-02T09:53:16.000Z</time>
      </trkpt>
      <trkpt lat="47.32423" lon="-2.49546">
        <ele>4.5999999046326</ele>
        <time>2021-12-02T09:53:18.000Z</time>
      </trkpt>
      <trkpt lat="47.32412" lon="-2.49559">
        <ele>4.5999999046326</ele>
        <time>2021-12-02T09:53:22.000Z</time>
      </trkpt>
      <trkpt lat="47.32404" lon="-2.49558">
        <ele>4.5999999046326</ele>
        <time>2021-12-02T09:53:24.000Z</time>
      </trkpt>
      <trkpt lat="47.32399" lon="-2.49556">
        <ele>4.5999999046326</ele>
        <time>2021-12-02T09:53:25.000Z</time>
      </trkpt>
      <trkpt lat="47.32395" lon="-2.49554">
        <ele>4.5999999046326</ele>
        <time>2021-12-02T09:53:26.000Z</time>
      </trkpt>
      <trkpt lat="47.32377" lon="-2.49545">
        <ele>4.5999999046326</ele>
        <time>2021-12-02T09:53:30.000Z</time>
      </trkpt>
      <trkpt lat="47.32374" lon="-2.49546">
        <ele>4.5999999046326</ele>
        <time>2021-12-02T09:53:31.000Z</time>
      </trkpt>
      <trkpt lat="47.32363" lon="-2.49544">
        <ele>4.5999999046326</ele>
        <time>2021-12-02T09:53:34.000Z</time>
      </trkpt>
      <trkpt lat="47.32346" lon="-2.49534">
        <ele>4.5999999046326</ele>
        <time>2021-12-02T09:53:39.000Z</time>
      </trkpt>
      <trkpt lat="47.3233" lon="-2.49524">
        <ele>4.5999999046326</ele>
        <time>2021-12-02T09:53:43.000Z</time>
      </trkpt>
      <trkpt lat="47.32303" lon="-2.49511">
        <ele>4.5999999046326</ele>
        <time>2021-12-02T09:53:49.000Z</time>
      </trkpt>
      <trkpt lat="47.32294" lon="-2.49506">
        <ele>4.5999999046326</ele>
        <time>2021-12-02T09:53:51.000Z</time>
      </trkpt>
      <trkpt lat="47.32282" lon="-2.49495">
        <ele>4.5999999046326</ele>
        <time>2021-12-02T09:53:54.000Z</time>
      </trkpt>
      <trkpt lat="47.32278" lon="-2.49486">
        <ele>4.5999999046326</ele>
        <time>2021-12-02T09:53:56.000Z</time>
      </trkpt>
      <trkpt lat="47.32275" lon="-2.49481">
        <ele>4.5999999046326</ele>
        <time>2021-12-02T09:53:57.000Z</time>
      </trkpt>
      <trkpt lat="47.32258" lon="-2.49467">
        <ele>4.5999999046326</ele>
        <time>2021-12-02T09:54:01.000Z</time>
      </trkpt>
      <trkpt lat="47.3224" lon="-2.49453">
        <ele>4.5999999046326</ele>
        <time>2021-12-02T09:54:05.000Z</time>
      </trkpt>
      <trkpt lat="47.32233" lon="-2.49444">
        <ele>4.5999999046326</ele>
        <time>2021-12-02T09:54:07.000Z</time>
      </trkpt>
      <trkpt lat="47.32225" lon="-2.49435">
        <ele>4.5999999046326</ele>
        <time>2021-12-02T09:54:09.000Z</time>
      </trkpt>
      <trkpt lat="47.32219" lon="-2.49426">
        <ele>4.5999999046326</ele>
        <time>2021-12-02T09:54:11.000Z</time>
      </trkpt>
      <trkpt lat="47.322" lon="-2.49395">
        <ele>4.5999999046326</ele>
        <time>2021-12-02T09:54:17.000Z</time>
      </trkpt>
      <trkpt lat="47.32194" lon="-2.49385">
        <ele>4.5999999046326</ele>
        <time>2021-12-02T09:54:19.000Z</time>
      </trkpt>
      <trkpt lat="47.32179" lon="-2.49367">
        <ele>4.5999999046326</ele>
        <time>2021-12-02T09:54:23.000Z</time>
      </trkpt>
      <trkpt lat="47.32155" lon="-2.49342">
        <ele>4.5999999046326</ele>
        <time>2021-12-02T09:54:30.000Z</time>
      </trkpt>
      <trkpt lat="47.32151" lon="-2.49341">
        <ele>4.5999999046326</ele>
        <time>2021-12-02T09:54:31.000Z</time>
      </trkpt>
      <trkpt lat="47.32137" lon="-2.49337">
        <ele>4.5999999046326</ele>
        <time>2021-12-02T09:54:34.000Z</time>
      </trkpt>
      <trkpt lat="47.32132" lon="-2.49334">
        <ele>4.5999999046326</ele>
        <time>2021-12-02T09:54:35.000Z</time>
      </trkpt>
      <trkpt lat="47.32111" lon="-2.4932">
        <ele>4.5999999046326</ele>
        <time>2021-12-02T09:54:40.000Z</time>
      </trkpt>
      <trkpt lat="47.32107" lon="-2.4932">
        <ele>4.5999999046326</ele>
        <time>2021-12-02T09:54:41.000Z</time>
      </trkpt>
      <trkpt lat="47.32092" lon="-2.49331">
        <ele>4.5999999046326</ele>
        <time>2021-12-02T09:54:45.000Z</time>
      </trkpt>
      <trkpt lat="47.32084" lon="-2.49346">
        <ele>4.5999999046326</ele>
        <time>2021-12-02T09:54:48.000Z</time>
      </trkpt>
      <trkpt lat="47.32077" lon="-2.49362">
        <ele>4.5999999046326</ele>
        <time>2021-12-02T09:54:51.000Z</time>
      </trkpt>
      <trkpt lat="47.32064" lon="-2.49375">
        <ele>4.5999999046326</ele>
        <time>2021-12-02T09:54:55.000Z</time>
      </trkpt>
      <trkpt lat="47.32044" lon="-2.49375">
        <ele>4.5999999046326</ele>
        <time>2021-12-02T09:55:00.000Z</time>
      </trkpt>
      <trkpt lat="47.32031" lon="-2.49372">
        <ele>4.5999999046326</ele>
        <time>2021-12-02T09:55:03.000Z</time>
      </trkpt>
      <trkpt lat="47.32019" lon="-2.49372">
        <ele>4.5999999046326</ele>
        <time>2021-12-02T09:55:06.000Z</time>
      </trkpt>
      <trkpt lat="47.32003" lon="-2.49368">
        <ele>4.5999999046326</ele>
        <time>2021-12-02T09:55:11.000Z</time>
      </trkpt>
      <trkpt lat="47.3199" lon="-2.49362">
        <ele>4.5999999046326</ele>
        <time>2021-12-02T09:55:15.000Z</time>
      </trkpt>
      <trkpt lat="47.3198" lon="-2.49343">
        <ele>4.5999999046326</ele>
        <time>2021-12-02T09:55:19.000Z</time>
      </trkpt>
      <trkpt lat="47.31977" lon="-2.49333">
        <ele>4</ele>
        <time>2021-12-02T09:55:21.000Z</time>
      </trkpt>
      <trkpt lat="47.31974" lon="-2.4933">
        <ele>3.5999999046326</ele>
        <time>2021-12-02T09:55:22.000Z</time>
      </trkpt>
      <trkpt lat="47.31971" lon="-2.49329">
        <ele>3.2000000476837</ele>
        <time>2021-12-02T09:55:23.000Z</time>
      </trkpt>
      <trkpt lat="47.31969" lon="-2.49328">
        <ele>2.5999999046326</ele>
        <time>2021-12-02T09:55:24.000Z</time>
      </trkpt>
      <trkpt lat="47.31966" lon="-2.49327">
        <ele>2.2000000476837</ele>
        <time>2021-12-02T09:55:25.000Z</time>
      </trkpt>
      <trkpt lat="47.3196" lon="-2.49329">
        <ele>2.2000000476837</ele>
        <time>2021-12-02T09:55:27.000Z</time>
      </trkpt>
      <trkpt lat="47.31952" lon="-2.49342">
        <ele>2.2000000476837</ele>
        <time>2021-12-02T09:55:31.000Z</time>
      </trkpt>
      <trkpt lat="47.31939" lon="-2.49359">
        <ele>2.2000000476837</ele>
        <time>2021-12-02T09:55:37.000Z</time>
      </trkpt>
      <trkpt lat="47.31922" lon="-2.49387">
        <ele>2.2000000476837</ele>
        <time>2021-12-02T09:55:44.000Z</time>
      </trkpt>
      <trkpt lat="47.31908" lon="-2.49407">
        <ele>2.2000000476837</ele>
        <time>2021-12-02T09:55:51.000Z</time>
      </trkpt>
      <trkpt lat="47.31898" lon="-2.49424">
        <ele>2.2000000476837</ele>
        <time>2021-12-02T09:55:59.000Z</time>
      </trkpt>
      <trkpt lat="47.31887" lon="-2.4944">
        <ele>2.2000000476837</ele>
        <time>2021-12-02T09:56:06.000Z</time>
      </trkpt>
      <trkpt lat="47.31875" lon="-2.49459">
        <ele>2.2000000476837</ele>
        <time>2021-12-02T09:56:11.000Z</time>
      </trkpt>
      <trkpt lat="47.31852" lon="-2.49494">
        <ele>2.2000000476837</ele>
        <time>2021-12-02T09:56:18.000Z</time>
      </trkpt>
      <trkpt lat="47.31827" lon="-2.49535">
        <ele>2.2000000476837</ele>
        <time>2021-12-02T09:56:25.000Z</time>
      </trkpt>
      <trkpt lat="47.31803" lon="-2.4957">
        <ele>2.2000000476837</ele>
        <time>2021-12-02T09:56:31.000Z</time>
      </trkpt>
      <trkpt lat="47.31799" lon="-2.49576">
        <ele>2.2000000476837</ele>
        <time>2021-12-02T09:56:32.000Z</time>
      </trkpt>
      <trkpt lat="47.31795" lon="-2.49583">
        <ele>2.2000000476837</ele>
        <time>2021-12-02T09:56:33.000Z</time>
      </trkpt>
      <trkpt lat="47.31783" lon="-2.49601">
        <ele>2.2000000476837</ele>
        <time>2021-12-02T09:56:36.000Z</time>
      </trkpt>
      <trkpt lat="47.31759" lon="-2.49638">
        <ele>2.2000000476837</ele>
        <time>2021-12-02T09:56:42.000Z</time>
      </trkpt>
      <trkpt lat="47.31751" lon="-2.49651">
        <ele>2.2000000476837</ele>
        <time>2021-12-02T09:56:44.000Z</time>
      </trkpt>
      <trkpt lat="47.31737" lon="-2.49673">
        <ele>2.2000000476837</ele>
        <time>2021-12-02T09:56:47.000Z</time>
      </trkpt>
      <trkpt lat="47.31704" lon="-2.49721">
        <ele>2.2000000476837</ele>
        <time>2021-12-02T09:56:54.000Z</time>
      </trkpt>
      <trkpt lat="47.31679" lon="-2.49759">
        <ele>2.2000000476837</ele>
        <time>2021-12-02T09:57:00.000Z</time>
      </trkpt>
      <trkpt lat="47.31649" lon="-2.49803">
        <ele>2.2000000476837</ele>
        <time>2021-12-02T09:57:07.000Z</time>
      </trkpt>
      <trkpt lat="47.31623" lon="-2.49842">
        <ele>3</ele>
        <time>2021-12-02T09:57:13.000Z</time>
      </trkpt>
      <trkpt lat="47.31618" lon="-2.49848">
        <ele>3.4000000953674</ele>
        <time>2021-12-02T09:57:14.000Z</time>
      </trkpt>
      <trkpt lat="47.31614" lon="-2.49854">
        <ele>3.7999999523163</ele>
        <time>2021-12-02T09:57:15.000Z</time>
      </trkpt>
      <trkpt lat="47.31609" lon="-2.49861">
        <ele>4.1999998092651</ele>
        <time>2021-12-02T09:57:16.000Z</time>
      </trkpt>
      <trkpt lat="47.31587" lon="-2.49895">
        <ele>4.1999998092651</ele>
        <time>2021-12-02T09:57:21.000Z</time>
      </trkpt>
      <trkpt lat="47.31556" lon="-2.49944">
        <ele>4.1999998092651</ele>
        <time>2021-12-02T09:57:28.000Z</time>
      </trkpt>
      <trkpt lat="47.31525" lon="-2.49992">
        <ele>4.1999998092651</ele>
        <time>2021-12-02T09:57:35.000Z</time>
      </trkpt>
      <trkpt lat="47.31483" lon="-2.50053">
        <ele>4.1999998092651</ele>
        <time>2021-12-02T09:57:44.000Z</time>
      </trkpt>
      <trkpt lat="47.3145" lon="-2.50104">
        <ele>4.1999998092651</ele>
        <time>2021-12-02T09:57:51.000Z</time>
      </trkpt>
      <trkpt lat="47.31428" lon="-2.50138">
        <ele>4.1999998092651</ele>
        <time>2021-12-02T09:57:56.000Z</time>
      </trkpt>
      <trkpt lat="47.31423" lon="-2.50144">
        <ele>4.1999998092651</ele>
        <time>2021-12-02T09:57:57.000Z</time>
      </trkpt>
      <trkpt lat="47.31397" lon="-2.50181">
        <ele>4.1999998092651</ele>
        <time>2021-12-02T09:58:03.000Z</time>
      </trkpt>
      <trkpt lat="47.31386" lon="-2.50196">
        <ele>4.1999998092651</ele>
        <time>2021-12-02T09:58:06.000Z</time>
      </trkpt>
      <trkpt lat="47.31384" lon="-2.50201">
        <ele>4.1999998092651</ele>
        <time>2021-12-02T09:58:07.000Z</time>
      </trkpt>
      <trkpt lat="47.31374" lon="-2.50217">
        <ele>4.1999998092651</ele>
        <time>2021-12-02T09:58:11.000Z</time>
      </trkpt>
      <trkpt lat="47.31368" lon="-2.50228">
        <ele>4.1999998092651</ele>
        <time>2021-12-02T09:58:16.000Z</time>
      </trkpt>
      <trkpt lat="47.31356" lon="-2.50242">
        <ele>4.1999998092651</ele>
        <time>2021-12-02T09:58:22.000Z</time>
      </trkpt>
      <trkpt lat="47.31345" lon="-2.5026">
        <ele>4.1999998092651</ele>
        <time>2021-12-02T09:58:29.000Z</time>
      </trkpt>
      <trkpt lat="47.31338" lon="-2.50272">
        <ele>4.1999998092651</ele>
        <time>2021-12-02T09:58:34.000Z</time>
      </trkpt>
      <trkpt lat="47.31338" lon="-2.50275">
        <ele>4.1999998092651</ele>
        <time>2021-12-02T09:58:35.000Z</time>
      </trkpt>
      <trkpt lat="47.31343" lon="-2.50294">
        <ele>4.1999998092651</ele>
        <time>2021-12-02T09:58:41.000Z</time>
      </trkpt>
      <trkpt lat="47.31346" lon="-2.50298">
        <ele>4.1999998092651</ele>
        <time>2021-12-02T09:58:43.000Z</time>
      </trkpt>
      <trkpt lat="47.31349" lon="-2.50292">
        <ele>4.1999998092651</ele>
        <time>2021-12-02T09:58:45.000Z</time>
      </trkpt>
      <trkpt lat="47.3136" lon="-2.50276">
        <ele>4.1999998092651</ele>
        <time>2021-12-02T09:58:51.000Z</time>
      </trkpt>
      <trkpt lat="47.31363" lon="-2.50272">
        <ele>4.1999998092651</ele>
        <time>2021-12-02T09:58:52.000Z</time>
      </trkpt>
      <trkpt lat="47.31377" lon="-2.50252">
        <ele>4.1999998092651</ele>
        <time>2021-12-02T09:58:57.000Z</time>
      </trkpt>
      <trkpt lat="47.31383" lon="-2.5025">
        <ele>4.1999998092651</ele>
        <time>2021-12-02T09:58:59.000Z</time>
      </trkpt>
      <trkpt lat="47.31385" lon="-2.5025">
        <ele>4.1999998092651</ele>
        <time>2021-12-02T09:59:00.000Z</time>
      </trkpt>
      <trkpt lat="47.31395" lon="-2.50242">
        <ele>4.1999998092651</ele>
        <time>2021-12-02T09:59:04.000Z</time>
      </trkpt>
      <trkpt lat="47.31398" lon="-2.50238">
        <ele>4.1999998092651</ele>
        <time>2021-12-02T09:59:05.000Z</time>
      </trkpt>
      <trkpt lat="47.31409" lon="-2.50212">
        <ele>4.1999998092651</ele>
        <time>2021-12-02T09:59:10.000Z</time>
      </trkpt>
      <trkpt lat="47.31425" lon="-2.50183">
        <ele>3.7999999523163</ele>
        <time>2021-12-02T09:59:16.000Z</time>
      </trkpt>
      <trkpt lat="47.31428" lon="-2.50179">
        <ele>3</ele>
        <time>2021-12-02T09:59:17.000Z</time>
      </trkpt>
      <trkpt lat="47.31431" lon="-2.50177">
        <ele>2.5999999046326</ele>
        <time>2021-12-02T09:59:18.000Z</time>
      </trkpt>
      <trkpt lat="47.31434" lon="-2.50176">
        <ele>2.2000000476837</ele>
        <time>2021-12-02T09:59:19.000Z</time>
      </trkpt>
      <trkpt lat="47.31439" lon="-2.50177">
        <ele>2.2000000476837</ele>
        <time>2021-12-02T09:59:21.000Z</time>
      </trkpt>
      <trkpt lat="47.31448" lon="-2.50188">
        <ele>2.2000000476837</ele>
        <time>2021-12-02T09:59:26.000Z</time>
      </trkpt>
      <trkpt lat="47.3146" lon="-2.502">
        <ele>2.2000000476837</ele>
        <time>2021-12-02T09:59:31.000Z</time>
      </trkpt>
      <trkpt lat="47.31479" lon="-2.50223">
        <ele>2.2000000476837</ele>
        <time>2021-12-02T09:59:37.000Z</time>
      </trkpt>
      <trkpt lat="47.31497" lon="-2.50243">
        <ele>2.2000000476837</ele>
        <time>2021-12-02T09:59:43.000Z</time>
      </trkpt>
      <trkpt lat="47.3152" lon="-2.50271">
        <ele>2.2000000476837</ele>
        <time>2021-12-02T09:59:51.000Z</time>
      </trkpt>
      <trkpt lat="47.31545" lon="-2.50301">
        <ele>2.2000000476837</ele>
        <time>2021-12-02T10:00:00.000Z</time>
      </trkpt>
      <trkpt lat="47.3156" lon="-2.50318">
        <ele>2.5999999046326</ele>
        <time>2021-12-02T10:00:06.000Z</time>
      </trkpt>
      <trkpt lat="47.31563" lon="-2.50321">
        <ele>3.4000000953674</ele>
        <time>2021-12-02T10:00:07.000Z</time>
      </trkpt>
      <trkpt lat="47.31565" lon="-2.50324">
        <ele>3.7999999523163</ele>
        <time>2021-12-02T10:00:08.000Z</time>
      </trkpt>
      <trkpt lat="47.31567" lon="-2.50327">
        <ele>4.1999998092651</ele>
        <time>2021-12-02T10:00:09.000Z</time>
      </trkpt>
      <trkpt lat="47.31576" lon="-2.50339">
        <ele>4.1999998092651</ele>
        <time>2021-12-02T10:00:13.000Z</time>
      </trkpt>
      <trkpt lat="47.31579" lon="-2.50341">
        <ele>4.5999999046326</ele>
        <time>2021-12-02T10:00:14.000Z</time>
      </trkpt>
      <trkpt lat="47.31581" lon="-2.50344">
        <ele>5</ele>
        <time>2021-12-02T10:00:15.000Z</time>
      </trkpt>
      <trkpt lat="47.31584" lon="-2.50347">
        <ele>5.4000000953674</ele>
        <time>2021-12-02T10:00:16.000Z</time>
      </trkpt>
      <trkpt lat="47.31586" lon="-2.5035">
        <ele>5.8000001907349</ele>
        <time>2021-12-02T10:00:17.000Z</time>
      </trkpt>
      <trkpt lat="47.31589" lon="-2.50353">
        <ele>6.1999998092651</ele>
        <time>2021-12-02T10:00:18.000Z</time>
      </trkpt>
      <trkpt lat="47.31599" lon="-2.50367">
        <ele>6.1999998092651</ele>
        <time>2021-12-02T10:00:23.000Z</time>
      </trkpt>
      <trkpt lat="47.3161" lon="-2.50379">
        <ele>6.1999998092651</ele>
        <time>2021-12-02T10:00:30.000Z</time>
      </trkpt>
      <trkpt lat="47.31618" lon="-2.5039">
        <ele>6.1999998092651</ele>
        <time>2021-12-02T10:00:38.000Z</time>
      </trkpt>
      <trkpt lat="47.3162" lon="-2.50395">
        <ele>6.1999998092651</ele>
        <time>2021-12-02T10:00:41.000Z</time>
      </trkpt>
      <trkpt lat="47.31622" lon="-2.50399">
        <ele>6.1999998092651</ele>
        <time>2021-12-02T10:00:44.000Z</time>
      </trkpt>
      <trkpt lat="47.31615" lon="-2.50407">
        <ele>4.1999998092651</ele>
        <time>2021-12-02T10:01:13.000Z</time>
      </trkpt>
      <trkpt lat="47.3161" lon="-2.50409">
        <ele>4.1999998092651</ele>
        <time>2021-12-02T10:01:16.000Z</time>
      </trkpt>
      <trkpt lat="47.31591" lon="-2.50413">
        <ele>4.1999998092651</ele>
        <time>2021-12-02T10:01:23.000Z</time>
      </trkpt>
      <trkpt lat="47.31571" lon="-2.50418">
        <ele>4.1999998092651</ele>
        <time>2021-12-02T10:01:29.000Z</time>
      </trkpt>
      <trkpt lat="47.31547" lon="-2.50426">
        <ele>4.1999998092651</ele>
        <time>2021-12-02T10:01:35.000Z</time>
      </trkpt>
      <trkpt lat="47.31543" lon="-2.50428">
        <ele>4.1999998092651</ele>
        <time>2021-12-02T10:01:36.000Z</time>
      </trkpt>
      <trkpt lat="47.31514" lon="-2.50438">
        <ele>4.1999998092651</ele>
        <time>2021-12-02T10:01:43.000Z</time>
      </trkpt>
      <trkpt lat="47.31482" lon="-2.50452">
        <ele>4.1999998092651</ele>
        <time>2021-12-02T10:01:50.000Z</time>
      </trkpt>
      <trkpt lat="47.31441" lon="-2.50472">
        <ele>4.1999998092651</ele>
        <time>2021-12-02T10:01:58.000Z</time>
      </trkpt>
      <trkpt lat="47.31399" lon="-2.50496">
        <ele>4.1999998092651</ele>
        <time>2021-12-02T10:02:07.000Z</time>
      </trkpt>
      <trkpt lat="47.31365" lon="-2.50512">
        <ele>4.1999998092651</ele>
        <time>2021-12-02T10:02:14.000Z</time>
      </trkpt>
      <trkpt lat="47.31321" lon="-2.50535">
        <ele>4.1999998092651</ele>
        <time>2021-12-02T10:02:23.000Z</time>
      </trkpt>
      <trkpt lat="47.31283" lon="-2.50555">
        <ele>4.1999998092651</ele>
        <time>2021-12-02T10:02:31.000Z</time>
      </trkpt>
      <trkpt lat="47.31256" lon="-2.5057">
        <ele>4.1999998092651</ele>
        <time>2021-12-02T10:02:38.000Z</time>
      </trkpt>
      <trkpt lat="47.31237" lon="-2.50578">
        <ele>4.1999998092651</ele>
        <time>2021-12-02T10:02:43.000Z</time>
      </trkpt>
      <trkpt lat="47.31229" lon="-2.50583">
        <ele>4.1999998092651</ele>
        <time>2021-12-02T10:02:45.000Z</time>
      </trkpt>
      <trkpt lat="47.31189" lon="-2.50607">
        <ele>4.1999998092651</ele>
        <time>2021-12-02T10:02:54.000Z</time>
      </trkpt>
      <trkpt lat="47.31158" lon="-2.50628">
        <ele>4.1999998092651</ele>
        <time>2021-12-02T10:03:01.000Z</time>
      </trkpt>
      <trkpt lat="47.31119" lon="-2.50654">
        <ele>4.1999998092651</ele>
        <time>2021-12-02T10:03:09.000Z</time>
      </trkpt>
      <trkpt lat="47.31083" lon="-2.50679">
        <ele>4.1999998092651</ele>
        <time>2021-12-02T10:03:17.000Z</time>
      </trkpt>
      <trkpt lat="47.31056" lon="-2.507">
        <ele>4.1999998092651</ele>
        <time>2021-12-02T10:03:24.000Z</time>
      </trkpt>
      <trkpt lat="47.31045" lon="-2.50709">
        <ele>4.1999998092651</ele>
        <time>2021-12-02T10:03:29.000Z</time>
      </trkpt>
      <trkpt lat="47.31031" lon="-2.50721">
        <ele>4.1999998092651</ele>
        <time>2021-12-02T10:03:34.000Z</time>
      </trkpt>
      <trkpt lat="47.31026" lon="-2.50723">
        <ele>4.1999998092651</ele>
        <time>2021-12-02T10:03:35.000Z</time>
      </trkpt>
      <trkpt lat="47.3101" lon="-2.50737">
        <ele>4.1999998092651</ele>
        <time>2021-12-02T10:03:39.000Z</time>
      </trkpt>
      <trkpt lat="47.30978" lon="-2.5076">
        <ele>4.1999998092651</ele>
        <time>2021-12-02T10:03:46.000Z</time>
      </trkpt>
      <trkpt lat="47.3095" lon="-2.50783">
        <ele>4.1999998092651</ele>
        <time>2021-12-02T10:03:52.000Z</time>
      </trkpt>
      <trkpt lat="47.30918" lon="-2.5081">
        <ele>4.1999998092651</ele>
        <time>2021-12-02T10:03:59.000Z</time>
      </trkpt>
      <trkpt lat="47.30888" lon="-2.50832">
        <ele>4.1999998092651</ele>
        <time>2021-12-02T10:04:05.000Z</time>
      </trkpt>
      <trkpt lat="47.30855" lon="-2.50859">
        <ele>4.1999998092651</ele>
        <time>2021-12-02T10:04:12.000Z</time>
      </trkpt>
      <trkpt lat="47.30826" lon="-2.50883">
        <ele>4.1999998092651</ele>
        <time>2021-12-02T10:04:18.000Z</time>
      </trkpt>
      <trkpt lat="47.30817" lon="-2.50891">
        <ele>4.1999998092651</ele>
        <time>2021-12-02T10:04:20.000Z</time>
      </trkpt>
      <trkpt lat="47.30781" lon="-2.50925">
        <ele>4.1999998092651</ele>
        <time>2021-12-02T10:04:28.000Z</time>
      </trkpt>
      <trkpt lat="47.30749" lon="-2.50958">
        <ele>3.7999999523163</ele>
        <time>2021-12-02T10:04:35.000Z</time>
      </trkpt>
      <trkpt lat="47.30744" lon="-2.50962">
        <ele>3.2000000476837</ele>
        <time>2021-12-02T10:04:36.000Z</time>
      </trkpt>
      <trkpt lat="47.3074" lon="-2.50967">
        <ele>2.7999999523163</ele>
        <time>2021-12-02T10:04:37.000Z</time>
      </trkpt>
      <trkpt lat="47.30735" lon="-2.50971">
        <ele>2</ele>
        <time>2021-12-02T10:04:38.000Z</time>
      </trkpt>
      <trkpt lat="47.30707" lon="-2.50996">
        <ele>2</ele>
        <time>2021-12-02T10:04:44.000Z</time>
      </trkpt>
      <trkpt lat="47.3068" lon="-2.51021">
        <ele>2</ele>
        <time>2021-12-02T10:04:50.000Z</time>
      </trkpt>
      <trkpt lat="47.30671" lon="-2.51028">
        <ele>2</ele>
        <time>2021-12-02T10:04:52.000Z</time>
      </trkpt>
      <trkpt lat="47.30657" lon="-2.51037">
        <ele>2</ele>
        <time>2021-12-02T10:04:55.000Z</time>
      </trkpt>
      <trkpt lat="47.30646" lon="-2.5105">
        <ele>2</ele>
        <time>2021-12-02T10:04:58.000Z</time>
      </trkpt>
      <trkpt lat="47.30636" lon="-2.51064">
        <ele>2</ele>
        <time>2021-12-02T10:05:01.000Z</time>
      </trkpt>
      <trkpt lat="47.3062" lon="-2.5109">
        <ele>2</ele>
        <time>2021-12-02T10:05:07.000Z</time>
      </trkpt>
      <trkpt lat="47.3062" lon="-2.51093">
        <ele>2</ele>
        <time>2021-12-02T10:05:08.000Z</time>
      </trkpt>
      <trkpt lat="47.30623" lon="-2.51099">
        <ele>2</ele>
        <time>2021-12-02T10:05:10.000Z</time>
      </trkpt>
      <trkpt lat="47.30626" lon="-2.51117">
        <ele>2</ele>
        <time>2021-12-02T10:05:14.000Z</time>
      </trkpt>
      <trkpt lat="47.30625" lon="-2.51121">
        <ele>2</ele>
        <time>2021-12-02T10:05:15.000Z</time>
      </trkpt>
      <trkpt lat="47.3062" lon="-2.51129">
        <ele>2</ele>
        <time>2021-12-02T10:05:17.000Z</time>
      </trkpt>
      <trkpt lat="47.306" lon="-2.51157">
        <ele>2</ele>
        <time>2021-12-02T10:05:24.000Z</time>
      </trkpt>
      <trkpt lat="47.30574" lon="-2.51189">
        <ele>2</ele>
        <time>2021-12-02T10:05:32.000Z</time>
      </trkpt>
      <trkpt lat="47.3055" lon="-2.51224">
        <ele>2</ele>
        <time>2021-12-02T10:05:40.000Z</time>
      </trkpt>
      <trkpt lat="47.30528" lon="-2.51255">
        <ele>2</ele>
        <time>2021-12-02T10:05:47.000Z</time>
      </trkpt>
      <trkpt lat="47.30511" lon="-2.51275">
        <ele>2</ele>
        <time>2021-12-02T10:05:52.000Z</time>
      </trkpt>
      <trkpt lat="47.30504" lon="-2.51282">
        <ele>2</ele>
        <time>2021-12-02T10:05:54.000Z</time>
      </trkpt>
      <trkpt lat="47.30479" lon="-2.51313">
        <ele>2</ele>
        <time>2021-12-02T10:06:01.000Z</time>
      </trkpt>
      <trkpt lat="47.30463" lon="-2.51336">
        <ele>2</ele>
        <time>2021-12-02T10:06:06.000Z</time>
      </trkpt>
      <trkpt lat="47.30456" lon="-2.51344">
        <ele>2</ele>
        <time>2021-12-02T10:06:08.000Z</time>
      </trkpt>
      <trkpt lat="47.30443" lon="-2.51361">
        <ele>1.6000000238419</ele>
        <time>2021-12-02T10:06:12.000Z</time>
      </trkpt>
      <trkpt lat="47.3044" lon="-2.51366">
        <ele>1</ele>
        <time>2021-12-02T10:06:13.000Z</time>
      </trkpt>
      <trkpt lat="47.30437" lon="-2.51371">
        <ele>0.60000002384186</ele>
        <time>2021-12-02T10:06:14.000Z</time>
      </trkpt>
      <trkpt lat="47.30434" lon="-2.51376">
        <ele>0.20000000298023</ele>
        <time>2021-12-02T10:06:15.000Z</time>
      </trkpt>
      <trkpt lat="47.30431" lon="-2.51381">
        <ele>-0.40000000596046</ele>
        <time>2021-12-02T10:06:16.000Z</time>
      </trkpt>
      <trkpt lat="47.30428" lon="-2.51385">
        <ele>0.20000000298023</ele>
        <time>2021-12-02T10:06:17.000Z</time>
      </trkpt>
      <trkpt lat="47.30424" lon="-2.51389">
        <ele>0.60000002384186</ele>
        <time>2021-12-02T10:06:18.000Z</time>
      </trkpt>
      <trkpt lat="47.30421" lon="-2.51393">
        <ele>1</ele>
        <time>2021-12-02T10:06:19.000Z</time>
      </trkpt>
      <trkpt lat="47.30418" lon="-2.51398">
        <ele>1.3999999761581</ele>
        <time>2021-12-02T10:06:20.000Z</time>
      </trkpt>
      <trkpt lat="47.30415" lon="-2.51403">
        <ele>1.7999999523163</ele>
        <time>2021-12-02T10:06:21.000Z</time>
      </trkpt>
      <trkpt lat="47.30391" lon="-2.51429">
        <ele>1.7999999523163</ele>
        <time>2021-12-02T10:06:28.000Z</time>
      </trkpt>
      <trkpt lat="47.30368" lon="-2.51448">
        <ele>1.7999999523163</ele>
        <time>2021-12-02T10:06:35.000Z</time>
      </trkpt>
      <trkpt lat="47.30363" lon="-2.51445">
        <ele>1.7999999523163</ele>
        <time>2021-12-02T10:06:37.000Z</time>
      </trkpt>
      <trkpt lat="47.3036" lon="-2.51441">
        <ele>1.7999999523163</ele>
        <time>2021-12-02T10:06:38.000Z</time>
      </trkpt>
      <trkpt lat="47.30347" lon="-2.51418">
        <ele>1.7999999523163</ele>
        <time>2021-12-02T10:06:43.000Z</time>
      </trkpt>
      <trkpt lat="47.30323" lon="-2.5138">
        <ele>1.7999999523163</ele>
        <time>2021-12-02T10:06:51.000Z</time>
      </trkpt>
      <trkpt lat="47.30313" lon="-2.5136">
        <ele>1.7999999523163</ele>
        <time>2021-12-02T10:06:55.000Z</time>
      </trkpt>
      <trkpt lat="47.30303" lon="-2.51345">
        <ele>1.7999999523163</ele>
        <time>2021-12-02T10:06:58.000Z</time>
      </trkpt>
      <trkpt lat="47.303" lon="-2.5134">
        <ele>1.7999999523163</ele>
        <time>2021-12-02T10:06:59.000Z</time>
      </trkpt>
      <trkpt lat="47.30279" lon="-2.51303">
        <ele>1.7999999523163</ele>
        <time>2021-12-02T10:07:06.000Z</time>
      </trkpt>
      <trkpt lat="47.3026" lon="-2.51272">
        <ele>1.7999999523163</ele>
        <time>2021-12-02T10:07:12.000Z</time>
      </trkpt>
      <trkpt lat="47.30238" lon="-2.51234">
        <ele>1.7999999523163</ele>
        <time>2021-12-02T10:07:19.000Z</time>
      </trkpt>
      <trkpt lat="47.3021" lon="-2.51188">
        <ele>1.7999999523163</ele>
        <time>2021-12-02T10:07:28.000Z</time>
      </trkpt>
      <trkpt lat="47.3019" lon="-2.51154">
        <ele>1.7999999523163</ele>
        <time>2021-12-02T10:07:35.000Z</time>
      </trkpt>
      <trkpt lat="47.30173" lon="-2.51123">
        <ele>1.7999999523163</ele>
        <time>2021-12-02T10:07:42.000Z</time>
      </trkpt>
      <trkpt lat="47.30169" lon="-2.51114">
        <ele>1.7999999523163</ele>
        <time>2021-12-02T10:07:46.000Z</time>
      </trkpt>
      <trkpt lat="47.30167" lon="-2.51112">
        <ele>1.7999999523163</ele>
        <time>2021-12-02T10:07:50.000Z</time>
      </trkpt>
      <trkpt lat="47.30162" lon="-2.51102">
        <ele>1.7999999523163</ele>
        <time>2021-12-02T10:07:54.000Z</time>
      </trkpt>
      <trkpt lat="47.30163" lon="-2.511">
        <ele>1.7999999523163</ele>
        <time>2021-12-02T10:07:55.000Z</time>
      </trkpt>
      <trkpt lat="47.30172" lon="-2.51093">
        <ele>1.7999999523163</ele>
        <time>2021-12-02T10:08:00.000Z</time>
      </trkpt>
      <trkpt lat="47.30183" lon="-2.51093">
        <ele>1.7999999523163</ele>
        <time>2021-12-02T10:08:06.000Z</time>
      </trkpt>
      <trkpt lat="47.30184" lon="-2.51093">
        <ele>1.7999999523163</ele>
        <time>2021-12-02T10:08:08.000Z</time>
      </trkpt>
      <trkpt lat="47.30187" lon="-2.5109">
        <ele>1.7999999523163</ele>
        <time>2021-12-02T10:20:27.000Z</time>
      </trkpt>
      <trkpt lat="47.30188" lon="-2.51088">
        <ele>1.7999999523163</ele>
        <time>2021-12-02T10:20:28.000Z</time>
      </trkpt>
      <trkpt lat="47.30202" lon="-2.51081">
        <ele>1.7999999523163</ele>
        <time>2021-12-02T10:20:34.000Z</time>
      </trkpt>
      <trkpt lat="47.30222" lon="-2.51074">
        <ele>1.7999999523163</ele>
        <time>2021-12-02T10:20:40.000Z</time>
      </trkpt>
      <trkpt lat="47.30245" lon="-2.51065">
        <ele>1.7999999523163</ele>
        <time>2021-12-02T10:20:46.000Z</time>
      </trkpt>
      <trkpt lat="47.30274" lon="-2.51059">
        <ele>1.7999999523163</ele>
        <time>2021-12-02T10:20:53.000Z</time>
      </trkpt>
      <trkpt lat="47.30302" lon="-2.51056">
        <ele>1.7999999523163</ele>
        <time>2021-12-02T10:21:00.000Z</time>
      </trkpt>
      <trkpt lat="47.30328" lon="-2.51058">
        <ele>1.7999999523163</ele>
        <time>2021-12-02T10:21:06.000Z</time>
      </trkpt>
      <trkpt lat="47.30337" lon="-2.51058">
        <ele>1.7999999523163</ele>
        <time>2021-12-02T10:21:08.000Z</time>
      </trkpt>
      <trkpt lat="47.30354" lon="-2.51058">
        <ele>1.7999999523163</ele>
        <time>2021-12-02T10:21:12.000Z</time>
      </trkpt>
      <trkpt lat="47.30373" lon="-2.51056">
        <ele>1.7999999523163</ele>
        <time>2021-12-02T10:21:17.000Z</time>
      </trkpt>
      <trkpt lat="47.304" lon="-2.51054">
        <ele>1.7999999523163</ele>
        <time>2021-12-02T10:21:24.000Z</time>
      </trkpt>
      <trkpt lat="47.30416" lon="-2.51048">
        <ele>1.7999999523163</ele>
        <time>2021-12-02T10:21:28.000Z</time>
      </trkpt>
      <trkpt lat="47.30424" lon="-2.51047">
        <ele>1.7999999523163</ele>
        <time>2021-12-02T10:21:30.000Z</time>
      </trkpt>
      <trkpt lat="47.30428" lon="-2.51046">
        <ele>1.7999999523163</ele>
        <time>2021-12-02T10:21:31.000Z</time>
      </trkpt>
      <trkpt lat="47.30445" lon="-2.51039">
        <ele>1.7999999523163</ele>
        <time>2021-12-02T10:21:35.000Z</time>
      </trkpt>
      <trkpt lat="47.30449" lon="-2.51037">
        <ele>1.7999999523163</ele>
        <time>2021-12-02T10:21:36.000Z</time>
      </trkpt>
      <trkpt lat="47.30462" lon="-2.51028">
        <ele>1.7999999523163</ele>
        <time>2021-12-02T10:21:39.000Z</time>
      </trkpt>
      <trkpt lat="47.30471" lon="-2.51022">
        <ele>1.7999999523163</ele>
        <time>2021-12-02T10:21:41.000Z</time>
      </trkpt>
      <trkpt lat="47.30479" lon="-2.51018">
        <ele>1.7999999523163</ele>
        <time>2021-12-02T10:21:43.000Z</time>
      </trkpt>
      <trkpt lat="47.30488" lon="-2.51013">
        <ele>1.7999999523163</ele>
        <time>2021-12-02T10:21:45.000Z</time>
      </trkpt>
      <trkpt lat="47.30497" lon="-2.51008">
        <ele>1.7999999523163</ele>
        <time>2021-12-02T10:21:47.000Z</time>
      </trkpt>
      <trkpt lat="47.30526" lon="-2.50995">
        <ele>1.7999999523163</ele>
        <time>2021-12-02T10:21:53.000Z</time>
      </trkpt>
      <trkpt lat="47.30563" lon="-2.50974">
        <ele>1.7999999523163</ele>
        <time>2021-12-02T10:22:01.000Z</time>
      </trkpt>
      <trkpt lat="47.30595" lon="-2.50952">
        <ele>1.7999999523163</ele>
        <time>2021-12-02T10:22:08.000Z</time>
      </trkpt>
      <trkpt lat="47.30621" lon="-2.50932">
        <ele>1.7999999523163</ele>
        <time>2021-12-02T10:22:14.000Z</time>
      </trkpt>
      <trkpt lat="47.30646" lon="-2.50912">
        <ele>1.7999999523163</ele>
        <time>2021-12-02T10:22:20.000Z</time>
      </trkpt>
      <trkpt lat="47.30665" lon="-2.50898">
        <ele>1.7999999523163</ele>
        <time>2021-12-02T10:22:25.000Z</time>
      </trkpt>
      <trkpt lat="47.30672" lon="-2.50892">
        <ele>1.7999999523163</ele>
        <time>2021-12-02T10:22:27.000Z</time>
      </trkpt>
      <trkpt lat="47.30683" lon="-2.50879">
        <ele>1.7999999523163</ele>
        <time>2021-12-02T10:22:32.000Z</time>
      </trkpt>
      <trkpt lat="47.30689" lon="-2.50869">
        <ele>1.7999999523163</ele>
        <time>2021-12-02T10:22:36.000Z</time>
      </trkpt>
      <trkpt lat="47.30691" lon="-2.50866">
        <ele>1.7999999523163</ele>
        <time>2021-12-02T10:22:37.000Z</time>
      </trkpt>
      <trkpt lat="47.30701" lon="-2.50856">
        <ele>1.7999999523163</ele>
        <time>2021-12-02T10:22:41.000Z</time>
      </trkpt>
      <trkpt lat="47.30704" lon="-2.50855">
        <ele>1.7999999523163</ele>
        <time>2021-12-02T10:22:42.000Z</time>
      </trkpt>
      <trkpt lat="47.30719" lon="-2.5085">
        <ele>1.7999999523163</ele>
        <time>2021-12-02T10:22:46.000Z</time>
      </trkpt>
      <trkpt lat="47.30728" lon="-2.50847">
        <ele>1.7999999523163</ele>
        <time>2021-12-02T10:22:48.000Z</time>
      </trkpt>
      <trkpt lat="47.30736" lon="-2.50841">
        <ele>1.7999999523163</ele>
        <time>2021-12-02T10:22:50.000Z</time>
      </trkpt>
      <trkpt lat="47.30741" lon="-2.50838">
        <ele>1.7999999523163</ele>
        <time>2021-12-02T10:22:51.000Z</time>
      </trkpt>
      <trkpt lat="47.30769" lon="-2.50817">
        <ele>2.2000000476837</ele>
        <time>2021-12-02T10:22:57.000Z</time>
      </trkpt>
      <trkpt lat="47.30774" lon="-2.50814">
        <ele>2.5999999046326</ele>
        <time>2021-12-02T10:22:58.000Z</time>
      </trkpt>
      <trkpt lat="47.30779" lon="-2.5081">
        <ele>3</ele>
        <time>2021-12-02T10:22:59.000Z</time>
      </trkpt>
      <trkpt lat="47.30783" lon="-2.50807">
        <ele>3.4000000953674</ele>
        <time>2021-12-02T10:23:00.000Z</time>
      </trkpt>
      <trkpt lat="47.30787" lon="-2.50802">
        <ele>3.7999999523163</ele>
        <time>2021-12-02T10:23:01.000Z</time>
      </trkpt>
      <trkpt lat="47.30796" lon="-2.50796">
        <ele>3.7999999523163</ele>
        <time>2021-12-02T10:23:03.000Z</time>
      </trkpt>
      <trkpt lat="47.308" lon="-2.50793">
        <ele>3.7999999523163</ele>
        <time>2021-12-02T10:23:04.000Z</time>
      </trkpt>
      <trkpt lat="47.30827" lon="-2.50772">
        <ele>3.7999999523163</ele>
        <time>2021-12-02T10:23:10.000Z</time>
      </trkpt>
      <trkpt lat="47.30844" lon="-2.50758">
        <ele>3.7999999523163</ele>
        <time>2021-12-02T10:23:14.000Z</time>
      </trkpt>
      <trkpt lat="47.30858" lon="-2.50748">
        <ele>3.7999999523163</ele>
        <time>2021-12-02T10:23:17.000Z</time>
      </trkpt>
      <trkpt lat="47.30889" lon="-2.50723">
        <ele>3.7999999523163</ele>
        <time>2021-12-02T10:23:24.000Z</time>
      </trkpt>
      <trkpt lat="47.30929" lon="-2.50692">
        <ele>3.7999999523163</ele>
        <time>2021-12-02T10:23:33.000Z</time>
      </trkpt>
      <trkpt lat="47.30938" lon="-2.50687">
        <ele>3.7999999523163</ele>
        <time>2021-12-02T10:23:35.000Z</time>
      </trkpt>
      <trkpt lat="47.30947" lon="-2.50681">
        <ele>3.7999999523163</ele>
        <time>2021-12-02T10:23:37.000Z</time>
      </trkpt>
      <trkpt lat="47.30979" lon="-2.50657">
        <ele>3.7999999523163</ele>
        <time>2021-12-02T10:23:44.000Z</time>
      </trkpt>
      <trkpt lat="47.31023" lon="-2.50623">
        <ele>3.7999999523163</ele>
        <time>2021-12-02T10:23:55.000Z</time>
      </trkpt>
      <trkpt lat="47.31057" lon="-2.50594">
        <ele>3.7999999523163</ele>
        <time>2021-12-02T10:24:03.000Z</time>
      </trkpt>
      <trkpt lat="47.31086" lon="-2.50572">
        <ele>3.7999999523163</ele>
        <time>2021-12-02T10:24:09.000Z</time>
      </trkpt>
      <trkpt lat="47.31133" lon="-2.50535">
        <ele>3.7999999523163</ele>
        <time>2021-12-02T10:24:19.000Z</time>
      </trkpt>
      <trkpt lat="47.31169" lon="-2.50499">
        <ele>3.7999999523163</ele>
        <time>2021-12-02T10:24:27.000Z</time>
      </trkpt>
      <trkpt lat="47.31178" lon="-2.50489">
        <ele>3.7999999523163</ele>
        <time>2021-12-02T10:24:29.000Z</time>
      </trkpt>
      <trkpt lat="47.31197" lon="-2.50467">
        <ele>3.7999999523163</ele>
        <time>2021-12-02T10:24:33.000Z</time>
      </trkpt>
      <trkpt lat="47.31227" lon="-2.50427">
        <ele>3.7999999523163</ele>
        <time>2021-12-02T10:24:40.000Z</time>
      </trkpt>
      <trkpt lat="47.31263" lon="-2.50382">
        <ele>3.7999999523163</ele>
        <time>2021-12-02T10:24:48.000Z</time>
      </trkpt>
      <trkpt lat="47.31289" lon="-2.50347">
        <ele>3.7999999523163</ele>
        <time>2021-12-02T10:24:54.000Z</time>
      </trkpt>
      <trkpt lat="47.31307" lon="-2.50322">
        <ele>3.4000000953674</ele>
        <time>2021-12-02T10:24:58.000Z</time>
      </trkpt>
      <trkpt lat="47.31311" lon="-2.50316">
        <ele>3</ele>
        <time>2021-12-02T10:24:59.000Z</time>
      </trkpt>
      <trkpt lat="47.31316" lon="-2.50309">
        <ele>2.5999999046326</ele>
        <time>2021-12-02T10:25:00.000Z</time>
      </trkpt>
      <trkpt lat="47.3132" lon="-2.50302">
        <ele>2.2000000476837</ele>
        <time>2021-12-02T10:25:01.000Z</time>
      </trkpt>
      <trkpt lat="47.31325" lon="-2.50295">
        <ele>1.6000000238419</ele>
        <time>2021-12-02T10:25:02.000Z</time>
      </trkpt>
      <trkpt lat="47.3133" lon="-2.50288">
        <ele>1.6000000238419</ele>
        <time>2021-12-02T10:25:03.000Z</time>
      </trkpt>
      <trkpt lat="47.31366" lon="-2.50234">
        <ele>1.6000000238419</ele>
        <time>2021-12-02T10:25:11.000Z</time>
      </trkpt>
      <trkpt lat="47.31404" lon="-2.50178">
        <ele>1.6000000238419</ele>
        <time>2021-12-02T10:25:20.000Z</time>
      </trkpt>
      <trkpt lat="47.31439" lon="-2.50124">
        <ele>1.6000000238419</ele>
        <time>2021-12-02T10:25:29.000Z</time>
      </trkpt>
      <trkpt lat="47.31467" lon="-2.5008">
        <ele>1.6000000238419</ele>
        <time>2021-12-02T10:25:36.000Z</time>
      </trkpt>
      <trkpt lat="47.31495" lon="-2.50038">
        <ele>1.6000000238419</ele>
        <time>2021-12-02T10:25:43.000Z</time>
      </trkpt>
      <trkpt lat="47.31527" lon="-2.49989">
        <ele>1.6000000238419</ele>
        <time>2021-12-02T10:25:51.000Z</time>
      </trkpt>
      <trkpt lat="47.31562" lon="-2.49937">
        <ele>1.6000000238419</ele>
        <time>2021-12-02T10:26:00.000Z</time>
      </trkpt>
      <trkpt lat="47.31586" lon="-2.49898">
        <ele>1.6000000238419</ele>
        <time>2021-12-02T10:26:07.000Z</time>
      </trkpt>
      <trkpt lat="47.31608" lon="-2.49865">
        <ele>1.6000000238419</ele>
        <time>2021-12-02T10:26:13.000Z</time>
      </trkpt>
      <trkpt lat="47.31643" lon="-2.49812">
        <ele>1.6000000238419</ele>
        <time>2021-12-02T10:26:22.000Z</time>
      </trkpt>
      <trkpt lat="47.31671" lon="-2.4977">
        <ele>1.6000000238419</ele>
        <time>2021-12-02T10:26:29.000Z</time>
      </trkpt>
      <trkpt lat="47.31698" lon="-2.49728">
        <ele>1.6000000238419</ele>
        <time>2021-12-02T10:26:36.000Z</time>
      </trkpt>
      <trkpt lat="47.31722" lon="-2.49693">
        <ele>1.6000000238419</ele>
        <time>2021-12-02T10:26:42.000Z</time>
      </trkpt>
      <trkpt lat="47.31726" lon="-2.49688">
        <ele>1.6000000238419</ele>
        <time>2021-12-02T10:26:43.000Z</time>
      </trkpt>
      <trkpt lat="47.31756" lon="-2.49642">
        <ele>1.6000000238419</ele>
        <time>2021-12-02T10:26:51.000Z</time>
      </trkpt>
      <trkpt lat="47.31786" lon="-2.49593">
        <ele>1.6000000238419</ele>
        <time>2021-12-02T10:26:59.000Z</time>
      </trkpt>
      <trkpt lat="47.31792" lon="-2.4958">
        <ele>1.6000000238419</ele>
        <time>2021-12-02T10:27:01.000Z</time>
      </trkpt>
      <trkpt lat="47.31804" lon="-2.49562">
        <ele>1.6000000238419</ele>
        <time>2021-12-02T10:27:04.000Z</time>
      </trkpt>
      <trkpt lat="47.31829" lon="-2.49524">
        <ele>1.6000000238419</ele>
        <time>2021-12-02T10:27:10.000Z</time>
      </trkpt>
      <trkpt lat="47.31858" lon="-2.49481">
        <ele>1.6000000238419</ele>
        <time>2021-12-02T10:27:17.000Z</time>
      </trkpt>
      <trkpt lat="47.31885" lon="-2.4944">
        <ele>1.6000000238419</ele>
        <time>2021-12-02T10:27:24.000Z</time>
      </trkpt>
      <trkpt lat="47.31922" lon="-2.49385">
        <ele>1.6000000238419</ele>
        <time>2021-12-02T10:27:33.000Z</time>
      </trkpt>
      <trkpt lat="47.3195" lon="-2.49341">
        <ele>1.6000000238419</ele>
        <time>2021-12-02T10:27:40.000Z</time>
      </trkpt>
      <trkpt lat="47.31972" lon="-2.49304">
        <ele>1.6000000238419</ele>
        <time>2021-12-02T10:27:46.000Z</time>
      </trkpt>
      <trkpt lat="47.31998" lon="-2.49261">
        <ele>1.6000000238419</ele>
        <time>2021-12-02T10:27:53.000Z</time>
      </trkpt>
      <trkpt lat="47.32025" lon="-2.49218">
        <ele>1.6000000238419</ele>
        <time>2021-12-02T10:28:00.000Z</time>
      </trkpt>
      <trkpt lat="47.32051" lon="-2.49176">
        <ele>1.6000000238419</ele>
        <time>2021-12-02T10:28:07.000Z</time>
      </trkpt>
      <trkpt lat="47.32062" lon="-2.49159">
        <ele>1.2000000476837</ele>
        <time>2021-12-02T10:28:10.000Z</time>
      </trkpt>
      <trkpt lat="47.32065" lon="-2.49153">
        <ele>0.80000001192093</ele>
        <time>2021-12-02T10:28:11.000Z</time>
      </trkpt>
      <trkpt lat="47.32069" lon="-2.49148">
        <ele>0.40000000596046</ele>
        <time>2021-12-02T10:28:12.000Z</time>
      </trkpt>
      <trkpt lat="47.32073" lon="-2.49142">
        <ele>4</ele>
        <time>2021-12-02T10:28:13.000Z</time>
      </trkpt>
      <trkpt lat="47.32077" lon="-2.49137">
        <ele>-0.40000000596046</ele>
        <time>2021-12-02T10:28:14.000Z</time>
      </trkpt>
      <trkpt lat="47.32081" lon="-2.49132">
        <ele>-0.40000000596046</ele>
        <time>2021-12-02T10:28:15.000Z</time>
      </trkpt>
      <trkpt lat="47.32088" lon="-2.49122">
        <ele>-0.40000000596046</ele>
        <time>2021-12-02T10:28:17.000Z</time>
      </trkpt>
      <trkpt lat="47.32099" lon="-2.4911">
        <ele>-0.40000000596046</ele>
        <time>2021-12-02T10:28:20.000Z</time>
      </trkpt>
      <trkpt lat="47.32118" lon="-2.49087">
        <ele>-0.40000000596046</ele>
        <time>2021-12-02T10:28:25.000Z</time>
      </trkpt>
      <trkpt lat="47.32121" lon="-2.49081">
        <ele>-0.40000000596046</ele>
        <time>2021-12-02T10:28:26.000Z</time>
      </trkpt>
      <trkpt lat="47.32129" lon="-2.49053">
        <ele>-0.40000000596046</ele>
        <time>2021-12-02T10:28:30.000Z</time>
      </trkpt>
      <trkpt lat="47.32131" lon="-2.49046">
        <ele>-0.40000000596046</ele>
        <time>2021-12-02T10:28:31.000Z</time>
      </trkpt>
      <trkpt lat="47.32136" lon="-2.49025">
        <ele>-0.40000000596046</ele>
        <time>2021-12-02T10:28:34.000Z</time>
      </trkpt>
      <trkpt lat="47.32138" lon="-2.49008">
        <ele>-0.40000000596046</ele>
        <time>2021-12-02T10:28:36.000Z</time>
      </trkpt>
      <trkpt lat="47.32138" lon="-2.48999">
        <ele>-0.40000000596046</ele>
        <time>2021-12-02T10:28:37.000Z</time>
      </trkpt>
      <trkpt lat="47.32136" lon="-2.48964">
        <ele>-0.40000000596046</ele>
        <time>2021-12-02T10:28:41.000Z</time>
      </trkpt>
      <trkpt lat="47.32138" lon="-2.48929">
        <ele>-0.40000000596046</ele>
        <time>2021-12-02T10:28:45.000Z</time>
      </trkpt>
      <trkpt lat="47.3214" lon="-2.48921">
        <ele>-0.40000000596046</ele>
        <time>2021-12-02T10:28:46.000Z</time>
      </trkpt>
      <trkpt lat="47.32149" lon="-2.48897">
        <ele>-0.40000000596046</ele>
        <time>2021-12-02T10:28:49.000Z</time>
      </trkpt>
      <trkpt lat="47.32152" lon="-2.4889">
        <ele>-0.40000000596046</ele>
        <time>2021-12-02T10:28:50.000Z</time>
      </trkpt>
      <trkpt lat="47.32186" lon="-2.48827">
        <ele>-0.40000000596046</ele>
        <time>2021-12-02T10:28:59.000Z</time>
      </trkpt>
      <trkpt lat="47.3221" lon="-2.48789">
        <ele>-0.40000000596046</ele>
        <time>2021-12-02T10:29:05.000Z</time>
      </trkpt>
      <trkpt lat="47.32213" lon="-2.48783">
        <ele>-0.40000000596046</ele>
        <time>2021-12-02T10:29:06.000Z</time>
      </trkpt>
      <trkpt lat="47.32234" lon="-2.48729">
        <ele>-0.40000000596046</ele>
        <time>2021-12-02T10:29:13.000Z</time>
      </trkpt>
      <trkpt lat="47.32247" lon="-2.48679">
        <ele>-0.40000000596046</ele>
        <time>2021-12-02T10:29:19.000Z</time>
      </trkpt>
      <trkpt lat="47.32263" lon="-2.48653">
        <ele>-0.40000000596046</ele>
        <time>2021-12-02T10:29:23.000Z</time>
      </trkpt>
      <trkpt lat="47.32286" lon="-2.48634">
        <ele>-0.40000000596046</ele>
        <time>2021-12-02T10:29:27.000Z</time>
      </trkpt>
      <trkpt lat="47.32292" lon="-2.4863">
        <ele>-0.40000000596046</ele>
        <time>2021-12-02T10:29:28.000Z</time>
      </trkpt>
      <trkpt lat="47.32335" lon="-2.48599">
        <ele>-0.40000000596046</ele>
        <time>2021-12-02T10:29:36.000Z</time>
      </trkpt>
      <trkpt lat="47.32377" lon="-2.48572">
        <ele>-0.40000000596046</ele>
        <time>2021-12-02T10:29:44.000Z</time>
      </trkpt>
      <trkpt lat="47.32406" lon="-2.48565">
        <ele>-0.40000000596046</ele>
        <time>2021-12-02T10:29:49.000Z</time>
      </trkpt>
      <trkpt lat="47.32441" lon="-2.48571">
        <ele>-0.40000000596046</ele>
        <time>2021-12-02T10:29:55.000Z</time>
      </trkpt>
      <trkpt lat="47.32478" lon="-2.48588">
        <ele>-0.40000000596046</ele>
        <time>2021-12-02T10:30:02.000Z</time>
      </trkpt>
      <trkpt lat="47.32503" lon="-2.48611">
        <ele>-0.40000000596046</ele>
        <time>2021-12-02T10:30:07.000Z</time>
      </trkpt>
      <trkpt lat="47.32508" lon="-2.48617">
        <ele>-0.40000000596046</ele>
        <time>2021-12-02T10:30:08.000Z</time>
      </trkpt>
      <trkpt lat="47.32534" lon="-2.48643">
        <ele>-0.40000000596046</ele>
        <time>2021-12-02T10:30:14.000Z</time>
      </trkpt>
      <trkpt lat="47.32553" lon="-2.4866">
        <ele>-0.40000000596046</ele>
        <time>2021-12-02T10:30:18.000Z</time>
      </trkpt>
      <trkpt lat="47.32567" lon="-2.48667">
        <ele>-0.40000000596046</ele>
        <time>2021-12-02T10:30:21.000Z</time>
      </trkpt>
      <trkpt lat="47.32581" lon="-2.4867">
        <ele>-0.40000000596046</ele>
        <time>2021-12-02T10:30:24.000Z</time>
      </trkpt>
      <trkpt lat="47.32597" lon="-2.48671">
        <ele>-0.40000000596046</ele>
        <time>2021-12-02T10:30:27.000Z</time>
      </trkpt>
      <trkpt lat="47.3263" lon="-2.48663">
        <ele>-0.40000000596046</ele>
        <time>2021-12-02T10:30:33.000Z</time>
      </trkpt>
      <trkpt lat="47.32669" lon="-2.48645">
        <ele>-0.40000000596046</ele>
        <time>2021-12-02T10:30:40.000Z</time>
      </trkpt>
      <trkpt lat="47.32715" lon="-2.4862">
        <ele>-0.40000000596046</ele>
        <time>2021-12-02T10:30:48.000Z</time>
      </trkpt>
      <trkpt lat="47.3276" lon="-2.48595">
        <ele>-0.40000000596046</ele>
        <time>2021-12-02T10:30:56.000Z</time>
      </trkpt>
      <trkpt lat="47.32777" lon="-2.48589">
        <ele>-0.40000000596046</ele>
        <time>2021-12-02T10:30:59.000Z</time>
      </trkpt>
      <trkpt lat="47.32795" lon="-2.48587">
        <ele>-0.40000000596046</ele>
        <time>2021-12-02T10:31:02.000Z</time>
      </trkpt>
      <trkpt lat="47.3283" lon="-2.48588">
        <ele>-0.40000000596046</ele>
        <time>2021-12-02T10:31:08.000Z</time>
      </trkpt>
      <trkpt lat="47.3288" lon="-2.48588">
        <ele>-0.40000000596046</ele>
        <time>2021-12-02T10:31:17.000Z</time>
      </trkpt>
      <trkpt lat="47.32892" lon="-2.48584">
        <ele>-0.40000000596046</ele>
        <time>2021-12-02T10:31:19.000Z</time>
      </trkpt>
      <trkpt lat="47.32907" lon="-2.48572">
        <ele>-0.40000000596046</ele>
        <time>2021-12-02T10:31:22.000Z</time>
      </trkpt>
      <trkpt lat="47.32932" lon="-2.48541">
        <ele>-0.40000000596046</ele>
        <time>2021-12-02T10:31:28.000Z</time>
      </trkpt>
      <trkpt lat="47.32936" lon="-2.48537">
        <ele>-0.40000000596046</ele>
        <time>2021-12-02T10:31:29.000Z</time>
      </trkpt>
      <trkpt lat="47.32953" lon="-2.48518">
        <ele>-0.40000000596046</ele>
        <time>2021-12-02T10:31:33.000Z</time>
      </trkpt>
      <trkpt lat="47.32967" lon="-2.48505">
        <ele>-0.40000000596046</ele>
        <time>2021-12-02T10:31:36.000Z</time>
      </trkpt>
      <trkpt lat="47.32983" lon="-2.48493">
        <ele>-0.40000000596046</ele>
        <time>2021-12-02T10:31:39.000Z</time>
      </trkpt>
      <trkpt lat="47.33026" lon="-2.48463">
        <ele>-0.40000000596046</ele>
        <time>2021-12-02T10:31:47.000Z</time>
      </trkpt>
      <trkpt lat="47.33068" lon="-2.48435">
        <ele>-0.40000000596046</ele>
        <time>2021-12-02T10:31:55.000Z</time>
      </trkpt>
      <trkpt lat="47.33107" lon="-2.4841">
        <ele>-0.40000000596046</ele>
        <time>2021-12-02T10:32:02.000Z</time>
      </trkpt>
      <trkpt lat="47.33126" lon="-2.48392">
        <ele>-0.40000000596046</ele>
        <time>2021-12-02T10:32:06.000Z</time>
      </trkpt>
      <trkpt lat="47.3313" lon="-2.48385">
        <ele>-0.40000000596046</ele>
        <time>2021-12-02T10:32:07.000Z</time>
      </trkpt>
      <trkpt lat="47.33136" lon="-2.48371">
        <ele>-0.40000000596046</ele>
        <time>2021-12-02T10:32:09.000Z</time>
      </trkpt>
      <trkpt lat="47.3314" lon="-2.48356">
        <ele>-0.40000000596046</ele>
        <time>2021-12-02T10:32:11.000Z</time>
      </trkpt>
      <trkpt lat="47.33143" lon="-2.48339">
        <ele>-0.40000000596046</ele>
        <time>2021-12-02T10:32:13.000Z</time>
      </trkpt>
      <trkpt lat="47.33143" lon="-2.48313">
        <ele>-0.40000000596046</ele>
        <time>2021-12-02T10:32:16.000Z</time>
      </trkpt>
      <trkpt lat="47.33143" lon="-2.48304">
        <ele>-0.40000000596046</ele>
        <time>2021-12-02T10:32:17.000Z</time>
      </trkpt>
      <trkpt lat="47.33142" lon="-2.48247">
        <ele>-0.40000000596046</ele>
        <time>2021-12-02T10:32:23.000Z</time>
      </trkpt>
      <trkpt lat="47.3314" lon="-2.48185">
        <ele>-0.40000000596046</ele>
        <time>2021-12-02T10:32:30.000Z</time>
      </trkpt>
      <trkpt lat="47.33142" lon="-2.48119">
        <ele>-0.40000000596046</ele>
        <time>2021-12-02T10:32:38.000Z</time>
      </trkpt>
      <trkpt lat="47.33145" lon="-2.48052">
        <ele>-0.40000000596046</ele>
        <time>2021-12-02T10:32:46.000Z</time>
      </trkpt>
      <trkpt lat="47.33147" lon="-2.48">
        <ele>-0.40000000596046</ele>
        <time>2021-12-02T10:32:53.000Z</time>
      </trkpt>
      <trkpt lat="47.33149" lon="-2.47945">
        <ele>-0.40000000596046</ele>
        <time>2021-12-02T10:33:01.000Z</time>
      </trkpt>
      <trkpt lat="47.33147" lon="-2.47919">
        <ele>-0.40000000596046</ele>
        <time>2021-12-02T10:33:06.000Z</time>
      </trkpt>
      <trkpt lat="47.33148" lon="-2.47918">
        <ele>-0.40000000596046</ele>
        <time>2021-12-02T10:33:07.000Z</time>
      </trkpt>
      <trkpt lat="47.3315" lon="-2.47919">
        <ele>-0.40000000596046</ele>
        <time>2021-12-02T10:33:09.000Z</time>
      </trkpt>
      <trkpt lat="47.33159" lon="-2.47911">
        <ele>-0.40000000596046</ele>
        <time>2021-12-02T10:33:13.000Z</time>
      </trkpt>
      <trkpt lat="47.33164" lon="-2.47901">
        <ele>-0.40000000596046</ele>
        <time>2021-12-02T10:33:16.000Z</time>
      </trkpt>
      <trkpt lat="47.33168" lon="-2.47894">
        <ele>-0.40000000596046</ele>
        <time>2021-12-02T10:33:18.000Z</time>
      </trkpt>
      <trkpt lat="47.33185" lon="-2.47867">
        <ele>-0.40000000596046</ele>
        <time>2021-12-02T10:33:25.000Z</time>
      </trkpt>
      <trkpt lat="47.33206" lon="-2.47838">
        <ele>-0.40000000596046</ele>
        <time>2021-12-02T10:33:33.000Z</time>
      </trkpt>
      <trkpt lat="47.33222" lon="-2.4782">
        <ele>-0.40000000596046</ele>
        <time>2021-12-02T10:33:39.000Z</time>
      </trkpt>
      <trkpt lat="47.3325" lon="-2.47788">
        <ele>-0.40000000596046</ele>
        <time>2021-12-02T10:33:49.000Z</time>
      </trkpt>
      <trkpt lat="47.33273" lon="-2.47763">
        <ele>-0.40000000596046</ele>
        <time>2021-12-02T10:33:57.000Z</time>
      </trkpt>
      <trkpt lat="47.33292" lon="-2.47749">
        <ele>-0.40000000596046</ele>
        <time>2021-12-02T10:34:03.000Z</time>
      </trkpt>
      <trkpt lat="47.33303" lon="-2.4774">
        <ele>6</ele>
        <time>2021-12-02T10:34:07.000Z</time>
      </trkpt>
      <trkpt lat="47.33306" lon="-2.47738">
        <ele>0.40000000596046</ele>
        <time>2021-12-02T10:34:08.000Z</time>
      </trkpt>
      <trkpt lat="47.33308" lon="-2.47736">
        <ele>0.80000001192093</ele>
        <time>2021-12-02T10:34:09.000Z</time>
      </trkpt>
      <trkpt lat="47.33311" lon="-2.47733">
        <ele>1.2000000476837</ele>
        <time>2021-12-02T10:34:10.000Z</time>
      </trkpt>
      <trkpt lat="47.33314" lon="-2.47732">
        <ele>1.6000000238419</ele>
        <time>2021-12-02T10:34:11.000Z</time>
      </trkpt>
      <trkpt lat="47.3332" lon="-2.47728">
        <ele>1.6000000238419</ele>
        <time>2021-12-02T10:34:13.000Z</time>
      </trkpt>
      <trkpt lat="47.33339" lon="-2.47712">
        <ele>1.6000000238419</ele>
        <time>2021-12-02T10:34:20.000Z</time>
      </trkpt>
      <trkpt lat="47.33354" lon="-2.477">
        <ele>1.6000000238419</ele>
        <time>2021-12-02T10:34:26.000Z</time>
      </trkpt>
      <trkpt lat="47.33361" lon="-2.47694">
        <ele>2</ele>
        <time>2021-12-02T10:34:30.000Z</time>
      </trkpt>
      <trkpt lat="47.33363" lon="-2.47693">
        <ele>2.5999999046326</ele>
        <time>2021-12-02T10:34:31.000Z</time>
      </trkpt>
      <trkpt lat="47.33365" lon="-2.47691">
        <ele>3</ele>
        <time>2021-12-02T10:34:32.000Z</time>
      </trkpt>
      <trkpt lat="47.33366" lon="-2.4769">
        <ele>3.4000000953674</ele>
        <time>2021-12-02T10:34:33.000Z</time>
      </trkpt>
      <trkpt lat="47.33368" lon="-2.47688">
        <ele>3.7999999523163</ele>
        <time>2021-12-02T10:34:34.000Z</time>
      </trkpt>
      <trkpt lat="47.33377" lon="-2.4768">
        <ele>3.7999999523163</ele>
        <time>2021-12-02T10:34:38.000Z</time>
      </trkpt>
      <trkpt lat="47.33388" lon="-2.47667">
        <ele>3.7999999523163</ele>
        <time>2021-12-02T10:34:45.000Z</time>
      </trkpt>
      <trkpt lat="47.33399" lon="-2.47656">
        <ele>3.7999999523163</ele>
        <time>2021-12-02T10:34:53.000Z</time>
      </trkpt>
      <trkpt lat="47.33402" lon="-2.47654">
        <ele>4.1999998092651</ele>
        <time>2021-12-02T10:34:55.000Z</time>
      </trkpt>
      <trkpt lat="47.33403" lon="-2.47653">
        <ele>4.5999999046326</ele>
        <time>2021-12-02T10:34:56.000Z</time>
      </trkpt>
      <trkpt lat="47.33404" lon="-2.47652">
        <ele>5</ele>
        <time>2021-12-02T10:34:57.000Z</time>
      </trkpt>
      <trkpt lat="47.33405" lon="-2.47652">
        <ele>5.4000000953674</ele>
        <time>2021-12-02T10:34:58.000Z</time>
      </trkpt>
      <trkpt lat="47.33407" lon="-2.4765">
        <ele>5.8000001907349</ele>
        <time>2021-12-02T10:34:59.000Z</time>
      </trkpt>
      <trkpt lat="47.33408" lon="-2.47647">
        <ele>5.8000001907349</ele>
        <time>2021-12-02T10:35:01.000Z</time>
      </trkpt>
      <trkpt lat="47.33411" lon="-2.47645">
        <ele>5.8000001907349</ele>
        <time>2021-12-02T10:35:03.000Z</time>
      </trkpt>
      <trkpt lat="47.33416" lon="-2.47638">
        <ele>5.8000001907349</ele>
        <time>2021-12-02T10:35:07.000Z</time>
      </trkpt>
      <trkpt lat="47.33418" lon="-2.47636">
        <ele>5.8000001907349</ele>
        <time>2021-12-02T10:35:09.000Z</time>
      </trkpt>
      <trkpt lat="47.33421" lon="-2.47637">
        <ele>5.8000001907349</ele>
        <time>2021-12-02T10:35:12.000Z</time>
      </trkpt>
      <trkpt lat="47.33422" lon="-2.47637">
        <ele>5.8000001907349</ele>
        <time>2021-12-02T10:35:14.000Z</time>
      </trkpt>
      <trkpt lat="47.33432" lon="-2.47631">
        <ele>5.8000001907349</ele>
        <time>2021-12-02T10:35:53.000Z</time>
      </trkpt>
      <trkpt lat="47.33434" lon="-2.47631">
        <ele>6.1999998092651</ele>
        <time>2021-12-02T10:35:54.000Z</time>
      </trkpt>
      <trkpt lat="47.33435" lon="-2.4763">
        <ele>6.5999999046326</ele>
        <time>2021-12-02T10:35:55.000Z</time>
      </trkpt>
      <trkpt lat="47.33437" lon="-2.47629">
        <ele>7</ele>
        <time>2021-12-02T10:35:56.000Z</time>
      </trkpt>
      <trkpt lat="47.33438" lon="-2.47628">
        <ele>7.4000000953674</ele>
        <time>2021-12-02T10:35:57.000Z</time>
      </trkpt>
      <trkpt lat="47.33439" lon="-2.47628">
        <ele>7.8000001907349</ele>
        <time>2021-12-02T10:35:58.000Z</time>
      </trkpt>
      <trkpt lat="47.33439" lon="-2.47628">
        <ele>8.3999996185303</ele>
        <time>2021-12-02T10:35:59.000Z</time>
      </trkpt>
      <trkpt lat="47.33438" lon="-2.47629">
        <ele>8.8000001907349</ele>
        <time>2021-12-02T10:36:00.000Z</time>
      </trkpt>
      <trkpt lat="47.33439" lon="-2.47629">
        <ele>9.1999998092651</ele>
        <time>2021-12-02T10:36:01.000Z</time>
      </trkpt>
      <trkpt lat="47.33455" lon="-2.47618">
        <ele>12.199999809265</ele>
        <time>2021-12-02T10:36:59.000Z</time>
      </trkpt>
      <trkpt lat="47.33458" lon="-2.47617">
        <ele>12.199999809265</ele>
        <time>2021-12-02T10:37:01.000Z</time>
      </trkpt>
      <trkpt lat="47.33468" lon="-2.4761">
        <ele>12.199999809265</ele>
        <time>2021-12-02T10:37:07.000Z</time>
      </trkpt>
      <trkpt lat="47.33473" lon="-2.47605">
        <ele>12.60000038147</ele>
        <time>2021-12-02T10:37:10.000Z</time>
      </trkpt>
      <trkpt lat="47.33475" lon="-2.47604">
        <ele>13</ele>
        <time>2021-12-02T10:37:11.000Z</time>
      </trkpt>
      <trkpt lat="47.33477" lon="-2.47602">
        <ele>13.39999961853</ele>
        <time>2021-12-02T10:37:12.000Z</time>
      </trkpt>
      <trkpt lat="47.33478" lon="-2.47601">
        <ele>13.800000190735</ele>
        <time>2021-12-02T10:37:13.000Z</time>
      </trkpt>
      <trkpt lat="47.3348" lon="-2.476">
        <ele>14.199999809265</ele>
        <time>2021-12-02T10:37:14.000Z</time>
      </trkpt>
      <trkpt lat="47.33481" lon="-2.47594">
        <ele>14.199999809265</ele>
        <time>2021-12-02T10:37:17.000Z</time>
      </trkpt>
      <trkpt lat="47.33479" lon="-2.4759">
        <ele>14.199999809265</ele>
        <time>2021-12-02T10:37:19.000Z</time>
      </trkpt>
      <trkpt lat="47.33475" lon="-2.47585">
        <ele>14.199999809265</ele>
        <time>2021-12-02T10:37:22.000Z</time>
      </trkpt>
      <trkpt lat="47.33469" lon="-2.47573">
        <ele>14.199999809265</ele>
        <time>2021-12-02T10:37:26.000Z</time>
      </trkpt>
      <trkpt lat="47.33458" lon="-2.4755">
        <ele>14.60000038147</ele>
        <time>2021-12-02T10:37:31.000Z</time>
      </trkpt>
      <trkpt lat="47.33456" lon="-2.47545">
        <ele>15</ele>
        <time>2021-12-02T10:37:32.000Z</time>
      </trkpt>
      <trkpt lat="47.33454" lon="-2.4754">
        <ele>15.60000038147</ele>
        <time>2021-12-02T10:37:33.000Z</time>
      </trkpt>
      <trkpt lat="47.33451" lon="-2.47536">
        <ele>16</ele>
        <time>2021-12-02T10:37:34.000Z</time>
      </trkpt>
      <trkpt lat="47.33449" lon="-2.47531">
        <ele>16.39999961853</ele>
        <time>2021-12-02T10:37:35.000Z</time>
      </trkpt>
      <trkpt lat="47.3344" lon="-2.47511">
        <ele>16.39999961853</ele>
        <time>2021-12-02T10:37:39.000Z</time>
      </trkpt>
      <trkpt lat="47.33434" lon="-2.47491">
        <ele>16.39999961853</ele>
        <time>2021-12-02T10:37:45.000Z</time>
      </trkpt>
      <trkpt lat="47.33434" lon="-2.47492">
        <ele>16.39999961853</ele>
        <time>2021-12-02T10:37:46.000Z</time>
      </trkpt>
      <trkpt lat="47.33432" lon="-2.47487">
        <ele>16.39999961853</ele>
        <time>2021-12-02T10:38:03.000Z</time>
      </trkpt>
      <trkpt lat="47.33431" lon="-2.47482">
        <ele>16.39999961853</ele>
        <time>2021-12-02T10:38:05.000Z</time>
      </trkpt>
      <trkpt lat="47.33422" lon="-2.4746">
        <ele>16.39999961853</ele>
        <time>2021-12-02T10:38:11.000Z</time>
      </trkpt>
      <trkpt lat="47.33415" lon="-2.47426">
        <ele>16.39999961853</ele>
        <time>2021-12-02T10:38:17.000Z</time>
      </trkpt>
      <trkpt lat="47.33402" lon="-2.4738">
        <ele>16.39999961853</ele>
        <time>2021-12-02T10:38:24.000Z</time>
      </trkpt>
      <trkpt lat="47.3339" lon="-2.47336">
        <ele>16.39999961853</ele>
        <time>2021-12-02T10:38:31.000Z</time>
      </trkpt>
      <trkpt lat="47.33385" lon="-2.473">
        <ele>16.39999961853</ele>
        <time>2021-12-02T10:38:36.000Z</time>
      </trkpt>
      <trkpt lat="47.33384" lon="-2.47292">
        <ele>16.39999961853</ele>
        <time>2021-12-02T10:38:37.000Z</time>
      </trkpt>
      <trkpt lat="47.33378" lon="-2.47231">
        <ele>16.39999961853</ele>
        <time>2021-12-02T10:38:44.000Z</time>
      </trkpt>
      <trkpt lat="47.33369" lon="-2.47178">
        <ele>16.39999961853</ele>
        <time>2021-12-02T10:38:51.000Z</time>
      </trkpt>
      <trkpt lat="47.33369" lon="-2.47158">
        <ele>16.39999961853</ele>
        <time>2021-12-02T10:38:54.000Z</time>
      </trkpt>
      <trkpt lat="47.33374" lon="-2.47147">
        <ele>16.39999961853</ele>
        <time>2021-12-02T10:38:56.000Z</time>
      </trkpt>
      <trkpt lat="47.3338" lon="-2.47138">
        <ele>16.39999961853</ele>
        <time>2021-12-02T10:38:58.000Z</time>
      </trkpt>
      <trkpt lat="47.33388" lon="-2.47123">
        <ele>16.39999961853</ele>
        <time>2021-12-02T10:39:01.000Z</time>
      </trkpt>
      <trkpt lat="47.3339" lon="-2.47117">
        <ele>16.39999961853</ele>
        <time>2021-12-02T10:39:02.000Z</time>
      </trkpt>
      <trkpt lat="47.33392" lon="-2.47097">
        <ele>16.39999961853</ele>
        <time>2021-12-02T10:39:05.000Z</time>
      </trkpt>
      <trkpt lat="47.33397" lon="-2.47069">
        <ele>16.39999961853</ele>
        <time>2021-12-02T10:39:09.000Z</time>
      </trkpt>
      <trkpt lat="47.33401" lon="-2.47057">
        <ele>16.39999961853</ele>
        <time>2021-12-02T10:39:11.000Z</time>
      </trkpt>
      <trkpt lat="47.33418" lon="-2.47019">
        <ele>16.799999237061</ele>
        <time>2021-12-02T10:39:18.000Z</time>
      </trkpt>
      <trkpt lat="47.33421" lon="-2.47014">
        <ele>17.200000762939</ele>
        <time>2021-12-02T10:39:19.000Z</time>
      </trkpt>
      <trkpt lat="47.33423" lon="-2.47009">
        <ele>17.60000038147</ele>
        <time>2021-12-02T10:39:20.000Z</time>
      </trkpt>
      <trkpt lat="47.33426" lon="-2.47005">
        <ele>18</ele>
        <time>2021-12-02T10:39:21.000Z</time>
      </trkpt>
      <trkpt lat="47.3343" lon="-2.47001">
        <ele>18.39999961853</ele>
        <time>2021-12-02T10:39:22.000Z</time>
      </trkpt>
      <trkpt lat="47.33436" lon="-2.46992">
        <ele>18.39999961853</ele>
        <time>2021-12-02T10:39:24.000Z</time>
      </trkpt>
      <trkpt lat="47.33439" lon="-2.46986">
        <ele>18.39999961853</ele>
        <time>2021-12-02T10:39:25.000Z</time>
      </trkpt>
      <trkpt lat="47.33446" lon="-2.46978">
        <ele>18.39999961853</ele>
        <time>2021-12-02T10:39:27.000Z</time>
      </trkpt>
      <trkpt lat="47.33457" lon="-2.46961">
        <ele>18.39999961853</ele>
        <time>2021-12-02T10:39:31.000Z</time>
      </trkpt>
      <trkpt lat="47.33467" lon="-2.46945">
        <ele>18.39999961853</ele>
        <time>2021-12-02T10:39:36.000Z</time>
      </trkpt>
      <trkpt lat="47.33484" lon="-2.4692">
        <ele>18.799999237061</ele>
        <time>2021-12-02T10:39:43.000Z</time>
      </trkpt>
      <trkpt lat="47.33486" lon="-2.46918">
        <ele>19.39999961853</ele>
        <time>2021-12-02T10:39:44.000Z</time>
      </trkpt>
      <trkpt lat="47.33489" lon="-2.46916">
        <ele>19.799999237061</ele>
        <time>2021-12-02T10:39:45.000Z</time>
      </trkpt>
      <trkpt lat="47.33492" lon="-2.46914">
        <ele>20.200000762939</ele>
        <time>2021-12-02T10:39:46.000Z</time>
      </trkpt>
      <trkpt lat="47.33495" lon="-2.46912">
        <ele>20.60000038147</ele>
        <time>2021-12-02T10:39:47.000Z</time>
      </trkpt>
      <trkpt lat="47.33505" lon="-2.46903">
        <ele>20.60000038147</ele>
        <time>2021-12-02T10:39:51.000Z</time>
      </trkpt>
      <trkpt lat="47.33518" lon="-2.46891">
        <ele>20.60000038147</ele>
        <time>2021-12-02T10:39:56.000Z</time>
      </trkpt>
      <trkpt lat="47.3352" lon="-2.46889">
        <ele>21</ele>
        <time>2021-12-02T10:39:57.000Z</time>
      </trkpt>
      <trkpt lat="47.33522" lon="-2.46886">
        <ele>21.799999237061</ele>
        <time>2021-12-02T10:39:58.000Z</time>
      </trkpt>
      <trkpt lat="47.33525" lon="-2.46884">
        <ele>22.200000762939</ele>
        <time>2021-12-02T10:39:59.000Z</time>
      </trkpt>
      <trkpt lat="47.33527" lon="-2.46881">
        <ele>22.799999237061</ele>
        <time>2021-12-02T10:40:00.000Z</time>
      </trkpt>
      <trkpt lat="47.33532" lon="-2.46875">
        <ele>22.799999237061</ele>
        <time>2021-12-02T10:40:02.000Z</time>
      </trkpt>
      <trkpt lat="47.33534" lon="-2.46864">
        <ele>22.799999237061</ele>
        <time>2021-12-02T10:40:05.000Z</time>
      </trkpt>
      <trkpt lat="47.33534" lon="-2.46856">
        <ele>23.200000762939</ele>
        <time>2021-12-02T10:40:07.000Z</time>
      </trkpt>
      <trkpt lat="47.33533" lon="-2.46852">
        <ele>23.60000038147</ele>
        <time>2021-12-02T10:40:08.000Z</time>
      </trkpt>
      <trkpt lat="47.33532" lon="-2.46847">
        <ele>24</ele>
        <time>2021-12-02T10:40:09.000Z</time>
      </trkpt>
      <trkpt lat="47.33532" lon="-2.46843">
        <ele>24.39999961853</ele>
        <time>2021-12-02T10:40:10.000Z</time>
      </trkpt>
      <trkpt lat="47.33533" lon="-2.4684">
        <ele>24.799999237061</ele>
        <time>2021-12-02T10:40:11.000Z</time>
      </trkpt>
      <trkpt lat="47.33535" lon="-2.46836">
        <ele>24.799999237061</ele>
        <time>2021-12-02T10:40:12.000Z</time>
      </trkpt>
      <trkpt lat="47.33544" lon="-2.46826">
        <ele>25.200000762939</ele>
        <time>2021-12-02T10:40:16.000Z</time>
      </trkpt>
      <trkpt lat="47.33546" lon="-2.46823">
        <ele>25.60000038147</ele>
        <time>2021-12-02T10:40:17.000Z</time>
      </trkpt>
      <trkpt lat="47.33548" lon="-2.4682">
        <ele>26</ele>
        <time>2021-12-02T10:40:18.000Z</time>
      </trkpt>
      <trkpt lat="47.33551" lon="-2.46817">
        <ele>26.39999961853</ele>
        <time>2021-12-02T10:40:19.000Z</time>
      </trkpt>
      <trkpt lat="47.33554" lon="-2.46815">
        <ele>27</ele>
        <time>2021-12-02T10:40:20.000Z</time>
      </trkpt>
      <trkpt lat="47.33563" lon="-2.46806">
        <ele>27</ele>
        <time>2021-12-02T10:40:24.000Z</time>
      </trkpt>
      <trkpt lat="47.33572" lon="-2.46798">
        <ele>27.39999961853</ele>
        <time>2021-12-02T10:40:28.000Z</time>
      </trkpt>
      <trkpt lat="47.33574" lon="-2.46795">
        <ele>27.799999237061</ele>
        <time>2021-12-02T10:40:29.000Z</time>
      </trkpt>
      <trkpt lat="47.33576" lon="-2.46793">
        <ele>28.200000762939</ele>
        <time>2021-12-02T10:40:30.000Z</time>
      </trkpt>
      <trkpt lat="47.33578" lon="-2.46791">
        <ele>28.60000038147</ele>
        <time>2021-12-02T10:40:31.000Z</time>
      </trkpt>
      <trkpt lat="47.3358" lon="-2.46789">
        <ele>29</ele>
        <time>2021-12-02T10:40:32.000Z</time>
      </trkpt>
      <trkpt lat="47.33587" lon="-2.46782">
        <ele>29.39999961853</ele>
        <time>2021-12-02T10:40:35.000Z</time>
      </trkpt>
      <trkpt lat="47.33589" lon="-2.46779">
        <ele>29.799999237061</ele>
        <time>2021-12-02T10:40:36.000Z</time>
      </trkpt>
      <trkpt lat="47.33591" lon="-2.46776">
        <ele>30.39999961853</ele>
        <time>2021-12-02T10:40:37.000Z</time>
      </trkpt>
      <trkpt lat="47.33594" lon="-2.46774">
        <ele>30.799999237061</ele>
        <time>2021-12-02T10:40:38.000Z</time>
      </trkpt>
      <trkpt lat="47.33596" lon="-2.46771">
        <ele>31.200000762939</ele>
        <time>2021-12-02T10:40:39.000Z</time>
      </trkpt>
      <trkpt lat="47.33602" lon="-2.46764">
        <ele>31.60000038147</ele>
        <time>2021-12-02T10:40:42.000Z</time>
      </trkpt>
      <trkpt lat="47.33605" lon="-2.46761">
        <ele>32</ele>
        <time>2021-12-02T10:40:43.000Z</time>
      </trkpt>
      <trkpt lat="47.33607" lon="-2.46759">
        <ele>32.400001525879</ele>
        <time>2021-12-02T10:40:44.000Z</time>
      </trkpt>
      <trkpt lat="47.3361" lon="-2.46757">
        <ele>32.799999237061</ele>
        <time>2021-12-02T10:40:45.000Z</time>
      </trkpt>
      <trkpt lat="47.33612" lon="-2.46755">
        <ele>33.200000762939</ele>
        <time>2021-12-02T10:40:46.000Z</time>
      </trkpt>
      <trkpt lat="47.33619" lon="-2.4674">
        <ele>33.599998474121</ele>
        <time>2021-12-02T10:40:51.000Z</time>
      </trkpt>
      <trkpt lat="47.33619" lon="-2.46736">
        <ele>34</ele>
        <time>2021-12-02T10:40:52.000Z</time>
      </trkpt>
      <trkpt lat="47.33618" lon="-2.46731">
        <ele>34.599998474121</ele>
        <time>2021-12-02T10:40:53.000Z</time>
      </trkpt>
      <trkpt lat="47.33617" lon="-2.46727">
        <ele>35</ele>
        <time>2021-12-02T10:40:54.000Z</time>
      </trkpt>
      <trkpt lat="47.33616" lon="-2.46723">
        <ele>35.400001525879</ele>
        <time>2021-12-02T10:40:55.000Z</time>
      </trkpt>
      <trkpt lat="47.33615" lon="-2.46719">
        <ele>35.400001525879</ele>
        <time>2021-12-02T10:40:56.000Z</time>
      </trkpt>
      <trkpt lat="47.33614" lon="-2.46715">
        <ele>35.400001525879</ele>
        <time>2021-12-02T10:40:57.000Z</time>
      </trkpt>
      <trkpt lat="47.33603" lon="-2.46686">
        <ele>35.400001525879</ele>
        <time>2021-12-02T10:41:03.000Z</time>
      </trkpt>
      <trkpt lat="47.336" lon="-2.46681">
        <ele>35.400001525879</ele>
        <time>2021-12-02T10:41:04.000Z</time>
      </trkpt>
      <trkpt lat="47.3359" lon="-2.46653">
        <ele>35.400001525879</ele>
        <time>2021-12-02T10:41:09.000Z</time>
      </trkpt>
      <trkpt lat="47.33574" lon="-2.46602">
        <ele>35.400001525879</ele>
        <time>2021-12-02T10:41:18.000Z</time>
      </trkpt>
      <trkpt lat="47.33579" lon="-2.46589">
        <ele>35.400001525879</ele>
        <time>2021-12-02T10:41:21.000Z</time>
      </trkpt>
      <trkpt lat="47.33594" lon="-2.46582">
        <ele>35.400001525879</ele>
        <time>2021-12-02T10:41:25.000Z</time>
      </trkpt>
      <trkpt lat="47.33606" lon="-2.46574">
        <ele>35.400001525879</ele>
        <time>2021-12-02T10:41:30.000Z</time>
      </trkpt>
      <trkpt lat="47.33608" lon="-2.4657">
        <ele>35.400001525879</ele>
        <time>2021-12-02T10:41:33.000Z</time>
      </trkpt>
      <trkpt lat="47.33607" lon="-2.46567">
        <ele>35.400001525879</ele>
        <time>2021-12-02T10:41:44.000Z</time>
      </trkpt>
      <trkpt lat="47.33607" lon="-2.46558">
        <ele>35.799999237061</ele>
        <time>2021-12-02T10:41:47.000Z</time>
      </trkpt>
      <trkpt lat="47.33608" lon="-2.46555">
        <ele>36.200000762939</ele>
        <time>2021-12-02T10:41:48.000Z</time>
      </trkpt>
      <trkpt lat="47.33608" lon="-2.46552">
        <ele>36.599998474121</ele>
        <time>2021-12-02T10:41:49.000Z</time>
      </trkpt>
      <trkpt lat="47.33607" lon="-2.46548">
        <ele>37</ele>
        <time>2021-12-02T10:41:50.000Z</time>
      </trkpt>
      <trkpt lat="47.33606" lon="-2.46546">
        <ele>37.400001525879</ele>
        <time>2021-12-02T10:41:51.000Z</time>
      </trkpt>
      <trkpt lat="47.33605" lon="-2.46543">
        <ele>37.400001525879</ele>
        <time>2021-12-02T10:41:52.000Z</time>
      </trkpt>
      <trkpt lat="47.33603" lon="-2.46541">
        <ele>37.400001525879</ele>
        <time>2021-12-02T10:41:53.000Z</time>
      </trkpt>
      <trkpt lat="47.33581" lon="-2.46515">
        <ele>37.400001525879</ele>
        <time>2021-12-02T10:42:01.000Z</time>
      </trkpt>
      <trkpt lat="47.33564" lon="-2.46487">
        <ele>37.400001525879</ele>
        <time>2021-12-02T10:42:08.000Z</time>
      </trkpt>
      <trkpt lat="47.33556" lon="-2.4647">
        <ele>37.400001525879</ele>
        <time>2021-12-02T10:42:14.000Z</time>
      </trkpt>
      <trkpt lat="47.33555" lon="-2.46469">
        <ele>37.400001525879</ele>
        <time>2021-12-02T10:42:15.000Z</time>
      </trkpt>
      <trkpt lat="47.33554" lon="-2.46466">
        <ele>37.400001525879</ele>
        <time>2021-12-02T10:42:29.000Z</time>
      </trkpt>
      <trkpt lat="47.33553" lon="-2.46464">
        <ele>37.400001525879</ele>
        <time>2021-12-02T10:42:30.000Z</time>
      </trkpt>
      <trkpt lat="47.33547" lon="-2.46445">
        <ele>37.400001525879</ele>
        <time>2021-12-02T10:42:36.000Z</time>
      </trkpt>
      <trkpt lat="47.33546" lon="-2.4644">
        <ele>37.799999237061</ele>
        <time>2021-12-02T10:42:37.000Z</time>
      </trkpt>
      <trkpt lat="47.33545" lon="-2.46435">
        <ele>38.200000762939</ele>
        <time>2021-12-02T10:42:38.000Z</time>
      </trkpt>
      <trkpt lat="47.33544" lon="-2.4643">
        <ele>38.599998474121</ele>
        <time>2021-12-02T10:42:39.000Z</time>
      </trkpt>
      <trkpt lat="47.33542" lon="-2.46425">
        <ele>39</ele>
        <time>2021-12-02T10:42:40.000Z</time>
      </trkpt>
      <trkpt lat="47.33541" lon="-2.4642">
        <ele>39.400001525879</ele>
        <time>2021-12-02T10:42:41.000Z</time>
      </trkpt>
      <trkpt lat="47.33539" lon="-2.46415">
        <ele>39.400001525879</ele>
        <time>2021-12-02T10:42:42.000Z</time>
      </trkpt>
      <trkpt lat="47.33527" lon="-2.46371">
        <ele>39.400001525879</ele>
        <time>2021-12-02T10:42:50.000Z</time>
      </trkpt>
      <trkpt lat="47.33513" lon="-2.46318">
        <ele>39.400001525879</ele>
        <time>2021-12-02T10:42:58.000Z</time>
      </trkpt>
      <trkpt lat="47.33495" lon="-2.46255">
        <ele>39.400001525879</ele>
        <time>2021-12-02T10:43:06.000Z</time>
      </trkpt>
      <trkpt lat="47.33473" lon="-2.46185">
        <ele>39</ele>
        <time>2021-12-02T10:43:14.000Z</time>
      </trkpt>
      <trkpt lat="47.3347" lon="-2.46176">
        <ele>38.599998474121</ele>
        <time>2021-12-02T10:43:15.000Z</time>
      </trkpt>
      <trkpt lat="47.33467" lon="-2.46167">
        <ele>37.799999237061</ele>
        <time>2021-12-02T10:43:16.000Z</time>
      </trkpt>
      <trkpt lat="47.33463" lon="-2.46157">
        <ele>37.400001525879</ele>
        <time>2021-12-02T10:43:17.000Z</time>
      </trkpt>
      <trkpt lat="47.33454" lon="-2.46128">
        <ele>37.400001525879</ele>
        <time>2021-12-02T10:43:20.000Z</time>
      </trkpt>
      <trkpt lat="47.33428" lon="-2.4605">
        <ele>37</ele>
        <time>2021-12-02T10:43:28.000Z</time>
      </trkpt>
      <trkpt lat="47.33424" lon="-2.4604">
        <ele>36.599998474121</ele>
        <time>2021-12-02T10:43:29.000Z</time>
      </trkpt>
      <trkpt lat="47.33421" lon="-2.4603">
        <ele>36</ele>
        <time>2021-12-02T10:43:30.000Z</time>
      </trkpt>
      <trkpt lat="47.33417" lon="-2.46019">
        <ele>35.599998474121</ele>
        <time>2021-12-02T10:43:31.000Z</time>
      </trkpt>
      <trkpt lat="47.33413" lon="-2.46008">
        <ele>35.200000762939</ele>
        <time>2021-12-02T10:43:32.000Z</time>
      </trkpt>
      <trkpt lat="47.33398" lon="-2.45966">
        <ele>35.200000762939</ele>
        <time>2021-12-02T10:43:36.000Z</time>
      </trkpt>
      <trkpt lat="47.33373" lon="-2.45907">
        <ele>35.200000762939</ele>
        <time>2021-12-02T10:43:42.000Z</time>
      </trkpt>
      <trkpt lat="47.33338" lon="-2.45835">
        <ele>35.200000762939</ele>
        <time>2021-12-02T10:43:50.000Z</time>
      </trkpt>
      <trkpt lat="47.33308" lon="-2.45772">
        <ele>35.200000762939</ele>
        <time>2021-12-02T10:43:58.000Z</time>
      </trkpt>
      <trkpt lat="47.33291" lon="-2.45738">
        <ele>35.599998474121</ele>
        <time>2021-12-02T10:44:03.000Z</time>
      </trkpt>
      <trkpt lat="47.33288" lon="-2.45731">
        <ele>36</ele>
        <time>2021-12-02T10:44:04.000Z</time>
      </trkpt>
      <trkpt lat="47.33285" lon="-2.45725">
        <ele>36.400001525879</ele>
        <time>2021-12-02T10:44:05.000Z</time>
      </trkpt>
      <trkpt lat="47.33283" lon="-2.45718">
        <ele>37.200000762939</ele>
        <time>2021-12-02T10:44:06.000Z</time>
      </trkpt>
      <trkpt lat="47.33267" lon="-2.45685">
        <ele>37.599998474121</ele>
        <time>2021-12-02T10:44:11.000Z</time>
      </trkpt>
      <trkpt lat="47.33264" lon="-2.45679">
        <ele>38.200000762939</ele>
        <time>2021-12-02T10:44:12.000Z</time>
      </trkpt>
      <trkpt lat="47.33261" lon="-2.45671">
        <ele>38.599998474121</ele>
        <time>2021-12-02T10:44:13.000Z</time>
      </trkpt>
      <trkpt lat="47.33258" lon="-2.45664">
        <ele>39</ele>
        <time>2021-12-02T10:44:14.000Z</time>
      </trkpt>
      <trkpt lat="47.33255" lon="-2.45657">
        <ele>39.400001525879</ele>
        <time>2021-12-02T10:44:15.000Z</time>
      </trkpt>
      <trkpt lat="47.33239" lon="-2.45623">
        <ele>39.400001525879</ele>
        <time>2021-12-02T10:44:20.000Z</time>
      </trkpt>
      <trkpt lat="47.33212" lon="-2.45567">
        <ele>39.400001525879</ele>
        <time>2021-12-02T10:44:28.000Z</time>
      </trkpt>
      <trkpt lat="47.33203" lon="-2.45547">
        <ele>39.799999237061</ele>
        <time>2021-12-02T10:44:31.000Z</time>
      </trkpt>
      <trkpt lat="47.332" lon="-2.45541">
        <ele>40.200000762939</ele>
        <time>2021-12-02T10:44:32.000Z</time>
      </trkpt>
      <trkpt lat="47.33197" lon="-2.45535">
        <ele>40.599998474121</ele>
        <time>2021-12-02T10:44:33.000Z</time>
      </trkpt>
      <trkpt lat="47.33195" lon="-2.45529">
        <ele>41</ele>
        <time>2021-12-02T10:44:34.000Z</time>
      </trkpt>
      <trkpt lat="47.33192" lon="-2.45523">
        <ele>41.400001525879</ele>
        <time>2021-12-02T10:44:35.000Z</time>
      </trkpt>
      <trkpt lat="47.33172" lon="-2.45477">
        <ele>41.400001525879</ele>
        <time>2021-12-02T10:44:42.000Z</time>
      </trkpt>
      <trkpt lat="47.33144" lon="-2.45413">
        <ele>41.400001525879</ele>
        <time>2021-12-02T10:44:50.000Z</time>
      </trkpt>
      <trkpt lat="47.33117" lon="-2.45353">
        <ele>41</ele>
        <time>2021-12-02T10:44:57.000Z</time>
      </trkpt>
      <trkpt lat="47.33113" lon="-2.45344">
        <ele>40.599998474121</ele>
        <time>2021-12-02T10:44:58.000Z</time>
      </trkpt>
      <trkpt lat="47.33109" lon="-2.45335">
        <ele>40.200000762939</ele>
        <time>2021-12-02T10:44:59.000Z</time>
      </trkpt>
      <trkpt lat="47.33105" lon="-2.45326">
        <ele>39.799999237061</ele>
        <time>2021-12-02T10:45:00.000Z</time>
      </trkpt>
      <trkpt lat="47.33101" lon="-2.45317">
        <ele>39.200000762939</ele>
        <time>2021-12-02T10:45:01.000Z</time>
      </trkpt>
      <trkpt lat="47.33068" lon="-2.45243">
        <ele>39.200000762939</ele>
        <time>2021-12-02T10:45:09.000Z</time>
      </trkpt>
      <trkpt lat="47.33064" lon="-2.45234">
        <ele>39.200000762939</ele>
        <time>2021-12-02T10:45:10.000Z</time>
      </trkpt>
      <trkpt lat="47.33038" lon="-2.45174">
        <ele>39.200000762939</ele>
        <time>2021-12-02T10:45:17.000Z</time>
      </trkpt>
      <trkpt lat="47.33026" lon="-2.45149">
        <ele>39.599998474121</ele>
        <time>2021-12-02T10:45:20.000Z</time>
      </trkpt>
      <trkpt lat="47.33023" lon="-2.45141">
        <ele>40</ele>
        <time>2021-12-02T10:45:21.000Z</time>
      </trkpt>
      <trkpt lat="47.33019" lon="-2.45133">
        <ele>40.400001525879</ele>
        <time>2021-12-02T10:45:22.000Z</time>
      </trkpt>
      <trkpt lat="47.33015" lon="-2.45125">
        <ele>40.799999237061</ele>
        <time>2021-12-02T10:45:23.000Z</time>
      </trkpt>
      <trkpt lat="47.33012" lon="-2.45117">
        <ele>41.400001525879</ele>
        <time>2021-12-02T10:45:24.000Z</time>
      </trkpt>
      <trkpt lat="47.33005" lon="-2.45102">
        <ele>41.400001525879</ele>
        <time>2021-12-02T10:45:26.000Z</time>
      </trkpt>
      <trkpt lat="47.32986" lon="-2.45057">
        <ele>41.799999237061</ele>
        <time>2021-12-02T10:45:32.000Z</time>
      </trkpt>
      <trkpt lat="47.32983" lon="-2.4505">
        <ele>42.200000762939</ele>
        <time>2021-12-02T10:45:33.000Z</time>
      </trkpt>
      <trkpt lat="47.3298" lon="-2.45043">
        <ele>42.599998474121</ele>
        <time>2021-12-02T10:45:34.000Z</time>
      </trkpt>
      <trkpt lat="47.32977" lon="-2.45036">
        <ele>43</ele>
        <time>2021-12-02T10:45:35.000Z</time>
      </trkpt>
      <trkpt lat="47.32974" lon="-2.45029">
        <ele>43.599998474121</ele>
        <time>2021-12-02T10:45:36.000Z</time>
      </trkpt>
      <trkpt lat="47.32957" lon="-2.44992">
        <ele>43.599998474121</ele>
        <time>2021-12-02T10:45:41.000Z</time>
      </trkpt>
      <trkpt lat="47.32946" lon="-2.4497">
        <ele>43.599998474121</ele>
        <time>2021-12-02T10:45:44.000Z</time>
      </trkpt>
      <trkpt lat="47.3294" lon="-2.44954">
        <ele>43.599998474121</ele>
        <time>2021-12-02T10:45:46.000Z</time>
      </trkpt>
      <trkpt lat="47.3291" lon="-2.44886">
        <ele>43.599998474121</ele>
        <time>2021-12-02T10:45:54.000Z</time>
      </trkpt>
      <trkpt lat="47.32906" lon="-2.44877">
        <ele>43.599998474121</ele>
        <time>2021-12-02T10:45:55.000Z</time>
      </trkpt>
      <trkpt lat="47.32879" lon="-2.44809">
        <ele>43.599998474121</ele>
        <time>2021-12-02T10:46:03.000Z</time>
      </trkpt>
      <trkpt lat="47.32875" lon="-2.448">
        <ele>43</ele>
        <time>2021-12-02T10:46:04.000Z</time>
      </trkpt>
      <trkpt lat="47.3287" lon="-2.4479">
        <ele>42.599998474121</ele>
        <time>2021-12-02T10:46:05.000Z</time>
      </trkpt>
      <trkpt lat="47.32866" lon="-2.44781">
        <ele>42.200000762939</ele>
        <time>2021-12-02T10:46:06.000Z</time>
      </trkpt>
      <trkpt lat="47.32862" lon="-2.44772">
        <ele>41.799999237061</ele>
        <time>2021-12-02T10:46:07.000Z</time>
      </trkpt>
      <trkpt lat="47.32857" lon="-2.44763">
        <ele>41.400001525879</ele>
        <time>2021-12-02T10:46:08.000Z</time>
      </trkpt>
      <trkpt lat="47.32848" lon="-2.44744">
        <ele>41.400001525879</ele>
        <time>2021-12-02T10:46:10.000Z</time>
      </trkpt>
      <trkpt lat="47.3282" lon="-2.44681">
        <ele>41.400001525879</ele>
        <time>2021-12-02T10:46:17.000Z</time>
      </trkpt>
      <trkpt lat="47.32799" lon="-2.44619">
        <ele>41.400001525879</ele>
        <time>2021-12-02T10:46:24.000Z</time>
      </trkpt>
      <trkpt lat="47.32785" lon="-2.44549">
        <ele>41.400001525879</ele>
        <time>2021-12-02T10:46:31.000Z</time>
      </trkpt>
      <trkpt lat="47.32774" lon="-2.44486">
        <ele>41.400001525879</ele>
        <time>2021-12-02T10:46:37.000Z</time>
      </trkpt>
      <trkpt lat="47.32764" lon="-2.44439">
        <ele>41.400001525879</ele>
        <time>2021-12-02T10:46:42.000Z</time>
      </trkpt>
      <trkpt lat="47.32762" lon="-2.4443">
        <ele>41.400001525879</ele>
        <time>2021-12-02T10:46:43.000Z</time>
      </trkpt>
      <trkpt lat="47.32759" lon="-2.4442">
        <ele>41.400001525879</ele>
        <time>2021-12-02T10:46:44.000Z</time>
      </trkpt>
      <trkpt lat="47.32759" lon="-2.444">
        <ele>41.400001525879</ele>
        <time>2021-12-02T10:46:46.000Z</time>
      </trkpt>
      <trkpt lat="47.3276" lon="-2.4434">
        <ele>41.400001525879</ele>
        <time>2021-12-02T10:46:52.000Z</time>
      </trkpt>
      <trkpt lat="47.32763" lon="-2.44311">
        <ele>41.400001525879</ele>
        <time>2021-12-02T10:46:55.000Z</time>
      </trkpt>
      <trkpt lat="47.32768" lon="-2.44281">
        <ele>41.400001525879</ele>
        <time>2021-12-02T10:46:58.000Z</time>
      </trkpt>
      <trkpt lat="47.32776" lon="-2.44211">
        <ele>41.400001525879</ele>
        <time>2021-12-02T10:47:05.000Z</time>
      </trkpt>
      <trkpt lat="47.32777" lon="-2.4414">
        <ele>41.400001525879</ele>
        <time>2021-12-02T10:47:12.000Z</time>
      </trkpt>
      <trkpt lat="47.32771" lon="-2.4408">
        <ele>41.400001525879</ele>
        <time>2021-12-02T10:47:18.000Z</time>
      </trkpt>
      <trkpt lat="47.32761" lon="-2.4403">
        <ele>41.400001525879</ele>
        <time>2021-12-02T10:47:23.000Z</time>
      </trkpt>
      <trkpt lat="47.3275" lon="-2.43958">
        <ele>41.400001525879</ele>
        <time>2021-12-02T10:47:30.000Z</time>
      </trkpt>
      <trkpt lat="47.32738" lon="-2.43887">
        <ele>41.400001525879</ele>
        <time>2021-12-02T10:47:37.000Z</time>
      </trkpt>
      <trkpt lat="47.32737" lon="-2.43877">
        <ele>41.400001525879</ele>
        <time>2021-12-02T10:47:38.000Z</time>
      </trkpt>
      <trkpt lat="47.32732" lon="-2.43829">
        <ele>41.400001525879</ele>
        <time>2021-12-02T10:47:43.000Z</time>
      </trkpt>
      <trkpt lat="47.32733" lon="-2.43776">
        <ele>41.400001525879</ele>
        <time>2021-12-02T10:47:49.000Z</time>
      </trkpt>
      <trkpt lat="47.32734" lon="-2.43714">
        <ele>41.400001525879</ele>
        <time>2021-12-02T10:47:56.000Z</time>
      </trkpt>
      <trkpt lat="47.32733" lon="-2.43654">
        <ele>41.400001525879</ele>
        <time>2021-12-02T10:48:03.000Z</time>
      </trkpt>
      <trkpt lat="47.32727" lon="-2.43593">
        <ele>41.400001525879</ele>
        <time>2021-12-02T10:48:10.000Z</time>
      </trkpt>
      <trkpt lat="47.32721" lon="-2.43529">
        <ele>41.400001525879</ele>
        <time>2021-12-02T10:48:17.000Z</time>
      </trkpt>
      <trkpt lat="47.32717" lon="-2.43454">
        <ele>41.400001525879</ele>
        <time>2021-12-02T10:48:25.000Z</time>
      </trkpt>
      <trkpt lat="47.32711" lon="-2.43379">
        <ele>41.400001525879</ele>
        <time>2021-12-02T10:48:33.000Z</time>
      </trkpt>
      <trkpt lat="47.32706" lon="-2.4332">
        <ele>41.400001525879</ele>
        <time>2021-12-02T10:48:40.000Z</time>
      </trkpt>
      <trkpt lat="47.32705" lon="-2.43305">
        <ele>41.400001525879</ele>
        <time>2021-12-02T10:48:42.000Z</time>
      </trkpt>
      <trkpt lat="47.32699" lon="-2.43292">
        <ele>41.400001525879</ele>
        <time>2021-12-02T10:48:44.000Z</time>
      </trkpt>
      <trkpt lat="47.3269" lon="-2.43282">
        <ele>41.400001525879</ele>
        <time>2021-12-02T10:48:46.000Z</time>
      </trkpt>
      <trkpt lat="47.32671" lon="-2.43259">
        <ele>41.400001525879</ele>
        <time>2021-12-02T10:48:50.000Z</time>
      </trkpt>
      <trkpt lat="47.32653" lon="-2.43222">
        <ele>41.400001525879</ele>
        <time>2021-12-02T10:48:55.000Z</time>
      </trkpt>
      <trkpt lat="47.3264" lon="-2.43181">
        <ele>41.799999237061</ele>
        <time>2021-12-02T10:49:00.000Z</time>
      </trkpt>
      <trkpt lat="47.32638" lon="-2.43173">
        <ele>42.799999237061</ele>
        <time>2021-12-02T10:49:01.000Z</time>
      </trkpt>
      <trkpt lat="47.32635" lon="-2.43164">
        <ele>43.200000762939</ele>
        <time>2021-12-02T10:49:02.000Z</time>
      </trkpt>
      <trkpt lat="47.32633" lon="-2.43155">
        <ele>43.599998474121</ele>
        <time>2021-12-02T10:49:03.000Z</time>
      </trkpt>
      <trkpt lat="47.32626" lon="-2.43122">
        <ele>43.599998474121</ele>
        <time>2021-12-02T10:49:07.000Z</time>
      </trkpt>
      <trkpt lat="47.32614" lon="-2.43067">
        <ele>44</ele>
        <time>2021-12-02T10:49:14.000Z</time>
      </trkpt>
      <trkpt lat="47.32613" lon="-2.43059">
        <ele>44.400001525879</ele>
        <time>2021-12-02T10:49:15.000Z</time>
      </trkpt>
      <trkpt lat="47.32612" lon="-2.43051">
        <ele>44.799999237061</ele>
        <time>2021-12-02T10:49:16.000Z</time>
      </trkpt>
      <trkpt lat="47.32611" lon="-2.43044">
        <ele>45.200000762939</ele>
        <time>2021-12-02T10:49:17.000Z</time>
      </trkpt>
      <trkpt lat="47.3261" lon="-2.43036">
        <ele>45.599998474121</ele>
        <time>2021-12-02T10:49:18.000Z</time>
      </trkpt>
      <trkpt lat="47.32609" lon="-2.43021">
        <ele>45.599998474121</ele>
        <time>2021-12-02T10:49:20.000Z</time>
      </trkpt>
      <trkpt lat="47.32608" lon="-2.42983">
        <ele>45.599998474121</ele>
        <time>2021-12-02T10:49:25.000Z</time>
      </trkpt>
      <trkpt lat="47.32614" lon="-2.42945">
        <ele>45.599998474121</ele>
        <time>2021-12-02T10:49:30.000Z</time>
      </trkpt>
      <trkpt lat="47.32621" lon="-2.42923">
        <ele>45.599998474121</ele>
        <time>2021-12-02T10:49:33.000Z</time>
      </trkpt>
      <trkpt lat="47.32625" lon="-2.4291">
        <ele>45.599998474121</ele>
        <time>2021-12-02T10:49:35.000Z</time>
      </trkpt>
      <trkpt lat="47.32628" lon="-2.42894">
        <ele>45.599998474121</ele>
        <time>2021-12-02T10:49:37.000Z</time>
      </trkpt>
      <trkpt lat="47.32634" lon="-2.42863">
        <ele>45.599998474121</ele>
        <time>2021-12-02T10:49:41.000Z</time>
      </trkpt>
      <trkpt lat="47.3265" lon="-2.42803">
        <ele>45.599998474121</ele>
        <time>2021-12-02T10:49:49.000Z</time>
      </trkpt>
      <trkpt lat="47.32673" lon="-2.42747">
        <ele>45.599998474121</ele>
        <time>2021-12-02T10:49:57.000Z</time>
      </trkpt>
      <trkpt lat="47.32706" lon="-2.42698">
        <ele>45.599998474121</ele>
        <time>2021-12-02T10:50:05.000Z</time>
      </trkpt>
      <trkpt lat="47.32736" lon="-2.42667">
        <ele>45.599998474121</ele>
        <time>2021-12-02T10:50:11.000Z</time>
      </trkpt>
      <trkpt lat="47.3274" lon="-2.42661">
        <ele>45.599998474121</ele>
        <time>2021-12-02T10:50:12.000Z</time>
      </trkpt>
      <trkpt lat="47.32755" lon="-2.42648">
        <ele>45.599998474121</ele>
        <time>2021-12-02T10:50:15.000Z</time>
      </trkpt>
      <trkpt lat="47.32759" lon="-2.42644">
        <ele>45.599998474121</ele>
        <time>2021-12-02T10:50:16.000Z</time>
      </trkpt>
      <trkpt lat="47.3278" lon="-2.42628">
        <ele>45.599998474121</ele>
        <time>2021-12-02T10:50:21.000Z</time>
      </trkpt>
      <trkpt lat="47.32789" lon="-2.42617">
        <ele>45.599998474121</ele>
        <time>2021-12-02T10:50:24.000Z</time>
      </trkpt>
      <trkpt lat="47.32789" lon="-2.42612">
        <ele>45.599998474121</ele>
        <time>2021-12-02T10:50:25.000Z</time>
      </trkpt>
      <trkpt lat="47.32783" lon="-2.42586">
        <ele>45.599998474121</ele>
        <time>2021-12-02T10:50:29.000Z</time>
      </trkpt>
      <trkpt lat="47.32772" lon="-2.4254">
        <ele>45.599998474121</ele>
        <time>2021-12-02T10:50:35.000Z</time>
      </trkpt>
      <trkpt lat="47.32753" lon="-2.42479">
        <ele>45.599998474121</ele>
        <time>2021-12-02T10:50:43.000Z</time>
      </trkpt>
      <trkpt lat="47.32735" lon="-2.42421">
        <ele>45.599998474121</ele>
        <time>2021-12-02T10:50:51.000Z</time>
      </trkpt>
      <trkpt lat="47.32719" lon="-2.42372">
        <ele>45.599998474121</ele>
        <time>2021-12-02T10:50:58.000Z</time>
      </trkpt>
      <trkpt lat="47.32702" lon="-2.4231">
        <ele>45.599998474121</ele>
        <time>2021-12-02T10:51:06.000Z</time>
      </trkpt>
      <trkpt lat="47.32696" lon="-2.42295">
        <ele>45.599998474121</ele>
        <time>2021-12-02T10:51:08.000Z</time>
      </trkpt>
      <trkpt lat="47.32686" lon="-2.42277">
        <ele>45.599998474121</ele>
        <time>2021-12-02T10:51:11.000Z</time>
      </trkpt>
      <trkpt lat="47.32684" lon="-2.42271">
        <ele>45.599998474121</ele>
        <time>2021-12-02T10:51:12.000Z</time>
      </trkpt>
      <trkpt lat="47.32686" lon="-2.42257">
        <ele>45.599998474121</ele>
        <time>2021-12-02T10:51:14.000Z</time>
      </trkpt>
      <trkpt lat="47.327" lon="-2.42246">
        <ele>45.599998474121</ele>
        <time>2021-12-02T10:51:17.000Z</time>
      </trkpt>
      <trkpt lat="47.32712" lon="-2.42243">
        <ele>45.599998474121</ele>
        <time>2021-12-02T10:51:19.000Z</time>
      </trkpt>
      <trkpt lat="47.3273" lon="-2.42236">
        <ele>45.599998474121</ele>
        <time>2021-12-02T10:51:22.000Z</time>
      </trkpt>
      <trkpt lat="47.32752" lon="-2.42227">
        <ele>45.599998474121</ele>
        <time>2021-12-02T10:51:26.000Z</time>
      </trkpt>
      <trkpt lat="47.32767" lon="-2.42215">
        <ele>45.599998474121</ele>
        <time>2021-12-02T10:51:29.000Z</time>
      </trkpt>
      <trkpt lat="47.32798" lon="-2.42185">
        <ele>45.200000762939</ele>
        <time>2021-12-02T10:51:35.000Z</time>
      </trkpt>
      <trkpt lat="47.32803" lon="-2.4218">
        <ele>44.799999237061</ele>
        <time>2021-12-02T10:51:36.000Z</time>
      </trkpt>
      <trkpt lat="47.32809" lon="-2.42174">
        <ele>44.400001525879</ele>
        <time>2021-12-02T10:51:37.000Z</time>
      </trkpt>
      <trkpt lat="47.32814" lon="-2.42168">
        <ele>44</ele>
        <time>2021-12-02T10:51:38.000Z</time>
      </trkpt>
      <trkpt lat="47.3282" lon="-2.42162">
        <ele>43.599998474121</ele>
        <time>2021-12-02T10:51:39.000Z</time>
      </trkpt>
      <trkpt lat="47.32825" lon="-2.42157">
        <ele>43.599998474121</ele>
        <time>2021-12-02T10:51:40.000Z</time>
      </trkpt>
      <trkpt lat="47.32831" lon="-2.42154">
        <ele>43.599998474121</ele>
        <time>2021-12-02T10:51:41.000Z</time>
      </trkpt>
      <trkpt lat="47.3285" lon="-2.42142">
        <ele>43.599998474121</ele>
        <time>2021-12-02T10:51:45.000Z</time>
      </trkpt>
      <trkpt lat="47.32854" lon="-2.42139">
        <ele>43.599998474121</ele>
        <time>2021-12-02T10:51:46.000Z</time>
      </trkpt>
      <trkpt lat="47.32869" lon="-2.42129">
        <ele>43.200000762939</ele>
        <time>2021-12-02T10:51:51.000Z</time>
      </trkpt>
      <trkpt lat="47.3287" lon="-2.42126">
        <ele>42.599998474121</ele>
        <time>2021-12-02T10:51:52.000Z</time>
      </trkpt>
      <trkpt lat="47.3287" lon="-2.42123">
        <ele>42.200000762939</ele>
        <time>2021-12-02T10:51:53.000Z</time>
      </trkpt>
      <trkpt lat="47.32868" lon="-2.42119">
        <ele>41.400001525879</ele>
        <time>2021-12-02T10:51:54.000Z</time>
      </trkpt>
      <trkpt lat="47.32866" lon="-2.42108">
        <ele>41.400001525879</ele>
        <time>2021-12-02T10:51:56.000Z</time>
      </trkpt>
      <trkpt lat="47.32864" lon="-2.42102">
        <ele>41.400001525879</ele>
        <time>2021-12-02T10:51:57.000Z</time>
      </trkpt>
      <trkpt lat="47.32862" lon="-2.42096">
        <ele>41.400001525879</ele>
        <time>2021-12-02T10:51:58.000Z</time>
      </trkpt>
      <trkpt lat="47.32859" lon="-2.4209">
        <ele>41.400001525879</ele>
        <time>2021-12-02T10:51:59.000Z</time>
      </trkpt>
      <trkpt lat="47.32849" lon="-2.42068">
        <ele>41.400001525879</ele>
        <time>2021-12-02T10:52:02.000Z</time>
      </trkpt>
      <trkpt lat="47.32829" lon="-2.42018">
        <ele>41.400001525879</ele>
        <time>2021-12-02T10:52:09.000Z</time>
      </trkpt>
      <trkpt lat="47.32825" lon="-2.42005">
        <ele>41.400001525879</ele>
        <time>2021-12-02T10:52:11.000Z</time>
      </trkpt>
      <trkpt lat="47.32817" lon="-2.42">
        <ele>41.400001525879</ele>
        <time>2021-12-02T10:52:13.000Z</time>
      </trkpt>
      <trkpt lat="47.32806" lon="-2.41993">
        <ele>41.400001525879</ele>
        <time>2021-12-02T10:52:17.000Z</time>
      </trkpt>
      <trkpt lat="47.32804" lon="-2.41988">
        <ele>41.400001525879</ele>
        <time>2021-12-02T10:52:20.000Z</time>
      </trkpt>
      <trkpt lat="47.32803" lon="-2.41986">
        <ele>41.400001525879</ele>
        <time>2021-12-02T10:52:22.000Z</time>
      </trkpt>
      <trkpt lat="47.328" lon="-2.41982">
        <ele>41.400001525879</ele>
        <time>2021-12-02T10:52:26.000Z</time>
      </trkpt>
      <trkpt lat="47.32795" lon="-2.41981">
        <ele>41.400001525879</ele>
        <time>2021-12-02T10:52:29.000Z</time>
      </trkpt>
      <trkpt lat="47.32787" lon="-2.41974">
        <ele>41.400001525879</ele>
        <time>2021-12-02T10:52:34.000Z</time>
      </trkpt>
      <trkpt lat="47.32786" lon="-2.41963">
        <ele>41.400001525879</ele>
        <time>2021-12-02T10:52:38.000Z</time>
      </trkpt>
      <trkpt lat="47.32791" lon="-2.41948">
        <ele>41.400001525879</ele>
        <time>2021-12-02T10:52:44.000Z</time>
      </trkpt>
      <trkpt lat="47.32794" lon="-2.41941">
        <ele>41.400001525879</ele>
        <time>2021-12-02T10:52:47.000Z</time>
      </trkpt>
      <trkpt lat="47.32792" lon="-2.41935">
        <ele>41.400001525879</ele>
        <time>2021-12-02T10:52:49.000Z</time>
      </trkpt>
      <trkpt lat="47.32788" lon="-2.41926">
        <ele>41.400001525879</ele>
        <time>2021-12-02T10:52:51.000Z</time>
      </trkpt>
      <trkpt lat="47.32786" lon="-2.41921">
        <ele>41.400001525879</ele>
        <time>2021-12-02T10:52:52.000Z</time>
      </trkpt>
      <trkpt lat="47.32783" lon="-2.41915">
        <ele>41.400001525879</ele>
        <time>2021-12-02T10:52:53.000Z</time>
      </trkpt>
      <trkpt lat="47.32765" lon="-2.41871">
        <ele>41.400001525879</ele>
        <time>2021-12-02T10:53:00.000Z</time>
      </trkpt>
      <trkpt lat="47.32749" lon="-2.4183">
        <ele>41.400001525879</ele>
        <time>2021-12-02T10:53:07.000Z</time>
      </trkpt>
      <trkpt lat="47.32746" lon="-2.41824">
        <ele>41.799999237061</ele>
        <time>2021-12-02T10:53:08.000Z</time>
      </trkpt>
      <trkpt lat="47.32743" lon="-2.41818">
        <ele>42.599998474121</ele>
        <time>2021-12-02T10:53:09.000Z</time>
      </trkpt>
      <trkpt lat="47.3274" lon="-2.41813">
        <ele>43</ele>
        <time>2021-12-02T10:53:10.000Z</time>
      </trkpt>
      <trkpt lat="47.32737" lon="-2.41807">
        <ele>43.400001525879</ele>
        <time>2021-12-02T10:53:11.000Z</time>
      </trkpt>
      <trkpt lat="47.32729" lon="-2.41792">
        <ele>43.400001525879</ele>
        <time>2021-12-02T10:53:14.000Z</time>
      </trkpt>
      <trkpt lat="47.32723" lon="-2.41782">
        <ele>43.400001525879</ele>
        <time>2021-12-02T10:53:16.000Z</time>
      </trkpt>
      <trkpt lat="47.32714" lon="-2.41769">
        <ele>43.400001525879</ele>
        <time>2021-12-02T10:53:19.000Z</time>
      </trkpt>
      <trkpt lat="47.3271" lon="-2.41765">
        <ele>43.400001525879</ele>
        <time>2021-12-02T10:53:20.000Z</time>
      </trkpt>
      <trkpt lat="47.32707" lon="-2.41759">
        <ele>43.400001525879</ele>
        <time>2021-12-02T10:53:21.000Z</time>
      </trkpt>
      <trkpt lat="47.32707" lon="-2.41747">
        <ele>43.400001525879</ele>
        <time>2021-12-02T10:53:23.000Z</time>
      </trkpt>
      <trkpt lat="47.32709" lon="-2.41733">
        <ele>43.400001525879</ele>
        <time>2021-12-02T10:53:25.000Z</time>
      </trkpt>
      <trkpt lat="47.3271" lon="-2.41718">
        <ele>43.400001525879</ele>
        <time>2021-12-02T10:53:27.000Z</time>
      </trkpt>
      <trkpt lat="47.32711" lon="-2.41704">
        <ele>43.400001525879</ele>
        <time>2021-12-02T10:53:29.000Z</time>
      </trkpt>
      <trkpt lat="47.32717" lon="-2.41636">
        <ele>43.400001525879</ele>
        <time>2021-12-02T10:53:38.000Z</time>
      </trkpt>
      <trkpt lat="47.32717" lon="-2.41629">
        <ele>43.400001525879</ele>
        <time>2021-12-02T10:53:39.000Z</time>
      </trkpt>
      <trkpt lat="47.32712" lon="-2.41613">
        <ele>43.799999237061</ele>
        <time>2021-12-02T10:53:42.000Z</time>
      </trkpt>
      <trkpt lat="47.3271" lon="-2.41608">
        <ele>44.400001525879</ele>
        <time>2021-12-02T10:53:43.000Z</time>
      </trkpt>
      <trkpt lat="47.32708" lon="-2.41604">
        <ele>44.799999237061</ele>
        <time>2021-12-02T10:53:44.000Z</time>
      </trkpt>
      <trkpt lat="47.32707" lon="-2.41599">
        <ele>45.200000762939</ele>
        <time>2021-12-02T10:53:45.000Z</time>
      </trkpt>
      <trkpt lat="47.32705" lon="-2.41595">
        <ele>45.599998474121</ele>
        <time>2021-12-02T10:53:46.000Z</time>
      </trkpt>
      <trkpt lat="47.32704" lon="-2.41586">
        <ele>45.599998474121</ele>
        <time>2021-12-02T10:53:48.000Z</time>
      </trkpt>
      <trkpt lat="47.32703" lon="-2.41577">
        <ele>45.599998474121</ele>
        <time>2021-12-02T10:53:51.000Z</time>
      </trkpt>
      <trkpt lat="47.32702" lon="-2.41575">
        <ele>45.599998474121</ele>
        <time>2021-12-02T10:53:52.000Z</time>
      </trkpt>
      <trkpt lat="47.327" lon="-2.41565">
        <ele>45.599998474121</ele>
        <time>2021-12-02T10:53:55.000Z</time>
      </trkpt>
      <trkpt lat="47.327" lon="-2.41543">
        <ele>45.599998474121</ele>
        <time>2021-12-02T10:53:59.000Z</time>
      </trkpt>
      <trkpt lat="47.3269" lon="-2.41534">
        <ele>45.599998474121</ele>
        <time>2021-12-02T10:54:02.000Z</time>
      </trkpt>
      <trkpt lat="47.32681" lon="-2.41533">
        <ele>45.599998474121</ele>
        <time>2021-12-02T10:54:04.000Z</time>
      </trkpt>
      <trkpt lat="47.32667" lon="-2.4153">
        <ele>46</ele>
        <time>2021-12-02T10:54:07.000Z</time>
      </trkpt>
      <trkpt lat="47.32663" lon="-2.41529">
        <ele>46.400001525879</ele>
        <time>2021-12-02T10:54:08.000Z</time>
      </trkpt>
      <trkpt lat="47.32658" lon="-2.41528">
        <ele>46.799999237061</ele>
        <time>2021-12-02T10:54:09.000Z</time>
      </trkpt>
      <trkpt lat="47.32653" lon="-2.41527">
        <ele>47.200000762939</ele>
        <time>2021-12-02T10:54:10.000Z</time>
      </trkpt>
      <trkpt lat="47.32648" lon="-2.41526">
        <ele>47.599998474121</ele>
        <time>2021-12-02T10:54:11.000Z</time>
      </trkpt>
      <trkpt lat="47.32612" lon="-2.41519">
        <ele>47.599998474121</ele>
        <time>2021-12-02T10:54:18.000Z</time>
      </trkpt>
      <trkpt lat="47.32603" lon="-2.41517">
        <ele>47.599998474121</ele>
        <time>2021-12-02T10:54:20.000Z</time>
      </trkpt>
      <trkpt lat="47.32593" lon="-2.41515">
        <ele>48</ele>
        <time>2021-12-02T10:54:22.000Z</time>
      </trkpt>
      <trkpt lat="47.32588" lon="-2.41514">
        <ele>48.799999237061</ele>
        <time>2021-12-02T10:54:23.000Z</time>
      </trkpt>
      <trkpt lat="47.32583" lon="-2.41513">
        <ele>49.200000762939</ele>
        <time>2021-12-02T10:54:24.000Z</time>
      </trkpt>
      <trkpt lat="47.32579" lon="-2.41511">
        <ele>49.599998474121</ele>
        <time>2021-12-02T10:54:25.000Z</time>
      </trkpt>
      <trkpt lat="47.32573" lon="-2.41502">
        <ele>49.599998474121</ele>
        <time>2021-12-02T10:54:27.000Z</time>
      </trkpt>
      <trkpt lat="47.32571" lon="-2.41482">
        <ele>49.599998474121</ele>
        <time>2021-12-02T10:54:30.000Z</time>
      </trkpt>
      <trkpt lat="47.3257" lon="-2.41476">
        <ele>49.599998474121</ele>
        <time>2021-12-02T10:54:31.000Z</time>
      </trkpt>
      <trkpt lat="47.32566" lon="-2.41457">
        <ele>49.599998474121</ele>
        <time>2021-12-02T10:54:34.000Z</time>
      </trkpt>
      <trkpt lat="47.3256" lon="-2.41448">
        <ele>49.599998474121</ele>
        <time>2021-12-02T10:54:36.000Z</time>
      </trkpt>
      <trkpt lat="47.32552" lon="-2.4143">
        <ele>49.599998474121</ele>
        <time>2021-12-02T10:54:39.000Z</time>
      </trkpt>
      <trkpt lat="47.32549" lon="-2.41423">
        <ele>49.599998474121</ele>
        <time>2021-12-02T10:54:40.000Z</time>
      </trkpt>
      <trkpt lat="47.32523" lon="-2.41373">
        <ele>49.599998474121</ele>
        <time>2021-12-02T10:54:48.000Z</time>
      </trkpt>
      <trkpt lat="47.32495" lon="-2.41319">
        <ele>50</ele>
        <time>2021-12-02T10:54:56.000Z</time>
      </trkpt>
      <trkpt lat="47.32492" lon="-2.41313">
        <ele>50.599998474121</ele>
        <time>2021-12-02T10:54:57.000Z</time>
      </trkpt>
      <trkpt lat="47.32488" lon="-2.41306">
        <ele>51</ele>
        <time>2021-12-02T10:54:58.000Z</time>
      </trkpt>
      <trkpt lat="47.32484" lon="-2.41299">
        <ele>51.400001525879</ele>
        <time>2021-12-02T10:54:59.000Z</time>
      </trkpt>
      <trkpt lat="47.32481" lon="-2.41293">
        <ele>51.799999237061</ele>
        <time>2021-12-02T10:55:00.000Z</time>
      </trkpt>
      <trkpt lat="47.32467" lon="-2.41264">
        <ele>51.799999237061</ele>
        <time>2021-12-02T10:55:04.000Z</time>
      </trkpt>
      <trkpt lat="47.32436" lon="-2.41203">
        <ele>51.799999237061</ele>
        <time>2021-12-02T10:55:13.000Z</time>
      </trkpt>
      <trkpt lat="47.32423" lon="-2.41181">
        <ele>51.799999237061</ele>
        <time>2021-12-02T10:55:18.000Z</time>
      </trkpt>
      <trkpt lat="47.3241" lon="-2.41158">
        <ele>51.799999237061</ele>
        <time>2021-12-02T10:55:23.000Z</time>
      </trkpt>
      <trkpt lat="47.32407" lon="-2.41152">
        <ele>51.799999237061</ele>
        <time>2021-12-02T10:55:24.000Z</time>
      </trkpt>
      <trkpt lat="47.32396" lon="-2.41127">
        <ele>51.799999237061</ele>
        <time>2021-12-02T10:55:28.000Z</time>
      </trkpt>
      <trkpt lat="47.32375" lon="-2.41089">
        <ele>51.799999237061</ele>
        <time>2021-12-02T10:55:34.000Z</time>
      </trkpt>
      <trkpt lat="47.32372" lon="-2.41082">
        <ele>51.799999237061</ele>
        <time>2021-12-02T10:55:35.000Z</time>
      </trkpt>
      <trkpt lat="47.32361" lon="-2.41063">
        <ele>51.799999237061</ele>
        <time>2021-12-02T10:55:38.000Z</time>
      </trkpt>
      <trkpt lat="47.32357" lon="-2.41057">
        <ele>51.799999237061</ele>
        <time>2021-12-02T10:55:39.000Z</time>
      </trkpt>
      <trkpt lat="47.32334" lon="-2.41014">
        <ele>51.799999237061</ele>
        <time>2021-12-02T10:55:45.000Z</time>
      </trkpt>
      <trkpt lat="47.32298" lon="-2.40945">
        <ele>51.799999237061</ele>
        <time>2021-12-02T10:55:54.000Z</time>
      </trkpt>
      <trkpt lat="47.3229" lon="-2.4093">
        <ele>51.799999237061</ele>
        <time>2021-12-02T10:55:56.000Z</time>
      </trkpt>
      <trkpt lat="47.32266" lon="-2.40887">
        <ele>51.799999237061</ele>
        <time>2021-12-02T10:56:02.000Z</time>
      </trkpt>
      <trkpt lat="47.32251" lon="-2.40859">
        <ele>51.799999237061</ele>
        <time>2021-12-02T10:56:06.000Z</time>
      </trkpt>
      <trkpt lat="47.32243" lon="-2.40845">
        <ele>51.400001525879</ele>
        <time>2021-12-02T10:56:08.000Z</time>
      </trkpt>
      <trkpt lat="47.3224" lon="-2.40839">
        <ele>51</ele>
        <time>2021-12-02T10:56:09.000Z</time>
      </trkpt>
      <trkpt lat="47.32236" lon="-2.40834">
        <ele>50.599998474121</ele>
        <time>2021-12-02T10:56:10.000Z</time>
      </trkpt>
      <trkpt lat="47.32233" lon="-2.40829">
        <ele>50.200000762939</ele>
        <time>2021-12-02T10:56:11.000Z</time>
      </trkpt>
      <trkpt lat="47.3223" lon="-2.40825">
        <ele>49.799999237061</ele>
        <time>2021-12-02T10:56:12.000Z</time>
      </trkpt>
      <trkpt lat="47.32218" lon="-2.4081">
        <ele>49.799999237061</ele>
        <time>2021-12-02T10:56:17.000Z</time>
      </trkpt>
      <trkpt lat="47.32207" lon="-2.40794">
        <ele>49.799999237061</ele>
        <time>2021-12-02T10:56:22.000Z</time>
      </trkpt>
      <trkpt lat="47.32196" lon="-2.40781">
        <ele>49.799999237061</ele>
        <time>2021-12-02T10:56:26.000Z</time>
      </trkpt>
      <trkpt lat="47.32193" lon="-2.40776">
        <ele>49.799999237061</ele>
        <time>2021-12-02T10:56:27.000Z</time>
      </trkpt>
      <trkpt lat="47.32179" lon="-2.40755">
        <ele>49.799999237061</ele>
        <time>2021-12-02T10:56:31.000Z</time>
      </trkpt>
      <trkpt lat="47.32144" lon="-2.40711">
        <ele>49.799999237061</ele>
        <time>2021-12-02T10:56:39.000Z</time>
      </trkpt>
      <trkpt lat="47.32115" lon="-2.40678">
        <ele>49.799999237061</ele>
        <time>2021-12-02T10:56:45.000Z</time>
      </trkpt>
      <trkpt lat="47.32082" lon="-2.40643">
        <ele>49.799999237061</ele>
        <time>2021-12-02T10:56:52.000Z</time>
      </trkpt>
      <trkpt lat="47.32052" lon="-2.40615">
        <ele>49.400001525879</ele>
        <time>2021-12-02T10:56:59.000Z</time>
      </trkpt>
      <trkpt lat="47.32047" lon="-2.40611">
        <ele>49</ele>
        <time>2021-12-02T10:57:00.000Z</time>
      </trkpt>
      <trkpt lat="47.32043" lon="-2.40607">
        <ele>48.599998474121</ele>
        <time>2021-12-02T10:57:01.000Z</time>
      </trkpt>
      <trkpt lat="47.32038" lon="-2.40603">
        <ele>48.200000762939</ele>
        <time>2021-12-02T10:57:02.000Z</time>
      </trkpt>
      <trkpt lat="47.32032" lon="-2.40599">
        <ele>47.799999237061</ele>
        <time>2021-12-02T10:57:03.000Z</time>
      </trkpt>
      <trkpt lat="47.32021" lon="-2.40589">
        <ele>47.799999237061</ele>
        <time>2021-12-02T10:57:05.000Z</time>
      </trkpt>
      <trkpt lat="47.3198" lon="-2.40555">
        <ele>47.799999237061</ele>
        <time>2021-12-02T10:57:12.000Z</time>
      </trkpt>
      <trkpt lat="47.31941" lon="-2.40526">
        <ele>47.400001525879</ele>
        <time>2021-12-02T10:57:19.000Z</time>
      </trkpt>
      <trkpt lat="47.31935" lon="-2.40522">
        <ele>47</ele>
        <time>2021-12-02T10:57:20.000Z</time>
      </trkpt>
      <trkpt lat="47.31929" lon="-2.40518">
        <ele>46.599998474121</ele>
        <time>2021-12-02T10:57:21.000Z</time>
      </trkpt>
      <trkpt lat="47.31923" lon="-2.40514">
        <ele>46.200000762939</ele>
        <time>2021-12-02T10:57:22.000Z</time>
      </trkpt>
      <trkpt lat="47.31917" lon="-2.4051">
        <ele>45.799999237061</ele>
        <time>2021-12-02T10:57:23.000Z</time>
      </trkpt>
      <trkpt lat="47.31905" lon="-2.40502">
        <ele>45.799999237061</ele>
        <time>2021-12-02T10:57:25.000Z</time>
      </trkpt>
      <trkpt lat="47.3187" lon="-2.40478">
        <ele>45.799999237061</ele>
        <time>2021-12-02T10:57:32.000Z</time>
      </trkpt>
      <trkpt lat="47.31835" lon="-2.4045">
        <ele>45.799999237061</ele>
        <time>2021-12-02T10:57:38.000Z</time>
      </trkpt>
      <trkpt lat="47.31805" lon="-2.40428">
        <ele>44.799999237061</ele>
        <time>2021-12-02T10:57:42.000Z</time>
      </trkpt>
      <trkpt lat="47.31797" lon="-2.40423">
        <ele>44.400001525879</ele>
        <time>2021-12-02T10:57:43.000Z</time>
      </trkpt>
      <trkpt lat="47.3179" lon="-2.40417">
        <ele>44</ele>
        <time>2021-12-02T10:57:44.000Z</time>
      </trkpt>
      <trkpt lat="47.31783" lon="-2.40412">
        <ele>43.599998474121</ele>
        <time>2021-12-02T10:57:45.000Z</time>
      </trkpt>
      <trkpt lat="47.3173" lon="-2.40372">
        <ele>43.599998474121</ele>
        <time>2021-12-02T10:57:53.000Z</time>
      </trkpt>
      <trkpt lat="47.31724" lon="-2.40367">
        <ele>43.200000762939</ele>
        <time>2021-12-02T10:57:54.000Z</time>
      </trkpt>
      <trkpt lat="47.31718" lon="-2.40361">
        <ele>42.799999237061</ele>
        <time>2021-12-02T10:57:55.000Z</time>
      </trkpt>
      <trkpt lat="47.31712" lon="-2.40357">
        <ele>42.400001525879</ele>
        <time>2021-12-02T10:57:56.000Z</time>
      </trkpt>
      <trkpt lat="47.31705" lon="-2.40353">
        <ele>42</ele>
        <time>2021-12-02T10:57:57.000Z</time>
      </trkpt>
      <trkpt lat="47.31699" lon="-2.40347">
        <ele>41.599998474121</ele>
        <time>2021-12-02T10:57:58.000Z</time>
      </trkpt>
      <trkpt lat="47.31687" lon="-2.40338">
        <ele>41.599998474121</ele>
        <time>2021-12-02T10:58:00.000Z</time>
      </trkpt>
      <trkpt lat="47.31679" lon="-2.4033">
        <ele>41.599998474121</ele>
        <time>2021-12-02T10:58:02.000Z</time>
      </trkpt>
      <trkpt lat="47.31658" lon="-2.40309">
        <ele>41.599998474121</ele>
        <time>2021-12-02T10:58:07.000Z</time>
      </trkpt>
      <trkpt lat="47.31632" lon="-2.40289">
        <ele>41.200000762939</ele>
        <time>2021-12-02T10:58:12.000Z</time>
      </trkpt>
      <trkpt lat="47.31626" lon="-2.40284">
        <ele>40.799999237061</ele>
        <time>2021-12-02T10:58:13.000Z</time>
      </trkpt>
      <trkpt lat="47.31621" lon="-2.4028">
        <ele>40.200000762939</ele>
        <time>2021-12-02T10:58:14.000Z</time>
      </trkpt>
      <trkpt lat="47.31615" lon="-2.40275">
        <ele>39.799999237061</ele>
        <time>2021-12-02T10:58:15.000Z</time>
      </trkpt>
      <trkpt lat="47.3161" lon="-2.40272">
        <ele>39.400001525879</ele>
        <time>2021-12-02T10:58:16.000Z</time>
      </trkpt>
      <trkpt lat="47.31599" lon="-2.40264">
        <ele>39.400001525879</ele>
        <time>2021-12-02T10:58:18.000Z</time>
      </trkpt>
      <trkpt lat="47.31563" lon="-2.40236">
        <ele>39.400001525879</ele>
        <time>2021-12-02T10:58:25.000Z</time>
      </trkpt>
      <trkpt lat="47.31542" lon="-2.40221">
        <ele>39.400001525879</ele>
        <time>2021-12-02T10:58:30.000Z</time>
      </trkpt>
      <trkpt lat="47.31529" lon="-2.40211">
        <ele>39</ele>
        <time>2021-12-02T10:58:33.000Z</time>
      </trkpt>
      <trkpt lat="47.31524" lon="-2.40207">
        <ele>38.599998474121</ele>
        <time>2021-12-02T10:58:34.000Z</time>
      </trkpt>
      <trkpt lat="47.31518" lon="-2.40204">
        <ele>38.200000762939</ele>
        <time>2021-12-02T10:58:35.000Z</time>
      </trkpt>
      <trkpt lat="47.31513" lon="-2.402">
        <ele>37.799999237061</ele>
        <time>2021-12-02T10:58:36.000Z</time>
      </trkpt>
      <trkpt lat="47.31508" lon="-2.40196">
        <ele>37.400001525879</ele>
        <time>2021-12-02T10:58:37.000Z</time>
      </trkpt>
      <trkpt lat="47.31478" lon="-2.40175">
        <ele>37.400001525879</ele>
        <time>2021-12-02T10:58:42.000Z</time>
      </trkpt>
      <trkpt lat="47.31431" lon="-2.4014">
        <ele>36.799999237061</ele>
        <time>2021-12-02T10:58:50.000Z</time>
      </trkpt>
      <trkpt lat="47.31425" lon="-2.40136">
        <ele>36.400001525879</ele>
        <time>2021-12-02T10:58:51.000Z</time>
      </trkpt>
      <trkpt lat="47.31419" lon="-2.40132">
        <ele>36</ele>
        <time>2021-12-02T10:58:52.000Z</time>
      </trkpt>
      <trkpt lat="47.31414" lon="-2.40128">
        <ele>35.599998474121</ele>
        <time>2021-12-02T10:58:53.000Z</time>
      </trkpt>
      <trkpt lat="47.31409" lon="-2.40125">
        <ele>35.200000762939</ele>
        <time>2021-12-02T10:58:54.000Z</time>
      </trkpt>
      <trkpt lat="47.31392" lon="-2.40115">
        <ele>35.200000762939</ele>
        <time>2021-12-02T10:58:57.000Z</time>
      </trkpt>
      <trkpt lat="47.31359" lon="-2.40098">
        <ele>35.200000762939</ele>
        <time>2021-12-02T10:59:04.000Z</time>
      </trkpt>
      <trkpt lat="47.31335" lon="-2.40089">
        <ele>34.799999237061</ele>
        <time>2021-12-02T10:59:09.000Z</time>
      </trkpt>
      <trkpt lat="47.3133" lon="-2.40086">
        <ele>34.400001525879</ele>
        <time>2021-12-02T10:59:10.000Z</time>
      </trkpt>
      <trkpt lat="47.31326" lon="-2.40084">
        <ele>34</ele>
        <time>2021-12-02T10:59:11.000Z</time>
      </trkpt>
      <trkpt lat="47.31322" lon="-2.40083">
        <ele>33.599998474121</ele>
        <time>2021-12-02T10:59:12.000Z</time>
      </trkpt>
      <trkpt lat="47.31317" lon="-2.40081">
        <ele>33.200000762939</ele>
        <time>2021-12-02T10:59:13.000Z</time>
      </trkpt>
      <trkpt lat="47.31296" lon="-2.40075">
        <ele>33.200000762939</ele>
        <time>2021-12-02T10:59:18.000Z</time>
      </trkpt>
      <trkpt lat="47.31266" lon="-2.40065">
        <ele>33.200000762939</ele>
        <time>2021-12-02T10:59:24.000Z</time>
      </trkpt>
      <trkpt lat="47.31262" lon="-2.40062">
        <ele>33.200000762939</ele>
        <time>2021-12-02T10:59:25.000Z</time>
      </trkpt>
      <trkpt lat="47.31252" lon="-2.40052">
        <ele>33.200000762939</ele>
        <time>2021-12-02T10:59:29.000Z</time>
      </trkpt>
      <trkpt lat="47.31248" lon="-2.40051">
        <ele>33.200000762939</ele>
        <time>2021-12-02T10:59:30.000Z</time>
      </trkpt>
      <trkpt lat="47.31242" lon="-2.40043">
        <ele>33.200000762939</ele>
        <time>2021-12-02T10:59:32.000Z</time>
      </trkpt>
      <trkpt lat="47.31237" lon="-2.40026">
        <ele>33.200000762939</ele>
        <time>2021-12-02T10:59:35.000Z</time>
      </trkpt>
      <trkpt lat="47.31234" lon="-2.40018">
        <ele>33.200000762939</ele>
        <time>2021-12-02T10:59:37.000Z</time>
      </trkpt>
      <trkpt lat="47.31225" lon="-2.39992">
        <ele>33.200000762939</ele>
        <time>2021-12-02T10:59:44.000Z</time>
      </trkpt>
      <trkpt lat="47.31218" lon="-2.39969">
        <ele>33.599998474121</ele>
        <time>2021-12-02T10:59:51.000Z</time>
      </trkpt>
      <trkpt lat="47.31217" lon="-2.39965">
        <ele>34</ele>
        <time>2021-12-02T10:59:52.000Z</time>
      </trkpt>
      <trkpt lat="47.31216" lon="-2.39961">
        <ele>34.400001525879</ele>
        <time>2021-12-02T10:59:53.000Z</time>
      </trkpt>
      <trkpt lat="47.31214" lon="-2.39957">
        <ele>34.799999237061</ele>
        <time>2021-12-02T10:59:54.000Z</time>
      </trkpt>
      <trkpt lat="47.31213" lon="-2.39953">
        <ele>35.200000762939</ele>
        <time>2021-12-02T10:59:55.000Z</time>
      </trkpt>
      <trkpt lat="47.31209" lon="-2.3994">
        <ele>35.200000762939</ele>
        <time>2021-12-02T10:59:58.000Z</time>
      </trkpt>
      <trkpt lat="47.31197" lon="-2.39905">
        <ele>35.599998474121</ele>
        <time>2021-12-02T11:00:06.000Z</time>
      </trkpt>
      <trkpt lat="47.31196" lon="-2.39901">
        <ele>36</ele>
        <time>2021-12-02T11:00:07.000Z</time>
      </trkpt>
      <trkpt lat="47.31194" lon="-2.39897">
        <ele>36.400001525879</ele>
        <time>2021-12-02T11:00:08.000Z</time>
      </trkpt>
      <trkpt lat="47.31192" lon="-2.39892">
        <ele>37.200000762939</ele>
        <time>2021-12-02T11:00:09.000Z</time>
      </trkpt>
      <trkpt lat="47.31189" lon="-2.39882">
        <ele>37.799999237061</ele>
        <time>2021-12-02T11:00:13.000Z</time>
      </trkpt>
      <trkpt lat="47.31187" lon="-2.39878">
        <ele>38.200000762939</ele>
        <time>2021-12-02T11:00:14.000Z</time>
      </trkpt>
      <trkpt lat="47.31186" lon="-2.39874">
        <ele>38.799999237061</ele>
        <time>2021-12-02T11:00:15.000Z</time>
      </trkpt>
      <trkpt lat="47.31184" lon="-2.39868">
        <ele>39.200000762939</ele>
        <time>2021-12-02T11:00:16.000Z</time>
      </trkpt>
      <trkpt lat="47.31181" lon="-2.39861">
        <ele>39.799999237061</ele>
        <time>2021-12-02T11:00:17.000Z</time>
      </trkpt>
      <trkpt lat="47.31177" lon="-2.39842">
        <ele>39.799999237061</ele>
        <time>2021-12-02T11:00:20.000Z</time>
      </trkpt>
      <trkpt lat="47.31172" lon="-2.39832">
        <ele>39.799999237061</ele>
        <time>2021-12-02T11:00:22.000Z</time>
      </trkpt>
      <trkpt lat="47.31159" lon="-2.39805">
        <ele>39.799999237061</ele>
        <time>2021-12-02T11:00:27.000Z</time>
      </trkpt>
      <trkpt lat="47.31157" lon="-2.398">
        <ele>39.799999237061</ele>
        <time>2021-12-02T11:00:28.000Z</time>
      </trkpt>
      <trkpt lat="47.31139" lon="-2.3975">
        <ele>39.799999237061</ele>
        <time>2021-12-02T11:00:37.000Z</time>
      </trkpt>
      <trkpt lat="47.31125" lon="-2.3971">
        <ele>39.799999237061</ele>
        <time>2021-12-02T11:00:44.000Z</time>
      </trkpt>
      <trkpt lat="47.31108" lon="-2.39662">
        <ele>39.799999237061</ele>
        <time>2021-12-02T11:00:52.000Z</time>
      </trkpt>
      <trkpt lat="47.31103" lon="-2.39649">
        <ele>40.200000762939</ele>
        <time>2021-12-02T11:00:54.000Z</time>
      </trkpt>
      <trkpt lat="47.31101" lon="-2.39643">
        <ele>40.599998474121</ele>
        <time>2021-12-02T11:00:55.000Z</time>
      </trkpt>
      <trkpt lat="47.31099" lon="-2.39636">
        <ele>41</ele>
        <time>2021-12-02T11:00:56.000Z</time>
      </trkpt>
      <trkpt lat="47.31096" lon="-2.39629">
        <ele>41.400001525879</ele>
        <time>2021-12-02T11:00:57.000Z</time>
      </trkpt>
      <trkpt lat="47.31094" lon="-2.39622">
        <ele>41.799999237061</ele>
        <time>2021-12-02T11:00:58.000Z</time>
      </trkpt>
      <trkpt lat="47.31089" lon="-2.39608">
        <ele>41.799999237061</ele>
        <time>2021-12-02T11:01:00.000Z</time>
      </trkpt>
      <trkpt lat="47.31068" lon="-2.39548">
        <ele>41.799999237061</ele>
        <time>2021-12-02T11:01:08.000Z</time>
      </trkpt>
      <trkpt lat="47.31046" lon="-2.39485">
        <ele>41.799999237061</ele>
        <time>2021-12-02T11:01:15.000Z</time>
      </trkpt>
      <trkpt lat="47.3104" lon="-2.39467">
        <ele>41.400001525879</ele>
        <time>2021-12-02T11:01:17.000Z</time>
      </trkpt>
      <trkpt lat="47.31037" lon="-2.39458">
        <ele>41</ele>
        <time>2021-12-02T11:01:18.000Z</time>
      </trkpt>
      <trkpt lat="47.31033" lon="-2.39449">
        <ele>40.599998474121</ele>
        <time>2021-12-02T11:01:19.000Z</time>
      </trkpt>
      <trkpt lat="47.3103" lon="-2.39441">
        <ele>40.200000762939</ele>
        <time>2021-12-02T11:01:20.000Z</time>
      </trkpt>
      <trkpt lat="47.31028" lon="-2.39433">
        <ele>39.799999237061</ele>
        <time>2021-12-02T11:01:21.000Z</time>
      </trkpt>
      <trkpt lat="47.31025" lon="-2.39426">
        <ele>39.799999237061</ele>
        <time>2021-12-02T11:01:22.000Z</time>
      </trkpt>
      <trkpt lat="47.31012" lon="-2.39383">
        <ele>39.799999237061</ele>
        <time>2021-12-02T11:01:28.000Z</time>
      </trkpt>
      <trkpt lat="47.30993" lon="-2.39326">
        <ele>39.799999237061</ele>
        <time>2021-12-02T11:01:36.000Z</time>
      </trkpt>
      <trkpt lat="47.30975" lon="-2.39273">
        <ele>39.799999237061</ele>
        <time>2021-12-02T11:01:43.000Z</time>
      </trkpt>
      <trkpt lat="47.3095" lon="-2.39214">
        <ele>39.799999237061</ele>
        <time>2021-12-02T11:01:51.000Z</time>
      </trkpt>
      <trkpt lat="47.30929" lon="-2.39162">
        <ele>39.799999237061</ele>
        <time>2021-12-02T11:01:58.000Z</time>
      </trkpt>
      <trkpt lat="47.30923" lon="-2.39147">
        <ele>40.200000762939</ele>
        <time>2021-12-02T11:02:00.000Z</time>
      </trkpt>
      <trkpt lat="47.3092" lon="-2.39139">
        <ele>40.599998474121</ele>
        <time>2021-12-02T11:02:01.000Z</time>
      </trkpt>
      <trkpt lat="47.30917" lon="-2.39132">
        <ele>41</ele>
        <time>2021-12-02T11:02:02.000Z</time>
      </trkpt>
      <trkpt lat="47.30914" lon="-2.39124">
        <ele>41.400001525879</ele>
        <time>2021-12-02T11:02:03.000Z</time>
      </trkpt>
      <trkpt lat="47.30911" lon="-2.39116">
        <ele>41.799999237061</ele>
        <time>2021-12-02T11:02:04.000Z</time>
      </trkpt>
      <trkpt lat="47.30907" lon="-2.39109">
        <ele>41.799999237061</ele>
        <time>2021-12-02T11:02:05.000Z</time>
      </trkpt>
      <trkpt lat="47.30898" lon="-2.39076">
        <ele>41.799999237061</ele>
        <time>2021-12-02T11:02:09.000Z</time>
      </trkpt>
      <trkpt lat="47.30897" lon="-2.39067">
        <ele>41.799999237061</ele>
        <time>2021-12-02T11:02:10.000Z</time>
      </trkpt>
      <trkpt lat="47.30897" lon="-2.39041">
        <ele>41.799999237061</ele>
        <time>2021-12-02T11:02:13.000Z</time>
      </trkpt>
      <trkpt lat="47.30899" lon="-2.39025">
        <ele>41.799999237061</ele>
        <time>2021-12-02T11:02:15.000Z</time>
      </trkpt>
      <trkpt lat="47.30906" lon="-2.38971">
        <ele>41.799999237061</ele>
        <time>2021-12-02T11:02:22.000Z</time>
      </trkpt>
      <trkpt lat="47.30919" lon="-2.38943">
        <ele>41.799999237061</ele>
        <time>2021-12-02T11:02:27.000Z</time>
      </trkpt>
      <trkpt lat="47.30927" lon="-2.38918">
        <ele>41.799999237061</ele>
        <time>2021-12-02T11:02:31.000Z</time>
      </trkpt>
      <trkpt lat="47.30926" lon="-2.38911">
        <ele>41.799999237061</ele>
        <time>2021-12-02T11:02:32.000Z</time>
      </trkpt>
      <trkpt lat="47.30919" lon="-2.38894">
        <ele>41.799999237061</ele>
        <time>2021-12-02T11:02:35.000Z</time>
      </trkpt>
      <trkpt lat="47.30907" lon="-2.38884">
        <ele>41.799999237061</ele>
        <time>2021-12-02T11:02:39.000Z</time>
      </trkpt>
      <trkpt lat="47.30903" lon="-2.38884">
        <ele>41.799999237061</ele>
        <time>2021-12-02T11:02:41.000Z</time>
      </trkpt>
      <trkpt lat="47.30896" lon="-2.38886">
        <ele>41.799999237061</ele>
        <time>2021-12-02T11:02:44.000Z</time>
      </trkpt>
      <trkpt lat="47.30882" lon="-2.38886">
        <ele>41.799999237061</ele>
        <time>2021-12-02T11:02:48.000Z</time>
      </trkpt>
      <trkpt lat="47.30875" lon="-2.38877">
        <ele>41.799999237061</ele>
        <time>2021-12-02T11:02:50.000Z</time>
      </trkpt>
      <trkpt lat="47.30873" lon="-2.38871">
        <ele>41.799999237061</ele>
        <time>2021-12-02T11:02:51.000Z</time>
      </trkpt>
      <trkpt lat="47.30871" lon="-2.3885">
        <ele>41.799999237061</ele>
        <time>2021-12-02T11:02:54.000Z</time>
      </trkpt>
      <trkpt lat="47.30879" lon="-2.38834">
        <ele>41.799999237061</ele>
        <time>2021-12-02T11:02:57.000Z</time>
      </trkpt>
      <trkpt lat="47.30881" lon="-2.38828">
        <ele>41.799999237061</ele>
        <time>2021-12-02T11:02:58.000Z</time>
      </trkpt>
      <trkpt lat="47.3088" lon="-2.38809">
        <ele>41.799999237061</ele>
        <time>2021-12-02T11:03:01.000Z</time>
      </trkpt>
      <trkpt lat="47.30866" lon="-2.38795">
        <ele>41.799999237061</ele>
        <time>2021-12-02T11:03:05.000Z</time>
      </trkpt>
      <trkpt lat="47.30853" lon="-2.38793">
        <ele>41.799999237061</ele>
        <time>2021-12-02T11:03:08.000Z</time>
      </trkpt>
      <trkpt lat="47.30844" lon="-2.38791">
        <ele>41.799999237061</ele>
        <time>2021-12-02T11:03:10.000Z</time>
      </trkpt>
      <trkpt lat="47.30824" lon="-2.38786">
        <ele>41.799999237061</ele>
        <time>2021-12-02T11:03:14.000Z</time>
      </trkpt>
      <trkpt lat="47.3082" lon="-2.38784">
        <ele>41.799999237061</ele>
        <time>2021-12-02T11:03:15.000Z</time>
      </trkpt>
      <trkpt lat="47.30811" lon="-2.38777">
        <ele>42.200000762939</ele>
        <time>2021-12-02T11:03:17.000Z</time>
      </trkpt>
      <trkpt lat="47.30806" lon="-2.38774">
        <ele>42.599998474121</ele>
        <time>2021-12-02T11:03:18.000Z</time>
      </trkpt>
      <trkpt lat="47.30802" lon="-2.3877">
        <ele>43</ele>
        <time>2021-12-02T11:03:19.000Z</time>
      </trkpt>
      <trkpt lat="47.30797" lon="-2.38765">
        <ele>43.400001525879</ele>
        <time>2021-12-02T11:03:20.000Z</time>
      </trkpt>
      <trkpt lat="47.30793" lon="-2.3876">
        <ele>44</ele>
        <time>2021-12-02T11:03:21.000Z</time>
      </trkpt>
      <trkpt lat="47.30779" lon="-2.38735">
        <ele>44</ele>
        <time>2021-12-02T11:03:25.000Z</time>
      </trkpt>
      <trkpt lat="47.30777" lon="-2.38728">
        <ele>44</ele>
        <time>2021-12-02T11:03:26.000Z</time>
      </trkpt>
      <trkpt lat="47.3076" lon="-2.38673">
        <ele>44</ele>
        <time>2021-12-02T11:03:33.000Z</time>
      </trkpt>
      <trkpt lat="47.3075" lon="-2.38635">
        <ele>44</ele>
        <time>2021-12-02T11:03:39.000Z</time>
      </trkpt>
      <trkpt lat="47.30748" lon="-2.38623">
        <ele>44</ele>
        <time>2021-12-02T11:03:41.000Z</time>
      </trkpt>
      <trkpt lat="47.30754" lon="-2.38606">
        <ele>44</ele>
        <time>2021-12-02T11:03:44.000Z</time>
      </trkpt>
      <trkpt lat="47.30762" lon="-2.38602">
        <ele>44</ele>
        <time>2021-12-02T11:03:46.000Z</time>
      </trkpt>
      <trkpt lat="47.30767" lon="-2.38599">
        <ele>44</ele>
        <time>2021-12-02T11:03:47.000Z</time>
      </trkpt>
      <trkpt lat="47.30771" lon="-2.38598">
        <ele>44</ele>
        <time>2021-12-02T11:03:48.000Z</time>
      </trkpt>
      <trkpt lat="47.30792" lon="-2.38591">
        <ele>44</ele>
        <time>2021-12-02T11:03:52.000Z</time>
      </trkpt>
      <trkpt lat="47.30823" lon="-2.38579">
        <ele>44</ele>
        <time>2021-12-02T11:03:58.000Z</time>
      </trkpt>
      <trkpt lat="47.30827" lon="-2.38579">
        <ele>44.400001525879</ele>
        <time>2021-12-02T11:03:59.000Z</time>
      </trkpt>
      <trkpt lat="47.30831" lon="-2.38577">
        <ele>44.799999237061</ele>
        <time>2021-12-02T11:04:00.000Z</time>
      </trkpt>
      <trkpt lat="47.30836" lon="-2.38575">
        <ele>45.200000762939</ele>
        <time>2021-12-02T11:04:01.000Z</time>
      </trkpt>
      <trkpt lat="47.30839" lon="-2.38574">
        <ele>45.599998474121</ele>
        <time>2021-12-02T11:04:02.000Z</time>
      </trkpt>
      <trkpt lat="47.30843" lon="-2.38573">
        <ele>46</ele>
        <time>2021-12-02T11:04:03.000Z</time>
      </trkpt>
      <trkpt lat="47.30847" lon="-2.3857">
        <ele>46</ele>
        <time>2021-12-02T11:04:04.000Z</time>
      </trkpt>
      <trkpt lat="47.30851" lon="-2.38568">
        <ele>46</ele>
        <time>2021-12-02T11:04:05.000Z</time>
      </trkpt>
      <trkpt lat="47.3088" lon="-2.38556">
        <ele>46</ele>
        <time>2021-12-02T11:04:11.000Z</time>
      </trkpt>
      <trkpt lat="47.3091" lon="-2.38541">
        <ele>46</ele>
        <time>2021-12-02T11:04:17.000Z</time>
      </trkpt>
      <trkpt lat="47.30944" lon="-2.38521">
        <ele>46</ele>
        <time>2021-12-02T11:04:24.000Z</time>
      </trkpt>
      <trkpt lat="47.30948" lon="-2.38516">
        <ele>46</ele>
        <time>2021-12-02T11:04:25.000Z</time>
      </trkpt>
      <trkpt lat="47.30972" lon="-2.38488">
        <ele>46</ele>
        <time>2021-12-02T11:04:31.000Z</time>
      </trkpt>
      <trkpt lat="47.30998" lon="-2.38445">
        <ele>46</ele>
        <time>2021-12-02T11:04:38.000Z</time>
      </trkpt>
      <trkpt lat="47.31026" lon="-2.384">
        <ele>46</ele>
        <time>2021-12-02T11:04:45.000Z</time>
      </trkpt>
      <trkpt lat="47.31064" lon="-2.3835">
        <ele>46</ele>
        <time>2021-12-02T11:04:54.000Z</time>
      </trkpt>
      <trkpt lat="47.31095" lon="-2.3832">
        <ele>46</ele>
        <time>2021-12-02T11:05:01.000Z</time>
      </trkpt>
      <trkpt lat="47.31107" lon="-2.38308">
        <ele>46</ele>
        <time>2021-12-02T11:05:04.000Z</time>
      </trkpt>
      <trkpt lat="47.31115" lon="-2.38302">
        <ele>46</ele>
        <time>2021-12-02T11:05:06.000Z</time>
      </trkpt>
      <trkpt lat="47.31119" lon="-2.38299">
        <ele>46</ele>
        <time>2021-12-02T11:05:07.000Z</time>
      </trkpt>
      <trkpt lat="47.31145" lon="-2.38279">
        <ele>46</ele>
        <time>2021-12-02T11:05:13.000Z</time>
      </trkpt>
      <trkpt lat="47.31164" lon="-2.38264">
        <ele>45.599998474121</ele>
        <time>2021-12-02T11:05:17.000Z</time>
      </trkpt>
      <trkpt lat="47.31169" lon="-2.3826">
        <ele>45</ele>
        <time>2021-12-02T11:05:18.000Z</time>
      </trkpt>
      <trkpt lat="47.31174" lon="-2.38256">
        <ele>44.599998474121</ele>
        <time>2021-12-02T11:05:19.000Z</time>
      </trkpt>
      <trkpt lat="47.31179" lon="-2.38252">
        <ele>44.200000762939</ele>
        <time>2021-12-02T11:05:20.000Z</time>
      </trkpt>
      <trkpt lat="47.31184" lon="-2.38248">
        <ele>43.799999237061</ele>
        <time>2021-12-02T11:05:21.000Z</time>
      </trkpt>
      <trkpt lat="47.31195" lon="-2.3824">
        <ele>43.799999237061</ele>
        <time>2021-12-02T11:05:23.000Z</time>
      </trkpt>
      <trkpt lat="47.31238" lon="-2.38206">
        <ele>43.799999237061</ele>
        <time>2021-12-02T11:05:31.000Z</time>
      </trkpt>
      <trkpt lat="47.31249" lon="-2.38197">
        <ele>43.400001525879</ele>
        <time>2021-12-02T11:05:33.000Z</time>
      </trkpt>
      <trkpt lat="47.31255" lon="-2.38192">
        <ele>43</ele>
        <time>2021-12-02T11:05:34.000Z</time>
      </trkpt>
      <trkpt lat="47.31261" lon="-2.38187">
        <ele>42.599998474121</ele>
        <time>2021-12-02T11:05:35.000Z</time>
      </trkpt>
      <trkpt lat="47.31266" lon="-2.38182">
        <ele>42.200000762939</ele>
        <time>2021-12-02T11:05:36.000Z</time>
      </trkpt>
      <trkpt lat="47.31272" lon="-2.38177">
        <ele>41.799999237061</ele>
        <time>2021-12-02T11:05:37.000Z</time>
      </trkpt>
      <trkpt lat="47.31278" lon="-2.38171">
        <ele>41.799999237061</ele>
        <time>2021-12-02T11:05:38.000Z</time>
      </trkpt>
      <trkpt lat="47.31321" lon="-2.38133">
        <ele>41.400001525879</ele>
        <time>2021-12-02T11:05:45.000Z</time>
      </trkpt>
      <trkpt lat="47.31327" lon="-2.38127">
        <ele>41</ele>
        <time>2021-12-02T11:05:46.000Z</time>
      </trkpt>
      <trkpt lat="47.31334" lon="-2.38122">
        <ele>40.599998474121</ele>
        <time>2021-12-02T11:05:47.000Z</time>
      </trkpt>
      <trkpt lat="47.31341" lon="-2.38116">
        <ele>40.200000762939</ele>
        <time>2021-12-02T11:05:48.000Z</time>
      </trkpt>
      <trkpt lat="47.31347" lon="-2.38111">
        <ele>39.799999237061</ele>
        <time>2021-12-02T11:05:49.000Z</time>
      </trkpt>
      <trkpt lat="47.3137" lon="-2.3809">
        <ele>39.799999237061</ele>
        <time>2021-12-02T11:05:53.000Z</time>
      </trkpt>
      <trkpt lat="47.3139" lon="-2.38074">
        <ele>39.400001525879</ele>
        <time>2021-12-02T11:05:56.000Z</time>
      </trkpt>
      <trkpt lat="47.31396" lon="-2.38068">
        <ele>39</ele>
        <time>2021-12-02T11:05:57.000Z</time>
      </trkpt>
      <trkpt lat="47.31403" lon="-2.38062">
        <ele>38.599998474121</ele>
        <time>2021-12-02T11:05:58.000Z</time>
      </trkpt>
      <trkpt lat="47.31409" lon="-2.38057">
        <ele>38.200000762939</ele>
        <time>2021-12-02T11:05:59.000Z</time>
      </trkpt>
      <trkpt lat="47.31415" lon="-2.3805">
        <ele>37.799999237061</ele>
        <time>2021-12-02T11:06:00.000Z</time>
      </trkpt>
      <trkpt lat="47.31421" lon="-2.38044">
        <ele>37.799999237061</ele>
        <time>2021-12-02T11:06:01.000Z</time>
      </trkpt>
      <trkpt lat="47.31449" lon="-2.3801">
        <ele>37.799999237061</ele>
        <time>2021-12-02T11:06:06.000Z</time>
      </trkpt>
      <trkpt lat="47.3148" lon="-2.37962">
        <ele>37.799999237061</ele>
        <time>2021-12-02T11:06:13.000Z</time>
      </trkpt>
      <trkpt lat="47.31505" lon="-2.3791">
        <ele>37.799999237061</ele>
        <time>2021-12-02T11:06:21.000Z</time>
      </trkpt>
      <trkpt lat="47.31524" lon="-2.37855">
        <ele>37.799999237061</ele>
        <time>2021-12-02T11:06:29.000Z</time>
      </trkpt>
      <trkpt lat="47.31537" lon="-2.37792">
        <ele>37.799999237061</ele>
        <time>2021-12-02T11:06:37.000Z</time>
      </trkpt>
      <trkpt lat="47.31554" lon="-2.37735">
        <ele>37.799999237061</ele>
        <time>2021-12-02T11:06:44.000Z</time>
      </trkpt>
      <trkpt lat="47.31577" lon="-2.37692">
        <ele>37.799999237061</ele>
        <time>2021-12-02T11:06:50.000Z</time>
      </trkpt>
      <trkpt lat="47.31607" lon="-2.37649">
        <ele>37.799999237061</ele>
        <time>2021-12-02T11:06:57.000Z</time>
      </trkpt>
      <trkpt lat="47.3161" lon="-2.37643">
        <ele>37.799999237061</ele>
        <time>2021-12-02T11:06:58.000Z</time>
      </trkpt>
      <trkpt lat="47.31613" lon="-2.3762">
        <ele>37.799999237061</ele>
        <time>2021-12-02T11:07:01.000Z</time>
      </trkpt>
      <trkpt lat="47.31612" lon="-2.37596">
        <ele>37.799999237061</ele>
        <time>2021-12-02T11:07:04.000Z</time>
      </trkpt>
      <trkpt lat="47.31613" lon="-2.37571">
        <ele>37.799999237061</ele>
        <time>2021-12-02T11:07:07.000Z</time>
      </trkpt>
      <trkpt lat="47.31615" lon="-2.37555">
        <ele>37.799999237061</ele>
        <time>2021-12-02T11:07:09.000Z</time>
      </trkpt>
      <trkpt lat="47.31623" lon="-2.37533">
        <ele>37.799999237061</ele>
        <time>2021-12-02T11:07:12.000Z</time>
      </trkpt>
      <trkpt lat="47.31626" lon="-2.37526">
        <ele>37.799999237061</ele>
        <time>2021-12-02T11:07:13.000Z</time>
      </trkpt>
      <trkpt lat="47.31628" lon="-2.37519">
        <ele>38.200000762939</ele>
        <time>2021-12-02T11:07:14.000Z</time>
      </trkpt>
      <trkpt lat="47.31631" lon="-2.37512">
        <ele>38.599998474121</ele>
        <time>2021-12-02T11:07:15.000Z</time>
      </trkpt>
      <trkpt lat="47.31633" lon="-2.37505">
        <ele>39</ele>
        <time>2021-12-02T11:07:16.000Z</time>
      </trkpt>
      <trkpt lat="47.31635" lon="-2.37497">
        <ele>39.400001525879</ele>
        <time>2021-12-02T11:07:17.000Z</time>
      </trkpt>
      <trkpt lat="47.31636" lon="-2.37489">
        <ele>40</ele>
        <time>2021-12-02T11:07:18.000Z</time>
      </trkpt>
      <trkpt lat="47.31637" lon="-2.37481">
        <ele>40</ele>
        <time>2021-12-02T11:07:19.000Z</time>
      </trkpt>
      <trkpt lat="47.31637" lon="-2.37456">
        <ele>40</ele>
        <time>2021-12-02T11:07:22.000Z</time>
      </trkpt>
      <trkpt lat="47.31636" lon="-2.37448">
        <ele>40</ele>
        <time>2021-12-02T11:07:23.000Z</time>
      </trkpt>
      <trkpt lat="47.31631" lon="-2.37382">
        <ele>40</ele>
        <time>2021-12-02T11:07:31.000Z</time>
      </trkpt>
      <trkpt lat="47.31629" lon="-2.37374">
        <ele>40</ele>
        <time>2021-12-02T11:07:32.000Z</time>
      </trkpt>
      <trkpt lat="47.3162" lon="-2.37334">
        <ele>40</ele>
        <time>2021-12-02T11:07:37.000Z</time>
      </trkpt>
      <trkpt lat="47.31617" lon="-2.37301">
        <ele>40</ele>
        <time>2021-12-02T11:07:41.000Z</time>
      </trkpt>
      <trkpt lat="47.31618" lon="-2.37292">
        <ele>40.400001525879</ele>
        <time>2021-12-02T11:07:42.000Z</time>
      </trkpt>
      <trkpt lat="47.31621" lon="-2.37285">
        <ele>40.799999237061</ele>
        <time>2021-12-02T11:07:43.000Z</time>
      </trkpt>
      <trkpt lat="47.31625" lon="-2.3728">
        <ele>41.200000762939</ele>
        <time>2021-12-02T11:07:44.000Z</time>
      </trkpt>
      <trkpt lat="47.31629" lon="-2.37275">
        <ele>41.599998474121</ele>
        <time>2021-12-02T11:07:45.000Z</time>
      </trkpt>
      <trkpt lat="47.31633" lon="-2.37271">
        <ele>42</ele>
        <time>2021-12-02T11:07:46.000Z</time>
      </trkpt>
      <trkpt lat="47.31643" lon="-2.37263">
        <ele>42</ele>
        <time>2021-12-02T11:07:48.000Z</time>
      </trkpt>
      <trkpt lat="47.31658" lon="-2.37252">
        <ele>42</ele>
        <time>2021-12-02T11:07:51.000Z</time>
      </trkpt>
      <trkpt lat="47.31681" lon="-2.37229">
        <ele>42</ele>
        <time>2021-12-02T11:07:56.000Z</time>
      </trkpt>
      <trkpt lat="47.31685" lon="-2.37222">
        <ele>42</ele>
        <time>2021-12-02T11:07:57.000Z</time>
      </trkpt>
      <trkpt lat="47.3169" lon="-2.37198">
        <ele>42</ele>
        <time>2021-12-02T11:08:00.000Z</time>
      </trkpt>
      <trkpt lat="47.31682" lon="-2.37166">
        <ele>42</ele>
        <time>2021-12-02T11:08:04.000Z</time>
      </trkpt>
      <trkpt lat="47.31675" lon="-2.37151">
        <ele>42</ele>
        <time>2021-12-02T11:08:06.000Z</time>
      </trkpt>
      <trkpt lat="47.31664" lon="-2.37129">
        <ele>42</ele>
        <time>2021-12-02T11:08:09.000Z</time>
      </trkpt>
      <trkpt lat="47.31636" lon="-2.37069">
        <ele>42</ele>
        <time>2021-12-02T11:08:17.000Z</time>
      </trkpt>
      <trkpt lat="47.31615" lon="-2.37021">
        <ele>42</ele>
        <time>2021-12-02T11:08:23.000Z</time>
      </trkpt>
      <trkpt lat="47.31595" lon="-2.36958">
        <ele>42</ele>
        <time>2021-12-02T11:08:30.000Z</time>
      </trkpt>
      <trkpt lat="47.3159" lon="-2.36939">
        <ele>41.599998474121</ele>
        <time>2021-12-02T11:08:32.000Z</time>
      </trkpt>
      <trkpt lat="47.31587" lon="-2.36929">
        <ele>41.200000762939</ele>
        <time>2021-12-02T11:08:33.000Z</time>
      </trkpt>
      <trkpt lat="47.31584" lon="-2.36919">
        <ele>40.599998474121</ele>
        <time>2021-12-02T11:08:34.000Z</time>
      </trkpt>
      <trkpt lat="47.31581" lon="-2.36908">
        <ele>40.200000762939</ele>
        <time>2021-12-02T11:08:35.000Z</time>
      </trkpt>
      <trkpt lat="47.31578" lon="-2.36897">
        <ele>39.799999237061</ele>
        <time>2021-12-02T11:08:36.000Z</time>
      </trkpt>
      <trkpt lat="47.31564" lon="-2.36853">
        <ele>39.400001525879</ele>
        <time>2021-12-02T11:08:40.000Z</time>
      </trkpt>
      <trkpt lat="47.31561" lon="-2.36842">
        <ele>38.799999237061</ele>
        <time>2021-12-02T11:08:41.000Z</time>
      </trkpt>
      <trkpt lat="47.31557" lon="-2.36831">
        <ele>38.400001525879</ele>
        <time>2021-12-02T11:08:42.000Z</time>
      </trkpt>
      <trkpt lat="47.31554" lon="-2.36821">
        <ele>38</ele>
        <time>2021-12-02T11:08:43.000Z</time>
      </trkpt>
      <trkpt lat="47.31552" lon="-2.36811">
        <ele>37.599998474121</ele>
        <time>2021-12-02T11:08:44.000Z</time>
      </trkpt>
      <trkpt lat="47.31549" lon="-2.36801">
        <ele>37</ele>
        <time>2021-12-02T11:08:45.000Z</time>
      </trkpt>
      <trkpt lat="47.31547" lon="-2.36792">
        <ele>36.599998474121</ele>
        <time>2021-12-02T11:08:46.000Z</time>
      </trkpt>
      <trkpt lat="47.31544" lon="-2.36782">
        <ele>36.200000762939</ele>
        <time>2021-12-02T11:08:47.000Z</time>
      </trkpt>
      <trkpt lat="47.31542" lon="-2.36772">
        <ele>35.200000762939</ele>
        <time>2021-12-02T11:08:48.000Z</time>
      </trkpt>
      <trkpt lat="47.31535" lon="-2.36742">
        <ele>34.799999237061</ele>
        <time>2021-12-02T11:08:51.000Z</time>
      </trkpt>
      <trkpt lat="47.31533" lon="-2.36732">
        <ele>34.400001525879</ele>
        <time>2021-12-02T11:08:52.000Z</time>
      </trkpt>
      <trkpt lat="47.3153" lon="-2.36723">
        <ele>34</ele>
        <time>2021-12-02T11:08:53.000Z</time>
      </trkpt>
      <trkpt lat="47.31528" lon="-2.36714">
        <ele>33.400001525879</ele>
        <time>2021-12-02T11:08:54.000Z</time>
      </trkpt>
      <trkpt lat="47.31526" lon="-2.36704">
        <ele>33</ele>
        <time>2021-12-02T11:08:55.000Z</time>
      </trkpt>
      <trkpt lat="47.31517" lon="-2.36666">
        <ele>32.599998474121</ele>
        <time>2021-12-02T11:08:59.000Z</time>
      </trkpt>
      <trkpt lat="47.31515" lon="-2.36657">
        <ele>32.200000762939</ele>
        <time>2021-12-02T11:09:00.000Z</time>
      </trkpt>
      <trkpt lat="47.31512" lon="-2.36649">
        <ele>31.799999237061</ele>
        <time>2021-12-02T11:09:01.000Z</time>
      </trkpt>
      <trkpt lat="47.3151" lon="-2.3664">
        <ele>31.39999961853</ele>
        <time>2021-12-02T11:09:02.000Z</time>
      </trkpt>
      <trkpt lat="47.31508" lon="-2.36632">
        <ele>31</ele>
        <time>2021-12-02T11:09:03.000Z</time>
      </trkpt>
      <trkpt lat="47.31503" lon="-2.3661">
        <ele>31</ele>
        <time>2021-12-02T11:09:06.000Z</time>
      </trkpt>
      <trkpt lat="47.31499" lon="-2.36589">
        <ele>31</ele>
        <time>2021-12-02T11:09:09.000Z</time>
      </trkpt>
      <trkpt lat="47.31502" lon="-2.36576">
        <ele>31</ele>
        <time>2021-12-02T11:09:11.000Z</time>
      </trkpt>
      <trkpt lat="47.31503" lon="-2.36562">
        <ele>31</ele>
        <time>2021-12-02T11:09:13.000Z</time>
      </trkpt>
      <trkpt lat="47.31502" lon="-2.36548">
        <ele>31</ele>
        <time>2021-12-02T11:09:15.000Z</time>
      </trkpt>
      <trkpt lat="47.31501" lon="-2.36511">
        <ele>31</ele>
        <time>2021-12-02T11:09:21.000Z</time>
      </trkpt>
      <trkpt lat="47.31501" lon="-2.36488">
        <ele>31</ele>
        <time>2021-12-02T11:09:25.000Z</time>
      </trkpt>
      <trkpt lat="47.31501" lon="-2.36483">
        <ele>31</ele>
        <time>2021-12-02T11:09:26.000Z</time>
      </trkpt>
      <trkpt lat="47.31499" lon="-2.36449">
        <ele>31</ele>
        <time>2021-12-02T11:09:32.000Z</time>
      </trkpt>
      <trkpt lat="47.31498" lon="-2.36417">
        <ele>31</ele>
        <time>2021-12-02T11:09:38.000Z</time>
      </trkpt>
      <trkpt lat="47.31497" lon="-2.36397">
        <ele>31</ele>
        <time>2021-12-02T11:09:43.000Z</time>
      </trkpt>
      <trkpt lat="47.31497" lon="-2.36392">
        <ele>31.39999961853</ele>
        <time>2021-12-02T11:09:44.000Z</time>
      </trkpt>
      <trkpt lat="47.31497" lon="-2.36388">
        <ele>31.799999237061</ele>
        <time>2021-12-02T11:09:45.000Z</time>
      </trkpt>
      <trkpt lat="47.31496" lon="-2.36383">
        <ele>32.400001525879</ele>
        <time>2021-12-02T11:09:46.000Z</time>
      </trkpt>
      <trkpt lat="47.31496" lon="-2.36378">
        <ele>32.799999237061</ele>
        <time>2021-12-02T11:09:47.000Z</time>
      </trkpt>
      <trkpt lat="47.31495" lon="-2.36373">
        <ele>33.200000762939</ele>
        <time>2021-12-02T11:09:48.000Z</time>
      </trkpt>
      <trkpt lat="47.31495" lon="-2.36369">
        <ele>33.200000762939</ele>
        <time>2021-12-02T11:09:49.000Z</time>
      </trkpt>
      <trkpt lat="47.31497" lon="-2.36339">
        <ele>33.200000762939</ele>
        <time>2021-12-02T11:09:54.000Z</time>
      </trkpt>
      <trkpt lat="47.31497" lon="-2.36334">
        <ele>33.599998474121</ele>
        <time>2021-12-02T11:09:55.000Z</time>
      </trkpt>
      <trkpt lat="47.31496" lon="-2.36328">
        <ele>34</ele>
        <time>2021-12-02T11:09:56.000Z</time>
      </trkpt>
      <trkpt lat="47.31496" lon="-2.36322">
        <ele>34.400001525879</ele>
        <time>2021-12-02T11:09:57.000Z</time>
      </trkpt>
      <trkpt lat="47.31495" lon="-2.36317">
        <ele>34.799999237061</ele>
        <time>2021-12-02T11:09:58.000Z</time>
      </trkpt>
      <trkpt lat="47.31493" lon="-2.36312">
        <ele>35.200000762939</ele>
        <time>2021-12-02T11:09:59.000Z</time>
      </trkpt>
      <trkpt lat="47.31492" lon="-2.36306">
        <ele>35.200000762939</ele>
        <time>2021-12-02T11:10:00.000Z</time>
      </trkpt>
      <trkpt lat="47.31481" lon="-2.36264">
        <ele>35.200000762939</ele>
        <time>2021-12-02T11:10:07.000Z</time>
      </trkpt>
      <trkpt lat="47.31478" lon="-2.36247">
        <ele>35.200000762939</ele>
        <time>2021-12-02T11:10:10.000Z</time>
      </trkpt>
      <trkpt lat="47.31477" lon="-2.36241">
        <ele>35.200000762939</ele>
        <time>2021-12-02T11:10:11.000Z</time>
      </trkpt>
      <trkpt lat="47.31475" lon="-2.36235">
        <ele>35.799999237061</ele>
        <time>2021-12-02T11:10:12.000Z</time>
      </trkpt>
      <trkpt lat="47.31474" lon="-2.36229">
        <ele>36.200000762939</ele>
        <time>2021-12-02T11:10:13.000Z</time>
      </trkpt>
      <trkpt lat="47.31472" lon="-2.36223">
        <ele>36.599998474121</ele>
        <time>2021-12-02T11:10:14.000Z</time>
      </trkpt>
      <trkpt lat="47.31471" lon="-2.36218">
        <ele>37</ele>
        <time>2021-12-02T11:10:15.000Z</time>
      </trkpt>
      <trkpt lat="47.3147" lon="-2.36213">
        <ele>37.400001525879</ele>
        <time>2021-12-02T11:10:16.000Z</time>
      </trkpt>
      <trkpt lat="47.31468" lon="-2.36202">
        <ele>37.400001525879</ele>
        <time>2021-12-02T11:10:18.000Z</time>
      </trkpt>
      <trkpt lat="47.31461" lon="-2.3617">
        <ele>37.400001525879</ele>
        <time>2021-12-02T11:10:24.000Z</time>
      </trkpt>
      <trkpt lat="47.31456" lon="-2.36151">
        <ele>37.400001525879</ele>
        <time>2021-12-02T11:10:27.000Z</time>
      </trkpt>
      <trkpt lat="47.31451" lon="-2.36132">
        <ele>37.400001525879</ele>
        <time>2021-12-02T11:10:30.000Z</time>
      </trkpt>
      <trkpt lat="47.31445" lon="-2.36114">
        <ele>37.400001525879</ele>
        <time>2021-12-02T11:10:33.000Z</time>
      </trkpt>
      <trkpt lat="47.31441" lon="-2.361">
        <ele>37.400001525879</ele>
        <time>2021-12-02T11:10:35.000Z</time>
      </trkpt>
      <trkpt lat="47.31434" lon="-2.36079">
        <ele>37.400001525879</ele>
        <time>2021-12-02T11:10:38.000Z</time>
      </trkpt>
      <trkpt lat="47.31428" lon="-2.36065">
        <ele>37.400001525879</ele>
        <time>2021-12-02T11:10:40.000Z</time>
      </trkpt>
      <trkpt lat="47.31413" lon="-2.36015">
        <ele>37.400001525879</ele>
        <time>2021-12-02T11:10:46.000Z</time>
      </trkpt>
      <trkpt lat="47.31402" lon="-2.35989">
        <ele>37.400001525879</ele>
        <time>2021-12-02T11:10:49.000Z</time>
      </trkpt>
      <trkpt lat="47.31395" lon="-2.3597">
        <ele>37.400001525879</ele>
        <time>2021-12-02T11:10:51.000Z</time>
      </trkpt>
      <trkpt lat="47.31392" lon="-2.35961">
        <ele>37</ele>
        <time>2021-12-02T11:10:52.000Z</time>
      </trkpt>
      <trkpt lat="47.31388" lon="-2.35952">
        <ele>36.599998474121</ele>
        <time>2021-12-02T11:10:53.000Z</time>
      </trkpt>
      <trkpt lat="47.31383" lon="-2.35943">
        <ele>36.200000762939</ele>
        <time>2021-12-02T11:10:54.000Z</time>
      </trkpt>
      <trkpt lat="47.31379" lon="-2.35935">
        <ele>35.599998474121</ele>
        <time>2021-12-02T11:10:55.000Z</time>
      </trkpt>
      <trkpt lat="47.31374" lon="-2.35926">
        <ele>35.200000762939</ele>
        <time>2021-12-02T11:10:56.000Z</time>
      </trkpt>
      <trkpt lat="47.31353" lon="-2.35889">
        <ele>35.200000762939</ele>
        <time>2021-12-02T11:11:01.000Z</time>
      </trkpt>
      <trkpt lat="47.3135" lon="-2.35882">
        <ele>35.200000762939</ele>
        <time>2021-12-02T11:11:02.000Z</time>
      </trkpt>
      <trkpt lat="47.31339" lon="-2.35855">
        <ele>35.200000762939</ele>
        <time>2021-12-02T11:11:06.000Z</time>
      </trkpt>
      <trkpt lat="47.31338" lon="-2.35841">
        <ele>35.200000762939</ele>
        <time>2021-12-02T11:11:08.000Z</time>
      </trkpt>
      <trkpt lat="47.31334" lon="-2.35787">
        <ele>35.599998474121</ele>
        <time>2021-12-02T11:11:15.000Z</time>
      </trkpt>
      <trkpt lat="47.31333" lon="-2.3578">
        <ele>36</ele>
        <time>2021-12-02T11:11:16.000Z</time>
      </trkpt>
      <trkpt lat="47.31332" lon="-2.35772">
        <ele>36.400001525879</ele>
        <time>2021-12-02T11:11:17.000Z</time>
      </trkpt>
      <trkpt lat="47.31331" lon="-2.35764">
        <ele>36.799999237061</ele>
        <time>2021-12-02T11:11:18.000Z</time>
      </trkpt>
      <trkpt lat="47.31331" lon="-2.35756">
        <ele>37.200000762939</ele>
        <time>2021-12-02T11:11:19.000Z</time>
      </trkpt>
      <trkpt lat="47.31331" lon="-2.3574">
        <ele>37.200000762939</ele>
        <time>2021-12-02T11:11:21.000Z</time>
      </trkpt>
      <trkpt lat="47.31331" lon="-2.35717">
        <ele>37.200000762939</ele>
        <time>2021-12-02T11:11:24.000Z</time>
      </trkpt>
      <trkpt lat="47.3133" lon="-2.35702">
        <ele>37.200000762939</ele>
        <time>2021-12-02T11:11:26.000Z</time>
      </trkpt>
      <trkpt lat="47.31331" lon="-2.35677">
        <ele>37.200000762939</ele>
        <time>2021-12-02T11:11:29.000Z</time>
      </trkpt>
      <trkpt lat="47.31331" lon="-2.35662">
        <ele>37.200000762939</ele>
        <time>2021-12-02T11:11:31.000Z</time>
      </trkpt>
      <trkpt lat="47.31329" lon="-2.35612">
        <ele>37.200000762939</ele>
        <time>2021-12-02T11:11:37.000Z</time>
      </trkpt>
      <trkpt lat="47.31329" lon="-2.35548">
        <ele>37.200000762939</ele>
        <time>2021-12-02T11:11:44.000Z</time>
      </trkpt>
      <trkpt lat="47.31331" lon="-2.35511">
        <ele>36.799999237061</ele>
        <time>2021-12-02T11:11:48.000Z</time>
      </trkpt>
      <trkpt lat="47.3133" lon="-2.35501">
        <ele>36.400001525879</ele>
        <time>2021-12-02T11:11:49.000Z</time>
      </trkpt>
      <trkpt lat="47.31331" lon="-2.35491">
        <ele>36</ele>
        <time>2021-12-02T11:11:50.000Z</time>
      </trkpt>
      <trkpt lat="47.31331" lon="-2.35481">
        <ele>35.599998474121</ele>
        <time>2021-12-02T11:11:51.000Z</time>
      </trkpt>
      <trkpt lat="47.31331" lon="-2.35471">
        <ele>35.200000762939</ele>
        <time>2021-12-02T11:11:52.000Z</time>
      </trkpt>
      <trkpt lat="47.31332" lon="-2.35441">
        <ele>35.200000762939</ele>
        <time>2021-12-02T11:11:55.000Z</time>
      </trkpt>
      <trkpt lat="47.31332" lon="-2.35371">
        <ele>35.200000762939</ele>
        <time>2021-12-02T11:12:02.000Z</time>
      </trkpt>
      <trkpt lat="47.31333" lon="-2.35334">
        <ele>35.200000762939</ele>
        <time>2021-12-02T11:12:06.000Z</time>
      </trkpt>
      <trkpt lat="47.31337" lon="-2.35275">
        <ele>35.200000762939</ele>
        <time>2021-12-02T11:12:13.000Z</time>
      </trkpt>
      <trkpt lat="47.31339" lon="-2.35229">
        <ele>35.200000762939</ele>
        <time>2021-12-02T11:12:20.000Z</time>
      </trkpt>
      <trkpt lat="47.3134" lon="-2.3519">
        <ele>35.200000762939</ele>
        <time>2021-12-02T11:12:26.000Z</time>
      </trkpt>
      <trkpt lat="47.3134" lon="-2.35183">
        <ele>35.200000762939</ele>
        <time>2021-12-02T11:12:27.000Z</time>
      </trkpt>
      <trkpt lat="47.31342" lon="-2.35148">
        <ele>35.200000762939</ele>
        <time>2021-12-02T11:12:32.000Z</time>
      </trkpt>
      <trkpt lat="47.31343" lon="-2.35075">
        <ele>35.200000762939</ele>
        <time>2021-12-02T11:12:42.000Z</time>
      </trkpt>
      <trkpt lat="47.31343" lon="-2.35017">
        <ele>35.200000762939</ele>
        <time>2021-12-02T11:12:49.000Z</time>
      </trkpt>
      <trkpt lat="47.31342" lon="-2.35001">
        <ele>35.200000762939</ele>
        <time>2021-12-02T11:12:51.000Z</time>
      </trkpt>
      <trkpt lat="47.31336" lon="-2.34968">
        <ele>35.200000762939</ele>
        <time>2021-12-02T11:12:55.000Z</time>
      </trkpt>
      <trkpt lat="47.31321" lon="-2.34914">
        <ele>35.200000762939</ele>
        <time>2021-12-02T11:13:02.000Z</time>
      </trkpt>
      <trkpt lat="47.31308" lon="-2.34872">
        <ele>35.200000762939</ele>
        <time>2021-12-02T11:13:08.000Z</time>
      </trkpt>
      <trkpt lat="47.31298" lon="-2.34826">
        <ele>35.200000762939</ele>
        <time>2021-12-02T11:13:14.000Z</time>
      </trkpt>
      <trkpt lat="47.31283" lon="-2.34751">
        <ele>35.200000762939</ele>
        <time>2021-12-02T11:13:24.000Z</time>
      </trkpt>
      <trkpt lat="47.31278" lon="-2.34715">
        <ele>35.200000762939</ele>
        <time>2021-12-02T11:13:30.000Z</time>
      </trkpt>
      <trkpt lat="47.31273" lon="-2.34702">
        <ele>35.200000762939</ele>
        <time>2021-12-02T11:13:34.000Z</time>
      </trkpt>
      <trkpt lat="47.31274" lon="-2.34697">
        <ele>35.200000762939</ele>
        <time>2021-12-02T11:13:35.000Z</time>
      </trkpt>
      <trkpt lat="47.31278" lon="-2.34687">
        <ele>35.200000762939</ele>
        <time>2021-12-02T11:13:37.000Z</time>
      </trkpt>
      <trkpt lat="47.31284" lon="-2.3467">
        <ele>35.200000762939</ele>
        <time>2021-12-02T11:13:40.000Z</time>
      </trkpt>
      <trkpt lat="47.31288" lon="-2.34656">
        <ele>35.200000762939</ele>
        <time>2021-12-02T11:13:42.000Z</time>
      </trkpt>
      <trkpt lat="47.31289" lon="-2.34647">
        <ele>34.400001525879</ele>
        <time>2021-12-02T11:13:43.000Z</time>
      </trkpt>
      <trkpt lat="47.3129" lon="-2.34638">
        <ele>34</ele>
        <time>2021-12-02T11:13:44.000Z</time>
      </trkpt>
      <trkpt lat="47.3129" lon="-2.34629">
        <ele>33.599998474121</ele>
        <time>2021-12-02T11:13:45.000Z</time>
      </trkpt>
      <trkpt lat="47.3129" lon="-2.34619">
        <ele>33.200000762939</ele>
        <time>2021-12-02T11:13:46.000Z</time>
      </trkpt>
      <trkpt lat="47.31289" lon="-2.34608">
        <ele>33.200000762939</ele>
        <time>2021-12-02T11:13:47.000Z</time>
      </trkpt>
      <trkpt lat="47.31286" lon="-2.34576">
        <ele>32.599998474121</ele>
        <time>2021-12-02T11:13:50.000Z</time>
      </trkpt>
      <trkpt lat="47.31285" lon="-2.34564">
        <ele>32.200000762939</ele>
        <time>2021-12-02T11:13:51.000Z</time>
      </trkpt>
      <trkpt lat="47.31284" lon="-2.34553">
        <ele>31.799999237061</ele>
        <time>2021-12-02T11:13:52.000Z</time>
      </trkpt>
      <trkpt lat="47.31282" lon="-2.34542">
        <ele>31.39999961853</ele>
        <time>2021-12-02T11:13:53.000Z</time>
      </trkpt>
      <trkpt lat="47.31281" lon="-2.34531">
        <ele>30.799999237061</ele>
        <time>2021-12-02T11:13:54.000Z</time>
      </trkpt>
      <trkpt lat="47.31278" lon="-2.34497">
        <ele>30.799999237061</ele>
        <time>2021-12-02T11:13:57.000Z</time>
      </trkpt>
      <trkpt lat="47.31274" lon="-2.34453">
        <ele>30.39999961853</ele>
        <time>2021-12-02T11:14:01.000Z</time>
      </trkpt>
      <trkpt lat="47.31273" lon="-2.34442">
        <ele>30</ele>
        <time>2021-12-02T11:14:02.000Z</time>
      </trkpt>
      <trkpt lat="47.31271" lon="-2.34431">
        <ele>29.60000038147</ele>
        <time>2021-12-02T11:14:03.000Z</time>
      </trkpt>
      <trkpt lat="47.3127" lon="-2.3442">
        <ele>29.200000762939</ele>
        <time>2021-12-02T11:14:04.000Z</time>
      </trkpt>
      <trkpt lat="47.31268" lon="-2.34409">
        <ele>28.799999237061</ele>
        <time>2021-12-02T11:14:05.000Z</time>
      </trkpt>
      <trkpt lat="47.31264" lon="-2.34385">
        <ele>28.39999961853</ele>
        <time>2021-12-02T11:14:07.000Z</time>
      </trkpt>
      <trkpt lat="47.3126" lon="-2.34374">
        <ele>27.799999237061</ele>
        <time>2021-12-02T11:14:08.000Z</time>
      </trkpt>
      <trkpt lat="47.31255" lon="-2.34364">
        <ele>27.39999961853</ele>
        <time>2021-12-02T11:14:09.000Z</time>
      </trkpt>
      <trkpt lat="47.31249" lon="-2.34356">
        <ele>27</ele>
        <time>2021-12-02T11:14:10.000Z</time>
      </trkpt>
      <trkpt lat="47.31243" lon="-2.34349">
        <ele>26.60000038147</ele>
        <time>2021-12-02T11:14:11.000Z</time>
      </trkpt>
      <trkpt lat="47.31236" lon="-2.34343">
        <ele>26.60000038147</ele>
        <time>2021-12-02T11:14:12.000Z</time>
      </trkpt>
      <trkpt lat="47.3122" lon="-2.34337">
        <ele>26.200000762939</ele>
        <time>2021-12-02T11:14:14.000Z</time>
      </trkpt>
      <trkpt lat="47.31213" lon="-2.34334">
        <ele>25.799999237061</ele>
        <time>2021-12-02T11:14:15.000Z</time>
      </trkpt>
      <trkpt lat="47.31206" lon="-2.34329">
        <ele>25.39999961853</ele>
        <time>2021-12-02T11:14:16.000Z</time>
      </trkpt>
      <trkpt lat="47.312" lon="-2.34323">
        <ele>25</ele>
        <time>2021-12-02T11:14:17.000Z</time>
      </trkpt>
      <trkpt lat="47.31194" lon="-2.34316">
        <ele>24.60000038147</ele>
        <time>2021-12-02T11:14:18.000Z</time>
      </trkpt>
      <trkpt lat="47.31189" lon="-2.34308">
        <ele>24.60000038147</ele>
        <time>2021-12-02T11:14:19.000Z</time>
      </trkpt>
      <trkpt lat="47.31184" lon="-2.34299">
        <ele>24.60000038147</ele>
        <time>2021-12-02T11:14:20.000Z</time>
      </trkpt>
      <trkpt lat="47.3117" lon="-2.34269">
        <ele>24.60000038147</ele>
        <time>2021-12-02T11:14:23.000Z</time>
      </trkpt>
      <trkpt lat="47.3114" lon="-2.34212">
        <ele>24.60000038147</ele>
        <time>2021-12-02T11:14:30.000Z</time>
      </trkpt>
      <trkpt lat="47.31118" lon="-2.34173">
        <ele>24.60000038147</ele>
        <time>2021-12-02T11:14:36.000Z</time>
      </trkpt>
      <trkpt lat="47.31115" lon="-2.34166">
        <ele>25</ele>
        <time>2021-12-02T11:14:37.000Z</time>
      </trkpt>
      <trkpt lat="47.31112" lon="-2.3416">
        <ele>25.39999961853</ele>
        <time>2021-12-02T11:14:38.000Z</time>
      </trkpt>
      <trkpt lat="47.31109" lon="-2.34155">
        <ele>25.799999237061</ele>
        <time>2021-12-02T11:14:39.000Z</time>
      </trkpt>
      <trkpt lat="47.31106" lon="-2.34149">
        <ele>26.200000762939</ele>
        <time>2021-12-02T11:14:40.000Z</time>
      </trkpt>
      <trkpt lat="47.31103" lon="-2.34143">
        <ele>26.60000038147</ele>
        <time>2021-12-02T11:14:41.000Z</time>
      </trkpt>
      <trkpt lat="47.31097" lon="-2.34133">
        <ele>26.60000038147</ele>
        <time>2021-12-02T11:14:43.000Z</time>
      </trkpt>
      <trkpt lat="47.31094" lon="-2.34127">
        <ele>27.200000762939</ele>
        <time>2021-12-02T11:14:44.000Z</time>
      </trkpt>
      <trkpt lat="47.31091" lon="-2.34121">
        <ele>27.60000038147</ele>
        <time>2021-12-02T11:14:45.000Z</time>
      </trkpt>
      <trkpt lat="47.31089" lon="-2.34116">
        <ele>28</ele>
        <time>2021-12-02T11:14:46.000Z</time>
      </trkpt>
      <trkpt lat="47.31087" lon="-2.3411">
        <ele>28.39999961853</ele>
        <time>2021-12-02T11:14:47.000Z</time>
      </trkpt>
      <trkpt lat="47.31084" lon="-2.34104">
        <ele>28.799999237061</ele>
        <time>2021-12-02T11:14:48.000Z</time>
      </trkpt>
      <trkpt lat="47.31078" lon="-2.34091">
        <ele>28.799999237061</ele>
        <time>2021-12-02T11:14:50.000Z</time>
      </trkpt>
      <trkpt lat="47.31072" lon="-2.34072">
        <ele>29.39999961853</ele>
        <time>2021-12-02T11:14:53.000Z</time>
      </trkpt>
      <trkpt lat="47.3107" lon="-2.34065">
        <ele>29.799999237061</ele>
        <time>2021-12-02T11:14:54.000Z</time>
      </trkpt>
      <trkpt lat="47.31069" lon="-2.34059">
        <ele>30.200000762939</ele>
        <time>2021-12-02T11:14:55.000Z</time>
      </trkpt>
      <trkpt lat="47.31067" lon="-2.34052">
        <ele>30.60000038147</ele>
        <time>2021-12-02T11:14:56.000Z</time>
      </trkpt>
      <trkpt lat="47.31066" lon="-2.34045">
        <ele>31</ele>
        <time>2021-12-02T11:14:57.000Z</time>
      </trkpt>
      <trkpt lat="47.31062" lon="-2.34003">
        <ele>31</ele>
        <time>2021-12-02T11:15:03.000Z</time>
      </trkpt>
      <trkpt lat="47.31059" lon="-2.33954">
        <ele>31</ele>
        <time>2021-12-02T11:15:10.000Z</time>
      </trkpt>
      <trkpt lat="47.31055" lon="-2.33949">
        <ele>31</ele>
        <time>2021-12-02T11:15:11.000Z</time>
      </trkpt>
      <trkpt lat="47.31042" lon="-2.33946">
        <ele>31</ele>
        <time>2021-12-02T11:15:14.000Z</time>
      </trkpt>
      <trkpt lat="47.31038" lon="-2.33947">
        <ele>31</ele>
        <time>2021-12-02T11:15:15.000Z</time>
      </trkpt>
      <trkpt lat="47.31029" lon="-2.33949">
        <ele>31.39999961853</ele>
        <time>2021-12-02T11:15:17.000Z</time>
      </trkpt>
      <trkpt lat="47.31024" lon="-2.3395">
        <ele>31.799999237061</ele>
        <time>2021-12-02T11:15:18.000Z</time>
      </trkpt>
      <trkpt lat="47.3102" lon="-2.33951">
        <ele>32.200000762939</ele>
        <time>2021-12-02T11:15:19.000Z</time>
      </trkpt>
      <trkpt lat="47.31015" lon="-2.33952">
        <ele>32.599998474121</ele>
        <time>2021-12-02T11:15:20.000Z</time>
      </trkpt>
      <trkpt lat="47.31011" lon="-2.33953">
        <ele>33.200000762939</ele>
        <time>2021-12-02T11:15:21.000Z</time>
      </trkpt>
      <trkpt lat="47.31006" lon="-2.33953">
        <ele>33.200000762939</ele>
        <time>2021-12-02T11:15:22.000Z</time>
      </trkpt>
      <trkpt lat="47.30975" lon="-2.33956">
        <ele>33.200000762939</ele>
        <time>2021-12-02T11:15:29.000Z</time>
      </trkpt>
      <trkpt lat="47.30961" lon="-2.33955">
        <ele>33.599998474121</ele>
        <time>2021-12-02T11:15:32.000Z</time>
      </trkpt>
      <trkpt lat="47.30957" lon="-2.33954">
        <ele>34</ele>
        <time>2021-12-02T11:15:33.000Z</time>
      </trkpt>
      <trkpt lat="47.30952" lon="-2.33954">
        <ele>34.400001525879</ele>
        <time>2021-12-02T11:15:34.000Z</time>
      </trkpt>
      <trkpt lat="47.30948" lon="-2.33953">
        <ele>34.799999237061</ele>
        <time>2021-12-02T11:15:35.000Z</time>
      </trkpt>
      <trkpt lat="47.30943" lon="-2.33951">
        <ele>35.200000762939</ele>
        <time>2021-12-02T11:15:36.000Z</time>
      </trkpt>
      <trkpt lat="47.30926" lon="-2.3395">
        <ele>35.200000762939</ele>
        <time>2021-12-02T11:15:40.000Z</time>
      </trkpt>
      <trkpt lat="47.3089" lon="-2.33948">
        <ele>35.200000762939</ele>
        <time>2021-12-02T11:15:48.000Z</time>
      </trkpt>
      <trkpt lat="47.30878" lon="-2.33951">
        <ele>35.200000762939</ele>
        <time>2021-12-02T11:15:51.000Z</time>
      </trkpt>
      <trkpt lat="47.30864" lon="-2.33953">
        <ele>35.200000762939</ele>
        <time>2021-12-02T11:15:54.000Z</time>
      </trkpt>
      <trkpt lat="47.30828" lon="-2.3396">
        <ele>35.200000762939</ele>
        <time>2021-12-02T11:16:02.000Z</time>
      </trkpt>
      <trkpt lat="47.30793" lon="-2.3397">
        <ele>35.200000762939</ele>
        <time>2021-12-02T11:16:10.000Z</time>
      </trkpt>
      <trkpt lat="47.30784" lon="-2.33973">
        <ele>35.200000762939</ele>
        <time>2021-12-02T11:16:12.000Z</time>
      </trkpt>
      <trkpt lat="47.30776" lon="-2.33982">
        <ele>35.200000762939</ele>
        <time>2021-12-02T11:16:14.000Z</time>
      </trkpt>
      <trkpt lat="47.30775" lon="-2.33994">
        <ele>35.200000762939</ele>
        <time>2021-12-02T11:16:16.000Z</time>
      </trkpt>
      <trkpt lat="47.30774" lon="-2.34033">
        <ele>35.200000762939</ele>
        <time>2021-12-02T11:16:22.000Z</time>
      </trkpt>
      <trkpt lat="47.30774" lon="-2.34074">
        <ele>35.200000762939</ele>
        <time>2021-12-02T11:16:28.000Z</time>
      </trkpt>
      <trkpt lat="47.30773" lon="-2.34087">
        <ele>35.200000762939</ele>
        <time>2021-12-02T11:16:30.000Z</time>
      </trkpt>
      <trkpt lat="47.30771" lon="-2.34106">
        <ele>35.200000762939</ele>
        <time>2021-12-02T11:16:33.000Z</time>
      </trkpt>
      <trkpt lat="47.30771" lon="-2.34114">
        <ele>35.200000762939</ele>
        <time>2021-12-02T11:16:34.000Z</time>
      </trkpt>
      <trkpt lat="47.30769" lon="-2.34164">
        <ele>35.200000762939</ele>
        <time>2021-12-02T11:16:41.000Z</time>
      </trkpt>
      <trkpt lat="47.30769" lon="-2.34198">
        <ele>35.200000762939</ele>
        <time>2021-12-02T11:16:46.000Z</time>
      </trkpt>
      <trkpt lat="47.30767" lon="-2.34205">
        <ele>35.200000762939</ele>
        <time>2021-12-02T11:16:47.000Z</time>
      </trkpt>
      <trkpt lat="47.30753" lon="-2.34215">
        <ele>35.200000762939</ele>
        <time>2021-12-02T11:16:50.000Z</time>
      </trkpt>
      <trkpt lat="47.30733" lon="-2.34221">
        <ele>35.200000762939</ele>
        <time>2021-12-02T11:16:54.000Z</time>
      </trkpt>
      <trkpt lat="47.3073" lon="-2.34225">
        <ele>35.200000762939</ele>
        <time>2021-12-02T11:16:55.000Z</time>
      </trkpt>
      <trkpt lat="47.30727" lon="-2.34244">
        <ele>35.200000762939</ele>
        <time>2021-12-02T11:16:58.000Z</time>
      </trkpt>
      <trkpt lat="47.30724" lon="-2.34258">
        <ele>35.200000762939</ele>
        <time>2021-12-02T11:17:00.000Z</time>
      </trkpt>
      <trkpt lat="47.30723" lon="-2.34266">
        <ele>35.200000762939</ele>
        <time>2021-12-02T11:17:01.000Z</time>
      </trkpt>
      <trkpt lat="47.30718" lon="-2.34275">
        <ele>35.200000762939</ele>
        <time>2021-12-02T11:17:03.000Z</time>
      </trkpt>
      <trkpt lat="47.30709" lon="-2.34292">
        <ele>35.200000762939</ele>
        <time>2021-12-02T11:17:07.000Z</time>
      </trkpt>
      <trkpt lat="47.30707" lon="-2.34297">
        <ele>35.200000762939</ele>
        <time>2021-12-02T11:17:08.000Z</time>
      </trkpt>
      <trkpt lat="47.30697" lon="-2.34316">
        <ele>35.200000762939</ele>
        <time>2021-12-02T11:17:13.000Z</time>
      </trkpt>
      <trkpt lat="47.3069" lon="-2.3433">
        <ele>35.599998474121</ele>
        <time>2021-12-02T11:17:16.000Z</time>
      </trkpt>
      <trkpt lat="47.30688" lon="-2.34336">
        <ele>36</ele>
        <time>2021-12-02T11:17:17.000Z</time>
      </trkpt>
      <trkpt lat="47.30685" lon="-2.34342">
        <ele>36.400001525879</ele>
        <time>2021-12-02T11:17:18.000Z</time>
      </trkpt>
      <trkpt lat="47.30683" lon="-2.34348">
        <ele>36.799999237061</ele>
        <time>2021-12-02T11:17:19.000Z</time>
      </trkpt>
      <trkpt lat="47.3068" lon="-2.34354">
        <ele>37.200000762939</ele>
        <time>2021-12-02T11:17:20.000Z</time>
      </trkpt>
      <trkpt lat="47.30677" lon="-2.34359">
        <ele>37.200000762939</ele>
        <time>2021-12-02T11:17:21.000Z</time>
      </trkpt>
      <trkpt lat="47.30661" lon="-2.34385">
        <ele>37.200000762939</ele>
        <time>2021-12-02T11:17:26.000Z</time>
      </trkpt>
      <trkpt lat="47.30649" lon="-2.34405">
        <ele>37.200000762939</ele>
        <time>2021-12-02T11:17:30.000Z</time>
      </trkpt>
      <trkpt lat="47.30638" lon="-2.34421">
        <ele>37.200000762939</ele>
        <time>2021-12-02T11:17:33.000Z</time>
      </trkpt>
      <trkpt lat="47.30618" lon="-2.3445">
        <ele>37.200000762939</ele>
        <time>2021-12-02T11:17:38.000Z</time>
      </trkpt>
      <trkpt lat="47.30614" lon="-2.34456">
        <ele>37.200000762939</ele>
        <time>2021-12-02T11:17:39.000Z</time>
      </trkpt>
      <trkpt lat="47.306" lon="-2.34483">
        <ele>37.200000762939</ele>
        <time>2021-12-02T11:17:43.000Z</time>
      </trkpt>
      <trkpt lat="47.30589" lon="-2.34503">
        <ele>37.200000762939</ele>
        <time>2021-12-02T11:17:46.000Z</time>
      </trkpt>
      <trkpt lat="47.30586" lon="-2.3451">
        <ele>37.200000762939</ele>
        <time>2021-12-02T11:17:47.000Z</time>
      </trkpt>
      <trkpt lat="47.30575" lon="-2.34532">
        <ele>37.200000762939</ele>
        <time>2021-12-02T11:17:50.000Z</time>
      </trkpt>
      <trkpt lat="47.30557" lon="-2.34562">
        <ele>37.200000762939</ele>
        <time>2021-12-02T11:17:54.000Z</time>
      </trkpt>
      <trkpt lat="47.3053" lon="-2.346">
        <ele>37.200000762939</ele>
        <time>2021-12-02T11:18:00.000Z</time>
      </trkpt>
      <trkpt lat="47.30522" lon="-2.34613">
        <ele>37.200000762939</ele>
        <time>2021-12-02T11:18:02.000Z</time>
      </trkpt>
      <trkpt lat="47.30514" lon="-2.34627">
        <ele>37.200000762939</ele>
        <time>2021-12-02T11:18:04.000Z</time>
      </trkpt>
      <trkpt lat="47.30512" lon="-2.34634">
        <ele>37.200000762939</ele>
        <time>2021-12-02T11:18:05.000Z</time>
      </trkpt>
      <trkpt lat="47.30502" lon="-2.34654">
        <ele>36.799999237061</ele>
        <time>2021-12-02T11:18:08.000Z</time>
      </trkpt>
      <trkpt lat="47.30498" lon="-2.3466">
        <ele>36.400001525879</ele>
        <time>2021-12-02T11:18:09.000Z</time>
      </trkpt>
      <trkpt lat="47.30493" lon="-2.34665">
        <ele>36</ele>
        <time>2021-12-02T11:18:10.000Z</time>
      </trkpt>
      <trkpt lat="47.30488" lon="-2.34671">
        <ele>35.599998474121</ele>
        <time>2021-12-02T11:18:11.000Z</time>
      </trkpt>
      <trkpt lat="47.30483" lon="-2.34676">
        <ele>35.200000762939</ele>
        <time>2021-12-02T11:18:12.000Z</time>
      </trkpt>
      <trkpt lat="47.30478" lon="-2.34681">
        <ele>35.200000762939</ele>
        <time>2021-12-02T11:18:13.000Z</time>
      </trkpt>
      <trkpt lat="47.30473" lon="-2.34686">
        <ele>35.200000762939</ele>
        <time>2021-12-02T11:18:14.000Z</time>
      </trkpt>
      <trkpt lat="47.30448" lon="-2.34707">
        <ele>35.200000762939</ele>
        <time>2021-12-02T11:18:19.000Z</time>
      </trkpt>
      <trkpt lat="47.30429" lon="-2.34725">
        <ele>35.200000762939</ele>
        <time>2021-12-02T11:18:23.000Z</time>
      </trkpt>
      <trkpt lat="47.30424" lon="-2.34728">
        <ele>35.200000762939</ele>
        <time>2021-12-02T11:18:24.000Z</time>
      </trkpt>
      <trkpt lat="47.30397" lon="-2.34744">
        <ele>35.200000762939</ele>
        <time>2021-12-02T11:18:29.000Z</time>
      </trkpt>
      <trkpt lat="47.30392" lon="-2.34748">
        <ele>35.200000762939</ele>
        <time>2021-12-02T11:18:30.000Z</time>
      </trkpt>
      <trkpt lat="47.30361" lon="-2.34769">
        <ele>35.200000762939</ele>
        <time>2021-12-02T11:18:36.000Z</time>
      </trkpt>
      <trkpt lat="47.30351" lon="-2.34776">
        <ele>35.200000762939</ele>
        <time>2021-12-02T11:18:38.000Z</time>
      </trkpt>
      <trkpt lat="47.30342" lon="-2.34786">
        <ele>35.200000762939</ele>
        <time>2021-12-02T11:18:40.000Z</time>
      </trkpt>
      <trkpt lat="47.30339" lon="-2.34791">
        <ele>35.200000762939</ele>
        <time>2021-12-02T11:18:41.000Z</time>
      </trkpt>
      <trkpt lat="47.30324" lon="-2.34818">
        <ele>35.200000762939</ele>
        <time>2021-12-02T11:18:45.000Z</time>
      </trkpt>
      <trkpt lat="47.30314" lon="-2.34829">
        <ele>35.200000762939</ele>
        <time>2021-12-02T11:18:47.000Z</time>
      </trkpt>
      <trkpt lat="47.30294" lon="-2.3485">
        <ele>35.200000762939</ele>
        <time>2021-12-02T11:18:51.000Z</time>
      </trkpt>
      <trkpt lat="47.30284" lon="-2.34858">
        <ele>35.200000762939</ele>
        <time>2021-12-02T11:18:53.000Z</time>
      </trkpt>
      <trkpt lat="47.30251" lon="-2.34877">
        <ele>35.200000762939</ele>
        <time>2021-12-02T11:18:59.000Z</time>
      </trkpt>
      <trkpt lat="47.30235" lon="-2.34889">
        <ele>35.200000762939</ele>
        <time>2021-12-02T11:19:02.000Z</time>
      </trkpt>
      <trkpt lat="47.30225" lon="-2.34898">
        <ele>35.200000762939</ele>
        <time>2021-12-02T11:19:04.000Z</time>
      </trkpt>
      <trkpt lat="47.30215" lon="-2.34909">
        <ele>35.200000762939</ele>
        <time>2021-12-02T11:19:06.000Z</time>
      </trkpt>
      <trkpt lat="47.30212" lon="-2.34917">
        <ele>35.200000762939</ele>
        <time>2021-12-02T11:19:07.000Z</time>
      </trkpt>
      <trkpt lat="47.3021" lon="-2.34952">
        <ele>35.200000762939</ele>
        <time>2021-12-02T11:19:11.000Z</time>
      </trkpt>
      <trkpt lat="47.30208" lon="-2.35008">
        <ele>35.200000762939</ele>
        <time>2021-12-02T11:19:17.000Z</time>
      </trkpt>
      <trkpt lat="47.30209" lon="-2.35048">
        <ele>34.599998474121</ele>
        <time>2021-12-02T11:19:21.000Z</time>
      </trkpt>
      <trkpt lat="47.30209" lon="-2.35058">
        <ele>34.200000762939</ele>
        <time>2021-12-02T11:19:22.000Z</time>
      </trkpt>
      <trkpt lat="47.30209" lon="-2.35068">
        <ele>33.799999237061</ele>
        <time>2021-12-02T11:19:23.000Z</time>
      </trkpt>
      <trkpt lat="47.30209" lon="-2.35079">
        <ele>33.400001525879</ele>
        <time>2021-12-02T11:19:24.000Z</time>
      </trkpt>
      <trkpt lat="47.30209" lon="-2.35089">
        <ele>32.799999237061</ele>
        <time>2021-12-02T11:19:25.000Z</time>
      </trkpt>
      <trkpt lat="47.30208" lon="-2.35098">
        <ele>32.799999237061</ele>
        <time>2021-12-02T11:19:26.000Z</time>
      </trkpt>
      <trkpt lat="47.30207" lon="-2.35137">
        <ele>32.799999237061</ele>
        <time>2021-12-02T11:19:30.000Z</time>
      </trkpt>
      <trkpt lat="47.30207" lon="-2.35146">
        <ele>32.799999237061</ele>
        <time>2021-12-02T11:19:31.000Z</time>
      </trkpt>
      <trkpt lat="47.30207" lon="-2.35155">
        <ele>32.799999237061</ele>
        <time>2021-12-02T11:19:32.000Z</time>
      </trkpt>
      <trkpt lat="47.30205" lon="-2.35161">
        <ele>32.400001525879</ele>
        <time>2021-12-02T11:19:33.000Z</time>
      </trkpt>
      <trkpt lat="47.30202" lon="-2.35166">
        <ele>32</ele>
        <time>2021-12-02T11:19:34.000Z</time>
      </trkpt>
      <trkpt lat="47.30198" lon="-2.35169">
        <ele>31.60000038147</ele>
        <time>2021-12-02T11:19:35.000Z</time>
      </trkpt>
      <trkpt lat="47.30194" lon="-2.35172">
        <ele>31</ele>
        <time>2021-12-02T11:19:36.000Z</time>
      </trkpt>
      <trkpt lat="47.3019" lon="-2.35174">
        <ele>30.60000038147</ele>
        <time>2021-12-02T11:19:37.000Z</time>
      </trkpt>
      <trkpt lat="47.30171" lon="-2.35178">
        <ele>30.60000038147</ele>
        <time>2021-12-02T11:19:41.000Z</time>
      </trkpt>
      <trkpt lat="47.30167" lon="-2.35181">
        <ele>30.60000038147</ele>
        <time>2021-12-02T11:19:42.000Z</time>
      </trkpt>
      <trkpt lat="47.30153" lon="-2.35194">
        <ele>30.60000038147</ele>
        <time>2021-12-02T11:19:46.000Z</time>
      </trkpt>
      <trkpt lat="47.3015" lon="-2.35194">
        <ele>30.60000038147</ele>
        <time>2021-12-02T11:19:47.000Z</time>
      </trkpt>
      <trkpt lat="47.30146" lon="-2.35194">
        <ele>30.200000762939</ele>
        <time>2021-12-02T11:19:48.000Z</time>
      </trkpt>
      <trkpt lat="47.30142" lon="-2.35195">
        <ele>29.799999237061</ele>
        <time>2021-12-02T11:19:49.000Z</time>
      </trkpt>
      <trkpt lat="47.30138" lon="-2.35195">
        <ele>29.39999961853</ele>
        <time>2021-12-02T11:19:50.000Z</time>
      </trkpt>
      <trkpt lat="47.30134" lon="-2.35196">
        <ele>29</ele>
        <time>2021-12-02T11:19:51.000Z</time>
      </trkpt>
      <trkpt lat="47.30129" lon="-2.35197">
        <ele>28.60000038147</ele>
        <time>2021-12-02T11:19:52.000Z</time>
      </trkpt>
      <trkpt lat="47.30125" lon="-2.35199">
        <ele>28.60000038147</ele>
        <time>2021-12-02T11:19:53.000Z</time>
      </trkpt>
      <trkpt lat="47.30115" lon="-2.35204">
        <ele>28.60000038147</ele>
        <time>2021-12-02T11:19:55.000Z</time>
      </trkpt>
      <trkpt lat="47.30104" lon="-2.35209">
        <ele>28.60000038147</ele>
        <time>2021-12-02T11:19:57.000Z</time>
      </trkpt>
      <trkpt lat="47.30089" lon="-2.35216">
        <ele>28.60000038147</ele>
        <time>2021-12-02T11:20:00.000Z</time>
      </trkpt>
      <trkpt lat="47.30079" lon="-2.35219">
        <ele>28.60000038147</ele>
        <time>2021-12-02T11:20:02.000Z</time>
      </trkpt>
      <trkpt lat="47.30071" lon="-2.35223">
        <ele>28.60000038147</ele>
        <time>2021-12-02T11:20:04.000Z</time>
      </trkpt>
      <trkpt lat="47.30064" lon="-2.35225">
        <ele>28.60000038147</ele>
        <time>2021-12-02T11:20:06.000Z</time>
      </trkpt>
      <trkpt lat="47.30062" lon="-2.35228">
        <ele>28.60000038147</ele>
        <time>2021-12-02T11:20:07.000Z</time>
      </trkpt>
      <trkpt lat="47.30055" lon="-2.35233">
        <ele>28.60000038147</ele>
        <time>2021-12-02T11:20:10.000Z</time>
      </trkpt>
      <trkpt lat="47.30051" lon="-2.35235">
        <ele>28.60000038147</ele>
        <time>2021-12-02T11:20:11.000Z</time>
      </trkpt>
      <trkpt lat="47.30029" lon="-2.35247">
        <ele>28.60000038147</ele>
        <time>2021-12-02T11:20:17.000Z</time>
      </trkpt>
      <trkpt lat="47.30027" lon="-2.35247">
        <ele>28.60000038147</ele>
        <time>2021-12-02T11:20:18.000Z</time>
      </trkpt>
      <trkpt lat="47.30023" lon="-2.35248">
        <ele>28.60000038147</ele>
        <time>2021-12-02T11:20:20.000Z</time>
      </trkpt>
      <trkpt lat="47.30017" lon="-2.35253">
        <ele>28.60000038147</ele>
        <time>2021-12-02T11:20:22.000Z</time>
      </trkpt>
      <trkpt lat="47.30011" lon="-2.35257">
        <ele>28.60000038147</ele>
        <time>2021-12-02T11:20:24.000Z</time>
      </trkpt>
      <trkpt lat="47.29998" lon="-2.35261">
        <ele>28.60000038147</ele>
        <time>2021-12-02T11:20:29.000Z</time>
      </trkpt>
      <trkpt lat="47.29998" lon="-2.35261">
        <ele>28.60000038147</ele>
        <time>2021-12-02T11:20:30.000Z</time>
      </trkpt>
      <trkpt lat="47.29995" lon="-2.35264">
        <ele>28.60000038147</ele>
        <time>2021-12-02T11:28:39.000Z</time>
      </trkpt>
      <trkpt lat="47.2999" lon="-2.35269">
        <ele>28.60000038147</ele>
        <time>2021-12-02T11:28:42.000Z</time>
      </trkpt>
      <trkpt lat="47.29976" lon="-2.35286">
        <ele>28.60000038147</ele>
        <time>2021-12-02T11:28:47.000Z</time>
      </trkpt>
      <trkpt lat="47.29947" lon="-2.35323">
        <ele>28.60000038147</ele>
        <time>2021-12-02T11:28:55.000Z</time>
      </trkpt>
      <trkpt lat="47.29914" lon="-2.35363">
        <ele>28.60000038147</ele>
        <time>2021-12-02T11:29:04.000Z</time>
      </trkpt>
      <trkpt lat="47.29884" lon="-2.35398">
        <ele>28.60000038147</ele>
        <time>2021-12-02T11:29:12.000Z</time>
      </trkpt>
      <trkpt lat="47.29856" lon="-2.35428">
        <ele>28.60000038147</ele>
        <time>2021-12-02T11:29:20.000Z</time>
      </trkpt>
      <trkpt lat="47.29833" lon="-2.35454">
        <ele>28.60000038147</ele>
        <time>2021-12-02T11:29:26.000Z</time>
      </trkpt>
      <trkpt lat="47.29829" lon="-2.3546">
        <ele>28.60000038147</ele>
        <time>2021-12-02T11:29:27.000Z</time>
      </trkpt>
      <trkpt lat="47.29827" lon="-2.35477">
        <ele>28.60000038147</ele>
        <time>2021-12-02T11:29:30.000Z</time>
      </trkpt>
      <trkpt lat="47.2983" lon="-2.35489">
        <ele>28.60000038147</ele>
        <time>2021-12-02T11:29:32.000Z</time>
      </trkpt>
      <trkpt lat="47.29832" lon="-2.35494">
        <ele>29</ele>
        <time>2021-12-02T11:29:33.000Z</time>
      </trkpt>
      <trkpt lat="47.29834" lon="-2.355">
        <ele>29.39999961853</ele>
        <time>2021-12-02T11:29:34.000Z</time>
      </trkpt>
      <trkpt lat="47.29835" lon="-2.35506">
        <ele>29.799999237061</ele>
        <time>2021-12-02T11:29:35.000Z</time>
      </trkpt>
      <trkpt lat="47.29837" lon="-2.35512">
        <ele>30.200000762939</ele>
        <time>2021-12-02T11:29:36.000Z</time>
      </trkpt>
      <trkpt lat="47.29839" lon="-2.35518">
        <ele>30.60000038147</ele>
        <time>2021-12-02T11:29:37.000Z</time>
      </trkpt>
      <trkpt lat="47.29847" lon="-2.35543">
        <ele>30.60000038147</ele>
        <time>2021-12-02T11:29:41.000Z</time>
      </trkpt>
      <trkpt lat="47.2986" lon="-2.3559">
        <ele>30.60000038147</ele>
        <time>2021-12-02T11:29:49.000Z</time>
      </trkpt>
      <trkpt lat="47.29869" lon="-2.35627">
        <ele>31</ele>
        <time>2021-12-02T11:29:55.000Z</time>
      </trkpt>
      <trkpt lat="47.2987" lon="-2.35633">
        <ele>31.39999961853</ele>
        <time>2021-12-02T11:29:56.000Z</time>
      </trkpt>
      <trkpt lat="47.29872" lon="-2.35639">
        <ele>31.799999237061</ele>
        <time>2021-12-02T11:29:57.000Z</time>
      </trkpt>
      <trkpt lat="47.29873" lon="-2.35645">
        <ele>32.200000762939</ele>
        <time>2021-12-02T11:29:58.000Z</time>
      </trkpt>
      <trkpt lat="47.29874" lon="-2.35651">
        <ele>32.599998474121</ele>
        <time>2021-12-02T11:29:59.000Z</time>
      </trkpt>
      <trkpt lat="47.29876" lon="-2.35675">
        <ele>32.599998474121</ele>
        <time>2021-12-02T11:30:03.000Z</time>
      </trkpt>
      <trkpt lat="47.29881" lon="-2.357">
        <ele>32.599998474121</ele>
        <time>2021-12-02T11:30:07.000Z</time>
      </trkpt>
      <trkpt lat="47.29889" lon="-2.35724">
        <ele>32.599998474121</ele>
        <time>2021-12-02T11:30:11.000Z</time>
      </trkpt>
      <trkpt lat="47.29894" lon="-2.35747">
        <ele>32.599998474121</ele>
        <time>2021-12-02T11:30:15.000Z</time>
      </trkpt>
      <trkpt lat="47.29893" lon="-2.35752">
        <ele>32.599998474121</ele>
        <time>2021-12-02T11:30:16.000Z</time>
      </trkpt>
      <trkpt lat="47.29885" lon="-2.3576">
        <ele>32.599998474121</ele>
        <time>2021-12-02T11:30:19.000Z</time>
      </trkpt>
      <trkpt lat="47.29877" lon="-2.35762">
        <ele>32.599998474121</ele>
        <time>2021-12-02T11:30:21.000Z</time>
      </trkpt>
      <trkpt lat="47.29865" lon="-2.35768">
        <ele>32.599998474121</ele>
        <time>2021-12-02T11:30:24.000Z</time>
      </trkpt>
      <trkpt lat="47.29838" lon="-2.35776">
        <ele>32.599998474121</ele>
        <time>2021-12-02T11:30:31.000Z</time>
      </trkpt>
      <trkpt lat="47.29835" lon="-2.35778">
        <ele>32.599998474121</ele>
        <time>2021-12-02T11:30:32.000Z</time>
      </trkpt>
      <trkpt lat="47.29826" lon="-2.35788">
        <ele>32.599998474121</ele>
        <time>2021-12-02T11:30:35.000Z</time>
      </trkpt>
      <trkpt lat="47.29818" lon="-2.35791">
        <ele>33</ele>
        <time>2021-12-02T11:30:37.000Z</time>
      </trkpt>
      <trkpt lat="47.29814" lon="-2.35793">
        <ele>33.599998474121</ele>
        <time>2021-12-02T11:30:38.000Z</time>
      </trkpt>
      <trkpt lat="47.2981" lon="-2.35794">
        <ele>34</ele>
        <time>2021-12-02T11:30:39.000Z</time>
      </trkpt>
      <trkpt lat="47.29806" lon="-2.35795">
        <ele>34.400001525879</ele>
        <time>2021-12-02T11:30:40.000Z</time>
      </trkpt>
      <trkpt lat="47.29802" lon="-2.35796">
        <ele>34.799999237061</ele>
        <time>2021-12-02T11:30:41.000Z</time>
      </trkpt>
      <trkpt lat="47.29768" lon="-2.35807">
        <ele>34.799999237061</ele>
        <time>2021-12-02T11:30:49.000Z</time>
      </trkpt>
      <trkpt lat="47.29739" lon="-2.35819">
        <ele>34.799999237061</ele>
        <time>2021-12-02T11:30:55.000Z</time>
      </trkpt>
      <trkpt lat="47.29709" lon="-2.35837">
        <ele>34.799999237061</ele>
        <time>2021-12-02T11:31:00.000Z</time>
      </trkpt>
      <trkpt lat="47.29678" lon="-2.35849">
        <ele>34.799999237061</ele>
        <time>2021-12-02T11:31:05.000Z</time>
      </trkpt>
      <trkpt lat="47.29672" lon="-2.35852">
        <ele>34.799999237061</ele>
        <time>2021-12-02T11:31:06.000Z</time>
      </trkpt>
      <trkpt lat="47.29667" lon="-2.35856">
        <ele>34.400001525879</ele>
        <time>2021-12-02T11:31:07.000Z</time>
      </trkpt>
      <trkpt lat="47.29662" lon="-2.35861">
        <ele>34</ele>
        <time>2021-12-02T11:31:08.000Z</time>
      </trkpt>
      <trkpt lat="47.29657" lon="-2.35865">
        <ele>33.599998474121</ele>
        <time>2021-12-02T11:31:10.000Z</time>
      </trkpt>
      <trkpt lat="47.29652" lon="-2.35868">
        <ele>33.200000762939</ele>
        <time>2021-12-02T11:31:11.000Z</time>
      </trkpt>
      <trkpt lat="47.29646" lon="-2.35871">
        <ele>32.799999237061</ele>
        <time>2021-12-02T11:31:12.000Z</time>
      </trkpt>
      <trkpt lat="47.29626" lon="-2.35882">
        <ele>32.799999237061</ele>
        <time>2021-12-02T11:31:16.000Z</time>
      </trkpt>
      <trkpt lat="47.29616" lon="-2.35887">
        <ele>32.799999237061</ele>
        <time>2021-12-02T11:31:18.000Z</time>
      </trkpt>
      <trkpt lat="47.29601" lon="-2.35896">
        <ele>32.799999237061</ele>
        <time>2021-12-02T11:31:21.000Z</time>
      </trkpt>
      <trkpt lat="47.29569" lon="-2.35916">
        <ele>32.799999237061</ele>
        <time>2021-12-02T11:31:27.000Z</time>
      </trkpt>
      <trkpt lat="47.29533" lon="-2.35936">
        <ele>32.799999237061</ele>
        <time>2021-12-02T11:31:34.000Z</time>
      </trkpt>
      <trkpt lat="47.29515" lon="-2.35945">
        <ele>32.799999237061</ele>
        <time>2021-12-02T11:31:38.000Z</time>
      </trkpt>
      <trkpt lat="47.29511" lon="-2.35943">
        <ele>32.799999237061</ele>
        <time>2021-12-02T11:31:39.000Z</time>
      </trkpt>
      <trkpt lat="47.29503" lon="-2.35926">
        <ele>32.799999237061</ele>
        <time>2021-12-02T11:31:42.000Z</time>
      </trkpt>
      <trkpt lat="47.29491" lon="-2.359">
        <ele>32.799999237061</ele>
        <time>2021-12-02T11:31:47.000Z</time>
      </trkpt>
      <trkpt lat="47.29478" lon="-2.359">
        <ele>32.799999237061</ele>
        <time>2021-12-02T11:31:50.000Z</time>
      </trkpt>
      <trkpt lat="47.29473" lon="-2.359">
        <ele>32.799999237061</ele>
        <time>2021-12-02T11:31:51.000Z</time>
      </trkpt>
      <trkpt lat="47.2946" lon="-2.35903">
        <ele>32.799999237061</ele>
        <time>2021-12-02T11:31:54.000Z</time>
      </trkpt>
      <trkpt lat="47.29453" lon="-2.3591">
        <ele>32.799999237061</ele>
        <time>2021-12-02T11:31:56.000Z</time>
      </trkpt>
      <trkpt lat="47.29447" lon="-2.35912">
        <ele>32.799999237061</ele>
        <time>2021-12-02T11:31:59.000Z</time>
      </trkpt>
      <trkpt lat="47.2944" lon="-2.35915">
        <ele>32.799999237061</ele>
        <time>2021-12-02T11:32:03.000Z</time>
      </trkpt>
      <trkpt lat="47.29438" lon="-2.35916">
        <ele>32.799999237061</ele>
        <time>2021-12-02T11:32:04.000Z</time>
      </trkpt>
      <trkpt lat="47.29436" lon="-2.35915">
        <ele>32.799999237061</ele>
        <time>2021-12-02T11:32:05.000Z</time>
      </trkpt>
      <trkpt lat="47.29432" lon="-2.35906">
        <ele>32.799999237061</ele>
        <time>2021-12-02T11:32:07.000Z</time>
      </trkpt>
      <trkpt lat="47.29426" lon="-2.35891">
        <ele>32.799999237061</ele>
        <time>2021-12-02T11:32:10.000Z</time>
      </trkpt>
      <trkpt lat="47.29419" lon="-2.35883">
        <ele>32.799999237061</ele>
        <time>2021-12-02T11:32:12.000Z</time>
      </trkpt>
      <trkpt lat="47.29392" lon="-2.35853">
        <ele>32.799999237061</ele>
        <time>2021-12-02T11:32:19.000Z</time>
      </trkpt>
      <trkpt lat="47.29369" lon="-2.35828">
        <ele>32.799999237061</ele>
        <time>2021-12-02T11:32:25.000Z</time>
      </trkpt>
      <trkpt lat="47.29344" lon="-2.3581">
        <ele>32.799999237061</ele>
        <time>2021-12-02T11:32:30.000Z</time>
      </trkpt>
      <trkpt lat="47.29315" lon="-2.35784">
        <ele>32.799999237061</ele>
        <time>2021-12-02T11:32:36.000Z</time>
      </trkpt>
      <trkpt lat="47.29286" lon="-2.35758">
        <ele>32.799999237061</ele>
        <time>2021-12-02T11:32:42.000Z</time>
      </trkpt>
      <trkpt lat="47.29281" lon="-2.35754">
        <ele>32.799999237061</ele>
        <time>2021-12-02T11:32:43.000Z</time>
      </trkpt>
      <trkpt lat="47.29261" lon="-2.35737">
        <ele>32.799999237061</ele>
        <time>2021-12-02T11:32:47.000Z</time>
      </trkpt>
      <trkpt lat="47.29222" lon="-2.35698">
        <ele>32.799999237061</ele>
        <time>2021-12-02T11:32:55.000Z</time>
      </trkpt>
      <trkpt lat="47.29175" lon="-2.3565">
        <ele>32.799999237061</ele>
        <time>2021-12-02T11:33:05.000Z</time>
      </trkpt>
      <trkpt lat="47.29169" lon="-2.35648">
        <ele>32.799999237061</ele>
        <time>2021-12-02T11:33:06.000Z</time>
      </trkpt>
      <trkpt lat="47.29152" lon="-2.35645">
        <ele>32.799999237061</ele>
        <time>2021-12-02T11:33:09.000Z</time>
      </trkpt>
      <trkpt lat="47.29147" lon="-2.35646">
        <ele>32.799999237061</ele>
        <time>2021-12-02T11:33:10.000Z</time>
      </trkpt>
      <trkpt lat="47.29137" lon="-2.35655">
        <ele>32.799999237061</ele>
        <time>2021-12-02T11:33:12.000Z</time>
      </trkpt>
      <trkpt lat="47.29132" lon="-2.35658">
        <ele>32.799999237061</ele>
        <time>2021-12-02T11:33:13.000Z</time>
      </trkpt>
      <trkpt lat="47.29121" lon="-2.35658">
        <ele>32.799999237061</ele>
        <time>2021-12-02T11:33:15.000Z</time>
      </trkpt>
      <trkpt lat="47.29101" lon="-2.3566">
        <ele>32.799999237061</ele>
        <time>2021-12-02T11:33:19.000Z</time>
      </trkpt>
      <trkpt lat="47.29097" lon="-2.35661">
        <ele>32.799999237061</ele>
        <time>2021-12-02T11:33:20.000Z</time>
      </trkpt>
      <trkpt lat="47.2908" lon="-2.35673">
        <ele>32.799999237061</ele>
        <time>2021-12-02T11:33:25.000Z</time>
      </trkpt>
      <trkpt lat="47.2906" lon="-2.3569">
        <ele>32.799999237061</ele>
        <time>2021-12-02T11:33:31.000Z</time>
      </trkpt>
      <trkpt lat="47.29039" lon="-2.35711">
        <ele>32.799999237061</ele>
        <time>2021-12-02T11:33:38.000Z</time>
      </trkpt>
      <trkpt lat="47.29019" lon="-2.35727">
        <ele>32.799999237061</ele>
        <time>2021-12-02T11:33:44.000Z</time>
      </trkpt>
      <trkpt lat="47.29003" lon="-2.3574">
        <ele>32.799999237061</ele>
        <time>2021-12-02T11:33:50.000Z</time>
      </trkpt>
      <trkpt lat="47.28987" lon="-2.3575">
        <ele>32.799999237061</ele>
        <time>2021-12-02T11:33:55.000Z</time>
      </trkpt>
      <trkpt lat="47.28983" lon="-2.35752">
        <ele>32.799999237061</ele>
        <time>2021-12-02T11:33:56.000Z</time>
      </trkpt>
      <trkpt lat="47.28966" lon="-2.35762">
        <ele>32.799999237061</ele>
        <time>2021-12-02T11:34:00.000Z</time>
      </trkpt>
      <trkpt lat="47.28941" lon="-2.35777">
        <ele>32.799999237061</ele>
        <time>2021-12-02T11:34:06.000Z</time>
      </trkpt>
      <trkpt lat="47.2891" lon="-2.35796">
        <ele>32.799999237061</ele>
        <time>2021-12-02T11:34:13.000Z</time>
      </trkpt>
      <trkpt lat="47.28902" lon="-2.35804">
        <ele>32.799999237061</ele>
        <time>2021-12-02T11:34:15.000Z</time>
      </trkpt>
      <trkpt lat="47.28885" lon="-2.35823">
        <ele>32.799999237061</ele>
        <time>2021-12-02T11:34:19.000Z</time>
      </trkpt>
      <trkpt lat="47.28855" lon="-2.35866">
        <ele>32.799999237061</ele>
        <time>2021-12-02T11:34:27.000Z</time>
      </trkpt>
      <trkpt lat="47.28832" lon="-2.35895">
        <ele>32.799999237061</ele>
        <time>2021-12-02T11:34:33.000Z</time>
      </trkpt>
      <trkpt lat="47.28823" lon="-2.35905">
        <ele>32.799999237061</ele>
        <time>2021-12-02T11:34:35.000Z</time>
      </trkpt>
      <trkpt lat="47.28792" lon="-2.35936">
        <ele>32.799999237061</ele>
        <time>2021-12-02T11:34:42.000Z</time>
      </trkpt>
      <trkpt lat="47.28763" lon="-2.35958">
        <ele>32.799999237061</ele>
        <time>2021-12-02T11:34:48.000Z</time>
      </trkpt>
      <trkpt lat="47.28751" lon="-2.35962">
        <ele>32.799999237061</ele>
        <time>2021-12-02T11:34:50.000Z</time>
      </trkpt>
      <trkpt lat="47.28739" lon="-2.35962">
        <ele>32.799999237061</ele>
        <time>2021-12-02T11:34:52.000Z</time>
      </trkpt>
      <trkpt lat="47.28715" lon="-2.35963">
        <ele>32.799999237061</ele>
        <time>2021-12-02T11:34:56.000Z</time>
      </trkpt>
      <trkpt lat="47.28676" lon="-2.35962">
        <ele>32.799999237061</ele>
        <time>2021-12-02T11:35:03.000Z</time>
      </trkpt>
      <trkpt lat="47.28643" lon="-2.35963">
        <ele>32.799999237061</ele>
        <time>2021-12-02T11:35:09.000Z</time>
      </trkpt>
      <trkpt lat="47.28621" lon="-2.35959">
        <ele>32.799999237061</ele>
        <time>2021-12-02T11:35:13.000Z</time>
      </trkpt>
      <trkpt lat="47.28612" lon="-2.35952">
        <ele>32.799999237061</ele>
        <time>2021-12-02T11:35:15.000Z</time>
      </trkpt>
      <trkpt lat="47.28594" lon="-2.3593">
        <ele>32.799999237061</ele>
        <time>2021-12-02T11:35:19.000Z</time>
      </trkpt>
      <trkpt lat="47.28589" lon="-2.35923">
        <ele>32.799999237061</ele>
        <time>2021-12-02T11:35:20.000Z</time>
      </trkpt>
      <trkpt lat="47.28579" lon="-2.35899">
        <ele>32.400001525879</ele>
        <time>2021-12-02T11:35:23.000Z</time>
      </trkpt>
      <trkpt lat="47.28576" lon="-2.35891">
        <ele>31.799999237061</ele>
        <time>2021-12-02T11:35:24.000Z</time>
      </trkpt>
      <trkpt lat="47.28573" lon="-2.35883">
        <ele>31.39999961853</ele>
        <time>2021-12-02T11:35:25.000Z</time>
      </trkpt>
      <trkpt lat="47.28569" lon="-2.35875">
        <ele>31</ele>
        <time>2021-12-02T11:35:26.000Z</time>
      </trkpt>
      <trkpt lat="47.28565" lon="-2.35867">
        <ele>30.60000038147</ele>
        <time>2021-12-02T11:35:27.000Z</time>
      </trkpt>
      <trkpt lat="47.28556" lon="-2.35853">
        <ele>30.60000038147</ele>
        <time>2021-12-02T11:35:29.000Z</time>
      </trkpt>
      <trkpt lat="47.28546" lon="-2.35841">
        <ele>30.60000038147</ele>
        <time>2021-12-02T11:35:31.000Z</time>
      </trkpt>
      <trkpt lat="47.2853" lon="-2.35828">
        <ele>30.200000762939</ele>
        <time>2021-12-02T11:35:34.000Z</time>
      </trkpt>
      <trkpt lat="47.28525" lon="-2.35825">
        <ele>29.799999237061</ele>
        <time>2021-12-02T11:35:35.000Z</time>
      </trkpt>
      <trkpt lat="47.28518" lon="-2.35823">
        <ele>29.39999961853</ele>
        <time>2021-12-02T11:35:36.000Z</time>
      </trkpt>
      <trkpt lat="47.28512" lon="-2.35821">
        <ele>29</ele>
        <time>2021-12-02T11:35:37.000Z</time>
      </trkpt>
      <trkpt lat="47.28506" lon="-2.35819">
        <ele>28.60000038147</ele>
        <time>2021-12-02T11:35:38.000Z</time>
      </trkpt>
      <trkpt lat="47.2848" lon="-2.35811">
        <ele>28.60000038147</ele>
        <time>2021-12-02T11:35:42.000Z</time>
      </trkpt>
      <trkpt lat="47.28444" lon="-2.35799">
        <ele>28.60000038147</ele>
        <time>2021-12-02T11:35:48.000Z</time>
      </trkpt>
      <trkpt lat="47.284" lon="-2.35784">
        <ele>28.60000038147</ele>
        <time>2021-12-02T11:35:55.000Z</time>
      </trkpt>
      <trkpt lat="47.28358" lon="-2.35768">
        <ele>28.60000038147</ele>
        <time>2021-12-02T11:36:02.000Z</time>
      </trkpt>
      <trkpt lat="47.28333" lon="-2.35751">
        <ele>28.200000762939</ele>
        <time>2021-12-02T11:36:06.000Z</time>
      </trkpt>
      <trkpt lat="47.28325" lon="-2.35745">
        <ele>27.799999237061</ele>
        <time>2021-12-02T11:36:07.000Z</time>
      </trkpt>
      <trkpt lat="47.28317" lon="-2.35739">
        <ele>27.39999961853</ele>
        <time>2021-12-02T11:36:08.000Z</time>
      </trkpt>
      <trkpt lat="47.28309" lon="-2.35733">
        <ele>26.799999237061</ele>
        <time>2021-12-02T11:36:09.000Z</time>
      </trkpt>
      <trkpt lat="47.28302" lon="-2.35726">
        <ele>26.39999961853</ele>
        <time>2021-12-02T11:36:10.000Z</time>
      </trkpt>
      <trkpt lat="47.2827" lon="-2.35691">
        <ele>26.39999961853</ele>
        <time>2021-12-02T11:36:15.000Z</time>
      </trkpt>
      <trkpt lat="47.28253" lon="-2.35667">
        <ele>26</ele>
        <time>2021-12-02T11:36:18.000Z</time>
      </trkpt>
      <trkpt lat="47.28247" lon="-2.35659">
        <ele>25.60000038147</ele>
        <time>2021-12-02T11:36:19.000Z</time>
      </trkpt>
      <trkpt lat="47.28242" lon="-2.35652">
        <ele>25.200000762939</ele>
        <time>2021-12-02T11:36:20.000Z</time>
      </trkpt>
      <trkpt lat="47.28236" lon="-2.35645">
        <ele>24.799999237061</ele>
        <time>2021-12-02T11:36:21.000Z</time>
      </trkpt>
      <trkpt lat="47.2823" lon="-2.35637">
        <ele>24.39999961853</ele>
        <time>2021-12-02T11:36:22.000Z</time>
      </trkpt>
      <trkpt lat="47.28225" lon="-2.3563">
        <ele>24.39999961853</ele>
        <time>2021-12-02T11:36:23.000Z</time>
      </trkpt>
      <trkpt lat="47.28208" lon="-2.35605">
        <ele>24.39999961853</ele>
        <time>2021-12-02T11:36:26.000Z</time>
      </trkpt>
      <trkpt lat="47.28175" lon="-2.35572">
        <ele>24</ele>
        <time>2021-12-02T11:36:31.000Z</time>
      </trkpt>
      <trkpt lat="47.28169" lon="-2.35567">
        <ele>23.60000038147</ele>
        <time>2021-12-02T11:36:32.000Z</time>
      </trkpt>
      <trkpt lat="47.28162" lon="-2.35564">
        <ele>23.200000762939</ele>
        <time>2021-12-02T11:36:33.000Z</time>
      </trkpt>
      <trkpt lat="47.28155" lon="-2.35561">
        <ele>22.60000038147</ele>
        <time>2021-12-02T11:36:34.000Z</time>
      </trkpt>
      <trkpt lat="47.28148" lon="-2.35559">
        <ele>22.200000762939</ele>
        <time>2021-12-02T11:36:35.000Z</time>
      </trkpt>
      <trkpt lat="47.2814" lon="-2.35558">
        <ele>22.200000762939</ele>
        <time>2021-12-02T11:36:36.000Z</time>
      </trkpt>
      <trkpt lat="47.28098" lon="-2.35555">
        <ele>21.799999237061</ele>
        <time>2021-12-02T11:36:41.000Z</time>
      </trkpt>
      <trkpt lat="47.2809" lon="-2.35555">
        <ele>21.39999961853</ele>
        <time>2021-12-02T11:36:42.000Z</time>
      </trkpt>
      <trkpt lat="47.2808" lon="-2.35556">
        <ele>21</ele>
        <time>2021-12-02T11:36:43.000Z</time>
      </trkpt>
      <trkpt lat="47.28071" lon="-2.35555">
        <ele>20.60000038147</ele>
        <time>2021-12-02T11:36:44.000Z</time>
      </trkpt>
      <trkpt lat="47.28062" lon="-2.35555">
        <ele>20.200000762939</ele>
        <time>2021-12-02T11:36:45.000Z</time>
      </trkpt>
      <trkpt lat="47.28044" lon="-2.35555">
        <ele>19.799999237061</ele>
        <time>2021-12-02T11:36:47.000Z</time>
      </trkpt>
      <trkpt lat="47.28036" lon="-2.35556">
        <ele>19.39999961853</ele>
        <time>2021-12-02T11:36:48.000Z</time>
      </trkpt>
      <trkpt lat="47.28027" lon="-2.35556">
        <ele>19</ele>
        <time>2021-12-02T11:36:49.000Z</time>
      </trkpt>
      <trkpt lat="47.28019" lon="-2.35557">
        <ele>18.60000038147</ele>
        <time>2021-12-02T11:36:50.000Z</time>
      </trkpt>
      <trkpt lat="47.2801" lon="-2.35558">
        <ele>18.200000762939</ele>
        <time>2021-12-02T11:36:51.000Z</time>
      </trkpt>
      <trkpt lat="47.27987" lon="-2.35566">
        <ele>18.200000762939</ele>
        <time>2021-12-02T11:36:54.000Z</time>
      </trkpt>
      <trkpt lat="47.27964" lon="-2.35576">
        <ele>17.60000038147</ele>
        <time>2021-12-02T11:36:57.000Z</time>
      </trkpt>
      <trkpt lat="47.27956" lon="-2.35579">
        <ele>17.200000762939</ele>
        <time>2021-12-02T11:36:58.000Z</time>
      </trkpt>
      <trkpt lat="47.27949" lon="-2.35582">
        <ele>16.799999237061</ele>
        <time>2021-12-02T11:36:59.000Z</time>
      </trkpt>
      <trkpt lat="47.27941" lon="-2.35585">
        <ele>16.39999961853</ele>
        <time>2021-12-02T11:37:00.000Z</time>
      </trkpt>
      <trkpt lat="47.27934" lon="-2.35587">
        <ele>16</ele>
        <time>2021-12-02T11:37:01.000Z</time>
      </trkpt>
      <trkpt lat="47.27927" lon="-2.35589">
        <ele>16</ele>
        <time>2021-12-02T11:37:02.000Z</time>
      </trkpt>
      <trkpt lat="47.27874" lon="-2.35602">
        <ele>16</ele>
        <time>2021-12-02T11:37:09.000Z</time>
      </trkpt>
      <trkpt lat="47.27852" lon="-2.35608">
        <ele>15.199999809265</ele>
        <time>2021-12-02T11:37:12.000Z</time>
      </trkpt>
      <trkpt lat="47.27844" lon="-2.3561">
        <ele>14.60000038147</ele>
        <time>2021-12-02T11:37:13.000Z</time>
      </trkpt>
      <trkpt lat="47.27836" lon="-2.35612">
        <ele>14.199999809265</ele>
        <time>2021-12-02T11:37:14.000Z</time>
      </trkpt>
      <trkpt lat="47.27829" lon="-2.35614">
        <ele>13.800000190735</ele>
        <time>2021-12-02T11:37:15.000Z</time>
      </trkpt>
      <trkpt lat="47.27814" lon="-2.35619">
        <ele>13.800000190735</ele>
        <time>2021-12-02T11:37:17.000Z</time>
      </trkpt>
      <trkpt lat="47.27784" lon="-2.3563">
        <ele>13.199999809265</ele>
        <time>2021-12-02T11:37:21.000Z</time>
      </trkpt>
      <trkpt lat="47.27777" lon="-2.35636">
        <ele>12.800000190735</ele>
        <time>2021-12-02T11:37:22.000Z</time>
      </trkpt>
      <trkpt lat="47.2777" lon="-2.35642">
        <ele>12.39999961853</ele>
        <time>2021-12-02T11:37:23.000Z</time>
      </trkpt>
      <trkpt lat="47.27764" lon="-2.35648">
        <ele>11.800000190735</ele>
        <time>2021-12-02T11:37:24.000Z</time>
      </trkpt>
      <trkpt lat="47.27758" lon="-2.35655">
        <ele>11.39999961853</ele>
        <time>2021-12-02T11:37:25.000Z</time>
      </trkpt>
      <trkpt lat="47.27752" lon="-2.35662">
        <ele>11.39999961853</ele>
        <time>2021-12-02T11:37:26.000Z</time>
      </trkpt>
      <trkpt lat="47.27747" lon="-2.35669">
        <ele>11.39999961853</ele>
        <time>2021-12-02T11:37:27.000Z</time>
      </trkpt>
      <trkpt lat="47.27717" lon="-2.35714">
        <ele>11.39999961853</ele>
        <time>2021-12-02T11:37:33.000Z</time>
      </trkpt>
      <trkpt lat="47.27705" lon="-2.35725">
        <ele>11</ele>
        <time>2021-12-02T11:37:35.000Z</time>
      </trkpt>
      <trkpt lat="47.27698" lon="-2.3573">
        <ele>10</ele>
        <time>2021-12-02T11:37:36.000Z</time>
      </trkpt>
      <trkpt lat="47.27692" lon="-2.35735">
        <ele>9.6000003814697</ele>
        <time>2021-12-02T11:37:37.000Z</time>
      </trkpt>
      <trkpt lat="47.27686" lon="-2.35741">
        <ele>9</ele>
        <time>2021-12-02T11:37:38.000Z</time>
      </trkpt>
      <trkpt lat="47.2768" lon="-2.35746">
        <ele>9</ele>
        <time>2021-12-02T11:37:39.000Z</time>
      </trkpt>
      <trkpt lat="47.27675" lon="-2.35747">
        <ele>9</ele>
        <time>2021-12-02T11:37:40.000Z</time>
      </trkpt>
      <trkpt lat="47.2767" lon="-2.35746">
        <ele>8.6000003814697</ele>
        <time>2021-12-02T11:37:41.000Z</time>
      </trkpt>
      <trkpt lat="47.27666" lon="-2.3574">
        <ele>8.1999998092651</ele>
        <time>2021-12-02T11:37:42.000Z</time>
      </trkpt>
      <trkpt lat="47.27663" lon="-2.35734">
        <ele>7.8000001907349</ele>
        <time>2021-12-02T11:37:43.000Z</time>
      </trkpt>
      <trkpt lat="47.27659" lon="-2.35729">
        <ele>7.1999998092651</ele>
        <time>2021-12-02T11:37:44.000Z</time>
      </trkpt>
      <trkpt lat="47.27656" lon="-2.35725">
        <ele>6.8000001907349</ele>
        <time>2021-12-02T11:37:45.000Z</time>
      </trkpt>
      <trkpt lat="47.27652" lon="-2.35722">
        <ele>6.8000001907349</ele>
        <time>2021-12-02T11:37:46.000Z</time>
      </trkpt>
      <trkpt lat="47.27641" lon="-2.35719">
        <ele>6.8000001907349</ele>
        <time>2021-12-02T11:37:48.000Z</time>
      </trkpt>
      <trkpt lat="47.27629" lon="-2.35716">
        <ele>6.8000001907349</ele>
        <time>2021-12-02T11:37:50.000Z</time>
      </trkpt>
      <trkpt lat="47.27586" lon="-2.35707">
        <ele>6.8000001907349</ele>
        <time>2021-12-02T11:37:56.000Z</time>
      </trkpt>
      <trkpt lat="47.27559" lon="-2.357">
        <ele>6.4000000953674</ele>
        <time>2021-12-02T11:38:00.000Z</time>
      </trkpt>
      <trkpt lat="47.27552" lon="-2.35698">
        <ele>5.5999999046326</ele>
        <time>2021-12-02T11:38:01.000Z</time>
      </trkpt>
      <trkpt lat="47.27545" lon="-2.35697">
        <ele>5</ele>
        <time>2021-12-02T11:38:02.000Z</time>
      </trkpt>
      <trkpt lat="47.27539" lon="-2.35695">
        <ele>4.5999999046326</ele>
        <time>2021-12-02T11:38:03.000Z</time>
      </trkpt>
      <trkpt lat="47.27504" lon="-2.35687">
        <ele>4.5999999046326</ele>
        <time>2021-12-02T11:38:08.000Z</time>
      </trkpt>
      <trkpt lat="47.27464" lon="-2.35677">
        <ele>4.1999998092651</ele>
        <time>2021-12-02T11:38:14.000Z</time>
      </trkpt>
      <trkpt lat="47.27458" lon="-2.35675">
        <ele>3.7999999523163</ele>
        <time>2021-12-02T11:38:15.000Z</time>
      </trkpt>
      <trkpt lat="47.27451" lon="-2.35674">
        <ele>3.4000000953674</ele>
        <time>2021-12-02T11:38:16.000Z</time>
      </trkpt>
      <trkpt lat="47.27445" lon="-2.35673">
        <ele>3</ele>
        <time>2021-12-02T11:38:17.000Z</time>
      </trkpt>
      <trkpt lat="47.27439" lon="-2.35672">
        <ele>2.5999999046326</ele>
        <time>2021-12-02T11:38:18.000Z</time>
      </trkpt>
      <trkpt lat="47.2742" lon="-2.35668">
        <ele>2.5999999046326</ele>
        <time>2021-12-02T11:38:21.000Z</time>
      </trkpt>
      <trkpt lat="47.27405" lon="-2.35669">
        <ele>2.5999999046326</ele>
        <time>2021-12-02T11:38:23.000Z</time>
      </trkpt>
      <trkpt lat="47.27392" lon="-2.35675">
        <ele>2.5999999046326</ele>
        <time>2021-12-02T11:38:25.000Z</time>
      </trkpt>
      <trkpt lat="47.27387" lon="-2.35679">
        <ele>2.5999999046326</ele>
        <time>2021-12-02T11:38:26.000Z</time>
      </trkpt>
      <trkpt lat="47.27369" lon="-2.35692">
        <ele>2.5999999046326</ele>
        <time>2021-12-02T11:38:29.000Z</time>
      </trkpt>
      <trkpt lat="47.27332" lon="-2.35722">
        <ele>2.5999999046326</ele>
        <time>2021-12-02T11:38:36.000Z</time>
      </trkpt>
      <trkpt lat="47.27328" lon="-2.35727">
        <ele>2.5999999046326</ele>
        <time>2021-12-02T11:38:37.000Z</time>
      </trkpt>
      <trkpt lat="47.2732" lon="-2.35742">
        <ele>2.5999999046326</ele>
        <time>2021-12-02T11:38:40.000Z</time>
      </trkpt>
      <trkpt lat="47.2731" lon="-2.35746">
        <ele>2.5999999046326</ele>
        <time>2021-12-02T11:38:43.000Z</time>
      </trkpt>
      <trkpt lat="47.27302" lon="-2.35728">
        <ele>2.5999999046326</ele>
        <time>2021-12-02T11:38:46.000Z</time>
      </trkpt>
      <trkpt lat="47.273" lon="-2.35722">
        <ele>2.5999999046326</ele>
        <time>2021-12-02T11:38:47.000Z</time>
      </trkpt>
      <trkpt lat="47.27285" lon="-2.35686">
        <ele>2.5999999046326</ele>
        <time>2021-12-02T11:38:53.000Z</time>
      </trkpt>
      <trkpt lat="47.27263" lon="-2.35636">
        <ele>2.5999999046326</ele>
        <time>2021-12-02T11:39:01.000Z</time>
      </trkpt>
      <trkpt lat="47.27241" lon="-2.35587">
        <ele>2.5999999046326</ele>
        <time>2021-12-02T11:39:09.000Z</time>
      </trkpt>
      <trkpt lat="47.27216" lon="-2.35532">
        <ele>2.5999999046326</ele>
        <time>2021-12-02T11:39:18.000Z</time>
      </trkpt>
      <trkpt lat="47.27186" lon="-2.3547">
        <ele>2.5999999046326</ele>
        <time>2021-12-02T11:39:28.000Z</time>
      </trkpt>
      <trkpt lat="47.2716" lon="-2.35418">
        <ele>2.5999999046326</ele>
        <time>2021-12-02T11:39:36.000Z</time>
      </trkpt>
      <trkpt lat="47.27132" lon="-2.35365">
        <ele>2.5999999046326</ele>
        <time>2021-12-02T11:39:44.000Z</time>
      </trkpt>
      <trkpt lat="47.27106" lon="-2.35322">
        <ele>2.5999999046326</ele>
        <time>2021-12-02T11:39:51.000Z</time>
      </trkpt>
      <trkpt lat="47.27073" lon="-2.35272">
        <ele>2.5999999046326</ele>
        <time>2021-12-02T11:39:59.000Z</time>
      </trkpt>
      <trkpt lat="47.27035" lon="-2.35212">
        <ele>2.5999999046326</ele>
        <time>2021-12-02T11:40:08.000Z</time>
      </trkpt>
      <trkpt lat="47.26995" lon="-2.35152">
        <ele>2.5999999046326</ele>
        <time>2021-12-02T11:40:17.000Z</time>
      </trkpt>
      <trkpt lat="47.26956" lon="-2.35092">
        <ele>2.5999999046326</ele>
        <time>2021-12-02T11:40:26.000Z</time>
      </trkpt>
      <trkpt lat="47.26943" lon="-2.35072">
        <ele>2.5999999046326</ele>
        <time>2021-12-02T11:40:29.000Z</time>
      </trkpt>
      <trkpt lat="47.26904" lon="-2.35013">
        <ele>2.5999999046326</ele>
        <time>2021-12-02T11:40:38.000Z</time>
      </trkpt>
      <trkpt lat="47.269" lon="-2.35006">
        <ele>2.5999999046326</ele>
        <time>2021-12-02T11:40:39.000Z</time>
      </trkpt>
      <trkpt lat="47.26869" lon="-2.34961">
        <ele>2.5999999046326</ele>
        <time>2021-12-02T11:40:46.000Z</time>
      </trkpt>
      <trkpt lat="47.26829" lon="-2.34899">
        <ele>2.5999999046326</ele>
        <time>2021-12-02T11:40:55.000Z</time>
      </trkpt>
      <trkpt lat="47.26797" lon="-2.34853">
        <ele>2.5999999046326</ele>
        <time>2021-12-02T11:41:02.000Z</time>
      </trkpt>
      <trkpt lat="47.26768" lon="-2.34812">
        <ele>2.5999999046326</ele>
        <time>2021-12-02T11:41:09.000Z</time>
      </trkpt>
      <trkpt lat="47.26763" lon="-2.34807">
        <ele>2.5999999046326</ele>
        <time>2021-12-02T11:41:10.000Z</time>
      </trkpt>
      <trkpt lat="47.26759" lon="-2.34801">
        <ele>2.5999999046326</ele>
        <time>2021-12-02T11:41:11.000Z</time>
      </trkpt>
      <trkpt lat="47.26747" lon="-2.34784">
        <ele>2.5999999046326</ele>
        <time>2021-12-02T11:41:14.000Z</time>
      </trkpt>
      <trkpt lat="47.2671" lon="-2.34739">
        <ele>2.5999999046326</ele>
        <time>2021-12-02T11:41:22.000Z</time>
      </trkpt>
      <trkpt lat="47.26667" lon="-2.34686">
        <ele>2.5999999046326</ele>
        <time>2021-12-02T11:41:31.000Z</time>
      </trkpt>
      <trkpt lat="47.26623" lon="-2.34634">
        <ele>2.5999999046326</ele>
        <time>2021-12-02T11:41:40.000Z</time>
      </trkpt>
      <trkpt lat="47.26586" lon="-2.34587">
        <ele>2.5999999046326</ele>
        <time>2021-12-02T11:41:48.000Z</time>
      </trkpt>
      <trkpt lat="47.26555" lon="-2.34554">
        <ele>2.5999999046326</ele>
        <time>2021-12-02T11:41:54.000Z</time>
      </trkpt>
      <trkpt lat="47.26518" lon="-2.34521">
        <ele>2.5999999046326</ele>
        <time>2021-12-02T11:42:01.000Z</time>
      </trkpt>
      <trkpt lat="47.26472" lon="-2.34487">
        <ele>2.5999999046326</ele>
        <time>2021-12-02T11:42:09.000Z</time>
      </trkpt>
      <trkpt lat="47.26425" lon="-2.34454">
        <ele>2.5999999046326</ele>
        <time>2021-12-02T11:42:17.000Z</time>
      </trkpt>
      <trkpt lat="47.26381" lon="-2.34418">
        <ele>2.5999999046326</ele>
        <time>2021-12-02T11:42:25.000Z</time>
      </trkpt>
      <trkpt lat="47.26337" lon="-2.34381">
        <ele>2.5999999046326</ele>
        <time>2021-12-02T11:42:33.000Z</time>
      </trkpt>
      <trkpt lat="47.2633" lon="-2.34379">
        <ele>2.5999999046326</ele>
        <time>2021-12-02T11:42:34.000Z</time>
      </trkpt>
      <trkpt lat="47.26316" lon="-2.34363">
        <ele>2.5999999046326</ele>
        <time>2021-12-02T11:42:37.000Z</time>
      </trkpt>
      <trkpt lat="47.26312" lon="-2.34356">
        <ele>2.5999999046326</ele>
        <time>2021-12-02T11:42:38.000Z</time>
      </trkpt>
      <trkpt lat="47.26307" lon="-2.34349">
        <ele>2.5999999046326</ele>
        <time>2021-12-02T11:42:39.000Z</time>
      </trkpt>
      <trkpt lat="47.26291" lon="-2.34333">
        <ele>2.5999999046326</ele>
        <time>2021-12-02T11:42:42.000Z</time>
      </trkpt>
      <trkpt lat="47.26243" lon="-2.34282">
        <ele>2.5999999046326</ele>
        <time>2021-12-02T11:42:51.000Z</time>
      </trkpt>
      <trkpt lat="47.262" lon="-2.34237">
        <ele>2.5999999046326</ele>
        <time>2021-12-02T11:42:59.000Z</time>
      </trkpt>
      <trkpt lat="47.26155" lon="-2.34191">
        <ele>2.5999999046326</ele>
        <time>2021-12-02T11:43:07.000Z</time>
      </trkpt>
      <trkpt lat="47.26143" lon="-2.34184">
        <ele>2.5999999046326</ele>
        <time>2021-12-02T11:43:09.000Z</time>
      </trkpt>
      <trkpt lat="47.26129" lon="-2.34177">
        <ele>2.5999999046326</ele>
        <time>2021-12-02T11:43:11.000Z</time>
      </trkpt>
      <trkpt lat="47.26118" lon="-2.34165">
        <ele>2.5999999046326</ele>
        <time>2021-12-02T11:43:13.000Z</time>
      </trkpt>
      <trkpt lat="47.26113" lon="-2.34161">
        <ele>2.5999999046326</ele>
        <time>2021-12-02T11:43:14.000Z</time>
      </trkpt>
      <trkpt lat="47.26107" lon="-2.34157">
        <ele>2.5999999046326</ele>
        <time>2021-12-02T11:43:15.000Z</time>
      </trkpt>
      <trkpt lat="47.26076" lon="-2.34141">
        <ele>2.5999999046326</ele>
        <time>2021-12-02T11:43:20.000Z</time>
      </trkpt>
      <trkpt lat="47.26026" lon="-2.34116">
        <ele>2.5999999046326</ele>
        <time>2021-12-02T11:43:28.000Z</time>
      </trkpt>
      <trkpt lat="47.25985" lon="-2.34097">
        <ele>2.5999999046326</ele>
        <time>2021-12-02T11:43:35.000Z</time>
      </trkpt>
      <trkpt lat="47.25948" lon="-2.34081">
        <ele>2.5999999046326</ele>
        <time>2021-12-02T11:43:42.000Z</time>
      </trkpt>
      <trkpt lat="47.2591" lon="-2.34071">
        <ele>2.5999999046326</ele>
        <time>2021-12-02T11:43:49.000Z</time>
      </trkpt>
      <trkpt lat="47.25905" lon="-2.34068">
        <ele>2.5999999046326</ele>
        <time>2021-12-02T11:43:50.000Z</time>
      </trkpt>
      <trkpt lat="47.25898" lon="-2.34055">
        <ele>2.5999999046326</ele>
        <time>2021-12-02T11:43:52.000Z</time>
      </trkpt>
      <trkpt lat="47.25898" lon="-2.3403">
        <ele>2.5999999046326</ele>
        <time>2021-12-02T11:43:55.000Z</time>
      </trkpt>
      <trkpt lat="47.25905" lon="-2.34008">
        <ele>2.5999999046326</ele>
        <time>2021-12-02T11:43:58.000Z</time>
      </trkpt>
      <trkpt lat="47.25907" lon="-2.33999">
        <ele>2.5999999046326</ele>
        <time>2021-12-02T11:43:59.000Z</time>
      </trkpt>
      <trkpt lat="47.25929" lon="-2.33938">
        <ele>2.5999999046326</ele>
        <time>2021-12-02T11:44:07.000Z</time>
      </trkpt>
      <trkpt lat="47.25937" lon="-2.33926">
        <ele>2.5999999046326</ele>
        <time>2021-12-02T11:44:09.000Z</time>
      </trkpt>
      <trkpt lat="47.25943" lon="-2.33913">
        <ele>2.5999999046326</ele>
        <time>2021-12-02T11:44:11.000Z</time>
      </trkpt>
      <trkpt lat="47.25944" lon="-2.33905">
        <ele>2.5999999046326</ele>
        <time>2021-12-02T11:44:12.000Z</time>
      </trkpt>
      <trkpt lat="47.25957" lon="-2.33862">
        <ele>2.5999999046326</ele>
        <time>2021-12-02T11:44:18.000Z</time>
      </trkpt>
      <trkpt lat="47.25959" lon="-2.33854">
        <ele>2.2000000476837</ele>
        <time>2021-12-02T11:44:19.000Z</time>
      </trkpt>
      <trkpt lat="47.25961" lon="-2.33846">
        <ele>1.6000000238419</ele>
        <time>2021-12-02T11:44:20.000Z</time>
      </trkpt>
      <trkpt lat="47.25964" lon="-2.33839">
        <ele>1.2000000476837</ele>
        <time>2021-12-02T11:44:21.000Z</time>
      </trkpt>
      <trkpt lat="47.25966" lon="-2.33831">
        <ele>0.80000001192093</ele>
        <time>2021-12-02T11:44:22.000Z</time>
      </trkpt>
      <trkpt lat="47.25969" lon="-2.33823">
        <ele>0.40000000596046</ele>
        <time>2021-12-02T11:44:23.000Z</time>
      </trkpt>
      <trkpt lat="47.25971" lon="-2.33815">
        <ele>0.40000000596046</ele>
        <time>2021-12-02T11:44:24.000Z</time>
      </trkpt>
      <trkpt lat="47.25988" lon="-2.33762">
        <ele>0.40000000596046</ele>
        <time>2021-12-02T11:44:31.000Z</time>
      </trkpt>
      <trkpt lat="47.26004" lon="-2.33708">
        <ele>0.40000000596046</ele>
        <time>2021-12-02T11:44:38.000Z</time>
      </trkpt>
      <trkpt lat="47.2602" lon="-2.33665">
        <ele>0.40000000596046</ele>
        <time>2021-12-02T11:44:44.000Z</time>
      </trkpt>
      <trkpt lat="47.26034" lon="-2.33665">
        <ele>0.40000000596046</ele>
        <time>2021-12-02T11:44:47.000Z</time>
      </trkpt>
      <trkpt lat="47.26046" lon="-2.33664">
        <ele>0.40000000596046</ele>
        <time>2021-12-02T11:44:51.000Z</time>
      </trkpt>
      <trkpt lat="47.26055" lon="-2.33654">
        <ele>0.40000000596046</ele>
        <time>2021-12-02T11:44:54.000Z</time>
      </trkpt>
      <trkpt lat="47.26057" lon="-2.33648">
        <ele>0.40000000596046</ele>
        <time>2021-12-02T11:44:55.000Z</time>
      </trkpt>
      <trkpt lat="47.26067" lon="-2.33614">
        <ele>0.40000000596046</ele>
        <time>2021-12-02T11:45:00.000Z</time>
      </trkpt>
      <trkpt lat="47.26083" lon="-2.33571">
        <ele>0.40000000596046</ele>
        <time>2021-12-02T11:45:07.000Z</time>
      </trkpt>
      <trkpt lat="47.26103" lon="-2.3352">
        <ele>0.40000000596046</ele>
        <time>2021-12-02T11:45:15.000Z</time>
      </trkpt>
      <trkpt lat="47.26123" lon="-2.33468">
        <ele>0.40000000596046</ele>
        <time>2021-12-02T11:45:23.000Z</time>
      </trkpt>
      <trkpt lat="47.2613" lon="-2.33449">
        <ele>0.40000000596046</ele>
        <time>2021-12-02T11:45:28.000Z</time>
      </trkpt>
      <trkpt lat="47.26134" lon="-2.33432">
        <ele>0.40000000596046</ele>
        <time>2021-12-02T11:45:33.000Z</time>
      </trkpt>
      <trkpt lat="47.26125" lon="-2.33423">
        <ele>0.40000000596046</ele>
        <time>2021-12-02T11:45:36.000Z</time>
      </trkpt>
      <trkpt lat="47.26122" lon="-2.33421">
        <ele>0.40000000596046</ele>
        <time>2021-12-02T11:45:37.000Z</time>
      </trkpt>
      <trkpt lat="47.26113" lon="-2.33406">
        <ele>0.40000000596046</ele>
        <time>2021-12-02T11:45:40.000Z</time>
      </trkpt>
      <trkpt lat="47.2611" lon="-2.334">
        <ele>0.40000000596046</ele>
        <time>2021-12-02T11:45:41.000Z</time>
      </trkpt>
      <trkpt lat="47.26093" lon="-2.33378">
        <ele>0.40000000596046</ele>
        <time>2021-12-02T11:45:45.000Z</time>
      </trkpt>
      <trkpt lat="47.26088" lon="-2.33375">
        <ele>0.40000000596046</ele>
        <time>2021-12-02T11:45:46.000Z</time>
      </trkpt>
      <trkpt lat="47.26079" lon="-2.33364">
        <ele>0.40000000596046</ele>
        <time>2021-12-02T11:45:48.000Z</time>
      </trkpt>
      <trkpt lat="47.26076" lon="-2.33355">
        <ele>0.40000000596046</ele>
        <time>2021-12-02T11:45:49.000Z</time>
      </trkpt>
      <trkpt lat="47.2607" lon="-2.33328">
        <ele>0.40000000596046</ele>
        <time>2021-12-02T11:45:52.000Z</time>
      </trkpt>
      <trkpt lat="47.26066" lon="-2.3332">
        <ele>0.40000000596046</ele>
        <time>2021-12-02T11:45:53.000Z</time>
      </trkpt>
      <trkpt lat="47.26041" lon="-2.33251">
        <ele>0.40000000596046</ele>
        <time>2021-12-02T11:46:01.000Z</time>
      </trkpt>
      <trkpt lat="47.26021" lon="-2.33196">
        <ele>0.40000000596046</ele>
        <time>2021-12-02T11:46:08.000Z</time>
      </trkpt>
      <trkpt lat="47.25996" lon="-2.33123">
        <ele>0.40000000596046</ele>
        <time>2021-12-02T11:46:17.000Z</time>
      </trkpt>
      <trkpt lat="47.25992" lon="-2.33106">
        <ele>0.40000000596046</ele>
        <time>2021-12-02T11:46:19.000Z</time>
      </trkpt>
      <trkpt lat="47.25986" lon="-2.33081">
        <ele>0.40000000596046</ele>
        <time>2021-12-02T11:46:22.000Z</time>
      </trkpt>
      <trkpt lat="47.25969" lon="-2.33042">
        <ele>0.40000000596046</ele>
        <time>2021-12-02T11:46:27.000Z</time>
      </trkpt>
      <trkpt lat="47.25954" lon="-2.32995">
        <ele>0.40000000596046</ele>
        <time>2021-12-02T11:46:33.000Z</time>
      </trkpt>
      <trkpt lat="47.25933" lon="-2.32938">
        <ele>0.40000000596046</ele>
        <time>2021-12-02T11:46:40.000Z</time>
      </trkpt>
      <trkpt lat="47.25918" lon="-2.32898">
        <ele>0.40000000596046</ele>
        <time>2021-12-02T11:46:45.000Z</time>
      </trkpt>
      <trkpt lat="47.25898" lon="-2.3284">
        <ele>0.40000000596046</ele>
        <time>2021-12-02T11:46:52.000Z</time>
      </trkpt>
      <trkpt lat="47.25875" lon="-2.32774">
        <ele>0.40000000596046</ele>
        <time>2021-12-02T11:47:00.000Z</time>
      </trkpt>
      <trkpt lat="47.25862" lon="-2.32728">
        <ele>0.40000000596046</ele>
        <time>2021-12-02T11:47:06.000Z</time>
      </trkpt>
      <trkpt lat="47.25862" lon="-2.3271">
        <ele>0.40000000596046</ele>
        <time>2021-12-02T11:47:09.000Z</time>
      </trkpt>
      <trkpt lat="47.25852" lon="-2.32697">
        <ele>0.40000000596046</ele>
        <time>2021-12-02T11:47:12.000Z</time>
      </trkpt>
      <trkpt lat="47.25845" lon="-2.32675">
        <ele>0.40000000596046</ele>
        <time>2021-12-02T11:47:15.000Z</time>
      </trkpt>
      <trkpt lat="47.25831" lon="-2.3262">
        <ele>0.40000000596046</ele>
        <time>2021-12-02T11:47:22.000Z</time>
      </trkpt>
      <trkpt lat="47.25818" lon="-2.32564">
        <ele>0.40000000596046</ele>
        <time>2021-12-02T11:47:29.000Z</time>
      </trkpt>
      <trkpt lat="47.25806" lon="-2.32514">
        <ele>0.40000000596046</ele>
        <time>2021-12-02T11:47:36.000Z</time>
      </trkpt>
      <trkpt lat="47.25798" lon="-2.3248">
        <ele>0.40000000596046</ele>
        <time>2021-12-02T11:47:42.000Z</time>
      </trkpt>
      <trkpt lat="47.25801" lon="-2.32467">
        <ele>0.40000000596046</ele>
        <time>2021-12-02T11:47:46.000Z</time>
      </trkpt>
      <trkpt lat="47.25814" lon="-2.32456">
        <ele>0.40000000596046</ele>
        <time>2021-12-02T11:47:50.000Z</time>
      </trkpt>
      <trkpt lat="47.25818" lon="-2.32458">
        <ele>0.40000000596046</ele>
        <time>2021-12-02T11:47:51.000Z</time>
      </trkpt>
      <trkpt lat="47.25827" lon="-2.32463">
        <ele>0.40000000596046</ele>
        <time>2021-12-02T11:47:53.000Z</time>
      </trkpt>
      <trkpt lat="47.25845" lon="-2.3247">
        <ele>0.40000000596046</ele>
        <time>2021-12-02T11:47:57.000Z</time>
      </trkpt>
      <trkpt lat="47.2585" lon="-2.32471">
        <ele>0.40000000596046</ele>
        <time>2021-12-02T11:47:58.000Z</time>
      </trkpt>
      <trkpt lat="47.25855" lon="-2.32471">
        <ele>0.40000000596046</ele>
        <time>2021-12-02T11:47:59.000Z</time>
      </trkpt>
      <trkpt lat="47.25875" lon="-2.32468">
        <ele>0.40000000596046</ele>
        <time>2021-12-02T11:48:03.000Z</time>
      </trkpt>
      <trkpt lat="47.25895" lon="-2.32461">
        <ele>0.40000000596046</ele>
        <time>2021-12-02T11:48:07.000Z</time>
      </trkpt>
      <trkpt lat="47.25904" lon="-2.32451">
        <ele>0.40000000596046</ele>
        <time>2021-12-02T11:48:09.000Z</time>
      </trkpt>
      <trkpt lat="47.2594" lon="-2.32408">
        <ele>0.40000000596046</ele>
        <time>2021-12-02T11:48:17.000Z</time>
      </trkpt>
      <trkpt lat="47.25978" lon="-2.32357">
        <ele>0.40000000596046</ele>
        <time>2021-12-02T11:48:26.000Z</time>
      </trkpt>
      <trkpt lat="47.26012" lon="-2.32313">
        <ele>0.40000000596046</ele>
        <time>2021-12-02T11:48:34.000Z</time>
      </trkpt>
      <trkpt lat="47.26053" lon="-2.32266">
        <ele>0.40000000596046</ele>
        <time>2021-12-02T11:48:43.000Z</time>
      </trkpt>
      <trkpt lat="47.26086" lon="-2.32224">
        <ele>0.40000000596046</ele>
        <time>2021-12-02T11:48:51.000Z</time>
      </trkpt>
      <trkpt lat="47.26098" lon="-2.32208">
        <ele>0.40000000596046</ele>
        <time>2021-12-02T11:48:54.000Z</time>
      </trkpt>
      <trkpt lat="47.26104" lon="-2.32195">
        <ele>0.40000000596046</ele>
        <time>2021-12-02T11:48:56.000Z</time>
      </trkpt>
      <trkpt lat="47.2611" lon="-2.32182">
        <ele>0.40000000596046</ele>
        <time>2021-12-02T11:48:58.000Z</time>
      </trkpt>
      <trkpt lat="47.26126" lon="-2.32133">
        <ele>0.40000000596046</ele>
        <time>2021-12-02T11:49:05.000Z</time>
      </trkpt>
      <trkpt lat="47.2614" lon="-2.32083">
        <ele>0.40000000596046</ele>
        <time>2021-12-02T11:49:12.000Z</time>
      </trkpt>
      <trkpt lat="47.2615" lon="-2.32046">
        <ele>0.40000000596046</ele>
        <time>2021-12-02T11:49:18.000Z</time>
      </trkpt>
      <trkpt lat="47.26157" lon="-2.3203">
        <ele>0.40000000596046</ele>
        <time>2021-12-02T11:49:21.000Z</time>
      </trkpt>
      <trkpt lat="47.26165" lon="-2.32022">
        <ele>0.40000000596046</ele>
        <time>2021-12-02T11:49:23.000Z</time>
      </trkpt>
      <trkpt lat="47.26181" lon="-2.32022">
        <ele>0.40000000596046</ele>
        <time>2021-12-02T11:49:27.000Z</time>
      </trkpt>
      <trkpt lat="47.26194" lon="-2.32023">
        <ele>0.40000000596046</ele>
        <time>2021-12-02T11:49:32.000Z</time>
      </trkpt>
      <trkpt lat="47.26198" lon="-2.32007">
        <ele>0.40000000596046</ele>
        <time>2021-12-02T11:49:36.000Z</time>
      </trkpt>
      <trkpt lat="47.26207" lon="-2.31999">
        <ele>0.40000000596046</ele>
        <time>2021-12-02T11:49:40.000Z</time>
      </trkpt>
      <trkpt lat="47.2621" lon="-2.31996">
        <ele>0.40000000596046</ele>
        <time>2021-12-02T11:49:41.000Z</time>
      </trkpt>
      <trkpt lat="47.26221" lon="-2.31982">
        <ele>0.40000000596046</ele>
        <time>2021-12-02T11:49:45.000Z</time>
      </trkpt>
      <trkpt lat="47.26232" lon="-2.31969">
        <ele>0.40000000596046</ele>
        <time>2021-12-02T11:49:48.000Z</time>
      </trkpt>
      <trkpt lat="47.2624" lon="-2.31962">
        <ele>0.40000000596046</ele>
        <time>2021-12-02T11:49:50.000Z</time>
      </trkpt>
      <trkpt lat="47.26249" lon="-2.31946">
        <ele>0.40000000596046</ele>
        <time>2021-12-02T11:49:54.000Z</time>
      </trkpt>
      <trkpt lat="47.26257" lon="-2.31928">
        <ele>0.40000000596046</ele>
        <time>2021-12-02T11:49:59.000Z</time>
      </trkpt>
      <trkpt lat="47.26272" lon="-2.31906">
        <ele>0.40000000596046</ele>
        <time>2021-12-02T11:50:04.000Z</time>
      </trkpt>
      <trkpt lat="47.26287" lon="-2.31887">
        <ele>0.40000000596046</ele>
        <time>2021-12-02T11:50:09.000Z</time>
      </trkpt>
      <trkpt lat="47.26296" lon="-2.31862">
        <ele>0.40000000596046</ele>
        <time>2021-12-02T11:50:14.000Z</time>
      </trkpt>
      <trkpt lat="47.26302" lon="-2.3182">
        <ele>0.40000000596046</ele>
        <time>2021-12-02T11:50:21.000Z</time>
      </trkpt>
      <trkpt lat="47.26303" lon="-2.31795">
        <ele>0.40000000596046</ele>
        <time>2021-12-02T11:50:25.000Z</time>
      </trkpt>
      <trkpt lat="47.26303" lon="-2.31782">
        <ele>0.40000000596046</ele>
        <time>2021-12-02T11:50:27.000Z</time>
      </trkpt>
      <trkpt lat="47.263" lon="-2.31739">
        <ele>0.40000000596046</ele>
        <time>2021-12-02T11:50:33.000Z</time>
      </trkpt>
      <trkpt lat="47.263" lon="-2.31732">
        <ele>0.40000000596046</ele>
        <time>2021-12-02T11:50:34.000Z</time>
      </trkpt>
      <trkpt lat="47.26304" lon="-2.31716">
        <ele>0.40000000596046</ele>
        <time>2021-12-02T11:50:37.000Z</time>
      </trkpt>
      <trkpt lat="47.26311" lon="-2.31711">
        <ele>0.40000000596046</ele>
        <time>2021-12-02T11:50:39.000Z</time>
      </trkpt>
      <trkpt lat="47.26322" lon="-2.31705">
        <ele>0.80000001192093</ele>
        <time>2021-12-02T11:50:42.000Z</time>
      </trkpt>
      <trkpt lat="47.26325" lon="-2.31703">
        <ele>1.2000000476837</ele>
        <time>2021-12-02T11:50:43.000Z</time>
      </trkpt>
      <trkpt lat="47.26328" lon="-2.317">
        <ele>1.6000000238419</ele>
        <time>2021-12-02T11:50:44.000Z</time>
      </trkpt>
      <trkpt lat="47.2633" lon="-2.31697">
        <ele>2.2000000476837</ele>
        <time>2021-12-02T11:50:45.000Z</time>
      </trkpt>
      <trkpt lat="47.26331" lon="-2.31693">
        <ele>2.5999999046326</ele>
        <time>2021-12-02T11:50:46.000Z</time>
      </trkpt>
      <trkpt lat="47.26342" lon="-2.31684">
        <ele>2.5999999046326</ele>
        <time>2021-12-02T11:50:50.000Z</time>
      </trkpt>
      <trkpt lat="47.26345" lon="-2.31683">
        <ele>2.5999999046326</ele>
        <time>2021-12-02T11:50:51.000Z</time>
      </trkpt>
      <trkpt lat="47.26351" lon="-2.3168">
        <ele>3</ele>
        <time>2021-12-02T11:50:53.000Z</time>
      </trkpt>
      <trkpt lat="47.26355" lon="-2.31678">
        <ele>3.4000000953674</ele>
        <time>2021-12-02T11:50:54.000Z</time>
      </trkpt>
      <trkpt lat="47.26358" lon="-2.31676">
        <ele>3.7999999523163</ele>
        <time>2021-12-02T11:50:55.000Z</time>
      </trkpt>
      <trkpt lat="47.26361" lon="-2.31675">
        <ele>4.1999998092651</ele>
        <time>2021-12-02T11:50:56.000Z</time>
      </trkpt>
      <trkpt lat="47.26365" lon="-2.31674">
        <ele>4.5999999046326</ele>
        <time>2021-12-02T11:50:57.000Z</time>
      </trkpt>
      <trkpt lat="47.26383" lon="-2.31664">
        <ele>4.5999999046326</ele>
        <time>2021-12-02T11:51:02.000Z</time>
      </trkpt>
      <trkpt lat="47.26401" lon="-2.31656">
        <ele>4.5999999046326</ele>
        <time>2021-12-02T11:51:08.000Z</time>
      </trkpt>
      <trkpt lat="47.26411" lon="-2.31645">
        <ele>4.5999999046326</ele>
        <time>2021-12-02T11:51:12.000Z</time>
      </trkpt>
      <trkpt lat="47.26411" lon="-2.31641">
        <ele>4.5999999046326</ele>
        <time>2021-12-02T11:51:13.000Z</time>
      </trkpt>
      <trkpt lat="47.26409" lon="-2.31613">
        <ele>4.5999999046326</ele>
        <time>2021-12-02T11:51:19.000Z</time>
      </trkpt>
      <trkpt lat="47.26409" lon="-2.31598">
        <ele>5</ele>
        <time>2021-12-02T11:51:22.000Z</time>
      </trkpt>
      <trkpt lat="47.26409" lon="-2.31593">
        <ele>5.4000000953674</ele>
        <time>2021-12-02T11:51:23.000Z</time>
      </trkpt>
      <trkpt lat="47.26409" lon="-2.31588">
        <ele>6</ele>
        <time>2021-12-02T11:51:24.000Z</time>
      </trkpt>
      <trkpt lat="47.26409" lon="-2.31583">
        <ele>6.4000000953674</ele>
        <time>2021-12-02T11:51:25.000Z</time>
      </trkpt>
      <trkpt lat="47.26409" lon="-2.31578">
        <ele>6.8000001907349</ele>
        <time>2021-12-02T11:51:26.000Z</time>
      </trkpt>
      <trkpt lat="47.2641" lon="-2.31554">
        <ele>6.8000001907349</ele>
        <time>2021-12-02T11:51:32.000Z</time>
      </trkpt>
      <trkpt lat="47.26416" lon="-2.31553">
        <ele>6.8000001907349</ele>
        <time>2021-12-02T11:51:35.000Z</time>
      </trkpt>
      <trkpt lat="47.26416" lon="-2.31554">
        <ele>6.8000001907349</ele>
        <time>2021-12-02T11:51:37.000Z</time>
      </trkpt>
    </trkseg>
  </trk>
</gpx>